GFSMW_sfc_wetblb_000.txt.gz
Wetbulb
67.14 68.11 68.96 70.26 70.21 70.80 71.67 72.39 72.62 73.19 72.98 72.37 71.68 71.48 71.16 71.73 71.72 72.01 72.30 72.38 71.91 72.27 71.79 71.24 70.41 70.13 69.41 69.11 68.66 67.93 67.35 67.01 67.12 66.44 65.96 65.72 65.53 66.50 66.24 67.83 68.56 67.26 68.26
64.71 65.87 67.45 69.16 68.62 69.25 71.25 71.87 72.68 72.87 73.24 72.63 72.05 72.24 71.64 71.68 72.16 72.26 72.25 72.63 72.49 72.05 71.03 70.68 69.91 70.03 69.11 68.25 67.63 67.37 66.40 66.74 67.62 65.43 62.74 61.40 63.07 64.44 65.73 66.74 66.93 65.41 66.24
64.13 64.93 65.86 67.84 68.69 68.37 70.14 71.14 71.80 72.69 73.33 72.78 71.63 71.99 72.33 72.47 71.67 71.80 72.33 72.72 71.81 71.69 71.48 70.53 70.05 68.80 67.74 67.38 66.85 66.45 66.23 65.49 66.49 66.70 64.38 60.14 59.09 61.91 64.12 65.03 64.93 64.87 65.62
65.34 65.46 65.39 66.30 67.91 68.35 70.08 70.99 71.34 71.93 72.56 72.59 71.55 71.32 70.53 70.03 70.68 69.66 71.12 71.24 70.75 70.30 69.77 68.95 68.13 67.50 67.23 66.76 66.74 67.79 67.10 66.38 64.81 65.82 66.29 65.31 64.39 60.68 59.53 62.34 62.69 63.05 63.36
64.80 65.06 65.62 66.79 67.70 68.91 69.44 70.32 70.57 70.78 71.93 72.44 72.49 71.50 70.45 70.70 67.23 66.88 68.49 68.67 67.59 66.69 67.61 67.25 67.11 67.40 66.40 66.09 66.52 67.03 66.72 66.29 65.48 64.81 64.47 63.83 62.83 62.79 60.21 57.85 59.45 60.80 63.27
65.02 65.72 66.47 67.24 67.56 68.92 69.46 70.05 69.87 70.43 71.71 72.21 72.03 71.51 70.84 68.15 65.44 65.18 66.52 65.29 64.23 64.44 65.83 66.78 67.69 66.91 65.71 65.89 66.19 66.33 66.09 66.23 66.34 65.71 64.85 63.30 61.15 60.92 60.70 59.45 59.01 58.98 60.65
65.38 65.08 65.19 66.14 67.09 67.96 69.00 70.10 70.17 70.00 71.64 71.96 72.19 72.29 71.55 67.88 65.76 64.87 65.05 62.74 62.24 63.84 65.21 66.27 65.54 65.09 64.56 64.95 65.51 65.98 65.58 65.52 65.56 65.56 64.45 64.04 63.44 63.15 62.11 60.49 59.28 58.67 59.39
65.56 65.62 65.86 66.52 67.28 68.25 69.04 70.05 70.23 70.10 71.65 72.51 72.61 72.96 71.45 67.37 65.55 64.48 63.29 63.05 63.13 64.07 64.96 64.58 64.97 63.32 63.66 64.93 65.85 65.01 64.95 65.21 65.76 65.18 64.37 64.29 63.89 63.44 62.76 61.00 59.13 54.75 55.29
65.26 66.11 66.57 66.95 67.34 68.29 69.14 69.78 70.28 70.83 71.41 71.89 72.33 70.30 68.91 65.10 64.12 63.65 63.40 63.33 63.77 63.81 64.14 64.04 64.22 63.32 63.45 65.54 65.49 64.72 65.24 65.42 65.64 65.49 64.92 63.81 64.12 62.94 62.37 61.74 60.42 57.28 53.28
65.13 65.89 67.08 67.52 68.11 68.75 69.75 70.37 70.97 70.93 71.24 71.14 70.30 68.99 66.70 64.36 63.22 63.02 63.04 62.26 62.57 63.54 63.69 63.85 63.68 63.68 63.89 65.01 65.05 64.27 64.68 64.85 64.61 64.50 64.34 64.60 64.47 63.18 61.93 60.48 60.30 58.67 56.91
63.94 64.99 67.06 68.45 68.70 69.10 69.61 70.10 70.72 71.03 70.87 70.10 68.63 67.02 64.59 63.67 63.23 63.28 63.76 62.83 62.32 63.05 63.50 63.50 63.54 63.85 63.78 64.57 64.04 63.95 64.58 64.52 64.76 64.76 64.36 64.39 64.41 63.23 61.61 60.99 60.25 58.96 57.73
63.48 64.56 66.71 68.13 68.45 68.46 69.17 69.80 70.67 70.97 71.33 70.13 67.71 65.77 64.39 64.08 63.71 63.88 64.11 63.73 63.11 62.87 63.57 63.79 63.94 64.38 64.73 64.47 63.90 63.81 65.05 64.34 64.21 64.50 64.08 63.88 63.60 63.12 62.50 60.39 60.46 60.12 59.22
61.15 63.36 64.99 66.47 67.20 67.52 68.82 69.65 70.39 70.74 71.43 69.85 66.10 65.00 64.18 64.49 64.23 64.25 64.14 63.68 63.09 62.81 63.21 64.01 63.71 63.51 63.39 62.70 62.94 63.75 64.08 64.04 64.06 64.10 63.66 63.55 62.67 62.09 61.57 60.94 60.38 60.51 60.26
60.73 62.13 63.16 64.75 65.98 66.26 67.49 68.86 69.83 70.63 70.33 68.51 65.86 64.98 64.42 64.23 65.09 64.85 64.47 63.81 63.68 63.20 63.13 63.22 63.37 62.97 62.38 62.65 63.27 63.59 63.62 63.51 63.59 64.25 64.15 63.16 62.21 62.02 62.25 61.55 61.30 60.86 59.87
58.04 60.83 62.67 63.32 64.02 64.47 65.71 67.74 68.93 69.75 69.49 67.63 66.19 65.98 65.76 65.95 65.18 64.51 64.72 64.28 63.55 63.72 63.63 63.15 62.85 63.08 62.80 62.97 63.71 64.01 63.70 63.55 63.94 64.52 63.75 62.87 62.54 62.65 62.58 62.28 61.96 60.12 59.40
58.48 59.30 61.32 62.33 62.69 63.75 64.55 67.06 68.22 69.05 69.31 67.92 66.94 67.40 66.50 65.74 65.33 65.65 65.54 63.97 63.66 63.31 63.40 62.67 63.21 62.82 63.10 61.63 62.30 64.38 64.09 64.41 63.77 62.98 62.39 61.15 60.81 61.24 61.10 61.70 62.39 62.14 60.62
58.90 58.14 58.95 60.64 61.49 62.31 64.44 65.85 67.70 69.10 68.86 68.33 68.37 67.31 65.22 64.60 64.57 65.13 65.01 64.04 62.82 62.92 62.52 62.89 62.98 62.96 64.02 60.15 60.30 62.56 64.52 62.89 61.74 61.48 60.88 59.94 60.90 61.31 60.04 59.50 59.82 60.84 60.89
58.90 58.49 58.79 60.50 61.49 62.24 64.06 65.70 67.36 68.44 68.55 68.22 68.37 66.21 64.96 64.29 63.94 63.45 62.87 63.79 62.96 62.38 62.72 62.78 63.13 62.89 63.34 59.28 58.91 61.25 63.94 62.97 61.63 60.46 59.80 59.63 59.69 59.00 59.07 59.27 59.30 58.67 58.21
59.89 61.38 61.33 61.22 61.99 63.33 64.65 65.72 66.74 67.82 68.02 67.88 66.99 66.07 65.52 65.12 65.38 63.96 63.62 63.59 63.68 63.30 62.87 63.59 63.44 62.83 62.99 58.33 58.10 59.76 62.82 61.97 61.24 60.02 58.74 57.69 58.82 57.01 56.01 57.73 56.95 56.16 56.35
59.20 60.14 61.90 62.59 63.81 64.43 65.50 65.40 65.74 66.99 66.98 67.06 66.88 66.76 65.83 64.25 63.77 64.47 64.56 63.90 63.89 63.77 64.07 63.45 62.77 60.46 62.48 58.09 57.82 58.64 61.48 60.15 58.46 57.86 58.38 56.06 55.39 53.45 52.57 55.60 54.59 54.41 54.77
61.88 63.18 64.21 64.57 64.60 65.03 65.56 64.62 64.83 65.73 66.99 66.70 67.08 67.70 66.94 66.03 65.49 64.16 63.35 62.86 63.83 63.69 63.08 61.92 60.78 61.94 62.45 62.70 57.00 54.34 59.31 58.50 57.42 56.89 56.47 55.86 52.71 50.93 50.03 50.09 54.31 53.38 53.76
61.37 63.07 63.77 65.01 65.34 64.98 65.60 63.73 64.52 65.19 65.96 66.18 65.96 65.24 65.28 65.62 62.97 61.56 61.71 62.10 61.56 60.62 60.61 61.48 59.35 58.94 61.53 55.65 55.61 52.61 54.80 55.72 56.95 55.89 54.16 54.04 48.88 48.91 49.29 51.78 50.39 49.93 51.33
62.12 64.61 65.47 64.74 63.98 64.05 64.78 63.00 62.82 64.76 64.88 63.45 62.93 64.07 63.89 63.60 62.51 61.66 61.53 61.36 60.87 60.55 60.76 61.02 61.13 61.94 57.74 55.03 51.12 51.33 50.99 52.50 52.80 52.44 51.28 49.15 47.09 46.75 50.11 50.30 50.38 49.82 50.92
62.04 63.57 63.54 62.05 61.35 62.42 63.01 63.20 63.94 64.51 63.31 62.11 62.54 63.03 62.81 62.14 61.71 61.89 62.57 61.57 60.73 59.48 60.60 61.45 60.61 59.05 55.67 54.05 53.03 52.20 52.02 51.22 51.17 48.90 49.14 50.70 50.84 50.46 50.08 49.57 48.62 49.36 49.52
61.97 62.60 61.77 61.65 61.97 62.59 62.26 63.36 64.00 62.80 61.68 61.61 61.03 61.00 61.31 62.20 62.15 61.53 59.81 60.85 58.81 56.75 61.07 60.28 59.43 56.81 54.45 52.52 49.29 49.27 50.61 50.75 48.40 47.18 51.55 51.83 50.46 47.85 47.24 46.10 46.06 46.65 46.80
61.96 61.38 61.24 62.00 61.56 61.72 61.89 62.01 62.98 63.04 62.41 61.48 60.45 59.92 60.96 60.87 60.03 54.08 51.96 46.03 45.14 45.14 44.06 46.15 51.93 51.62 48.12 44.17 42.78 41.27 40.66 40.39 41.80 48.53 50.34 47.99 45.39 45.39 44.23 43.73 43.30 43.96 43.60

GFSMW_sfc_wetblb_003.txt.gz
Wetbulb
71.48 72.88 73.70 74.50 74.98 75.51 75.65 75.98 76.05 77.00 77.16 76.12 75.45 75.59 74.40 76.23 76.36 76.91 77.12 76.76 77.09 76.55 76.55 76.38 75.09 74.87 73.80 73.89 73.34 73.05 71.81 71.24 72.37 69.63 68.35 70.17 70.53 69.24 69.96 69.94 67.62 66.96 68.55
70.41 71.61 72.88 73.43 73.98 74.71 75.34 76.05 76.42 77.27 77.38 76.79 77.04 76.45 76.29 76.36 76.32 76.97 77.19 76.88 76.41 76.63 76.33 75.64 74.30 73.96 72.70 72.97 72.50 72.10 70.65 70.99 72.21 68.77 67.87 64.06 66.66 69.59 68.49 67.43 64.43 66.04 66.55
68.76 70.09 71.01 72.39 73.37 73.75 74.75 75.50 76.71 77.66 77.47 77.73 77.11 76.68 76.69 76.73 75.70 75.98 76.04 76.37 76.63 76.42 75.84 75.16 74.27 73.81 72.71 70.61 71.94 71.28 70.60 68.67 71.06 70.47 67.50 63.42 62.34 64.28 68.36 67.67 65.50 65.41 65.10
68.88 69.75 70.27 71.20 72.47 73.37 74.58 75.94 76.64 77.47 77.77 78.08 76.62 76.37 74.59 73.52 74.90 76.03 76.29 76.48 76.71 75.48 75.15 74.78 73.36 73.18 71.98 72.30 71.98 71.68 71.95 71.26 68.45 70.09 70.36 69.53 67.67 62.71 61.91 66.08 65.75 65.17 63.74
68.15 68.78 69.80 70.81 72.33 73.44 73.60 74.70 76.69 77.29 78.31 78.02 77.90 76.01 75.49 75.39 76.19 75.42 75.18 76.46 76.01 75.23 73.93 73.19 72.79 72.65 71.79 72.01 70.98 71.84 71.46 70.83 69.19 68.23 68.76 68.26 67.71 67.35 63.36 59.26 61.73 64.68 65.85
68.29 69.28 70.48 71.05 71.65 72.90 73.33 74.03 76.00 76.85 76.92 77.06 77.14 76.63 76.41 75.96 75.20 74.54 72.62 73.13 73.96 72.78 72.38 71.87 72.43 73.00 72.44 71.17 70.35 71.11 70.45 70.23 69.83 69.44 68.58 65.96 63.95 63.93 62.98 61.33 61.85 61.77 63.60
67.93 68.52 69.31 69.95 70.86 71.72 72.76 73.56 75.20 75.62 75.62 75.97 76.59 76.63 76.38 76.83 76.17 75.61 73.48 72.77 72.19 71.41 70.65 71.41 71.83 71.78 72.12 70.64 70.65 70.58 70.30 69.91 68.90 69.93 67.72 67.83 66.41 66.64 65.59 63.77 62.27 61.67 63.21
68.08 68.50 69.67 70.81 71.10 71.74 72.46 73.14 74.39 74.98 75.34 75.12 76.57 77.12 76.98 76.20 76.06 75.93 73.93 72.45 72.33 71.84 71.49 71.14 71.58 71.94 70.63 69.81 70.12 68.93 68.57 69.82 69.05 69.81 69.81 67.64 67.72 67.54 66.76 65.14 63.28 60.78 61.48
68.08 68.79 69.77 70.54 71.41 72.08 72.97 73.77 74.47 75.13 75.37 74.68 76.41 76.23 77.20 76.79 76.34 75.80 73.83 72.45 73.13 71.00 70.73 70.80 70.99 70.52 68.82 69.33 70.19 67.86 68.43 69.27 69.54 69.53 69.97 68.67 68.09 68.15 67.83 67.37 65.76 62.95 59.26
68.39 69.18 70.29 70.89 71.86 72.31 73.32 73.79 74.65 74.79 75.40 75.01 75.66 75.72 76.28 76.64 76.57 75.86 72.89 71.69 71.79 70.97 70.60 70.46 70.01 69.61 68.82 68.71 69.99 68.59 68.86 68.84 68.00 68.24 69.34 69.28 68.46 68.59 69.28 67.96 66.60 65.21 62.37
68.40 69.76 70.60 71.08 72.06 72.63 72.86 73.57 73.58 74.64 74.59 75.04 76.05 76.26 75.91 75.97 76.21 73.67 73.18 69.14 70.13 70.66 70.07 70.09 69.41 69.26 69.03 69.38 69.27 69.48 68.63 67.96 68.52 69.38 69.11 69.09 69.84 67.82 67.61 67.66 67.13 65.11 64.15
68.96 69.52 70.21 70.73 71.28 71.97 72.23 72.79 73.43 73.41 74.74 75.73 75.82 75.32 75.47 72.51 72.15 73.17 68.38 69.33 68.35 70.00 70.05 69.83 69.51 69.39 69.34 69.66 69.24 68.49 67.25 67.68 67.69 67.95 68.69 68.19 67.91 68.38 68.42 66.92 66.80 65.47 65.94
67.54 69.07 69.73 70.39 70.84 71.60 72.85 72.51 73.50 73.71 74.29 75.17 74.43 74.36 73.67 72.58 73.50 66.63 69.03 67.44 67.57 67.59 68.57 68.90 68.80 68.95 69.30 69.72 69.97 69.17 68.04 68.24 68.16 68.15 68.16 68.15 68.29 67.79 66.44 66.76 65.53 64.90 66.24
67.19 68.27 68.98 71.06 72.06 72.83 73.27 73.37 73.42 74.01 74.36 74.24 74.20 74.22 72.65 72.35 68.82 68.50 65.94 67.03 66.65 66.90 66.88 68.00 69.30 69.11 69.51 69.28 68.70 67.78 67.79 68.34 68.20 68.63 68.61 68.57 68.10 67.42 67.10 66.16 66.20 65.79 64.89
65.62 67.63 68.33 70.73 71.87 72.57 72.46 72.94 73.13 74.00 74.79 74.75 73.81 73.23 72.80 71.95 69.43 66.29 65.48 64.96 65.51 65.62 65.60 66.43 68.15 68.75 68.22 67.69 67.95 68.09 68.10 68.71 68.60 68.84 69.34 69.21 68.34 65.49 64.97 64.38 65.58 65.48 63.91
64.80 66.82 68.47 68.89 69.55 70.67 70.80 71.47 72.24 73.27 74.21 73.82 73.19 72.98 72.00 69.71 68.78 68.62 65.74 65.25 64.96 65.09 66.36 66.66 66.49 67.15 66.53 62.97 62.57 66.34 68.25 68.85 68.95 68.20 68.67 68.90 65.39 64.61 62.54 62.23 62.62 63.50 63.60
65.16 66.18 67.44 68.54 69.23 69.67 70.65 70.35 71.41 72.69 72.78 72.87 72.76 71.75 70.50 68.75 69.35 68.61 68.02 66.11 63.60 64.66 65.80 66.87 66.06 67.62 67.56 61.69 61.24 63.42 67.86 68.33 68.35 67.57 67.53 67.11 65.82 63.90 65.00 62.45 60.93 61.01 60.93
65.91 66.08 65.88 67.32 68.61 69.08 69.45 70.76 71.56 72.27 72.39 72.29 71.89 71.14 69.97 69.11 68.82 69.17 68.08 67.14 65.11 65.32 67.15 67.48 68.04 67.67 68.29 60.16 59.18 61.66 67.21 66.24 67.21 67.41 67.36 66.56 65.96 65.25 62.61 62.88 62.41 63.04 63.84
66.19 66.93 67.27 67.90 68.53 68.23 69.52 70.15 70.59 71.46 71.74 71.46 71.56 70.33 69.48 69.21 68.68 68.59 68.50 68.02 66.79 66.91 67.08 66.71 67.17 67.45 67.54 58.96 58.51 62.00 65.33 65.24 64.01 66.60 66.58 64.68 63.91 59.15 56.55 59.51 60.67 61.64 61.78
67.26 67.17 68.14 68.32 69.16 69.23 69.86 70.18 70.10 70.70 70.91 71.36 71.51 70.58 69.52 68.91 67.99 68.77 68.73 68.01 67.83 66.22 66.40 66.76 67.82 64.10 67.01 57.32 57.30 61.73 62.55 63.17 62.79 65.40 63.49 57.23 59.25 54.10 53.98 59.60 60.60 59.51 60.17
67.28 68.93 69.34 69.08 69.67 70.83 71.05 70.61 70.70 70.64 71.86 71.83 70.86 70.29 69.98 69.54 69.66 69.67 68.62 67.61 67.27 66.73 67.03 66.42 67.39 66.92 66.45 64.80 55.19 55.01 63.92 63.69 63.25 63.58 63.07 61.99 53.09 51.38 51.06 51.11 59.94 57.81 55.64
67.92 69.59 69.66 70.24 70.56 71.34 71.82 70.86 70.54 71.15 70.59 71.14 69.16 69.27 69.18 69.06 68.50 68.54 67.45 67.52 67.17 67.03 66.65 66.38 66.25 64.84 66.61 56.60 56.34 54.30 54.81 60.01 63.44 63.50 63.11 59.65 49.77 47.74 50.05 52.80 50.98 50.53 51.36
68.59 69.62 69.49 69.51 69.82 70.64 71.10 69.54 69.00 68.53 69.34 68.88 67.70 68.44 68.56 67.54 67.48 66.61 66.48 65.68 66.17 65.37 65.10 64.36 63.48 63.54 64.21 63.28 52.74 51.49 52.01 54.21 60.50 60.67 52.24 48.62 47.40 47.33 49.64 51.90 50.74 49.83 55.46
68.25 69.48 69.93 69.18 68.24 68.61 68.29 68.67 68.93 69.85 69.09 67.59 67.79 68.51 68.73 67.56 67.08 66.70 66.12 65.03 64.56 62.99 62.12 62.76 63.14 63.99 63.44 62.32 60.48 58.56 57.00 51.84 56.13 52.97 56.57 52.68 51.80 50.59 53.64 53.01 53.14 54.58 53.78
68.12 69.12 69.50 69.35 68.66 68.67 69.00 69.11 69.52 69.56 68.67 68.06 68.15 67.78 67.79 66.40 66.25 64.01 62.64 64.52 64.83 59.82 63.41 63.47 64.77 64.37 63.17 61.52 55.64 55.30 58.76 59.48 52.93 53.82 57.79 57.46 57.02 56.12 55.77 54.94 54.22 53.40 52.51
68.40 68.69 68.87 67.72 67.14 68.08 68.30 68.56 69.56 69.48 68.65 67.53 66.91 66.21 65.24 64.55 64.08 61.63 58.80 45.07 45.50 45.20 45.06 45.24 58.15 58.89 49.53 44.92 43.49 43.17 42.63 40.92 43.02 54.15 55.25 55.03 54.65 54.36 54.00 52.89 52.11 51.82 49.41

GFSMW_sfc_wetblb_006.txt.gz
Wetbulb
71.86 73.44 74.40 75.06 75.32 76.22 76.77 77.37 77.24 78.16 78.62 77.08 75.16 75.23 74.68 75.84 76.38 77.33 78.36 78.40 77.69 77.74 77.60 75.99 76.31 76.29 75.03 74.66 73.78 72.01 71.16 68.89 72.32 68.26 69.36 70.00 71.27 71.35 72.49 71.21 68.09 68.81 69.93
71.10 72.69 74.09 74.53 74.95 75.71 76.84 77.51 77.82 78.16 78.46 76.83 77.04 76.68 76.44 75.94 76.69 77.24 77.96 78.08 78.06 78.18 77.03 76.96 76.22 76.37 73.71 73.89 72.11 71.63 69.28 69.88 71.42 67.77 67.19 64.64 67.27 69.09 69.75 68.92 66.57 66.94 67.60
70.50 71.81 72.76 73.75 74.73 75.13 76.62 77.34 78.14 78.66 78.97 79.08 77.55 77.52 77.35 77.65 76.19 76.59 76.94 78.20 78.22 78.18 77.72 77.26 76.02 75.13 72.04 69.81 72.25 71.70 70.01 67.61 71.43 70.66 67.17 63.55 63.19 64.62 67.87 68.36 67.00 66.96 66.17
71.51 72.18 72.40 73.17 74.02 75.01 76.71 77.83 78.43 79.04 78.99 79.53 78.35 78.60 75.61 73.89 74.33 75.59 75.69 77.24 78.33 77.94 77.61 76.63 75.10 72.94 71.38 72.49 71.72 72.07 70.76 70.38 68.22 69.66 69.86 69.93 68.53 63.23 63.09 66.30 66.58 68.36 67.24
70.64 71.32 72.33 72.99 74.34 75.07 75.90 77.31 78.54 79.18 79.62 79.30 79.95 77.67 77.02 75.33 75.15 75.12 76.97 77.62 77.45 77.68 75.99 76.43 73.80 72.53 71.33 72.70 72.82 71.70 71.05 70.59 68.29 67.85 68.73 69.55 67.56 68.73 63.76 60.73 64.35 67.02 67.44
69.36 71.13 72.47 73.04 73.66 74.93 75.62 76.30 78.04 79.30 79.44 79.23 79.10 78.66 78.04 76.80 74.63 75.79 74.42 73.67 74.11 75.51 76.28 75.88 74.14 72.91 72.04 72.32 71.85 71.35 70.77 70.33 69.78 69.04 69.56 66.40 65.03 64.93 63.93 61.87 63.13 63.39 65.46
69.10 69.86 71.01 71.98 73.12 73.85 74.75 75.75 77.30 77.93 78.76 78.75 78.53 78.46 78.29 77.81 77.33 76.62 74.52 74.52 72.34 72.82 74.68 75.84 73.91 71.97 73.16 72.43 71.73 71.10 70.26 70.15 69.36 69.88 67.96 68.44 67.13 66.79 65.38 63.98 62.90 62.59 65.04
69.03 69.63 70.80 71.69 72.78 73.57 74.52 75.32 76.69 77.58 78.15 78.20 78.80 79.67 79.11 77.74 77.17 77.32 75.03 73.38 72.33 72.21 74.11 75.31 73.72 72.80 72.34 72.15 70.94 69.29 69.14 69.98 69.18 69.51 69.89 67.81 67.76 67.07 66.43 64.92 64.01 62.38 63.20
69.33 69.30 70.70 71.86 72.78 73.62 74.92 76.28 77.54 77.39 77.52 77.71 78.31 79.02 79.28 78.51 77.80 78.20 77.34 74.85 75.48 72.44 74.40 74.34 73.11 71.82 72.18 71.10 70.73 68.60 69.25 69.05 69.26 68.90 69.35 68.73 67.03 66.84 67.05 67.11 66.69 64.33 60.50
69.69 69.76 70.42 71.47 72.79 73.84 74.79 75.75 76.46 77.19 77.39 77.55 77.70 77.59 78.09 78.50 78.37 78.20 77.67 76.96 75.93 75.33 73.91 73.33 71.76 71.47 71.11 70.38 70.64 69.34 69.70 69.13 67.12 66.50 68.11 69.05 67.73 67.86 67.87 67.61 66.89 66.11 64.02
69.73 70.36 70.49 71.61 72.92 73.62 74.30 75.16 75.90 76.39 76.81 77.25 78.17 77.77 77.48 77.76 78.34 78.01 77.87 77.53 76.80 75.01 73.57 72.86 71.27 71.03 70.22 70.24 70.12 69.98 68.84 68.08 68.15 68.02 68.62 69.07 70.42 68.12 66.76 66.84 66.32 65.38 64.88
70.25 71.13 71.65 72.01 72.45 73.24 73.68 74.26 75.16 75.84 76.67 77.97 78.49 77.38 77.58 77.66 77.59 78.12 77.07 76.03 76.34 73.96 73.08 71.92 70.97 71.20 70.35 70.30 70.01 68.97 68.24 67.67 67.20 67.77 68.62 68.82 68.39 69.41 69.45 67.42 68.19 66.80 66.89
70.14 71.41 71.84 72.19 72.72 73.07 74.17 74.28 75.18 75.55 76.22 77.06 77.00 76.90 76.69 77.08 77.34 77.45 76.60 76.58 74.18 71.50 70.11 69.81 70.17 70.62 69.90 70.18 70.45 70.14 69.50 68.42 67.99 68.44 68.46 68.53 68.82 68.53 67.62 67.65 66.11 65.54 65.49
69.94 71.18 71.66 72.66 73.32 74.49 76.29 76.28 75.14 75.90 76.25 76.46 76.76 77.19 76.85 76.75 76.94 76.92 73.70 71.62 71.82 70.07 68.21 68.70 69.08 69.00 70.37 70.29 70.17 69.71 69.74 68.52 67.61 68.70 68.74 68.97 68.98 68.28 68.15 67.24 67.62 67.29 65.82
69.21 70.57 71.41 73.62 75.36 75.60 76.16 76.01 75.82 76.23 76.63 76.48 76.42 76.83 77.77 77.54 76.61 75.50 73.32 70.90 70.46 69.93 66.13 67.93 67.02 68.95 69.78 67.99 69.80 69.42 68.53 68.13 68.29 69.05 69.18 69.64 69.45 66.91 66.76 66.44 68.00 67.20 64.99
68.98 70.77 72.01 73.02 73.92 74.40 75.16 75.57 75.83 76.19 76.91 76.70 76.35 77.42 77.31 76.97 75.94 74.44 72.42 71.49 70.15 68.83 67.97 66.63 66.52 67.10 67.94 63.84 63.65 67.27 68.52 68.80 68.91 68.58 69.69 70.18 68.34 67.16 64.41 63.43 62.99 63.84 64.16
69.27 70.22 71.67 72.79 74.14 74.56 75.59 75.00 75.60 76.29 76.25 76.28 76.56 76.95 76.88 75.54 74.43 73.21 72.11 70.52 69.46 68.83 68.72 68.43 67.61 67.47 69.23 62.12 62.14 63.86 67.96 68.57 68.96 69.75 69.55 68.30 66.28 66.29 68.20 64.48 62.12 61.89 61.09
69.71 70.52 71.35 72.78 73.74 74.26 74.40 74.89 75.21 75.36 75.60 75.80 75.77 76.13 75.70 74.48 73.68 72.79 71.33 70.52 68.68 68.37 69.07 69.56 68.97 68.49 69.23 62.07 60.92 63.45 68.65 69.43 70.10 69.52 68.65 67.86 65.79 66.34 66.97 66.89 65.69 65.08 65.42
71.22 71.29 71.81 72.68 73.51 73.01 73.89 73.78 73.77 74.29 74.38 74.47 74.72 75.12 74.73 73.53 71.76 71.18 71.03 71.40 69.52 69.02 69.75 70.24 69.77 69.30 69.64 58.71 58.78 63.00 68.64 68.80 68.78 67.03 67.16 66.44 66.48 61.76 58.60 63.42 63.55 64.09 64.30
70.38 70.64 71.14 71.94 71.99 72.30 72.87 72.82 72.82 73.54 73.69 74.32 74.63 74.84 74.16 73.60 72.01 71.62 71.80 71.13 70.69 69.70 69.12 69.29 69.78 66.62 70.14 57.54 57.05 61.34 67.98 67.74 66.14 64.72 65.74 60.06 62.27 55.83 55.54 61.50 62.56 61.55 62.47
70.56 71.34 71.20 70.54 71.62 72.20 72.82 72.31 72.83 72.90 74.25 75.00 75.09 74.36 73.78 73.40 73.39 72.61 71.44 71.01 70.03 69.42 69.87 69.05 69.72 69.46 66.45 67.98 55.67 56.01 66.82 65.47 64.60 64.96 67.10 66.58 55.35 53.17 52.29 52.45 61.54 60.13 59.07
69.51 70.09 70.73 71.69 72.80 73.53 73.75 73.10 73.47 75.00 75.36 75.21 74.36 72.46 72.75 71.83 72.14 71.47 69.91 68.60 69.11 69.36 68.56 69.86 69.77 69.87 70.57 59.82 55.24 54.23 56.68 61.35 65.82 67.25 66.26 59.81 50.98 49.75 50.74 52.77 52.84 51.98 52.04
69.09 70.33 71.06 72.07 73.22 74.32 74.35 73.81 74.83 74.90 74.68 72.51 71.07 71.41 72.24 70.76 70.32 68.94 67.55 67.32 68.60 68.21 67.49 67.71 67.62 69.46 68.48 62.77 54.15 52.78 53.08 56.08 64.85 67.17 54.25 50.26 48.54 48.00 48.65 52.19 52.46 50.44 58.29
69.64 70.52 70.78 71.54 72.17 73.16 73.87 74.39 73.28 73.71 73.67 72.19 71.89 70.58 69.68 69.99 69.48 68.90 68.75 68.51 67.91 67.24 68.97 68.19 65.65 65.25 65.68 64.84 64.12 59.07 60.59 53.86 58.92 53.71 58.56 55.77 53.01 50.55 53.08 55.54 54.26 58.47 58.73
70.12 70.31 70.54 71.54 71.70 72.53 72.72 72.87 72.78 72.38 71.13 70.36 70.43 69.24 68.86 68.28 69.11 65.83 61.60 67.66 64.09 61.91 66.83 65.58 64.04 62.85 65.73 64.75 59.06 59.01 63.84 63.90 56.79 59.83 61.34 60.12 60.05 59.31 59.43 59.32 58.84 58.40 57.08
70.69 70.82 71.16 71.68 71.97 72.27 72.32 72.69 71.84 72.18 70.97 69.23 68.99 69.07 69.56 69.56 68.65 66.87 63.99 44.81 46.11 45.71 45.93 45.39 56.95 60.44 51.86 45.88 43.62 42.61 42.98 44.63 45.50 56.43 58.96 58.59 58.88 58.15 58.13 57.62 56.74 56.06 53.84

GFSMW_sfc_wetblb_009.txt.gz
Wetbulb
71.42 72.77 73.85 74.48 74.58 75.48 76.00 77.48 77.81 80.27 78.22 76.15 76.97 75.67 74.75 76.09 75.98 76.16 78.71 78.76 78.12 78.93 77.56 76.73 76.80 76.57 76.08 75.29 73.67 71.90 71.66 69.37 71.34 68.15 69.11 69.24 70.49 70.53 70.81 69.30 68.39 68.91 69.39
69.91 71.98 73.41 73.96 74.21 75.07 76.29 78.42 78.96 80.37 79.42 77.33 77.70 77.41 75.49 75.55 75.55 76.43 79.30 78.37 77.90 78.62 77.75 78.19 76.39 76.73 74.01 73.89 72.44 71.62 69.21 69.18 70.78 67.43 66.77 64.74 67.63 71.02 68.76 68.20 67.46 67.55 67.88
68.26 70.90 72.33 73.48 74.17 74.83 76.50 78.28 80.05 80.49 80.38 79.86 79.07 78.67 79.62 77.50 76.80 76.25 76.93 77.62 78.19 78.10 78.40 77.48 77.17 76.16 73.61 68.69 72.55 71.76 70.42 67.64 70.22 71.04 67.20 63.87 63.17 66.30 68.82 68.78 67.26 67.65 66.83
69.28 70.41 72.11 73.28 73.80 75.15 76.51 79.07 80.41 80.86 80.63 80.99 78.64 78.92 75.47 73.64 73.49 74.85 75.15 76.86 78.64 77.70 77.87 77.74 75.65 75.05 71.54 74.40 72.17 71.07 70.94 70.55 68.48 68.94 68.88 69.34 68.13 63.69 62.73 67.59 67.35 67.49 66.97
69.48 69.78 71.56 73.14 74.29 75.09 75.66 77.84 80.58 81.09 81.38 80.48 79.64 77.21 76.69 74.72 74.89 74.06 78.98 79.35 79.82 77.05 76.11 76.15 75.12 73.37 70.45 73.12 72.89 71.61 71.62 71.14 68.37 67.96 67.46 69.96 66.78 67.66 63.31 61.43 64.03 66.89 67.41
69.38 71.01 71.86 73.14 73.74 74.84 75.64 77.38 80.12 80.91 81.33 81.18 79.47 79.58 79.35 77.45 74.80 75.24 74.66 74.88 74.95 75.61 76.25 75.08 75.06 73.84 72.42 72.64 72.10 72.20 71.52 71.06 70.76 69.37 69.19 66.81 65.02 64.85 64.31 62.42 64.15 63.72 65.73
69.31 69.94 71.35 71.90 73.71 75.28 76.28 77.42 79.74 80.48 81.01 80.09 80.10 80.00 80.11 80.44 79.13 77.78 75.04 76.74 72.79 73.48 77.03 76.61 75.34 73.17 73.51 73.04 72.79 72.40 71.73 70.62 69.49 70.49 68.60 70.23 67.65 67.13 65.41 63.96 63.11 62.93 65.31
70.04 69.24 70.69 72.66 74.76 74.89 76.89 77.49 78.73 80.14 80.87 80.35 80.68 81.02 80.85 77.13 76.49 77.78 76.14 73.99 73.29 74.02 78.03 75.58 75.01 73.92 72.92 72.75 72.72 70.15 69.37 71.55 69.68 69.60 71.18 68.19 68.63 68.21 66.39 64.95 64.89 62.73 62.35
69.51 69.80 70.09 71.45 73.69 74.42 76.47 77.46 78.70 79.72 80.32 78.81 81.11 80.94 80.76 80.27 77.41 78.96 79.21 76.15 77.16 74.16 74.72 75.31 74.57 73.64 72.29 72.77 72.29 69.19 70.98 70.40 70.41 70.63 71.23 69.00 67.75 67.15 66.72 66.91 69.09 65.24 60.26
69.21 70.15 70.23 71.01 73.01 73.64 75.71 77.57 78.81 79.33 79.14 79.57 79.95 79.52 79.91 80.74 80.56 81.16 80.00 78.27 77.73 77.59 76.25 75.68 74.50 73.24 73.23 73.21 72.85 71.44 71.65 70.69 68.98 67.54 71.04 71.04 67.79 68.29 67.52 67.96 66.85 65.78 63.50
68.46 70.16 70.50 71.08 72.35 73.12 74.71 75.86 77.10 78.60 78.99 79.43 79.44 79.68 79.06 79.57 80.47 79.94 79.80 79.84 78.72 78.43 76.77 76.26 75.02 72.90 72.15 72.25 72.68 71.70 70.69 70.54 70.86 70.83 69.21 70.11 71.46 67.69 67.05 66.69 66.49 64.78 65.15
68.31 70.16 70.96 71.26 71.62 72.95 73.05 73.97 74.99 75.35 77.64 78.90 79.89 79.71 79.93 79.80 79.22 79.95 80.23 80.09 78.69 78.61 76.97 75.99 74.37 72.97 70.74 68.71 71.92 70.26 70.17 68.63 68.34 68.73 70.09 69.11 68.25 71.39 71.67 67.51 70.56 68.92 68.57
67.26 69.80 70.69 71.26 71.91 72.47 73.66 72.96 74.67 74.16 75.54 78.02 78.10 79.14 78.90 79.52 79.33 79.76 79.87 79.71 79.46 78.32 75.98 75.63 74.31 72.25 72.16 72.24 72.30 71.92 69.30 69.65 69.62 69.73 70.11 69.59 70.69 70.79 68.76 69.85 67.57 67.07 67.43
68.91 69.47 71.02 72.53 73.49 74.43 74.99 74.69 74.34 73.93 74.80 76.06 76.34 78.08 78.90 79.15 79.22 80.15 79.71 79.96 79.07 78.31 75.81 74.98 73.42 72.59 71.89 71.81 71.64 71.48 71.13 71.32 70.76 70.69 70.60 70.51 70.12 70.13 70.42 69.35 70.21 68.84 67.00
68.98 70.51 71.38 74.75 75.97 75.97 76.36 76.40 75.70 76.43 75.94 77.32 77.15 78.14 79.83 79.92 79.84 79.43 80.04 79.55 78.88 77.77 75.43 74.53 72.49 71.95 70.66 70.08 71.34 70.69 69.86 70.09 69.88 69.90 69.73 70.41 70.20 68.01 67.99 68.42 67.75 68.79 66.00
65.29 70.51 71.94 73.21 75.96 76.58 77.58 77.34 77.06 77.50 77.59 78.43 78.06 79.35 80.46 80.02 79.82 79.85 79.95 78.68 77.49 76.29 74.95 72.17 70.26 69.07 68.21 64.51 64.80 69.08 68.58 71.23 70.25 69.36 70.77 70.96 68.77 67.73 65.24 64.86 64.24 64.24 65.67
65.31 70.00 71.68 73.19 75.26 75.00 77.73 77.65 78.31 78.50 78.53 79.27 79.98 80.47 81.11 80.32 80.28 79.47 78.06 76.65 74.86 74.91 73.32 71.16 68.24 67.96 70.15 62.51 62.73 64.63 69.06 69.75 70.41 71.03 70.16 69.25 68.76 67.45 67.68 65.22 63.20 62.76 62.14
66.48 69.05 71.21 73.48 76.06 75.63 75.82 77.53 77.33 79.23 79.50 79.73 79.66 80.66 80.75 79.91 79.58 78.06 76.51 74.79 74.08 73.69 72.13 70.30 69.84 70.40 70.74 62.48 61.16 64.29 69.07 69.74 69.58 71.23 71.50 71.19 70.44 69.10 67.91 67.38 65.05 65.53 67.56
66.68 70.01 72.48 74.10 77.48 76.69 78.11 78.20 76.78 77.74 77.66 77.37 78.49 79.30 78.65 78.09 77.45 75.83 75.22 74.12 72.90 72.48 70.48 69.54 68.92 69.97 71.30 59.95 59.37 63.73 68.95 68.34 70.30 71.16 71.40 70.34 69.16 64.97 60.78 64.94 63.06 63.23 64.46
67.25 71.77 73.06 74.67 75.60 77.19 76.39 76.15 75.46 75.77 75.81 77.05 77.04 78.47 78.42 77.33 75.81 75.47 74.71 74.12 73.98 71.97 70.93 69.46 69.89 67.88 71.07 58.51 57.72 62.58 66.52 66.95 68.24 69.27 70.75 62.26 64.36 57.32 57.31 63.40 62.82 63.10 64.09
71.99 73.81 74.28 75.37 76.30 77.10 75.48 75.80 75.40 74.38 75.20 76.16 76.41 76.97 76.66 76.59 76.19 75.05 74.86 73.89 73.10 71.68 70.13 68.93 70.73 72.02 70.68 69.67 55.70 56.24 66.72 67.94 67.91 67.61 67.14 66.93 55.72 54.95 53.43 54.03 62.75 61.96 60.30
71.86 72.47 73.41 74.25 74.98 76.03 75.93 75.68 75.76 77.39 77.97 77.48 76.48 76.19 76.00 74.95 73.82 73.37 73.83 72.92 71.72 70.53 70.50 70.76 70.85 70.82 72.50 61.55 55.88 54.57 55.72 61.53 66.87 67.89 67.23 66.11 54.68 54.56 52.71 53.58 55.09 53.90 53.53
71.79 72.24 71.88 73.73 74.34 76.27 76.66 76.19 78.11 78.25 77.58 76.63 76.25 75.07 74.01 73.72 73.75 73.57 71.89 69.49 70.00 68.55 69.20 67.81 69.10 70.88 71.99 69.08 56.18 54.17 54.99 56.02 62.44 64.29 54.39 53.24 51.32 50.78 50.09 50.84 54.19 53.00 57.87
71.05 71.46 71.89 72.66 73.73 75.84 75.65 76.71 76.43 76.75 75.86 73.98 72.59 72.32 72.00 71.09 71.22 70.83 69.75 68.42 67.92 68.29 69.34 68.92 68.98 68.99 68.63 67.97 65.81 61.25 62.06 56.22 58.35 56.50 59.67 57.39 55.88 52.96 55.65 56.27 55.51 58.25 59.23
71.34 72.05 71.65 71.84 72.50 74.10 74.56 74.55 75.22 75.53 73.78 73.73 72.53 71.46 70.91 70.36 68.77 66.47 65.69 68.10 65.33 63.72 68.05 68.58 68.60 66.41 64.77 65.04 59.35 58.89 61.95 64.73 59.82 62.57 63.17 61.45 61.15 60.80 60.39 59.95 59.84 58.99 60.00
70.53 71.54 71.44 72.17 72.93 73.37 73.51 74.14 74.28 74.34 72.86 71.52 71.12 70.41 69.94 69.04 68.23 65.85 61.29 45.44 46.97 44.78 44.66 46.64 57.07 62.29 51.31 45.71 43.96 43.03 45.01 46.64 48.49 60.06 60.33 60.18 60.11 59.67 59.44 59.79 59.65 59.37 57.41

GFSMW_sfc_wetblb_012.txt.gz
Wetbulb
70.30 71.96 72.74 73.34 73.75 75.19 76.27 76.42 76.53 78.93 79.00 77.78 75.50 75.93 75.94 75.94 76.30 76.97 78.92 77.65 79.07 79.61 79.51 78.06 77.43 76.07 76.15 71.26 73.01 73.29 71.15 71.00 71.37 69.60 68.27 69.43 70.35 70.50 70.39 67.96 67.74 68.24 69.39
68.83 71.11 72.42 72.86 73.34 74.68 75.46 76.84 76.99 79.04 78.68 78.06 77.59 76.75 76.39 76.60 75.09 77.05 77.63 78.93 78.57 79.41 77.27 77.47 77.13 75.78 75.47 74.28 73.07 72.41 70.62 70.17 71.84 67.92 67.54 63.88 66.32 68.22 67.00 67.58 66.41 66.62 67.74
67.16 70.24 71.73 72.32 73.62 74.11 75.60 76.71 77.59 78.34 78.13 78.76 77.51 77.74 77.24 78.46 76.34 76.92 77.70 77.98 78.82 77.81 75.62 77.58 77.49 76.88 74.81 72.94 73.24 72.71 71.92 68.30 71.08 70.56 67.89 64.29 62.29 65.78 68.11 67.93 66.43 66.91 66.35
68.32 70.04 71.42 72.58 73.25 74.31 76.33 77.30 78.01 78.07 78.81 78.23 77.24 76.40 74.39 74.67 75.46 75.10 76.34 77.49 78.54 78.45 78.74 78.04 77.43 76.27 74.21 74.55 73.22 72.73 71.00 71.84 68.12 69.64 69.47 69.14 67.53 63.53 62.75 67.31 66.85 67.23 66.58
68.12 68.80 71.11 72.54 73.59 74.95 75.79 76.80 78.15 78.34 78.55 78.41 77.61 76.74 76.07 75.09 76.06 76.13 78.71 77.16 78.00 78.03 77.25 77.94 76.97 74.97 73.01 74.93 73.05 72.24 71.40 71.78 70.05 68.22 69.15 69.30 68.37 67.64 62.96 61.19 63.99 66.32 66.80
68.83 69.66 71.68 72.97 73.43 74.73 75.98 76.16 78.14 78.26 78.58 78.90 77.60 78.21 75.66 75.13 75.17 75.36 76.05 76.11 76.61 76.58 78.03 76.50 75.96 74.94 73.22 73.93 73.15 73.31 72.89 71.13 71.58 70.32 70.03 68.44 66.48 64.08 65.21 63.45 63.04 63.02 65.33
69.12 69.66 70.53 71.83 73.09 73.81 75.03 76.06 77.70 77.69 78.55 78.85 78.24 77.52 77.84 76.53 76.91 79.17 76.43 75.61 74.34 74.93 76.16 76.20 75.03 74.00 74.04 74.90 73.68 73.31 73.10 71.53 70.42 71.40 69.30 68.22 67.56 67.97 66.88 64.59 63.22 62.61 65.21
69.35 69.90 70.80 71.90 73.14 73.62 74.94 75.82 77.02 77.33 78.64 78.12 78.65 78.49 78.20 77.84 77.19 77.56 77.12 76.17 75.12 74.42 75.12 75.02 74.53 74.77 73.24 73.19 73.21 72.08 70.25 71.23 70.66 69.53 70.42 69.32 68.85 68.65 66.32 65.80 64.37 61.49 62.67
69.53 69.44 71.49 71.83 73.54 73.66 74.60 75.59 77.29 77.88 78.71 78.64 78.90 78.79 78.37 78.10 77.50 77.41 77.36 77.62 76.50 77.36 74.63 74.57 75.14 73.91 73.17 73.31 73.81 70.24 69.98 71.86 71.70 71.04 70.15 69.17 68.05 68.08 68.23 68.01 66.39 63.83 59.79
69.45 70.24 70.32 72.27 73.51 74.47 75.06 76.22 77.12 77.84 78.93 78.93 78.73 78.59 78.93 78.39 77.61 77.57 77.51 76.02 77.20 76.25 75.49 75.08 74.57 73.67 72.77 71.48 72.16 69.74 71.60 70.00 70.27 69.77 69.73 69.25 68.95 68.77 68.42 66.46 66.31 65.95 63.22
67.10 69.64 70.54 71.52 73.43 74.81 74.81 75.68 76.07 77.70 78.45 78.74 78.59 78.67 78.62 78.79 77.91 78.36 77.38 77.82 76.72 76.18 75.58 74.94 74.00 73.41 72.12 72.23 71.48 70.52 69.34 69.47 69.29 69.30 69.59 68.93 70.15 68.42 67.64 68.81 67.57 65.52 64.68
67.06 68.90 71.07 71.08 72.09 73.20 74.03 75.06 76.04 77.10 78.01 78.43 78.43 78.31 78.64 78.64 78.36 77.37 78.45 77.60 78.22 77.03 75.48 75.20 74.10 73.18 70.97 71.91 70.01 68.90 68.76 69.86 68.88 68.76 68.94 68.15 68.38 69.17 69.30 68.73 67.34 67.09 67.52
71.61 69.04 70.00 70.71 71.25 72.07 73.20 74.60 75.52 76.24 77.91 78.01 77.82 77.83 77.95 78.06 77.99 78.28 77.47 78.89 77.65 76.68 75.05 74.98 73.95 72.97 70.63 71.17 70.08 69.37 69.44 69.36 67.74 68.42 68.32 67.56 68.53 69.10 68.65 68.42 67.35 66.69 66.60
70.37 70.29 70.38 71.67 71.53 72.09 72.82 73.76 74.82 75.88 76.88 77.28 77.18 77.05 77.33 77.61 77.70 78.11 78.47 78.00 78.06 76.70 76.25 74.70 73.96 73.33 71.08 70.37 69.68 70.14 69.98 69.56 68.42 69.76 69.34 68.64 67.66 68.88 68.66 67.82 68.45 67.75 66.95
69.46 71.65 72.78 73.09 72.39 72.69 72.97 73.37 74.03 74.48 75.13 75.86 76.48 76.76 77.82 77.92 78.15 77.86 78.37 78.42 78.08 77.77 77.22 75.62 74.22 73.81 71.32 70.33 70.50 70.52 70.00 69.54 68.25 70.47 69.37 69.56 70.17 68.69 68.29 68.87 67.59 67.79 65.84
67.22 70.55 72.07 75.49 75.55 73.57 73.16 73.14 73.36 73.69 74.63 74.57 75.15 76.43 77.24 77.89 77.41 77.92 77.77 78.30 78.16 78.16 77.21 75.73 73.77 72.81 70.96 65.47 65.78 69.63 69.81 69.93 68.04 68.85 69.86 69.51 68.49 67.18 65.46 64.26 64.62 66.66 65.31
66.63 71.23 72.37 73.29 75.35 75.40 74.56 73.26 73.42 74.66 74.00 74.93 75.47 75.82 76.95 77.47 77.70 77.80 77.78 77.92 77.79 77.86 76.63 75.95 73.57 71.85 70.91 62.95 62.86 66.28 69.55 67.67 68.00 70.03 69.38 68.93 67.74 68.43 68.90 64.75 63.79 63.65 62.92
66.30 67.60 69.73 73.30 75.10 76.18 75.71 75.80 75.14 75.03 74.71 76.82 76.08 76.78 77.77 77.72 77.84 77.79 77.72 78.02 77.96 77.01 75.93 74.23 71.35 70.25 69.29 63.17 61.96 63.76 66.77 67.06 68.28 69.37 69.70 68.59 67.47 68.93 68.34 67.81 67.14 65.37 64.81
69.05 68.12 66.59 73.28 75.07 75.77 76.17 76.77 75.68 75.26 76.99 75.91 78.55 77.73 79.93 78.87 78.65 78.37 78.15 77.99 76.53 74.50 73.28 71.44 68.81 68.09 69.46 61.96 59.71 61.82 66.45 65.91 67.34 69.12 68.28 68.31 68.59 64.90 60.80 66.34 65.24 63.81 65.10
65.87 69.09 67.55 74.54 76.19 76.49 76.73 76.15 76.64 75.98 75.01 77.56 78.23 80.00 79.97 79.39 78.62 78.36 77.36 75.02 73.52 72.80 72.32 69.52 68.87 66.40 69.28 61.38 58.79 60.31 67.15 66.15 67.34 69.00 68.36 62.67 65.97 60.01 58.63 64.69 64.09 62.68 63.30
67.35 75.37 75.60 74.74 76.17 77.02 76.94 76.03 76.51 76.28 77.37 78.88 78.76 79.46 79.58 79.28 78.91 78.15 75.73 73.16 73.41 73.82 71.05 69.25 69.08 69.57 68.07 69.44 56.00 56.37 67.97 68.00 67.99 67.25 66.96 68.27 58.85 56.26 55.72 56.68 63.90 61.60 58.34
71.36 75.31 75.79 76.64 77.38 77.69 77.31 76.71 76.77 78.33 78.99 78.31 78.09 78.25 78.49 76.83 76.64 75.40 73.73 73.66 72.44 70.90 69.94 69.19 68.77 69.89 71.48 61.26 55.62 55.13 57.17 62.42 66.97 68.24 67.61 66.38 53.96 53.12 55.33 53.91 55.28 53.83 54.69
74.50 74.30 75.67 76.42 77.37 78.61 77.17 76.25 77.38 77.47 77.16 76.89 76.83 77.03 76.49 75.43 74.93 73.26 72.69 71.96 71.79 70.19 68.94 69.30 69.05 70.36 71.27 69.39 54.61 54.87 55.08 56.66 60.84 66.58 59.97 54.07 53.22 55.84 53.08 52.87 53.79 54.29 56.47
73.66 74.02 73.83 74.23 74.86 76.14 76.91 77.33 77.52 77.48 76.87 76.12 75.23 74.53 72.90 72.07 72.99 72.33 71.82 70.47 69.80 68.97 69.22 69.31 70.33 70.27 69.60 67.61 65.32 63.58 59.60 56.84 58.50 56.30 56.32 56.24 55.87 55.76 56.92 56.70 52.98 55.65 57.82
72.74 73.54 73.46 74.23 75.16 76.61 76.19 76.68 77.20 76.67 74.21 73.21 72.49 71.22 70.41 70.30 68.51 61.72 64.37 69.29 61.05 61.08 70.06 70.11 69.29 67.80 66.74 66.67 61.60 61.10 62.84 62.67 59.68 59.50 60.39 58.72 58.84 58.64 58.13 57.92 58.39 57.97 58.40
70.91 71.01 72.67 73.44 73.83 74.43 74.72 75.70 76.35 74.89 73.57 71.63 70.84 69.53 69.58 68.55 67.15 63.73 60.04 45.90 46.91 44.87 44.73 47.13 62.22 58.16 50.89 47.52 45.97 45.41 45.61 47.25 52.61 60.96 63.29 61.89 61.30 60.20 60.53 58.03 58.78 57.69 57.40

GFSMW_sfc_wetblb_015.txt.gz
Wetbulb
67.59 69.62 70.18 70.87 71.30 73.02 72.55 72.50 72.57 73.48 73.16 73.61 72.57 72.12 72.41 72.61 71.27 73.03 73.46 74.37 74.42 74.59 74.02 73.26 72.69 73.66 71.54 69.55 70.58 67.92 64.39 64.90 65.45 62.54 63.66 64.46 67.09 64.76 62.78 62.92 62.47 63.66 66.66
66.36 68.42 69.29 70.14 70.92 71.75 72.03 71.92 71.92 74.94 74.39 74.15 73.16 72.63 72.45 73.30 72.72 72.84 74.67 73.92 74.86 74.94 73.17 72.91 72.25 72.67 70.99 68.71 66.34 65.03 64.11 65.12 66.04 61.15 61.31 60.68 64.16 65.31 63.92 62.05 61.93 62.59 64.85
65.42 67.16 68.22 69.07 70.03 71.01 72.25 72.46 72.22 74.96 75.17 74.85 73.63 73.16 73.65 73.21 72.91 72.55 75.19 75.29 75.47 75.24 73.22 73.75 72.71 70.91 68.42 67.39 66.27 65.71 64.99 62.42 66.26 64.24 61.90 58.40 57.82 63.18 63.45 63.50 61.21 62.25 61.05
66.34 67.39 68.28 68.68 69.55 71.29 73.13 73.06 73.56 75.08 74.51 74.71 73.40 71.74 70.56 69.41 70.99 73.09 73.51 75.12 75.52 74.27 73.74 73.37 73.19 70.75 69.24 68.10 66.45 67.00 64.27 65.54 62.27 65.52 64.67 62.76 60.88 58.27 59.50 63.53 62.02 63.43 61.85
65.67 66.89 68.60 69.17 70.33 71.82 72.40 74.11 73.95 74.12 74.84 74.67 73.61 72.75 71.31 71.52 72.67 72.35 72.60 73.82 74.14 74.47 74.93 73.73 72.59 68.76 66.68 68.53 67.54 65.66 64.49 65.81 65.08 63.47 64.44 64.66 62.73 61.63 57.08 56.08 60.91 64.05 63.65
65.25 67.26 68.92 69.88 69.86 72.02 73.18 74.23 74.19 74.24 75.30 74.14 74.18 73.62 72.53 71.67 70.58 70.16 72.65 73.79 73.40 73.43 74.48 73.77 70.31 68.35 66.83 67.75 66.88 66.50 66.30 65.34 65.24 63.80 63.84 63.30 60.12 59.83 58.97 57.35 56.73 58.43 61.69
65.04 65.27 67.65 69.08 69.73 70.81 72.34 73.84 74.10 73.79 75.10 74.65 73.70 74.11 73.14 72.50 70.71 71.54 72.49 72.73 72.83 71.68 72.87 72.10 69.87 68.25 67.15 68.87 68.16 67.92 65.86 65.18 64.28 64.51 63.21 63.94 62.55 61.64 60.59 57.80 57.62 57.02 59.95
65.58 65.66 67.60 68.92 69.81 70.60 72.21 73.62 74.07 73.65 75.07 75.27 74.73 73.82 74.64 73.21 72.64 72.58 72.76 72.76 72.98 72.56 72.50 71.78 70.21 68.98 67.39 70.05 68.85 67.43 66.25 66.39 65.05 63.83 63.78 63.80 63.12 63.29 61.11 61.62 58.61 55.62 57.17
64.95 66.18 67.23 68.87 69.81 70.46 72.22 72.57 74.55 74.63 75.28 75.46 75.65 74.85 74.39 74.58 74.29 73.49 73.17 72.67 72.00 72.12 72.34 71.96 70.46 69.62 68.32 67.30 68.33 67.14 65.39 66.00 65.47 63.20 63.53 62.94 62.75 62.93 63.08 61.63 60.77 57.80 54.57
64.92 66.40 67.16 68.76 70.13 71.01 72.42 73.04 74.91 74.82 75.50 74.97 76.33 75.80 75.23 74.58 74.73 74.11 72.95 73.42 71.87 72.31 71.71 72.01 70.98 70.97 68.80 68.31 68.66 65.84 66.78 65.38 65.99 65.47 64.68 63.55 63.14 63.70 63.38 62.49 60.78 60.92 58.45
64.37 66.85 67.79 69.12 70.62 71.41 72.18 72.89 74.11 74.93 75.50 75.76 75.53 76.30 75.82 75.59 74.86 74.52 73.52 72.80 73.14 71.80 71.66 71.79 71.64 70.19 69.24 69.22 68.41 65.69 65.43 66.48 64.15 64.89 63.62 64.97 64.16 63.00 62.12 63.71 62.30 60.36 59.85
65.30 67.17 68.10 68.63 70.34 70.83 71.47 72.60 74.69 74.99 75.82 76.47 76.09 75.95 76.37 76.36 75.34 74.42 74.09 74.12 72.64 72.72 72.73 71.95 71.44 70.41 69.53 68.47 68.33 65.99 66.00 64.78 65.57 64.72 63.82 63.32 65.53 63.17 62.83 64.93 63.12 62.81 62.57
62.39 66.98 67.31 68.67 70.15 70.68 70.97 72.48 73.84 75.45 76.25 76.56 76.24 75.87 75.55 76.06 75.83 74.72 74.91 74.72 74.67 73.38 72.65 72.50 71.09 70.56 69.89 68.46 68.46 66.75 64.78 65.79 65.54 65.35 65.10 64.23 64.34 62.40 64.16 64.89 64.36 62.66 63.27
61.63 64.11 67.10 68.67 69.84 70.89 71.07 71.81 73.13 75.18 76.08 76.71 76.09 75.47 75.58 75.72 75.87 75.93 74.58 74.95 75.35 74.41 71.76 71.97 71.61 70.90 70.01 68.41 68.25 66.54 65.36 65.79 66.02 65.44 65.72 65.66 64.51 63.87 64.62 64.74 64.09 64.07 62.62
62.01 63.78 66.35 67.28 68.94 70.13 70.84 71.78 72.82 73.73 75.49 75.61 75.55 75.21 75.77 76.08 76.06 75.80 76.01 75.23 74.94 74.61 73.48 71.60 71.65 71.19 69.50 68.57 66.99 67.07 66.43 66.06 65.64 65.65 66.78 66.54 67.01 66.65 65.27 64.97 63.65 64.27 63.17
64.78 65.38 66.62 67.46 67.86 68.71 69.65 71.08 72.02 73.17 74.27 74.88 74.86 75.11 75.12 75.52 75.35 75.49 75.43 75.89 74.74 74.83 73.58 72.81 71.71 70.75 71.15 66.00 65.99 67.47 67.08 66.93 66.06 65.45 67.55 66.49 67.55 67.19 66.08 65.93 65.40 65.40 63.28
63.23 64.94 65.49 67.95 68.27 68.97 69.88 70.46 71.79 72.96 73.21 73.65 74.39 74.42 74.56 74.62 74.96 75.04 74.96 75.25 75.37 75.34 74.92 74.08 72.43 70.94 71.23 64.81 63.84 66.54 67.28 66.57 66.57 66.73 67.24 67.06 67.12 65.94 64.86 63.94 63.61 63.25 63.19
62.66 65.70 67.75 68.55 69.91 70.54 70.40 71.19 71.60 71.95 72.11 71.96 73.20 73.81 74.21 74.24 75.06 74.83 74.89 74.86 75.62 75.21 75.20 74.18 71.89 71.21 69.22 62.83 62.44 64.29 65.55 65.33 65.54 67.19 67.34 65.75 65.52 64.88 66.20 64.52 63.26 62.65 63.26
60.95 60.46 65.48 67.92 70.85 71.20 71.03 70.54 70.26 71.01 70.77 70.65 71.58 73.11 73.48 73.87 74.50 74.68 74.86 75.10 75.18 75.09 73.99 72.11 69.89 68.07 67.18 61.34 60.80 61.93 63.96 64.24 64.09 66.27 66.63 65.70 65.39 63.18 60.29 63.81 63.36 63.29 62.49
60.28 60.67 63.17 68.26 70.64 71.51 71.92 70.45 69.93 70.34 69.78 70.63 72.06 72.88 73.51 74.21 74.81 75.05 74.94 74.34 74.56 71.66 71.95 69.25 68.32 65.28 66.68 60.33 59.10 59.71 63.61 63.38 62.61 63.45 65.95 62.98 64.24 59.46 59.46 63.43 62.03 60.15 60.13
60.04 61.28 64.68 68.90 69.91 71.19 72.66 70.95 70.84 70.01 72.14 71.60 75.71 74.23 75.74 76.07 75.90 75.46 73.93 72.09 71.59 71.46 69.52 67.98 67.44 66.45 66.27 64.75 57.38 56.40 64.12 64.47 64.05 63.30 63.23 63.49 59.36 58.45 56.92 57.25 61.17 61.14 55.58
66.77 63.75 68.18 68.88 71.15 71.52 73.07 71.82 71.49 72.91 74.01 75.89 76.41 76.62 76.82 76.95 74.86 73.05 71.24 70.57 71.04 70.09 68.34 67.24 67.03 67.74 66.01 62.64 56.22 55.35 56.77 62.68 63.61 62.61 63.64 62.65 57.25 53.84 55.39 57.08 56.32 52.49 53.79
71.21 71.69 72.58 72.80 73.85 72.98 73.67 73.14 74.45 75.27 75.18 75.29 75.19 74.53 74.06 73.06 72.30 70.91 70.67 70.20 69.25 68.88 67.74 66.89 66.10 65.39 67.20 63.86 56.38 54.32 54.45 56.48 60.91 62.09 59.07 54.37 53.30 54.51 55.04 54.89 54.13 53.91 51.82
70.40 71.84 71.88 71.85 72.26 73.77 74.09 74.12 74.16 74.75 74.62 73.61 72.69 72.44 71.90 71.01 71.08 70.69 69.96 69.50 68.48 68.06 67.32 66.77 65.36 65.30 64.75 62.39 59.02 58.33 56.96 56.96 57.12 56.78 55.42 55.98 55.15 54.60 54.07 52.88 51.99 50.73 51.02
69.06 71.25 71.79 72.12 72.25 73.54 73.54 74.01 74.42 73.88 72.56 71.23 70.25 69.85 70.12 67.09 59.01 53.51 56.62 63.97 55.27 61.23 65.69 65.96 65.81 64.80 64.45 63.60 59.68 58.61 58.75 57.85 55.43 55.67 54.53 53.07 52.38 51.86 51.59 52.60 53.27 53.18 53.64
69.39 71.08 71.60 71.89 72.22 72.91 72.74 72.43 72.54 71.96 70.29 68.79 68.40 68.33 65.39 63.30 60.92 58.78 54.52 45.99 46.19 45.24 45.68 50.76 59.04 53.64 54.65 50.72 49.52 50.68 51.83 51.08 51.08 55.70 55.38 53.74 54.11 54.19 54.59 54.08 53.47 54.79 56.12

GFSMW_sfc_wetblb_018.txt.gz
Wetbulb
67.90 68.67 69.11 70.23 70.96 71.37 71.69 72.03 71.71 72.04 72.11 72.33 70.83 69.91 69.68 70.87 71.13 72.33 71.66 73.17 73.62 74.29 72.16 71.62 71.97 71.76 70.59 68.64 68.14 66.66 62.87 62.99 64.23 60.19 61.83 63.73 64.22 61.89 61.61 61.13 63.64 66.63 68.06
66.70 67.18 68.07 69.50 69.60 70.82 71.66 71.78 71.71 71.30 71.50 72.55 72.48 70.75 70.83 71.52 71.81 70.67 71.71 73.04 73.04 73.45 72.83 72.18 71.36 71.31 68.59 67.34 65.03 63.48 62.51 63.46 63.50 59.61 59.79 58.90 62.84 62.76 62.33 59.86 63.90 64.35 66.38
65.54 66.71 67.38 68.70 69.68 70.60 71.06 71.24 71.86 71.77 71.64 72.15 71.95 71.31 71.98 72.33 71.38 70.82 71.96 73.08 73.43 73.74 73.10 72.00 71.66 70.72 69.48 66.90 64.91 64.25 62.82 60.78 63.59 62.01 60.52 57.16 57.21 61.96 62.91 60.41 60.38 60.61 61.40
65.97 66.65 67.62 67.62 69.14 70.31 71.56 71.41 72.54 72.54 72.50 72.77 72.10 71.10 70.42 69.79 70.32 70.59 72.32 73.15 73.72 73.65 72.54 72.37 71.59 67.84 68.12 65.80 65.19 66.03 64.30 62.76 60.89 63.84 63.31 60.89 59.75 57.53 57.12 61.00 59.43 60.13 60.03
65.62 65.66 67.45 68.24 69.01 70.68 70.88 71.17 71.36 73.22 73.50 73.33 72.46 71.62 70.19 70.40 69.95 70.77 71.19 72.53 73.66 73.37 73.02 72.35 71.48 67.70 67.22 66.51 65.50 64.59 63.66 64.74 62.78 62.00 62.68 61.74 61.16 57.29 55.75 55.99 57.96 61.24 60.88
65.42 66.14 67.93 68.74 68.89 70.48 71.41 71.41 70.70 73.00 73.74 73.48 72.64 71.46 70.38 69.63 68.98 69.65 70.07 72.12 73.38 73.16 72.90 73.00 71.20 67.19 66.45 67.02 65.44 64.21 63.41 64.45 64.62 63.07 63.21 61.78 57.96 58.26 56.75 55.58 55.51 56.50 59.97
64.92 65.51 66.16 67.23 68.09 68.63 70.52 71.28 71.04 70.61 73.10 72.85 72.51 72.04 71.51 70.88 69.71 69.06 70.57 71.22 72.15 71.08 72.24 71.62 68.88 67.02 65.16 66.26 65.72 65.29 64.81 63.61 63.20 61.04 61.40 62.37 61.12 60.54 58.16 55.41 55.95 55.09 57.95
64.73 65.38 66.24 67.55 67.92 68.65 70.33 71.64 71.19 70.96 72.71 73.04 72.58 72.54 72.19 71.73 71.61 70.25 71.09 72.21 72.33 72.54 72.64 71.51 69.67 67.06 66.47 66.97 66.13 65.45 64.76 64.36 62.89 63.90 62.74 61.93 61.77 61.35 59.36 57.80 57.10 54.17 55.38
63.71 65.00 66.00 67.66 68.17 68.73 70.36 71.25 71.75 71.71 72.67 72.89 72.90 73.15 73.19 72.41 71.98 70.70 71.88 71.93 72.60 72.43 72.20 71.64 69.38 67.47 65.92 68.05 66.81 65.51 64.47 65.49 63.59 62.36 61.60 62.35 61.00 61.75 61.38 60.99 58.47 56.02 52.86
64.62 65.21 65.23 67.27 68.74 69.25 70.71 71.76 72.59 72.23 72.93 73.74 73.20 72.83 73.20 73.71 72.85 71.42 71.68 71.96 71.96 72.01 71.50 70.79 69.31 67.99 66.42 66.83 66.85 65.64 64.78 63.86 64.34 63.83 61.73 61.61 61.26 61.54 61.81 61.13 59.25 58.09 55.70
63.68 64.73 65.42 67.01 68.56 69.68 70.75 71.86 72.37 72.37 72.92 73.78 73.84 73.53 72.75 72.72 73.57 73.34 73.01 72.62 71.69 71.07 71.37 70.80 69.45 68.43 67.21 66.03 67.23 64.98 65.14 63.37 63.41 64.33 63.63 62.95 62.25 61.78 60.90 61.95 60.63 58.75 60.35
64.30 64.23 65.47 65.90 67.79 69.16 70.39 71.34 72.86 72.68 73.19 73.97 74.09 73.94 73.94 73.50 72.85 72.94 73.61 72.86 72.28 71.12 71.32 71.00 69.82 69.21 68.45 67.32 66.47 65.56 65.41 64.76 63.17 62.95 63.14 62.43 64.04 62.60 61.69 61.42 61.21 60.55 61.12
62.06 62.41 64.53 65.55 67.19 68.80 69.68 71.15 72.47 73.34 73.75 74.05 73.91 74.45 74.31 74.04 73.62 73.07 73.18 73.05 72.58 71.35 71.05 70.77 70.47 69.18 69.10 67.70 67.30 66.58 65.26 64.20 64.74 64.21 62.89 62.58 62.00 62.03 62.65 62.74 61.28 62.10 62.02
61.16 61.77 64.77 65.75 67.41 68.84 69.51 70.96 71.64 73.83 74.16 74.36 74.00 73.82 74.39 74.34 74.46 74.23 73.50 73.17 73.32 71.43 71.09 70.77 70.47 70.45 69.21 68.07 67.66 67.00 65.43 64.82 64.28 64.60 64.76 63.66 63.58 63.49 62.55 63.41 62.07 62.35 62.92
60.48 63.26 63.94 65.98 67.56 68.76 69.53 70.79 71.84 73.26 74.22 74.02 74.25 73.83 74.61 75.02 75.00 74.57 74.07 73.36 73.67 73.12 71.59 70.93 70.62 69.97 69.77 69.03 67.68 67.03 65.87 65.21 64.62 64.60 64.61 64.87 65.99 65.89 64.03 63.75 62.74 61.98 62.45
58.99 61.59 65.10 66.59 67.11 68.81 69.24 70.16 71.27 73.35 74.22 74.16 74.14 74.81 74.82 74.53 74.54 74.87 74.69 73.51 73.27 73.17 71.80 70.67 70.50 69.80 69.89 66.30 65.38 67.41 66.75 65.96 65.14 64.21 64.03 64.76 66.81 66.06 64.49 64.23 64.31 64.18 62.38
59.65 62.56 65.04 66.41 67.75 69.07 69.92 69.67 71.21 73.11 74.08 74.07 74.56 74.78 74.80 74.44 74.39 74.52 74.36 74.34 73.33 73.00 72.42 70.86 70.56 69.88 70.41 64.43 63.72 65.96 66.49 66.54 66.29 64.61 64.38 65.11 67.44 65.34 65.68 63.94 63.72 62.28 62.39
58.14 61.84 65.50 66.41 68.38 69.87 70.42 70.79 71.25 72.01 73.22 73.60 74.13 74.75 74.38 74.19 74.37 74.29 74.09 74.23 74.76 73.43 73.36 72.31 71.32 71.06 70.76 64.06 62.06 65.14 67.68 66.99 66.80 66.53 65.60 65.56 66.09 64.82 64.03 63.75 62.19 61.81 63.09
59.46 59.66 64.73 66.09 67.62 68.66 70.09 70.33 70.49 71.26 71.69 72.61 73.27 74.04 74.11 73.64 73.84 73.44 73.66 74.24 74.52 74.37 74.19 74.29 72.36 71.39 70.45 61.10 60.31 63.79 66.40 66.16 66.05 66.00 66.65 65.51 64.47 61.66 60.81 63.64 61.68 62.49 63.42
56.42 58.35 62.99 67.30 66.87 68.25 69.34 69.28 69.54 70.39 70.76 71.60 72.81 73.94 74.05 73.41 73.25 73.72 73.97 74.49 74.70 74.58 74.73 72.88 72.03 68.72 66.78 58.15 58.47 62.40 64.53 63.79 63.86 63.98 64.56 61.81 64.13 59.56 58.07 63.01 61.92 61.01 60.85
56.67 57.56 57.30 64.00 69.52 69.13 68.84 68.49 69.03 69.47 71.21 72.04 72.15 72.80 73.42 73.45 73.54 74.02 74.27 74.27 74.51 73.23 71.75 69.28 67.50 67.82 67.10 63.43 57.95 56.80 63.27 62.54 63.40 63.45 63.93 64.69 57.62 55.19 55.37 57.52 61.69 60.85 59.16
61.42 58.91 55.55 57.21 63.34 69.68 69.28 68.04 68.12 70.03 71.08 71.16 70.50 71.05 72.21 72.86 73.92 74.12 74.01 73.69 72.31 70.64 67.88 67.07 66.57 66.82 66.26 60.90 56.60 55.11 56.80 61.71 64.19 64.07 63.73 61.70 54.59 52.65 53.56 56.46 56.46 55.69 54.60
67.82 68.85 58.57 59.05 61.87 67.63 70.21 68.25 68.73 68.89 69.68 69.35 70.79 71.27 72.05 73.61 74.34 73.29 72.08 71.14 70.25 68.76 67.32 66.64 66.14 65.98 65.56 62.94 56.52 54.38 54.36 56.98 62.31 62.41 59.59 54.39 51.56 51.74 54.64 55.55 56.06 52.58 51.58
65.05 69.28 69.92 69.12 68.47 68.78 70.22 70.21 70.08 71.94 71.86 72.00 74.01 74.43 73.82 73.16 72.92 71.97 71.27 70.32 68.33 67.41 66.41 65.94 66.12 65.12 63.83 61.41 59.58 57.06 55.92 55.49 58.78 57.87 56.14 55.58 54.80 54.15 54.47 53.55 52.67 51.69 50.14
57.33 58.65 64.60 69.55 70.34 71.88 72.19 73.35 72.96 74.50 73.37 72.97 73.01 72.16 70.80 68.97 62.58 56.56 63.76 67.45 63.02 66.45 66.99 65.83 65.39 64.11 63.06 62.27 57.65 56.52 58.73 58.13 55.45 54.73 54.54 53.88 54.43 54.71 51.41 50.80 50.73 49.94 49.81
58.96 58.40 55.94 56.73 56.02 57.70 72.17 73.13 73.28 72.84 71.41 70.43 69.33 66.43 64.06 62.99 61.37 59.37 55.81 48.00 48.30 48.23 51.56 53.92 60.83 57.69 54.75 49.93 47.58 46.12 46.31 47.58 49.72 54.26 52.54 52.08 51.62 51.52 51.40 51.17 51.19 52.00 53.19

GFSMW_sfc_wetblb_021.txt.gz
Wetbulb
67.40 68.54 68.98 69.44 69.07 70.40 70.38 70.45 71.00 71.59 71.54 71.26 70.97 69.57 69.70 69.92 70.38 70.92 71.79 72.45 72.80 73.35 71.08 70.57 71.15 70.37 69.32 68.50 67.34 66.09 62.74 61.31 62.87 59.05 59.59 62.68 61.63 61.03 60.29 62.14 67.36 67.79 68.76
66.81 67.90 68.15 69.01 69.01 69.51 70.33 70.49 70.73 70.80 71.43 71.53 72.16 70.79 69.61 69.76 70.42 71.35 70.98 72.44 73.23 73.25 71.67 70.76 70.94 70.81 69.57 67.61 66.58 63.01 61.67 62.36 62.23 59.00 58.42 57.85 61.29 60.61 60.43 59.96 65.69 66.30 67.63
65.61 66.78 67.04 67.48 69.08 69.06 70.04 70.57 70.86 70.93 71.21 71.55 71.58 70.20 70.69 70.90 69.95 69.31 70.04 71.01 72.39 72.76 73.17 71.49 71.06 70.43 68.24 66.63 64.18 63.30 62.07 60.18 62.85 60.81 59.92 56.95 56.35 58.82 60.29 58.97 62.16 63.12 63.84
66.39 66.11 67.05 66.98 68.18 69.22 70.59 70.90 71.32 71.05 71.03 71.29 70.88 70.86 69.56 68.77 69.57 69.88 70.58 71.23 72.24 72.94 72.44 71.83 71.11 69.93 69.54 66.59 64.55 64.46 62.30 61.44 61.65 62.69 62.02 59.59 59.45 56.36 54.79 59.19 58.74 58.81 59.49
66.20 66.03 66.17 67.45 68.37 69.62 70.18 71.10 71.08 71.15 70.98 70.90 71.15 70.62 69.09 69.34 69.73 70.10 70.42 71.29 71.95 72.18 72.49 71.66 70.79 67.41 67.73 66.25 64.92 64.06 63.85 62.59 60.61 60.96 60.70 60.11 59.84 55.98 56.01 54.06 56.96 59.71 59.58
65.88 66.76 67.41 67.72 68.34 69.50 70.34 70.77 70.54 70.81 71.18 70.85 70.85 70.43 69.86 68.70 68.31 68.72 69.39 70.05 71.61 71.84 71.79 71.73 70.97 68.08 66.38 65.67 64.91 64.28 63.11 64.26 63.36 62.76 62.60 60.93 56.97 57.72 55.56 54.94 55.33 56.10 58.34
64.98 65.57 65.75 66.67 67.08 68.34 69.59 70.25 70.02 70.58 71.24 71.25 71.01 70.84 70.68 69.61 69.15 68.93 69.94 69.62 70.98 70.89 71.20 71.43 70.39 67.25 65.96 66.36 65.08 63.44 62.50 63.58 63.02 61.59 61.43 61.67 60.18 59.34 57.45 54.54 54.79 54.59 56.44
64.31 65.06 65.70 66.34 67.50 67.85 69.09 69.75 69.23 70.65 71.52 71.65 71.42 71.47 71.22 70.49 70.32 69.07 69.32 70.45 71.83 72.10 72.39 71.93 71.29 68.23 65.25 66.09 64.92 63.87 63.61 63.32 62.46 61.37 61.37 61.70 60.96 59.78 58.50 56.32 56.53 53.93 54.34
63.92 64.58 65.75 66.08 67.16 67.82 68.48 69.51 69.16 69.89 71.82 72.12 72.13 71.47 71.29 70.95 70.41 69.47 69.91 70.61 71.56 72.04 71.79 72.19 70.96 68.39 65.95 65.60 65.10 64.01 63.67 63.78 62.27 61.85 62.66 61.34 60.64 61.40 60.63 60.10 57.15 55.19 52.18
63.23 64.48 65.34 66.17 67.14 67.92 68.46 69.98 70.29 69.64 70.71 72.29 72.34 71.92 71.71 71.61 71.15 70.74 70.32 70.49 71.49 71.51 71.09 71.83 70.50 68.65 66.19 66.39 65.61 64.06 63.65 64.06 63.13 62.35 60.89 60.63 60.30 60.34 60.96 59.52 57.99 56.40 54.82
62.66 63.91 65.00 66.38 66.61 67.91 68.20 69.38 70.22 70.10 70.10 71.46 72.13 71.95 71.95 71.96 71.48 71.06 70.93 71.45 71.47 71.21 71.03 71.16 70.20 68.45 66.44 65.85 66.20 65.04 64.49 62.91 63.17 63.24 62.01 60.86 60.84 60.24 60.86 60.71 59.55 58.25 57.26
63.04 63.69 64.93 65.32 65.84 67.09 67.74 68.99 70.18 70.48 70.73 71.52 71.79 71.69 72.18 72.19 72.15 71.65 71.38 71.51 71.43 71.25 70.98 70.76 69.81 68.84 67.39 65.58 66.34 65.39 65.86 64.04 62.05 62.40 62.65 62.49 63.31 61.10 60.66 60.12 60.35 59.75 58.03
62.22 62.60 61.64 62.62 64.83 66.70 67.78 69.14 70.16 70.96 71.45 71.63 71.93 71.78 71.61 71.44 71.87 72.34 72.34 72.06 71.91 70.80 70.84 70.54 70.02 68.87 67.81 66.46 65.56 66.10 65.38 65.16 64.28 62.76 62.48 62.55 61.86 60.59 62.30 61.19 60.78 61.81 61.13
62.07 60.78 60.38 61.95 64.63 66.48 67.81 68.78 70.29 71.30 71.65 71.87 72.06 71.89 71.96 72.07 71.77 72.10 72.27 72.49 72.46 70.76 70.45 70.41 70.29 69.51 68.91 67.98 66.99 65.84 65.43 64.88 64.91 64.99 63.69 62.76 62.45 61.44 62.15 62.43 62.09 61.10 61.74
61.75 60.05 62.63 61.86 63.76 65.58 67.63 68.77 70.12 71.37 71.89 71.65 71.97 72.10 72.63 73.01 72.75 72.34 72.06 71.96 72.00 72.06 70.54 69.93 69.88 69.95 69.10 68.89 67.51 66.93 65.94 65.43 64.92 64.00 64.69 63.96 64.24 64.90 64.02 61.92 61.28 62.61 60.60
61.61 61.99 63.19 63.69 64.29 65.87 67.24 68.21 69.77 70.83 72.25 71.66 71.94 72.47 73.00 73.09 73.06 73.08 72.65 72.26 71.77 71.79 70.69 69.97 69.47 69.09 69.85 66.16 65.51 67.36 66.84 66.19 65.16 63.67 64.61 65.30 65.88 65.52 64.35 63.79 63.68 63.73 61.40
58.74 57.97 61.97 63.07 64.58 65.80 67.78 68.02 69.42 70.81 72.08 71.99 72.34 72.57 72.49 72.76 73.21 73.43 73.05 72.41 71.65 72.06 70.54 70.45 69.95 69.27 69.39 64.48 64.13 66.16 67.30 65.76 65.28 65.72 65.68 65.41 65.72 64.94 65.39 63.50 63.08 63.15 62.88
56.77 57.46 59.94 60.85 63.26 66.29 68.16 69.04 69.71 70.45 71.28 71.87 72.26 72.75 72.83 72.49 73.23 73.29 73.31 73.27 72.33 72.06 71.81 70.45 70.17 70.14 70.14 63.42 62.04 64.72 67.61 66.72 66.41 66.26 65.83 65.17 64.83 64.84 64.20 64.02 62.54 61.86 62.16
57.40 57.74 61.21 62.73 64.46 65.80 68.10 68.86 68.98 69.93 71.14 71.42 72.07 72.80 73.50 73.06 72.96 72.90 73.03 73.74 73.43 72.07 72.12 71.71 70.81 70.69 70.11 61.41 60.43 62.53 67.49 66.67 66.61 66.68 66.88 65.78 64.06 62.40 60.91 63.72 62.71 60.83 61.40
54.54 57.64 60.85 62.43 62.96 65.77 67.88 68.23 68.12 69.25 70.52 71.82 72.36 73.34 73.87 73.46 73.15 73.28 73.34 73.83 74.06 73.71 72.95 72.48 72.49 68.54 70.59 59.50 58.49 63.31 66.96 65.90 66.13 65.52 65.62 62.54 63.98 59.03 58.13 64.29 62.58 60.34 61.52
54.44 54.29 57.14 63.42 64.01 65.55 67.72 67.85 68.30 68.51 70.57 72.36 73.16 73.49 74.03 73.72 73.75 73.66 73.78 73.92 73.71 73.98 73.72 73.51 73.01 70.71 67.14 61.57 56.60 60.10 66.60 66.35 64.82 63.28 61.73 62.73 58.18 55.68 54.59 57.42 62.13 61.71 59.49
67.46 66.32 54.67 54.05 60.18 63.68 66.77 67.28 67.68 69.63 70.42 71.22 71.96 72.79 73.49 73.86 73.58 73.43 73.28 73.66 73.46 73.69 73.18 71.08 69.74 69.18 65.38 58.45 56.82 58.43 59.75 60.60 62.04 61.68 63.73 63.60 56.44 51.71 51.89 54.97 55.85 53.70 56.32
64.53 68.14 67.78 63.60 58.64 59.85 64.80 65.10 67.91 69.13 69.43 69.76 70.59 71.21 72.70 73.26 72.97 72.93 72.93 73.30 73.63 72.89 70.26 69.42 68.38 66.44 66.64 64.50 55.87 55.09 54.93 57.16 62.23 64.38 61.62 55.33 51.52 50.07 52.61 53.88 54.02 53.81 53.94
56.95 61.54 63.28 64.65 62.08 64.24 66.64 65.76 66.90 67.08 68.03 68.75 69.64 70.24 71.42 71.87 72.58 73.43 73.49 73.38 73.04 71.03 69.27 68.77 66.46 65.87 64.49 62.32 60.50 58.17 55.72 55.63 59.82 57.22 55.74 55.56 54.83 54.71 55.19 55.03 53.73 52.73 51.11
57.03 56.80 61.14 60.99 58.93 57.84 59.49 60.17 63.77 65.79 66.23 67.86 68.51 69.15 70.63 71.18 71.81 62.23 68.09 72.58 68.07 67.48 68.52 67.75 67.12 65.59 63.87 62.38 58.91 57.71 59.19 59.91 57.63 55.96 55.31 55.05 54.03 53.71 52.53 51.18 51.16 50.65 49.93
57.59 57.58 57.25 58.21 59.76 60.64 60.97 61.34 60.29 69.65 67.34 67.86 70.52 71.07 71.00 64.76 62.01 61.10 58.33 53.88 53.34 55.33 54.61 55.15 59.24 62.00 55.78 50.26 48.62 47.17 47.72 47.35 49.71 54.87 54.78 53.51 52.71 52.98 51.86 50.53 50.10 49.93 51.61

GFSMW_sfc_wetblb_024.txt.gz
Wetbulb
66.63 67.66 67.95 69.17 69.48 69.77 70.08 70.35 70.85 71.50 71.41 70.71 70.30 69.98 70.09 70.49 71.11 71.47 72.49 72.81 73.09 73.67 73.14 72.39 72.38 71.43 71.61 71.22 70.16 68.44 66.99 64.98 65.17 63.66 64.15 65.34 64.21 63.91 63.97 68.33 70.50 71.43 71.75
65.87 66.87 67.43 67.89 68.37 68.85 69.78 70.25 70.67 71.32 71.49 71.52 71.56 71.43 71.04 70.38 71.86 72.19 72.46 73.03 73.18 73.56 73.08 72.22 72.01 71.87 71.58 70.42 69.49 67.51 64.91 64.71 64.48 62.88 61.83 61.89 63.78 64.22 63.54 65.86 67.99 69.28 70.52
65.32 66.06 66.84 67.32 68.09 68.07 69.24 69.89 70.57 71.24 71.73 71.82 71.56 70.52 70.92 71.03 70.71 71.00 71.55 71.89 73.48 73.66 73.52 72.33 72.38 72.09 71.60 70.01 68.70 66.67 65.65 64.31 65.80 64.00 63.59 60.50 60.38 62.02 63.56 63.74 64.64 66.90 67.81
66.44 66.58 66.85 67.17 67.92 67.95 69.81 70.31 70.55 70.87 71.48 71.75 71.05 70.82 70.05 69.25 70.20 70.50 71.05 71.69 72.91 73.46 73.67 73.14 72.51 72.13 71.28 69.30 68.25 66.76 65.55 65.17 65.25 65.11 63.75 63.23 63.53 60.80 59.88 63.21 63.07 63.40 64.49
66.60 66.57 67.07 67.76 68.50 69.10 68.97 70.08 70.35 70.62 71.07 71.31 71.12 70.69 70.45 70.75 70.27 70.70 70.77 71.23 72.04 72.65 73.22 73.21 72.61 71.81 71.11 70.56 68.29 66.76 66.41 65.05 65.03 64.43 63.33 63.10 61.70 60.45 60.34 58.98 61.35 63.12 64.00
66.16 66.98 67.52 68.49 68.07 69.04 69.25 69.91 70.04 70.23 70.82 70.84 70.92 70.36 70.32 69.15 69.30 69.95 70.07 70.78 71.95 72.25 72.85 72.97 72.58 71.66 69.90 69.94 68.50 67.49 66.92 66.62 65.62 65.20 65.25 64.15 62.31 61.25 59.82 59.60 59.91 60.78 63.07
65.87 66.05 66.16 66.24 67.44 67.48 68.62 69.36 69.69 69.61 70.55 70.23 70.40 70.62 70.50 69.89 69.44 69.76 70.65 70.46 71.22 72.06 72.10 72.39 71.91 70.88 69.26 69.08 67.85 67.02 66.26 66.66 65.94 65.64 65.29 64.66 63.52 62.55 61.24 60.16 59.05 60.18 60.87
65.77 66.36 66.59 66.29 66.91 67.62 68.24 69.19 69.50 69.54 70.38 70.30 70.20 70.82 70.92 70.49 70.32 70.13 70.65 71.08 71.54 72.47 73.19 72.57 72.45 71.47 69.61 68.84 67.83 66.41 65.51 66.34 66.22 65.26 64.84 64.72 64.29 63.40 62.21 61.32 61.01 59.38 59.46
64.30 65.47 66.70 66.95 66.68 67.60 68.00 69.02 69.59 69.69 70.21 70.45 70.55 70.50 70.77 70.87 70.40 70.64 70.66 71.19 71.86 72.74 73.06 72.91 72.58 71.64 69.29 68.82 67.94 66.30 66.07 65.99 65.63 65.52 65.37 64.70 64.07 64.52 63.59 62.40 62.14 61.48 58.17
62.86 64.45 65.72 66.53 67.21 67.55 68.52 69.37 69.81 69.44 70.33 70.86 71.03 71.03 71.09 71.46 71.31 70.84 70.05 70.36 71.10 72.61 72.69 72.89 72.58 71.29 69.45 68.23 67.87 66.83 66.39 66.24 65.32 64.80 64.80 64.67 63.98 64.16 64.00 63.31 62.86 60.95 61.10
61.93 63.48 64.85 66.14 66.72 67.62 67.94 68.75 69.42 69.52 69.91 71.14 71.43 71.45 71.50 71.60 71.56 70.75 70.87 70.65 71.40 71.84 72.36 72.77 72.20 71.15 69.38 68.48 67.35 66.88 66.59 66.03 65.97 65.84 64.40 64.05 64.80 63.55 63.63 63.51 62.82 61.54 60.83
61.78 63.37 64.33 65.23 65.97 66.15 67.35 67.87 69.28 69.27 69.82 71.35 71.70 71.66 71.73 71.76 71.26 71.16 71.44 71.71 71.25 71.90 72.04 72.28 72.16 71.32 69.65 68.76 68.06 66.84 67.02 66.11 65.44 65.72 65.27 64.71 63.82 64.07 64.05 63.14 63.83 62.84 62.94
60.85 61.64 62.97 63.88 64.87 65.64 66.62 67.44 68.61 69.62 70.07 70.36 71.61 71.64 71.57 71.31 71.24 71.28 71.81 71.45 71.74 71.81 72.05 71.97 71.59 71.01 70.11 68.26 68.51 68.28 67.41 67.00 66.53 66.08 65.81 65.30 64.69 64.31 64.05 64.15 63.51 63.51 63.12
59.15 60.73 61.29 63.25 64.59 65.40 66.34 66.87 68.05 69.58 70.28 70.27 70.48 71.05 71.40 71.55 71.68 71.73 71.98 71.72 71.90 71.73 71.78 71.80 71.72 71.09 70.51 69.35 68.39 68.19 67.90 67.45 67.36 66.96 66.20 65.78 65.12 64.40 64.45 64.70 65.02 64.88 64.36
59.26 59.19 60.67 61.79 62.70 64.47 66.15 67.07 68.07 69.19 70.32 70.05 69.98 70.63 71.25 71.78 71.95 72.25 72.35 72.30 72.13 72.00 71.78 71.66 71.56 71.41 70.54 69.91 69.12 68.13 67.70 67.45 67.25 67.06 66.53 66.23 66.01 65.62 64.77 64.64 65.12 65.49 63.87
58.34 60.45 61.12 61.90 62.37 64.27 65.74 67.05 67.94 69.13 70.30 70.13 70.04 71.07 71.45 71.44 71.46 71.65 72.03 72.36 72.41 72.38 71.72 71.35 71.29 70.89 70.85 66.58 65.51 68.42 68.20 67.81 67.22 65.91 66.71 67.30 66.35 65.62 63.87 63.61 63.74 65.12 64.23
54.58 58.76 60.90 62.03 62.94 64.26 66.16 66.79 67.76 69.65 70.01 70.25 70.67 71.13 71.51 71.56 71.70 71.92 71.63 71.49 71.43 72.13 71.33 71.21 71.02 70.88 71.28 63.78 64.02 66.04 69.06 68.45 67.76 67.02 66.11 65.55 66.84 65.86 66.74 63.69 63.01 63.07 62.73
55.04 57.64 60.30 62.45 63.87 64.69 65.43 66.76 68.20 69.34 70.17 70.13 70.54 71.43 71.68 71.80 72.20 72.32 72.10 71.99 71.94 71.44 71.49 71.20 71.01 70.94 70.70 62.98 62.21 64.95 69.46 68.70 68.05 67.65 66.82 66.80 66.97 66.51 65.87 65.87 65.69 65.27 65.73
54.79 57.09 59.25 60.83 62.71 62.72 64.51 66.31 67.43 69.17 69.70 70.36 70.54 71.31 71.90 71.78 72.15 72.13 72.27 72.62 72.27 71.95 71.80 71.93 71.23 70.98 71.04 61.49 60.45 63.63 68.74 68.06 67.63 67.58 67.25 67.11 66.98 62.57 61.25 66.31 65.48 65.35 64.08
54.56 56.01 57.32 59.60 60.23 62.19 65.35 66.36 66.89 68.13 68.60 70.60 71.26 72.08 72.42 72.10 72.07 72.56 72.89 73.30 73.25 72.62 72.62 71.96 71.68 69.23 71.55 59.77 59.42 63.19 68.93 67.81 67.22 67.40 67.56 62.74 65.71 59.06 58.18 66.65 66.60 64.98 63.41
58.86 56.57 59.23 60.40 61.80 63.35 65.37 66.10 66.85 67.41 69.29 70.76 71.94 72.39 72.89 72.85 72.50 72.84 73.44 73.54 73.53 73.25 72.45 72.35 72.11 72.19 71.01 68.69 57.92 58.56 68.98 68.75 67.11 67.13 66.61 66.61 58.74 55.89 54.38 58.71 65.90 63.34 63.08
67.92 66.91 58.64 57.56 57.58 63.66 65.52 66.18 66.30 68.42 69.80 70.99 71.55 72.03 72.89 73.35 73.55 72.95 73.06 73.24 73.43 72.99 72.38 71.82 71.95 72.52 72.33 63.50 56.05 56.53 62.37 64.31 67.70 66.73 66.35 65.11 55.61 53.55 52.46 55.53 57.68 54.59 58.65
64.78 67.54 65.80 63.43 62.95 65.48 64.71 64.17 65.24 67.99 69.11 69.89 70.97 72.22 72.87 73.51 73.69 73.40 72.78 72.92 73.21 72.71 72.08 71.60 71.55 71.17 69.93 61.18 55.14 56.81 58.63 59.31 65.46 65.91 62.71 55.53 50.09 49.53 52.28 54.60 53.65 54.90 60.30
57.25 63.64 63.33 61.32 60.22 62.65 63.98 63.58 65.78 69.43 67.91 68.49 69.38 71.11 72.26 72.68 73.69 73.68 73.57 73.00 72.77 72.04 71.69 71.55 71.17 70.16 65.72 64.10 62.44 63.41 60.75 57.90 61.50 58.26 58.86 56.67 56.51 56.25 57.22 56.81 56.03 60.39 58.89
59.61 58.58 58.88 59.93 59.57 60.95 61.73 62.40 62.82 68.15 69.01 66.50 68.19 69.56 71.23 71.04 73.04 65.10 68.28 72.98 73.63 71.84 72.70 71.57 70.11 66.63 65.70 65.16 60.01 59.65 61.09 61.82 58.94 57.74 59.55 58.83 58.70 57.85 57.53 57.71 57.33 56.97 56.26
60.73 60.34 61.43 61.65 61.15 61.05 61.50 61.75 62.18 66.09 70.77 68.62 66.96 68.38 70.35 71.47 63.21 61.32 57.58 48.84 53.55 54.28 52.28 54.09 62.55 62.55 55.55 50.68 49.56 51.01 49.20 48.29 49.93 60.20 60.47 59.48 59.01 58.50 56.85 56.00 55.44 55.06 54.71

GFSMW_sfc_wetblb_027.txt.gz
Wetbulb
69.22 70.30 70.97 71.72 72.04 72.71 73.18 73.73 73.73 74.74 74.20 73.35 72.46 72.38 71.53 72.73 73.89 75.14 76.08 76.30 76.66 77.10 77.23 76.39 76.86 76.33 75.14 75.72 75.65 74.19 72.35 71.13 71.61 69.50 69.50 69.62 70.70 69.93 70.96 73.98 73.09 74.07 74.35
68.57 69.50 70.55 71.14 71.57 72.05 73.18 74.27 74.40 75.41 74.83 74.15 74.25 73.49 73.41 73.20 74.92 76.26 76.83 76.94 76.75 77.31 77.18 77.15 76.52 76.45 75.14 75.59 75.02 73.72 71.38 70.63 71.50 68.88 68.84 65.25 67.59 69.18 69.32 72.89 72.42 72.87 72.86
68.05 68.85 69.64 70.30 71.51 71.89 73.12 74.11 75.29 75.95 75.72 76.06 74.84 74.34 74.64 74.69 74.47 75.18 75.48 76.23 77.08 77.47 77.51 77.47 76.86 76.69 76.16 74.85 75.20 73.42 71.92 69.39 71.14 69.65 68.42 64.52 63.43 67.51 69.03 70.30 71.97 72.44 72.27
68.99 69.45 69.72 69.99 70.77 72.59 73.24 74.66 75.36 76.09 75.51 76.62 75.27 75.05 72.52 71.63 73.36 74.77 75.78 76.17 77.14 77.22 77.42 77.45 76.89 76.88 76.06 76.00 75.22 73.50 72.24 70.72 68.63 69.38 69.63 69.46 69.30 64.99 63.74 67.71 69.90 71.01 70.35
69.24 69.25 69.83 70.88 71.43 72.41 72.32 74.01 75.36 75.86 76.31 76.49 76.35 74.75 74.59 73.76 74.53 74.72 76.49 77.77 77.39 77.16 77.13 77.54 77.13 76.90 76.05 76.34 75.19 73.12 72.26 70.69 69.62 69.46 68.27 68.60 68.37 68.66 66.38 63.73 65.41 68.55 69.34
69.34 70.11 71.01 71.64 71.47 72.18 72.07 73.13 74.77 75.13 76.20 76.15 76.08 76.17 75.92 75.16 73.76 74.11 73.90 74.36 75.16 75.82 76.70 77.08 77.45 77.47 76.70 76.37 75.54 74.40 73.17 71.91 70.60 70.50 69.88 67.93 66.86 65.80 66.10 65.36 66.08 65.56 67.34
69.16 69.74 70.24 70.50 71.82 72.22 72.70 72.71 74.06 74.10 75.39 75.34 75.51 75.82 76.04 76.20 75.83 75.50 74.07 75.01 74.03 74.46 76.22 76.88 76.71 76.30 76.71 76.43 75.74 74.52 73.24 72.30 70.96 71.41 69.86 70.16 68.73 68.72 67.04 66.04 66.04 64.96 66.63
68.96 69.73 71.00 71.78 72.13 72.22 72.64 72.81 73.25 73.65 74.80 74.94 75.14 75.91 76.22 75.04 75.23 75.75 74.66 74.25 74.44 74.87 77.34 76.87 77.05 76.97 76.71 76.01 75.03 74.08 72.98 72.52 71.64 71.65 71.01 70.08 70.00 69.30 68.49 67.25 65.83 64.13 64.71
68.67 69.21 70.93 71.90 72.07 72.54 72.52 72.92 73.26 73.82 74.30 74.48 75.03 75.15 75.68 75.63 75.25 76.21 76.45 74.84 76.66 75.52 76.54 77.22 77.01 77.17 76.53 75.90 74.98 73.08 72.46 71.72 71.72 71.50 71.21 69.87 69.95 69.94 68.98 67.84 67.30 65.11 61.76
67.79 69.07 70.51 71.24 72.02 72.26 72.98 73.18 73.78 73.74 74.49 74.91 74.85 74.71 75.09 75.53 75.84 76.09 75.60 76.05 76.65 76.78 76.67 76.85 77.10 76.95 76.49 75.89 75.19 74.01 73.08 71.73 71.01 70.47 70.87 70.55 69.95 69.72 69.64 69.03 68.35 67.12 65.62
65.51 67.22 69.90 71.47 71.98 71.99 72.56 72.75 73.21 73.72 74.06 74.52 75.01 74.78 74.99 75.29 75.64 75.63 75.86 76.05 76.74 76.90 76.71 76.72 76.53 76.47 76.21 75.64 74.87 74.52 73.33 71.93 71.86 70.96 70.52 70.46 71.16 69.10 68.91 69.05 68.43 67.56 66.69
66.47 67.03 68.17 69.59 70.48 71.74 71.81 72.30 72.90 73.38 74.18 74.49 74.76 74.73 75.06 75.14 75.01 75.02 75.87 76.24 76.19 76.59 77.11 76.86 76.51 76.19 76.16 75.85 74.73 74.23 73.41 72.12 71.50 71.29 70.64 70.09 69.22 69.69 69.88 68.56 69.14 68.38 68.41
65.63 67.10 67.49 68.74 69.84 70.96 71.69 71.84 72.41 72.67 73.42 74.51 74.58 74.80 74.83 74.72 74.70 75.06 75.73 76.15 76.21 76.41 76.08 76.76 76.60 76.00 75.72 75.51 74.96 74.80 74.04 72.85 72.62 71.93 70.96 70.50 70.25 69.01 68.06 68.30 67.71 67.70 68.20
65.78 66.91 67.09 69.15 69.81 70.60 71.23 71.73 72.17 72.94 73.51 73.66 74.22 74.42 74.71 74.99 74.94 75.32 75.72 75.92 76.29 76.22 76.41 76.81 76.95 76.47 75.65 75.55 74.84 74.47 74.37 73.52 72.97 72.60 71.67 71.08 70.49 69.75 68.86 68.34 68.88 68.75 67.87
62.92 64.77 66.48 68.83 70.16 70.57 71.14 71.46 72.24 73.15 73.59 73.70 73.74 74.19 75.15 75.74 75.75 75.45 75.61 76.06 76.27 76.10 76.44 76.59 76.70 76.52 75.55 74.80 74.80 74.60 74.03 73.64 73.09 72.95 72.17 71.63 70.86 68.17 68.07 68.60 69.63 69.95 67.91
62.47 65.33 67.77 68.29 69.01 70.30 70.63 71.28 71.81 72.38 73.57 73.32 72.99 74.39 75.45 75.51 75.45 75.48 75.57 75.94 75.94 75.87 76.45 76.22 76.36 76.19 75.01 68.81 67.47 72.78 73.87 73.66 73.81 73.00 72.64 72.33 69.08 67.57 64.53 64.63 65.96 69.45 69.08
62.64 64.01 67.08 68.32 69.29 69.46 71.04 70.58 71.48 72.35 73.00 73.26 73.59 74.11 74.83 75.01 75.09 75.56 75.72 75.36 75.58 75.87 75.74 75.82 76.06 75.87 76.18 64.87 64.77 67.09 74.67 73.62 73.91 73.66 73.39 71.93 71.01 67.98 69.03 64.41 63.40 63.91 64.17
62.39 64.27 63.03 66.61 70.05 69.48 69.47 71.62 72.24 72.64 72.76 73.34 74.00 74.02 73.87 74.46 75.20 75.37 75.19 75.54 75.66 75.44 75.50 75.52 75.77 75.75 75.66 63.48 62.68 65.78 74.20 74.48 74.43 74.25 73.59 72.75 72.07 70.50 69.55 70.65 68.59 68.21 67.74
63.46 63.98 63.40 65.25 70.34 70.26 71.25 71.91 72.05 72.62 72.89 73.12 73.69 74.23 73.98 74.50 74.97 74.49 74.62 75.07 75.35 75.44 75.49 75.97 75.84 75.38 75.83 61.71 61.33 65.14 72.92 74.02 74.19 74.30 73.76 72.80 72.15 66.34 62.48 69.91 69.17 68.09 68.59
61.78 63.00 63.77 65.72 66.83 69.90 70.07 71.06 71.11 72.07 72.40 73.41 73.75 74.43 75.20 74.88 74.69 75.07 75.14 75.41 75.55 75.22 75.44 75.65 76.03 72.30 75.70 61.03 59.75 64.37 73.58 73.41 72.82 73.87 73.22 63.79 69.29 60.06 59.03 69.39 69.82 68.80 69.27
62.35 62.79 63.55 65.10 67.42 68.40 69.21 70.62 71.60 71.78 73.25 74.10 74.57 75.36 75.95 75.72 75.53 74.66 75.69 76.26 75.82 75.74 75.40 75.21 75.57 75.57 74.19 73.42 58.46 58.60 73.66 73.30 72.35 71.87 70.29 71.65 59.60 55.87 55.45 59.86 71.06 69.08 69.76
69.19 62.56 63.55 66.31 68.89 69.92 70.05 71.30 72.46 73.60 74.31 74.61 75.10 76.11 76.31 75.61 75.19 75.55 74.98 76.17 74.84 75.33 75.59 75.29 73.84 74.58 75.68 65.64 57.32 57.10 63.09 66.78 72.46 70.01 70.89 71.07 56.51 54.00 53.36 58.59 60.13 55.93 62.34
70.29 69.67 68.84 69.35 70.04 71.00 72.02 71.31 71.85 73.15 73.88 74.52 75.31 75.91 76.54 76.48 76.67 76.09 75.80 73.45 72.94 72.75 73.33 72.33 72.40 72.87 72.95 73.56 57.62 55.29 57.24 60.86 70.23 70.95 67.49 59.19 52.93 53.11 54.68 55.07 54.82 56.22 67.17
68.71 68.30 67.68 67.70 67.99 70.47 71.78 72.30 73.66 74.15 73.83 74.34 74.90 75.51 75.77 75.74 76.57 75.86 75.59 74.50 72.86 72.09 71.44 71.65 71.17 71.67 72.43 70.67 63.05 61.90 62.80 60.70 64.17 60.68 59.80 59.05 59.23 58.60 61.00 58.11 58.80 67.10 67.34
65.20 66.48 66.68 66.78 66.66 68.14 68.14 68.12 68.68 73.08 74.48 73.32 73.23 73.98 74.39 74.22 75.62 76.13 75.66 74.41 74.37 73.44 73.45 74.29 72.16 71.94 66.68 63.63 57.76 60.82 63.81 64.02 60.86 59.87 61.42 62.01 62.08 61.42 62.17 64.09 63.80 66.12 64.21
65.76 65.71 65.77 65.93 66.17 66.87 67.25 67.62 68.30 67.87 69.99 71.37 72.35 71.96 72.56 73.60 74.62 74.27 69.40 53.63 52.95 54.74 53.47 56.19 68.22 68.72 57.14 50.03 50.75 51.30 51.30 51.48 54.02 61.85 62.55 63.44 62.77 62.82 63.19 62.53 62.66 63.86 62.32

GFSMW_sfc_wetblb_030.txt.gz
Wetbulb
71.28 71.92 72.57 73.43 73.91 74.54 74.96 75.41 75.38 76.79 76.22 75.61 74.74 74.24 72.84 73.39 73.72 74.54 76.39 77.23 78.16 78.82 79.42 77.86 77.74 77.96 76.97 76.97 76.19 75.46 74.46 72.81 74.17 68.82 69.52 70.44 71.13 71.37 72.24 72.51 71.10 71.84 72.70
70.76 71.35 72.15 72.78 73.14 73.82 74.65 75.30 75.79 76.97 76.69 76.06 75.99 74.87 73.98 73.65 74.10 75.07 76.87 78.25 78.58 79.37 79.05 79.33 78.53 78.24 77.26 77.30 76.82 76.13 74.36 73.51 71.17 69.34 69.20 65.56 67.58 69.42 71.56 71.65 70.97 70.85 70.87
69.50 70.79 71.17 71.98 72.74 73.20 74.31 75.47 76.46 77.25 77.28 77.82 76.41 75.56 75.09 74.47 73.71 74.87 76.70 78.38 79.02 79.12 79.70 79.28 77.62 78.76 77.91 76.29 77.04 76.33 74.58 71.48 70.71 72.07 69.44 65.52 65.20 66.79 69.38 71.37 71.01 71.37 70.47
71.37 71.58 71.24 71.78 72.39 73.40 74.77 76.00 77.11 77.47 77.60 77.89 77.14 77.50 73.38 72.17 73.40 75.24 76.52 77.30 78.74 78.90 79.06 79.25 78.81 79.33 77.71 78.01 78.43 76.73 75.68 74.35 69.25 70.55 70.79 72.14 71.61 65.95 65.10 68.92 70.18 70.83 70.41
71.29 71.60 71.84 72.07 73.08 73.91 74.40 75.38 77.41 78.57 78.96 79.07 78.81 76.27 75.94 74.24 74.27 74.82 78.93 79.80 79.35 78.99 78.58 79.23 79.37 79.09 78.22 78.14 78.33 76.85 76.17 74.42 70.53 69.53 69.62 70.44 69.30 70.35 66.85 65.53 67.03 69.97 70.17
71.20 72.24 73.11 73.15 73.01 74.07 74.66 75.18 77.45 78.50 78.60 78.15 77.64 78.76 78.23 77.41 74.69 76.11 75.04 75.57 76.40 77.51 78.60 78.83 79.36 79.47 79.00 78.43 78.31 77.93 76.75 75.76 73.39 70.87 71.40 68.87 67.48 67.33 67.35 66.17 67.71 67.49 69.40
70.78 71.57 72.41 72.70 73.10 73.23 74.17 74.78 77.07 77.30 78.29 77.36 77.87 77.70 78.15 78.54 78.04 77.83 75.88 77.29 74.99 75.31 78.65 78.85 78.75 78.38 79.48 79.03 78.82 78.26 76.91 76.33 74.28 73.14 70.64 70.88 70.22 70.24 68.41 67.01 67.61 66.20 68.65
70.88 71.41 72.52 73.16 73.52 73.56 75.03 75.15 76.38 77.06 77.19 77.24 78.79 79.46 79.69 77.02 77.14 78.25 76.69 76.16 75.68 76.54 78.02 78.10 78.59 78.79 78.88 78.91 78.78 77.90 76.90 76.44 75.11 74.05 73.30 70.50 71.07 71.14 69.96 68.27 67.49 65.41 66.01
70.55 71.43 72.44 73.29 73.96 74.70 75.87 76.50 77.04 77.82 77.59 76.82 78.93 79.35 79.27 78.93 77.20 79.43 79.39 77.36 79.37 77.01 77.62 77.86 78.18 78.52 78.75 78.86 78.81 77.17 76.89 75.83 75.26 73.82 73.81 71.85 70.59 71.49 70.79 70.09 69.02 66.64 63.65
70.21 71.44 72.38 73.04 74.16 74.83 75.45 76.43 77.42 77.43 78.06 77.62 77.97 77.97 78.68 79.58 79.56 79.82 79.68 79.39 79.05 79.25 78.15 77.78 77.96 78.17 78.62 78.88 78.91 77.50 77.40 76.22 74.67 73.41 73.12 73.28 70.88 71.37 70.94 70.27 69.56 68.76 66.62
69.47 70.58 71.72 72.84 73.85 74.85 75.36 75.47 76.00 77.13 77.17 77.84 78.35 78.12 77.88 78.35 78.95 79.04 79.55 80.00 79.35 80.18 78.93 79.28 78.02 77.76 78.32 78.83 78.60 78.62 77.55 76.39 75.45 74.80 73.31 73.15 74.06 70.26 69.93 70.51 69.84 69.18 68.54
67.29 68.68 70.44 71.99 72.82 73.73 74.61 75.25 75.59 75.44 76.80 77.69 78.48 78.57 78.89 78.86 78.21 78.76 79.27 80.13 79.73 79.89 80.23 79.70 79.01 78.48 77.92 78.70 78.03 77.59 76.94 76.35 75.45 75.19 74.42 72.83 72.16 72.66 72.11 70.03 73.04 71.07 71.10
66.37 68.15 68.76 69.73 71.74 72.95 73.92 74.09 75.20 75.16 75.92 77.43 76.81 77.27 77.96 77.69 78.54 79.20 79.10 79.83 79.76 79.95 78.42 79.37 79.78 78.89 78.40 78.46 78.05 77.80 77.61 76.90 76.54 75.91 75.14 73.92 72.42 71.89 71.16 70.90 70.15 69.55 69.49
65.59 66.67 67.84 69.16 70.70 72.95 75.34 75.76 74.21 75.13 75.41 75.87 76.07 77.30 78.21 78.42 78.56 79.36 79.25 79.54 79.93 79.82 79.72 79.57 80.24 79.54 78.75 78.10 77.69 77.33 77.41 77.62 76.80 76.79 76.14 75.12 73.81 72.58 72.05 70.92 70.91 70.56 69.19
62.92 65.75 68.84 70.23 72.30 73.15 74.99 76.01 75.09 75.93 75.94 77.03 76.03 77.48 78.59 79.14 79.21 79.01 79.20 79.52 79.89 79.67 79.92 79.73 80.03 80.09 78.35 77.22 78.67 78.52 77.45 77.68 77.05 76.90 76.66 76.01 74.36 70.02 70.85 71.53 71.67 73.23 69.89
61.65 62.90 66.54 69.18 71.12 72.47 73.59 74.55 76.29 75.83 76.02 77.24 76.73 77.97 78.71 79.18 79.03 79.24 79.24 79.44 79.44 79.47 79.69 79.20 79.56 79.40 77.85 70.64 68.28 75.34 77.49 78.42 78.09 77.03 76.52 76.45 71.88 70.34 66.09 65.88 66.53 70.56 71.81
62.71 64.17 65.82 68.01 70.99 72.35 73.61 73.39 75.96 75.96 76.42 76.88 77.76 78.06 78.79 78.62 78.85 79.18 79.33 79.01 78.86 79.44 79.18 79.19 79.37 79.19 79.49 66.71 65.67 68.62 77.37 78.27 78.00 78.01 77.30 76.09 75.74 72.01 73.65 66.11 64.49 64.96 65.28
62.68 64.18 64.27 66.01 69.51 71.26 70.08 73.64 74.16 76.44 76.56 76.94 77.39 78.18 78.34 78.52 79.21 79.30 78.78 78.91 79.08 78.73 78.79 78.93 79.36 79.27 79.35 65.86 63.34 66.95 76.79 78.49 78.39 78.28 77.86 78.23 77.71 75.53 73.87 73.61 70.17 70.02 70.45
64.09 64.81 65.22 66.27 68.69 68.81 70.88 71.57 73.65 74.53 75.70 76.51 76.85 77.72 78.22 77.35 77.91 78.36 78.43 78.88 78.35 78.23 78.40 78.25 79.13 79.31 79.22 63.80 61.48 66.64 76.04 76.46 78.45 78.32 78.16 77.97 77.51 69.94 64.11 73.43 72.79 71.92 71.58
64.31 64.69 65.43 65.86 66.91 69.80 70.62 71.55 72.56 73.32 74.64 75.99 76.76 77.96 78.62 78.11 77.53 78.63 78.74 79.10 78.71 77.70 77.23 77.57 78.89 74.74 79.19 64.02 59.71 66.10 75.30 75.61 75.59 78.18 78.70 66.52 74.40 62.64 60.41 71.96 72.52 71.41 71.92
66.03 67.03 67.45 66.86 68.70 71.36 72.06 72.18 72.95 72.84 75.36 75.86 75.93 77.62 78.72 78.56 78.84 79.38 79.44 79.01 78.43 77.74 78.29 77.17 77.70 78.71 77.71 77.28 58.46 59.03 75.52 75.78 75.45 74.93 75.52 76.06 62.39 57.53 57.08 62.65 71.56 71.22 72.50
69.75 71.68 68.94 67.13 69.01 71.93 71.39 72.24 75.26 75.99 77.00 77.28 76.69 78.49 78.55 77.02 77.00 79.23 79.43 78.81 78.44 77.57 77.29 75.76 76.58 77.78 78.93 67.85 59.21 58.00 61.87 70.17 76.17 75.62 75.45 75.36 58.49 55.19 54.83 59.84 62.70 58.74 62.47
71.09 72.39 67.39 68.96 72.56 74.03 73.70 72.88 75.69 76.74 76.63 76.73 77.48 77.95 78.31 77.96 79.12 78.82 78.64 76.85 77.93 75.75 75.39 74.53 75.74 75.43 77.48 77.70 61.56 57.14 57.82 60.98 71.48 76.07 71.23 61.27 54.20 53.48 55.37 57.87 57.93 58.67 70.11
72.63 72.84 71.37 70.84 72.34 74.60 75.18 76.03 75.97 76.31 76.07 75.59 76.16 76.71 76.86 76.54 77.34 76.97 77.01 75.89 75.37 75.98 75.18 75.68 75.94 75.80 76.05 76.59 76.16 68.86 63.73 60.74 65.33 62.66 64.92 61.37 60.02 60.00 60.90 60.08 61.75 69.03 69.88
71.24 72.00 71.60 71.50 71.50 72.71 73.01 73.91 75.16 77.15 75.39 75.95 76.20 76.58 76.25 76.45 76.87 77.69 76.65 76.14 77.62 75.03 75.78 75.94 75.82 74.86 74.26 75.14 69.88 65.01 66.23 67.08 64.23 60.77 62.71 62.58 62.89 63.24 63.05 65.37 66.30 68.05 68.96
69.25 69.44 69.56 69.90 70.20 70.44 70.77 71.43 71.95 72.11 73.38 74.14 74.24 73.91 74.66 75.36 75.90 75.97 76.50 52.15 54.93 52.72 52.03 52.60 64.59 73.94 64.20 52.48 50.40 50.22 50.76 51.30 53.48 62.78 64.12 64.26 63.53 62.36 63.20 65.03 64.91 67.29 66.31

GFSMW_sfc_wetblb_033.txt.gz
Wetbulb
71.13 72.14 72.75 72.97 73.23 73.96 74.51 76.19 76.52 78.55 77.19 75.76 74.72 74.77 73.66 74.77 73.86 74.31 77.05 77.61 77.63 78.52 79.17 77.95 78.85 77.49 77.45 76.64 76.14 75.32 74.28 73.11 71.68 69.12 68.92 69.96 70.77 70.95 70.59 71.21 71.30 71.69 70.82
70.89 71.23 72.04 72.36 72.73 73.90 75.78 77.25 77.94 79.45 78.55 76.72 77.22 76.21 76.03 74.11 73.87 74.18 77.77 77.26 77.78 78.84 79.07 79.74 77.53 78.49 74.97 77.09 76.76 75.77 73.17 71.45 70.50 69.95 68.13 65.56 67.33 69.11 70.22 70.12 70.00 70.78 70.16
70.71 70.83 71.24 71.78 72.60 73.85 75.79 77.12 78.49 79.19 78.82 79.09 78.11 77.89 76.94 76.06 73.40 73.97 74.57 76.94 78.29 78.82 80.51 79.19 78.34 78.94 78.39 78.13 77.20 76.05 75.27 70.87 69.74 73.45 70.06 66.70 63.95 66.36 68.96 70.10 70.44 71.13 69.55
71.60 71.84 71.16 71.51 72.18 73.84 75.10 77.85 78.94 79.36 79.12 79.82 77.30 77.57 73.91 72.09 72.91 74.13 74.53 76.59 79.40 78.77 79.05 79.04 78.30 79.34 77.80 77.85 77.37 76.62 76.36 75.07 70.05 69.76 71.09 73.21 71.97 66.14 65.05 69.38 70.06 70.65 70.18
71.41 71.71 71.88 71.85 72.63 73.61 74.37 76.57 79.09 79.43 79.47 79.35 78.98 76.55 76.15 73.51 73.76 73.94 77.59 78.56 80.67 79.39 78.19 80.00 79.50 79.51 78.27 80.23 78.00 78.06 77.19 74.71 72.60 69.81 69.22 70.77 69.10 70.72 68.06 64.65 68.17 69.52 70.13
71.10 72.29 73.15 72.97 72.41 73.31 74.14 76.30 78.73 79.57 80.14 80.16 79.28 79.74 77.35 76.77 73.85 74.57 74.37 75.11 75.83 77.94 80.21 79.25 80.72 80.76 79.97 78.84 78.42 79.01 77.76 76.79 75.24 72.06 71.39 69.46 68.33 68.14 67.68 66.71 68.90 68.38 69.90
70.30 71.62 72.44 72.53 72.92 73.60 74.73 76.02 78.04 78.75 79.74 80.04 79.26 79.15 79.79 79.26 79.87 78.68 74.40 76.27 74.70 74.90 78.56 80.38 80.33 78.53 80.78 79.60 80.39 80.05 78.53 77.07 75.70 75.59 71.37 71.03 70.53 70.64 69.09 67.67 67.57 66.93 68.53
70.23 71.41 72.56 73.20 73.84 74.42 75.66 76.45 77.67 78.76 79.63 79.46 79.63 79.90 80.67 77.81 77.11 78.26 76.05 75.27 75.16 75.62 80.06 80.43 80.11 79.85 80.19 79.57 80.87 78.46 77.71 78.29 76.02 75.65 75.15 71.92 71.56 71.30 70.55 68.89 67.54 66.02 66.54
69.34 70.76 72.56 73.46 74.79 74.84 76.12 76.58 77.63 78.53 79.21 78.93 79.57 80.11 80.08 79.88 78.36 79.20 79.72 78.02 78.72 76.43 79.86 80.36 79.95 80.07 79.93 80.59 80.84 77.44 78.84 78.62 76.91 76.48 75.95 73.03 71.06 71.66 71.30 70.43 69.57 67.49 64.58
68.60 70.63 72.02 73.21 74.97 75.04 76.28 77.23 77.81 78.22 78.93 78.75 79.36 79.60 80.22 80.67 80.24 80.67 80.53 79.05 79.85 80.57 80.88 79.50 79.52 79.63 80.16 80.32 80.89 78.85 79.72 78.87 76.08 74.14 76.45 75.73 71.54 72.25 71.51 70.65 70.10 69.20 67.08
67.41 70.04 72.05 73.20 74.50 75.18 75.40 76.47 77.41 78.41 78.88 79.19 79.32 79.51 79.78 80.08 80.68 79.88 80.53 80.69 81.01 81.60 80.09 80.74 79.91 79.74 79.66 80.27 80.39 79.65 79.61 78.59 78.14 77.20 76.96 75.85 76.80 70.88 70.53 70.75 70.39 69.50 69.12
67.09 70.11 72.05 72.50 73.33 74.41 74.97 75.62 76.65 76.81 78.89 79.40 79.37 79.32 79.94 79.98 80.09 80.34 80.27 81.31 81.17 81.01 81.28 80.94 80.56 79.97 79.62 79.96 80.01 79.09 77.51 78.81 77.27 76.54 76.85 75.26 72.89 75.48 75.54 71.17 75.17 71.84 73.28
67.44 69.92 70.91 71.61 72.41 73.33 75.46 75.29 76.78 76.09 76.77 78.51 78.72 79.48 79.29 79.86 79.42 80.15 80.63 80.77 81.10 81.20 80.93 80.72 80.85 80.16 79.69 79.78 80.35 79.98 79.35 79.24 78.66 78.15 77.64 76.41 75.63 75.29 72.12 72.46 71.18 70.27 71.00
65.59 67.90 68.67 69.91 72.24 74.02 76.47 77.14 76.43 76.74 76.85 77.20 77.70 78.31 79.42 79.49 79.78 80.26 80.67 80.78 81.13 80.79 80.63 80.69 80.64 80.69 80.32 80.01 79.97 79.69 79.47 79.24 79.02 78.79 78.61 77.93 76.63 75.13 75.19 73.96 73.58 73.11 71.20
64.68 66.16 67.55 70.01 73.15 75.36 77.15 77.73 76.50 77.85 77.47 78.10 78.00 78.26 79.68 80.32 80.43 80.21 80.72 80.87 80.96 80.82 81.00 80.53 80.56 80.95 80.52 79.16 79.57 79.30 79.10 79.15 79.11 79.14 79.05 78.76 76.88 72.24 73.20 73.07 73.42 73.42 70.95
62.68 63.89 65.22 68.48 70.55 73.31 76.20 76.96 77.74 77.54 78.05 78.58 78.06 79.08 79.84 80.29 80.39 80.76 80.56 80.92 80.58 80.80 80.75 80.46 80.27 79.95 79.77 71.72 69.01 76.41 79.04 79.27 79.12 78.51 79.07 79.02 73.61 72.05 67.76 67.36 68.10 72.63 73.82
62.53 63.59 64.55 66.06 69.73 71.12 74.41 74.97 78.05 78.42 77.61 78.06 78.95 79.10 79.81 79.85 80.42 80.79 80.83 80.14 80.22 80.70 80.39 80.22 80.48 80.10 80.43 67.97 66.23 68.83 79.10 79.17 78.84 79.24 79.06 78.46 76.82 74.33 75.30 67.05 66.10 65.90 65.85
63.13 63.97 63.86 65.72 68.45 68.49 70.54 74.21 74.87 78.85 78.37 78.02 78.18 79.09 79.33 79.85 80.56 80.72 80.31 80.53 80.70 80.25 80.25 80.14 80.48 80.28 80.32 67.89 63.75 66.70 77.48 78.60 78.79 79.01 79.20 78.93 77.92 77.69 76.46 75.71 72.67 72.41 72.24
63.81 64.44 64.85 65.55 70.27 67.94 70.13 72.17 74.36 76.96 78.08 78.15 78.19 78.53 79.54 79.47 79.93 79.63 80.05 80.45 80.11 80.11 79.85 80.29 80.42 80.16 80.14 66.01 63.11 65.62 76.46 77.16 77.69 78.48 79.38 79.33 79.21 71.97 66.41 76.12 74.94 73.35 72.53
64.61 65.19 65.69 66.17 66.63 69.47 68.22 68.71 70.01 74.08 77.16 77.49 78.77 79.32 80.22 79.74 79.60 79.96 80.39 80.50 80.33 79.68 79.40 79.64 80.24 76.19 79.99 68.18 62.14 65.03 76.65 76.28 76.53 77.85 78.90 68.38 76.29 66.57 62.42 75.26 75.23 73.02 72.54
69.57 69.58 69.44 68.66 69.69 70.23 69.43 73.55 73.17 73.02 76.32 78.03 79.22 79.68 80.09 80.05 80.18 80.33 80.84 80.59 80.22 79.35 79.49 79.26 79.65 80.05 78.66 78.94 60.55 60.27 77.04 76.48 76.24 76.38 76.81 78.18 64.29 61.18 58.43 65.02 74.91 73.61 74.49
69.92 69.60 69.55 71.86 73.09 71.66 72.49 76.07 76.08 77.58 79.44 79.12 78.73 79.42 80.11 79.06 79.13 80.34 80.67 81.07 80.33 79.52 79.23 78.90 78.86 79.54 80.12 69.73 63.92 58.84 63.46 71.92 76.46 76.30 77.01 77.21 60.66 58.12 56.37 61.14 64.67 60.20 66.85
69.87 68.03 69.02 73.04 71.43 73.06 73.60 75.59 78.37 80.57 80.30 79.98 80.01 80.14 80.49 80.33 80.26 80.22 80.10 78.62 79.54 77.90 77.57 77.31 77.82 78.04 79.37 79.58 62.91 57.36 58.07 61.73 73.33 77.08 72.53 66.31 56.15 55.90 56.71 60.34 58.77 59.67 71.27
71.35 72.99 73.10 72.48 71.70 74.71 75.87 75.86 78.37 78.73 79.29 79.74 80.17 80.21 80.27 79.65 79.75 77.86 78.17 77.35 76.81 76.93 76.57 76.57 76.77 77.29 77.82 78.29 79.60 73.30 65.93 59.89 65.92 64.89 70.19 63.43 62.56 63.37 65.59 62.43 62.99 68.98 70.34
72.70 72.76 73.43 74.23 73.81 75.63 76.46 77.32 77.66 77.43 76.49 76.87 76.81 77.15 76.77 77.60 78.96 79.09 76.95 77.17 78.42 75.05 76.81 76.96 76.85 76.39 76.49 76.90 71.89 73.25 77.22 73.36 69.33 70.31 68.44 66.91 67.16 65.30 64.42 65.32 65.19 67.04 69.12
71.24 72.25 72.34 71.98 72.25 72.73 72.89 73.67 74.20 76.62 77.44 76.46 76.38 76.04 76.08 76.52 76.79 76.90 77.34 59.64 60.66 57.13 51.36 48.09 59.48 73.82 59.65 55.07 52.39 52.81 53.35 54.62 54.38 69.12 67.47 66.11 66.48 65.10 64.26 65.33 65.30 66.91 66.86

GFSMW_sfc_wetblb_036.txt.gz
Wetbulb
70.95 72.32 72.51 73.00 73.50 74.40 74.92 74.64 75.29 76.93 75.85 75.09 74.46 74.92 73.58 75.53 76.48 77.39 78.68 78.89 78.88 79.48 80.33 78.14 73.92 77.72 77.39 77.38 77.21 76.01 73.23 71.66 71.90 71.18 70.03 70.46 70.54 70.02 69.32 70.11 69.72 70.99 71.29
69.57 71.25 71.93 72.28 72.63 73.29 74.42 74.89 75.22 76.65 76.46 75.89 75.77 75.71 76.06 75.41 75.57 76.39 78.57 78.75 78.43 80.27 79.76 78.86 78.03 79.07 73.99 77.64 77.15 76.40 73.45 72.75 71.79 70.65 67.67 65.75 67.94 67.99 68.65 70.48 69.54 70.49 70.15
69.08 70.35 71.09 71.70 72.31 73.13 74.11 74.70 75.35 77.04 77.26 76.88 77.32 77.66 77.91 78.02 75.07 74.63 75.86 77.01 78.39 78.97 79.23 79.15 78.27 78.12 77.52 75.83 76.39 76.41 76.64 71.58 71.17 74.16 70.85 64.41 62.39 67.13 69.34 69.38 68.99 69.96 68.89
70.75 70.60 71.37 71.53 71.97 73.11 74.42 75.52 75.96 76.73 77.40 77.95 76.10 76.48 73.64 72.31 73.73 74.25 75.40 75.96 77.25 78.40 78.42 78.47 79.32 79.16 77.76 77.08 77.53 77.96 77.26 75.27 69.52 70.86 72.12 73.03 71.82 66.17 63.01 69.18 69.11 70.27 68.76
70.65 70.77 70.96 71.75 72.35 73.40 74.72 75.54 76.29 76.73 77.68 76.47 77.81 75.79 75.09 74.24 74.18 75.34 76.04 76.85 77.51 78.73 78.93 78.51 79.56 79.52 78.91 78.08 77.21 78.37 77.48 76.78 74.24 70.70 70.18 71.29 71.23 71.03 68.53 64.84 66.87 69.27 70.00
70.87 72.18 72.05 72.39 72.19 73.70 75.10 75.71 76.42 76.49 77.75 77.44 76.51 77.85 75.30 75.23 73.46 73.73 74.64 75.85 77.39 77.58 79.29 78.95 78.59 79.37 79.02 78.68 77.82 78.76 78.52 77.42 76.55 74.14 72.43 70.05 68.48 68.45 68.03 67.10 66.53 67.11 69.31
70.61 71.92 71.86 71.70 71.93 72.67 74.14 74.98 76.53 76.17 76.97 77.35 76.27 75.94 78.07 75.61 76.61 76.93 73.32 74.51 74.68 76.30 77.35 78.93 78.74 77.92 78.45 79.03 78.97 78.30 78.65 77.68 76.54 75.36 73.45 73.03 72.35 71.77 70.57 68.36 67.34 66.62 68.37
69.48 71.63 72.55 72.42 72.06 72.71 73.56 74.34 75.71 75.85 76.82 77.01 77.23 76.53 78.05 76.79 75.12 77.72 75.01 74.02 75.05 75.46 78.16 77.68 78.38 78.26 77.97 78.36 79.72 78.88 77.90 77.57 76.50 76.78 74.71 73.12 73.15 72.67 71.28 69.48 68.93 65.82 66.55
68.42 71.03 72.87 73.28 72.68 72.53 73.37 74.09 75.08 76.20 76.97 76.55 77.73 77.67 76.35 77.97 76.41 76.59 77.55 77.19 76.39 77.23 79.30 77.94 78.13 77.87 78.42 78.83 79.25 77.30 77.71 78.32 76.79 75.88 75.97 73.97 72.89 73.11 72.32 71.78 70.33 68.28 64.90
67.98 70.63 72.29 73.56 73.52 73.34 73.77 74.46 75.71 75.85 77.01 77.52 77.35 77.71 76.97 77.61 77.96 77.21 77.49 76.49 78.17 77.25 80.54 78.13 77.80 78.15 77.91 79.02 78.56 77.87 78.27 77.36 76.65 75.44 74.54 74.10 71.69 71.63 72.83 71.65 71.28 70.11 67.86
67.64 69.86 72.32 73.50 74.52 74.20 74.30 74.32 74.85 76.24 76.82 77.38 77.59 77.48 77.74 77.12 77.59 77.52 77.91 79.00 77.71 80.27 77.77 79.15 77.88 77.97 77.94 78.15 78.17 77.34 77.23 77.58 76.70 75.08 74.81 73.57 73.62 73.04 72.08 71.62 71.35 70.70 69.80
68.54 69.78 71.81 73.22 74.15 74.33 74.36 74.55 74.97 75.79 76.85 77.95 77.77 77.24 77.74 78.16 77.71 77.09 77.91 78.86 79.58 78.36 80.02 78.92 78.23 78.06 77.67 77.93 77.54 77.10 76.21 77.05 76.09 75.28 74.26 74.08 73.35 73.37 73.77 73.66 70.82 70.37 71.41
67.57 69.24 71.14 72.14 73.58 74.26 74.67 75.03 75.24 75.46 77.25 77.94 77.59 77.39 77.27 77.35 77.80 77.92 77.60 78.28 78.46 78.97 78.43 79.34 78.81 77.67 77.48 77.53 77.69 77.42 77.18 75.40 76.96 76.53 75.32 74.55 73.51 72.55 71.19 71.76 71.13 71.06 71.45
67.95 69.10 70.64 71.98 73.21 74.32 74.92 75.21 75.52 76.09 76.37 77.35 77.59 77.04 77.18 77.54 77.68 78.25 78.54 77.85 78.22 78.23 78.61 78.50 78.32 78.72 77.91 77.76 77.54 77.49 77.70 77.01 76.56 77.23 76.64 75.96 74.55 72.62 72.58 71.55 70.58 71.27 70.51
68.50 70.42 70.58 72.05 73.02 74.14 75.03 75.69 76.09 76.17 76.47 76.22 76.82 77.09 77.46 78.11 78.21 78.22 78.41 78.80 78.44 78.14 78.52 78.44 78.47 78.38 78.66 78.14 77.39 77.42 77.62 77.25 76.46 76.71 77.44 76.87 75.77 72.31 71.93 71.99 71.96 69.85 69.85
66.17 68.44 70.22 72.55 75.45 74.61 75.56 75.27 75.88 76.49 76.80 76.05 76.34 76.97 77.42 77.60 78.30 78.08 78.27 78.54 78.70 78.62 78.48 78.30 78.09 78.13 78.44 72.13 69.82 75.18 77.29 77.57 76.91 76.37 76.91 77.20 73.67 72.28 68.68 68.27 68.92 71.12 69.11
63.35 65.44 68.63 70.74 72.41 73.69 77.17 76.51 76.33 77.38 77.27 76.28 77.06 77.14 77.43 77.35 77.69 78.50 78.21 77.96 78.29 78.72 78.28 78.43 78.47 77.72 78.07 68.65 67.48 69.23 77.14 76.76 76.87 76.68 76.68 76.87 77.04 73.42 73.89 67.65 66.94 66.78 67.23
65.88 68.21 64.92 67.80 72.98 70.34 70.56 75.28 77.73 77.32 76.88 77.74 77.24 77.92 77.89 77.52 78.11 78.21 78.17 78.38 78.49 78.45 78.21 78.38 78.57 78.33 78.13 68.19 65.15 67.25 75.79 76.57 76.78 77.02 76.81 76.71 76.55 75.94 75.16 73.09 70.34 70.23 69.87
66.82 67.42 65.90 67.32 74.29 71.81 72.45 73.47 74.44 77.41 77.35 76.53 77.53 77.60 78.27 78.01 78.02 78.01 78.03 78.51 78.73 78.38 78.68 78.59 78.61 78.24 78.21 66.40 64.24 65.37 74.45 75.38 75.79 76.79 77.25 76.88 76.55 72.11 66.27 74.55 71.98 70.41 70.39
70.14 70.99 70.91 71.10 69.70 75.50 72.42 74.92 74.11 75.45 76.40 76.59 76.76 78.10 77.98 77.91 77.73 78.25 78.68 78.95 79.13 78.67 78.83 78.57 78.90 75.25 78.25 68.71 62.62 64.74 75.57 74.62 74.76 75.69 76.74 68.23 74.62 67.46 61.79 73.59 73.57 71.23 70.55
70.48 72.03 71.87 71.26 75.35 76.01 74.84 76.67 74.33 73.73 76.01 77.49 77.84 78.20 78.31 77.86 78.21 78.72 79.35 79.30 79.10 78.90 78.56 78.42 78.69 78.87 77.43 77.43 62.23 60.01 76.03 75.87 74.87 74.53 74.95 76.09 64.22 62.19 59.05 64.17 74.31 72.61 72.87
70.75 71.07 71.66 72.34 73.08 78.34 77.68 76.09 77.35 78.82 80.68 78.99 77.83 78.13 79.22 78.04 78.38 78.83 79.13 79.26 78.97 78.28 77.92 77.83 77.68 78.56 78.81 69.11 65.76 58.85 61.21 71.27 75.73 75.02 75.27 75.13 62.19 58.47 57.51 60.46 66.38 62.53 66.23
71.78 71.84 71.09 72.52 73.56 78.60 79.07 75.93 80.17 82.01 81.40 81.24 79.96 78.66 79.62 79.09 78.33 78.99 78.41 78.25 78.66 77.80 77.48 77.11 76.88 77.14 78.16 78.92 63.24 59.18 57.99 59.74 68.83 76.68 72.62 59.94 56.30 56.59 58.25 59.19 61.75 61.34 71.54
71.85 74.14 74.08 74.70 76.56 77.92 77.39 78.98 79.32 80.50 81.26 81.54 81.35 79.93 79.45 78.59 78.95 78.16 78.55 77.66 77.55 77.47 77.35 77.09 76.47 76.84 77.67 78.04 78.01 74.02 64.72 60.52 64.45 68.37 71.39 70.70 63.23 61.48 64.52 64.37 63.13 71.66 73.12
72.21 73.36 74.07 75.38 76.01 77.38 77.00 77.21 78.53 80.24 79.12 79.55 79.64 79.96 78.94 78.15 78.83 78.73 77.53 78.07 78.47 76.17 77.44 77.32 76.86 76.02 76.38 74.35 60.61 64.23 76.06 72.77 68.85 70.54 74.32 73.90 72.77 72.78 69.01 68.21 69.27 71.50 72.35
71.46 72.78 73.64 73.47 73.31 73.39 73.68 74.68 75.85 77.51 79.26 78.35 77.34 76.64 76.69 77.19 77.59 77.73 77.58 63.40 63.73 56.87 49.42 49.42 61.70 75.21 56.99 50.14 51.05 54.13 55.76 52.13 54.96 68.02 72.48 72.54 71.38 69.82 69.49 67.98 69.17 70.75 69.64

GFSMW_sfc_wetblb_039.txt.gz
Wetbulb
68.71 70.12 70.96 71.44 71.18 71.29 70.75 70.45 70.99 71.50 71.35 72.59 71.34 71.35 70.38 71.03 71.04 71.30 74.09 74.44 74.72 74.95 74.32 73.92 73.09 73.46 71.67 71.94 71.85 69.73 69.95 67.37 65.01 63.94 64.68 64.27 64.86 67.08 68.24 68.51 69.66 70.00 69.31
67.73 68.82 69.07 70.14 70.75 70.90 71.35 70.92 71.88 72.38 71.66 72.67 71.73 71.18 71.67 71.13 71.63 71.15 74.05 75.03 74.80 75.00 74.70 73.90 72.77 73.55 72.11 72.40 71.59 70.41 69.16 68.76 65.28 65.67 64.41 60.43 62.28 64.84 66.34 66.64 69.17 67.79 68.65
67.05 67.84 68.19 68.78 70.33 70.68 70.74 71.28 71.44 72.99 72.26 72.66 72.69 72.09 72.26 71.31 70.76 70.26 70.36 74.25 74.24 75.57 74.90 74.43 74.06 73.72 71.62 71.72 71.87 70.94 70.40 64.00 66.06 68.05 65.87 60.58 58.75 60.82 65.67 64.14 64.50 65.94 64.81
67.61 68.16 68.20 68.52 69.24 70.84 71.80 71.40 72.08 73.83 73.17 73.17 72.85 71.69 70.97 69.94 70.27 69.38 69.97 72.07 74.10 74.77 75.60 74.70 74.05 73.73 73.62 72.03 72.10 72.86 71.00 66.72 62.45 64.64 67.78 67.65 66.37 58.86 58.50 64.54 63.92 65.06 64.72
67.22 67.91 68.35 69.14 69.71 71.16 71.65 71.82 72.09 73.37 73.90 73.70 72.97 72.69 71.06 70.67 69.73 69.78 69.70 71.47 72.37 73.79 76.23 74.87 75.03 73.80 74.08 72.90 72.64 73.26 70.75 70.13 67.77 63.36 64.33 65.16 65.55 65.21 61.32 59.13 62.52 64.75 64.39
67.91 68.23 69.30 69.66 69.58 71.34 72.01 72.21 71.79 72.22 73.91 73.54 73.66 72.31 71.53 69.86 69.83 68.61 68.94 72.00 72.92 74.20 75.15 75.43 75.12 74.37 74.41 73.44 73.45 73.71 72.28 71.15 71.28 67.77 65.95 62.72 62.17 62.81 61.99 62.49 63.02 61.76 64.01
67.83 67.51 68.09 68.45 68.99 70.17 70.85 72.15 72.04 71.79 73.81 73.30 72.76 73.49 72.41 71.92 70.10 69.46 69.53 70.51 73.33 73.55 74.47 75.00 74.60 74.86 74.80 75.06 73.81 74.25 73.90 72.34 71.32 69.98 66.96 67.52 64.90 66.86 64.44 63.48 61.78 61.71 63.82
67.68 67.95 68.32 68.63 68.89 69.58 70.98 72.31 72.34 72.18 73.73 74.23 72.98 72.59 73.76 73.35 72.15 72.71 70.41 70.62 72.16 73.88 74.30 75.55 75.14 74.77 74.67 74.42 75.18 74.47 74.56 73.50 71.80 71.99 69.55 66.97 67.98 66.42 64.55 62.77 63.20 60.03 60.62
68.12 68.37 68.61 69.03 68.96 69.60 71.37 71.86 72.76 72.66 73.42 74.06 74.27 72.91 73.05 74.97 72.49 71.69 73.52 70.07 71.38 73.08 74.76 75.20 75.95 75.15 74.87 74.40 74.79 75.45 74.07 74.08 73.05 71.56 71.58 69.33 67.66 68.20 66.36 65.12 64.51 62.21 58.81
67.76 69.06 68.87 69.21 69.34 69.87 71.39 72.45 73.72 73.33 73.71 73.97 74.45 74.46 73.11 73.14 74.88 72.22 71.97 73.18 71.15 71.63 74.12 74.95 75.46 75.33 75.19 75.15 75.03 74.69 74.92 73.88 73.98 72.75 71.54 70.32 68.60 67.46 67.12 66.31 65.08 64.06 61.67
67.33 69.39 69.63 70.01 69.87 70.19 71.03 71.69 72.81 73.59 73.88 74.32 74.11 74.67 74.29 73.30 74.62 74.42 72.50 74.29 72.92 73.72 73.38 75.02 75.09 74.95 75.16 75.78 75.20 74.04 73.87 74.16 73.49 72.54 71.48 70.43 69.37 66.80 66.93 66.34 65.73 64.49 63.29
66.16 69.87 70.15 70.28 69.92 69.66 70.52 71.14 71.99 73.39 74.18 74.84 74.32 74.41 75.21 74.67 73.60 74.58 74.52 73.03 74.76 73.86 75.37 75.82 75.20 75.39 75.09 74.82 75.30 74.23 74.61 73.21 73.32 72.82 70.75 70.81 71.26 68.10 68.07 69.10 64.81 64.56 65.40
65.82 69.24 70.26 70.06 69.96 69.81 70.07 70.81 71.82 72.93 74.13 74.81 74.88 74.50 74.54 75.10 73.97 74.16 74.74 75.09 73.88 75.74 74.26 75.85 75.50 75.25 75.41 75.20 75.11 75.28 74.58 73.58 74.47 73.97 72.09 70.97 70.66 69.01 68.43 67.83 67.30 66.49 65.39
65.02 68.57 69.33 70.37 70.74 70.53 70.47 70.71 71.29 72.87 74.13 74.54 74.77 74.74 74.93 75.00 75.42 74.92 74.52 74.10 75.76 75.17 76.50 74.57 75.63 75.74 75.79 75.52 75.67 75.30 75.02 74.64 73.73 74.53 74.03 72.81 71.61 70.57 69.32 67.81 66.82 66.56 65.47
64.31 66.48 68.84 69.61 70.78 71.10 71.00 71.47 71.73 72.43 73.48 74.27 74.77 74.85 75.30 75.28 75.32 75.25 75.67 75.50 74.40 75.96 75.46 75.83 75.56 76.14 75.69 75.99 75.31 75.49 75.21 74.81 74.80 73.61 75.13 74.59 73.46 71.11 69.80 69.88 67.90 66.51 65.86
62.41 63.49 66.18 69.16 70.34 71.35 71.62 71.99 72.13 72.45 73.07 73.78 74.19 75.42 75.15 75.19 74.91 75.16 75.21 75.84 75.71 74.77 75.31 75.26 75.41 75.66 76.42 70.94 69.27 73.97 75.11 75.13 74.93 74.48 73.63 75.29 72.79 71.44 67.77 67.55 68.07 68.94 66.24
59.47 60.07 60.45 63.60 67.66 70.92 72.26 72.28 72.94 73.35 73.05 72.83 73.99 74.76 75.02 74.74 75.02 75.16 75.45 75.24 75.69 76.09 75.21 75.17 75.69 75.31 75.93 67.64 66.98 69.31 75.53 74.99 75.22 75.11 74.80 73.74 75.37 72.12 73.63 67.34 66.79 67.00 66.59
60.52 60.45 60.12 61.54 62.68 67.79 72.92 73.17 73.31 73.24 73.10 72.89 73.02 74.08 74.60 74.83 75.06 75.30 74.85 75.62 75.82 75.87 75.95 75.85 75.73 76.08 76.13 67.22 65.20 67.22 75.04 75.22 75.08 75.71 75.51 74.87 74.66 74.47 73.95 73.48 70.41 69.86 69.46
64.91 65.51 65.63 65.22 64.84 64.72 65.73 73.46 73.00 73.43 73.47 72.94 73.16 73.81 74.80 74.49 75.03 74.84 75.32 75.62 75.63 75.72 75.97 76.56 76.31 75.97 76.18 65.07 64.09 65.20 73.71 74.83 74.83 75.33 75.52 75.75 75.09 71.06 65.38 73.78 72.06 70.63 70.25
66.01 66.55 66.80 66.42 66.43 66.79 66.98 70.09 73.20 73.16 72.93 73.72 74.59 74.89 74.99 75.02 74.49 75.04 75.32 75.96 76.27 76.02 76.40 76.06 76.77 73.55 76.51 66.67 61.89 64.69 74.22 74.08 74.24 74.66 74.82 67.78 72.68 66.13 62.48 72.56 73.26 70.96 70.56
66.62 67.08 66.43 66.11 66.94 67.56 66.91 67.18 67.85 72.13 73.83 73.66 73.42 74.84 75.63 75.49 75.66 75.49 75.99 76.15 76.30 76.38 76.21 76.09 76.57 77.04 75.82 75.55 61.15 59.83 74.03 75.00 74.60 74.17 74.02 74.49 63.81 60.44 59.47 61.57 74.31 72.58 72.06
67.31 68.51 66.28 65.71 66.58 66.61 67.66 66.32 66.11 70.71 72.12 72.88 73.43 73.91 74.42 75.18 75.64 75.44 76.02 76.38 76.37 76.02 75.99 75.93 76.12 76.93 77.10 67.19 62.59 58.74 60.92 70.07 74.94 74.78 75.24 74.08 61.55 58.64 58.59 59.50 65.16 62.25 64.35
63.90 69.27 69.92 70.46 70.50 66.74 68.02 67.03 71.28 72.82 74.45 72.82 73.18 73.50 74.77 75.25 73.57 75.45 75.22 76.15 76.34 76.31 75.88 75.72 75.63 75.79 76.70 76.76 61.76 58.72 58.36 59.95 70.54 76.16 73.07 65.95 59.71 56.31 58.18 58.86 60.83 60.36 70.37
63.80 68.12 69.55 70.64 72.80 73.16 73.40 73.11 73.91 72.94 71.29 73.55 75.01 74.39 74.92 75.02 74.47 75.87 76.21 76.07 76.25 75.78 75.68 75.24 75.18 75.35 75.24 75.60 76.38 73.28 65.44 60.17 63.30 67.80 71.35 69.13 66.57 65.20 65.67 64.40 61.38 67.16 72.19
64.09 66.41 67.66 69.61 70.51 71.81 71.39 71.84 72.08 73.21 74.30 72.09 75.84 74.97 75.05 74.81 75.04 74.55 75.06 75.62 75.64 74.56 75.65 75.65 75.53 74.47 74.63 71.78 59.59 61.28 70.29 69.44 66.08 67.43 71.69 73.14 72.99 72.06 71.76 68.88 69.10 67.15 69.19
63.52 65.08 66.87 68.72 69.29 70.03 69.54 69.15 69.89 71.54 72.35 73.82 75.06 74.77 74.34 74.69 75.11 75.14 72.84 52.08 53.75 53.67 51.52 49.95 64.98 60.76 52.96 47.85 47.12 46.94 47.66 48.93 49.48 62.83 69.10 70.71 72.15 72.55 72.65 72.69 71.38 68.60 67.82

GFSMW_sfc_wetblb_042.txt.gz
Wetbulb
67.64 68.82 69.47 69.57 69.63 69.52 69.42 69.25 69.06 70.81 70.76 70.10 69.41 68.25 67.57 68.64 70.03 70.64 71.92 72.20 72.96 73.63 73.16 72.65 73.09 72.34 71.55 71.20 69.32 68.58 67.98 65.85 64.06 63.11 62.79 62.38 65.24 65.72 67.55 68.65 68.66 68.76 68.76
66.83 67.90 68.57 69.13 69.27 68.86 69.45 69.39 69.31 69.97 70.90 70.61 70.55 69.82 68.87 69.08 70.08 69.84 72.22 73.01 73.31 73.90 73.41 72.43 71.70 71.91 71.68 70.98 70.47 69.11 67.47 65.90 63.92 64.41 61.15 57.63 60.10 63.38 65.21 67.14 68.52 67.66 68.20
66.17 67.01 68.05 68.73 69.42 68.78 69.23 69.23 69.67 69.54 70.29 70.84 69.86 70.06 70.81 69.61 69.37 69.01 70.92 72.68 73.51 74.03 73.51 73.14 72.32 72.16 71.05 70.85 70.50 69.84 67.74 62.16 64.98 65.29 62.96 58.07 56.45 59.05 63.02 63.55 66.47 66.77 66.50
67.36 67.53 68.12 68.66 69.18 69.45 69.71 69.75 70.22 70.24 70.21 71.24 70.04 69.73 70.01 69.79 69.45 68.82 68.62 72.29 73.33 73.90 73.92 73.45 72.85 72.79 71.61 70.53 71.00 71.15 69.41 62.25 62.47 63.36 66.97 65.80 63.45 57.06 56.95 61.89 62.18 64.39 64.97
67.40 66.97 68.14 69.02 69.90 70.34 70.00 69.80 71.03 70.58 70.88 71.59 70.83 69.92 69.19 69.89 69.30 68.62 68.42 70.40 72.46 73.34 74.13 73.39 72.79 72.48 72.59 71.43 71.11 71.69 70.17 66.59 62.59 61.07 63.71 63.42 64.06 62.68 58.71 57.57 60.27 63.44 62.74
67.37 68.01 68.74 68.64 69.53 70.55 70.39 70.22 71.00 70.85 71.15 71.68 71.20 70.54 69.65 69.16 68.70 67.97 67.72 68.77 70.84 72.05 73.45 73.73 73.01 73.08 72.80 71.97 71.25 71.90 70.18 70.28 66.43 65.90 63.93 61.94 61.30 60.91 60.83 60.05 59.95 59.97 61.73
66.58 67.36 67.37 67.68 68.63 69.52 69.79 70.10 70.05 70.96 71.56 71.33 71.76 71.27 70.99 70.23 69.73 68.15 67.59 68.62 69.93 70.23 72.17 74.05 73.02 73.10 72.97 72.31 71.94 72.15 71.70 69.65 70.04 68.01 65.27 64.34 62.04 63.76 61.92 61.59 60.67 60.71 62.18
66.50 67.11 67.75 68.05 68.21 69.51 69.95 69.88 69.94 70.21 71.79 71.71 71.58 71.88 71.53 71.81 70.95 69.40 67.99 68.98 71.10 71.50 72.49 74.13 74.13 73.90 73.58 73.35 72.58 72.19 72.74 71.52 70.34 69.91 67.23 65.99 66.89 65.41 62.97 61.21 61.42 58.14 59.48
66.72 66.91 67.94 68.20 68.58 69.10 69.91 70.16 69.71 69.83 71.47 72.08 72.04 72.22 72.54 71.79 71.77 70.47 70.42 68.02 70.35 73.23 72.71 74.18 73.91 73.98 73.56 73.60 73.30 72.66 72.20 72.75 70.72 69.61 70.33 67.35 66.09 66.50 65.87 62.83 63.11 60.40 57.95
66.88 67.16 67.76 68.38 68.81 69.52 70.31 70.85 70.67 69.97 70.80 72.31 72.03 71.65 71.92 73.76 72.97 71.51 70.33 71.35 69.13 72.00 73.18 73.31 74.83 73.81 73.69 73.16 72.78 73.53 72.62 72.84 72.00 71.22 69.28 69.29 68.48 66.42 65.85 65.35 62.52 62.11 59.87
66.85 67.24 67.69 68.73 68.84 69.39 70.12 70.73 70.89 70.59 70.94 71.90 72.75 72.42 71.74 71.76 73.70 72.39 70.37 70.94 71.54 69.83 71.75 73.23 73.88 74.33 73.71 73.21 72.48 72.90 74.01 72.56 72.59 72.27 70.81 69.52 68.82 67.84 65.39 64.79 64.10 62.16 60.93
67.36 67.63 67.72 68.33 68.38 68.66 69.74 70.09 71.54 71.21 71.61 72.36 72.86 72.89 72.94 72.03 71.43 73.45 72.07 71.47 71.53 72.02 70.30 73.39 73.39 74.03 73.98 73.81 73.37 72.84 73.98 73.72 72.79 72.61 71.34 71.07 70.97 68.14 66.24 65.06 65.07 63.12 62.37
67.10 67.52 67.78 67.79 68.02 68.27 69.22 70.60 71.38 72.08 72.38 72.63 72.55 72.87 73.01 72.84 71.92 71.75 74.01 72.91 71.57 72.41 72.35 73.66 73.43 73.88 74.03 74.03 74.16 73.64 73.25 73.28 73.68 73.33 72.35 71.83 70.67 69.91 68.22 65.48 65.76 65.35 63.47
66.41 67.68 67.67 67.69 68.16 68.30 68.93 69.99 70.92 72.89 73.03 72.98 72.83 72.33 72.86 73.58 73.43 72.76 72.34 74.26 73.53 71.31 72.51 74.08 74.30 74.33 74.21 74.12 74.17 74.56 74.12 73.48 73.26 73.57 73.36 72.74 71.14 70.74 68.97 66.57 65.94 65.39 65.11
65.61 67.50 67.65 67.84 68.17 68.23 68.62 69.74 70.67 71.97 73.07 72.97 73.00 72.79 72.95 73.87 74.32 73.63 73.19 73.16 73.72 74.21 72.64 73.74 74.13 74.76 74.58 75.00 74.25 73.91 73.83 74.01 73.50 73.02 74.02 73.72 72.69 70.60 69.79 69.73 67.86 65.23 64.77
65.62 67.80 68.29 68.38 68.39 68.43 68.52 69.43 70.09 71.10 72.62 72.65 72.94 73.41 73.81 73.54 73.62 74.16 73.81 73.13 72.95 72.76 74.31 73.73 74.18 74.10 75.32 69.92 68.83 73.21 74.09 73.85 73.41 72.96 73.13 73.46 71.91 70.59 67.46 66.89 67.55 67.86 66.28
64.27 67.63 68.42 68.79 69.31 69.28 69.46 69.01 69.94 71.00 72.01 72.28 72.79 73.48 73.58 73.86 73.91 74.19 74.10 74.05 73.51 73.35 72.24 73.51 74.27 73.93 74.75 67.01 66.70 68.62 74.38 74.18 73.90 73.72 73.63 73.51 74.17 71.41 73.02 67.22 65.72 65.98 65.42
60.96 58.84 61.64 65.71 68.34 69.64 70.33 70.29 70.45 70.48 70.66 71.33 72.62 73.16 73.99 73.72 74.15 73.90 73.68 73.87 74.42 74.23 73.83 73.02 73.50 74.22 74.41 65.93 64.68 67.01 73.65 74.29 74.24 74.25 74.15 73.93 73.86 73.32 73.17 73.62 71.10 69.40 69.54
62.70 62.97 63.86 63.64 62.87 69.04 71.37 71.15 70.86 70.84 70.58 70.50 71.07 73.10 73.63 73.90 73.81 73.46 73.47 73.94 74.05 74.19 74.62 74.86 74.35 73.46 74.03 64.35 63.11 64.99 72.47 73.75 74.30 74.67 74.51 74.67 74.39 69.95 64.59 72.81 72.61 72.02 71.23
64.76 63.80 63.92 63.93 63.83 64.91 64.37 70.82 70.95 71.13 70.61 71.11 71.62 72.23 73.65 73.86 73.94 73.96 73.99 74.29 74.51 74.59 74.83 74.71 75.38 72.29 74.87 64.75 61.82 64.22 73.39 73.23 73.67 74.68 75.02 67.46 71.97 65.35 62.15 70.46 72.59 71.90 72.56
67.22 67.81 67.19 64.54 63.52 64.57 64.87 67.57 69.60 71.04 72.36 72.69 72.45 72.46 72.70 73.71 74.26 74.50 74.57 74.36 74.51 74.49 74.45 74.46 75.21 75.60 74.31 74.18 60.24 59.92 73.81 74.32 74.02 73.93 74.20 74.94 63.62 60.35 58.86 61.14 73.78 72.59 73.17
65.84 68.18 70.46 70.92 69.76 65.49 65.26 63.37 65.52 68.57 71.03 70.88 72.13 72.66 73.38 73.58 74.26 73.81 74.05 74.39 74.33 74.16 74.07 74.05 74.36 75.31 75.55 65.64 59.89 58.82 61.40 69.86 74.90 74.73 75.18 74.52 62.34 57.94 57.61 59.74 64.25 62.20 63.46
62.80 66.01 67.92 69.91 71.15 71.33 70.93 70.14 70.60 70.48 70.97 70.91 71.36 71.72 72.47 73.26 73.73 73.54 73.47 73.77 74.11 74.00 74.00 74.13 74.11 74.68 75.56 75.33 60.78 58.26 58.86 60.42 70.52 75.89 72.52 64.88 60.11 57.39 58.12 58.09 60.25 59.48 69.36
61.76 64.06 66.34 66.83 68.12 69.82 70.12 69.62 70.15 71.26 72.15 67.96 71.78 70.96 71.65 71.78 72.17 74.50 74.75 74.44 74.46 74.43 74.21 74.32 74.22 74.80 74.85 75.16 75.55 69.02 64.46 60.17 62.71 65.79 70.43 68.25 64.60 61.16 65.66 65.25 63.11 64.20 68.82
61.21 63.23 64.15 65.28 66.44 68.62 67.91 67.92 68.10 69.12 69.58 70.97 70.34 72.72 72.12 71.25 72.02 68.05 67.44 74.01 75.46 74.21 75.20 75.18 75.61 74.99 74.76 73.11 63.11 65.38 71.01 69.57 65.40 66.63 69.70 70.27 71.32 72.34 72.44 72.80 71.43 70.80 67.51
60.32 61.65 62.77 63.64 65.04 67.29 66.59 67.06 67.52 68.44 68.81 68.72 71.13 72.81 72.48 72.59 73.17 67.06 61.26 50.97 48.72 48.90 52.28 55.54 66.15 56.81 53.35 48.65 49.02 49.38 49.02 49.20 51.01 63.47 66.31 67.62 68.75 69.77 70.96 71.94 72.51 73.12 70.08

GFSMW_sfc_wetblb_045.txt.gz
Wetbulb
67.08 68.00 68.73 69.32 68.43 67.35 66.57 67.78 68.51 69.44 69.31 68.99 67.75 67.23 67.13 67.97 69.53 70.42 71.48 71.57 72.58 73.31 71.84 70.95 70.93 71.60 69.86 70.19 68.18 67.62 65.24 63.54 63.12 62.69 61.62 61.62 63.28 65.27 66.74 67.27 67.75 68.38 68.28
65.85 66.96 67.79 68.56 68.00 67.62 66.67 67.79 68.43 69.04 69.94 69.96 69.97 67.72 67.12 67.82 69.07 69.55 70.71 71.43 72.07 72.95 72.53 71.75 71.40 71.38 70.57 69.88 69.55 67.81 66.50 63.68 63.11 61.57 58.51 57.36 59.56 62.63 64.29 66.73 68.20 67.22 67.90
65.01 65.97 66.92 67.72 68.22 67.58 67.55 67.63 68.14 68.78 70.27 70.12 68.66 69.12 69.04 68.20 68.12 68.18 69.97 71.11 72.19 73.05 72.54 71.96 71.08 71.33 70.53 70.09 69.44 68.78 66.27 61.25 63.76 64.28 61.04 56.84 55.69 58.54 61.94 63.59 66.26 66.86 66.29
66.21 66.31 66.93 67.31 68.08 67.63 68.73 68.49 68.32 68.62 70.21 69.76 69.15 68.32 67.74 66.54 66.50 67.56 68.40 70.93 72.25 72.55 73.21 72.25 71.44 71.36 70.61 69.19 70.03 69.92 68.01 61.88 62.23 62.46 66.59 63.35 60.42 56.94 58.07 60.53 62.29 64.15 65.58
66.20 66.31 66.74 67.53 68.50 68.84 68.67 68.84 68.65 68.37 69.77 69.67 69.69 68.87 66.86 66.56 68.18 67.73 67.70 70.21 71.45 72.51 73.26 72.47 71.74 71.71 71.40 70.30 70.36 69.74 68.75 62.00 61.62 60.49 63.26 62.72 63.15 59.77 57.24 55.81 59.53 62.50 63.03
66.81 67.41 67.93 68.36 68.43 69.13 68.96 69.02 68.45 68.37 68.90 69.44 69.32 68.60 67.96 67.54 67.73 67.55 67.00 68.04 70.34 71.55 72.39 72.80 71.78 71.56 71.66 71.12 70.27 70.40 69.37 67.41 64.17 62.15 62.63 61.68 61.46 60.85 59.35 58.27 58.16 59.39 61.24
66.81 66.93 67.06 67.57 68.32 68.47 68.46 68.48 68.50 68.30 68.96 69.18 69.60 69.15 68.40 68.30 68.66 67.88 67.15 66.77 68.52 69.06 71.19 72.17 71.75 71.48 71.65 71.97 71.16 70.39 70.58 69.41 67.07 65.15 64.71 62.11 60.91 61.70 60.50 59.99 59.55 59.19 60.18
66.50 67.11 67.20 67.86 68.26 68.93 68.69 68.46 68.60 68.46 69.05 69.40 69.71 69.82 69.43 69.18 69.33 69.33 67.84 67.67 69.02 70.09 71.35 72.41 72.39 72.04 72.41 72.20 71.23 70.93 71.18 69.56 69.73 68.53 65.10 65.61 64.16 63.70 62.74 61.53 60.33 57.47 58.11
63.79 65.73 67.66 67.71 68.05 68.88 68.91 68.76 68.44 69.25 69.43 69.67 70.10 70.21 70.17 69.93 69.56 69.30 69.04 68.55 68.52 70.38 70.43 71.71 73.13 72.71 72.47 72.47 71.68 70.86 71.21 71.49 69.80 69.08 68.74 65.78 65.00 65.79 64.16 61.30 61.41 59.68 56.84
63.97 64.64 67.31 67.74 67.70 69.04 69.45 69.54 69.32 69.31 69.84 70.20 70.43 70.68 70.52 70.73 70.65 69.87 68.56 67.75 68.86 70.62 70.96 71.43 72.02 72.37 72.79 72.67 72.36 71.44 71.09 71.40 71.18 69.78 68.27 68.41 67.48 65.41 65.23 64.61 61.91 60.72 59.14
64.34 64.47 66.71 68.15 68.33 68.92 69.47 69.16 69.42 69.19 69.68 70.51 70.61 70.80 70.82 71.12 71.21 70.66 69.89 70.33 68.24 69.98 71.20 71.41 72.21 72.43 72.38 72.46 72.18 72.53 72.47 71.21 71.28 71.17 70.00 68.65 67.71 67.39 65.49 64.14 63.54 61.52 59.67
64.83 65.50 66.82 67.61 68.04 67.86 68.97 69.27 69.41 69.18 69.64 70.83 70.93 70.85 71.16 71.63 71.91 71.37 70.14 70.24 70.99 68.93 70.52 71.38 71.74 72.97 72.91 72.63 72.30 71.69 72.70 72.61 71.42 71.81 71.20 70.91 70.57 67.42 66.14 64.38 63.44 62.87 61.36
64.21 65.78 66.80 66.90 67.66 67.96 68.25 69.09 69.66 69.51 69.90 70.08 70.88 70.80 70.41 70.23 70.80 72.59 72.49 70.51 69.97 70.03 69.62 70.77 71.83 72.33 73.11 72.97 72.58 72.29 72.07 72.56 73.03 72.54 71.99 71.95 70.54 69.69 68.23 65.98 64.53 63.71 63.25
63.55 65.60 66.45 66.71 67.64 68.00 68.01 68.70 69.58 70.40 70.34 70.38 70.42 70.71 71.01 71.12 70.59 70.82 72.18 72.68 71.49 70.48 70.80 71.07 71.81 72.45 72.85 73.23 73.13 72.99 72.50 72.18 72.72 73.25 73.07 72.66 71.72 71.53 70.87 68.45 66.88 64.98 63.91
63.85 65.44 66.17 66.29 67.13 67.41 67.80 68.93 69.63 70.60 70.67 70.36 70.46 70.71 71.96 72.20 72.08 71.22 70.85 71.88 73.00 72.26 71.73 71.46 72.57 72.79 72.92 73.37 73.04 73.18 72.90 72.38 72.08 72.58 72.90 73.10 72.98 70.90 70.60 71.05 69.41 66.23 65.30
64.37 65.80 66.50 66.64 66.79 67.32 67.45 68.43 69.51 70.68 71.25 70.70 70.47 71.30 71.51 72.23 72.38 72.28 71.87 70.85 71.88 73.11 71.98 71.24 71.64 72.56 73.70 69.34 68.27 72.10 72.92 72.88 72.67 72.09 72.27 72.96 71.61 70.80 67.72 67.50 68.37 69.16 67.64
64.12 65.66 66.31 66.71 67.18 67.52 68.14 68.00 69.47 70.84 71.30 71.18 71.38 71.62 71.71 71.59 72.30 72.92 72.70 71.62 71.16 71.74 72.63 72.61 71.94 71.88 72.78 66.58 66.66 68.52 73.28 72.68 72.56 72.46 72.48 72.55 73.22 71.11 72.91 68.09 66.32 66.29 65.49
62.47 65.65 67.12 67.42 67.86 68.37 68.37 68.62 69.54 69.69 70.78 71.30 71.51 72.10 72.23 72.00 72.18 72.47 72.86 72.83 72.47 71.72 71.63 71.63 72.69 72.83 73.20 65.90 64.47 67.03 72.94 73.56 73.44 73.30 73.09 72.82 72.81 72.80 72.18 72.37 71.89 69.65 69.84
60.75 61.23 65.09 66.28 66.93 68.23 68.42 68.18 68.75 69.22 69.74 70.41 71.20 72.05 72.52 72.35 72.74 72.31 72.51 73.12 73.32 72.89 72.49 72.51 71.64 71.49 72.68 63.58 63.72 64.97 71.75 72.82 73.13 73.68 73.74 73.79 73.44 69.29 64.61 71.64 71.79 71.98 72.42
67.28 63.36 62.56 64.36 67.19 67.68 68.59 68.09 68.05 68.37 68.41 69.99 71.07 72.19 72.57 72.80 72.58 73.09 72.95 73.45 73.35 73.30 73.82 73.72 73.74 70.05 72.21 64.10 61.46 64.12 72.45 72.23 72.67 73.50 73.96 67.09 71.13 64.96 62.33 70.17 71.77 71.03 72.04
66.51 69.95 68.56 64.03 62.66 63.92 69.22 68.55 68.64 68.32 69.75 69.79 70.23 71.32 72.61 72.93 73.49 73.37 73.62 73.42 73.05 73.35 73.05 73.18 73.79 74.32 72.85 72.68 60.18 59.57 72.26 72.87 72.80 72.90 73.24 74.03 63.97 60.43 59.66 60.98 73.64 72.50 72.98
64.05 67.04 69.23 69.08 68.42 64.01 66.09 66.09 67.07 68.42 69.47 69.86 69.76 70.09 71.06 72.91 73.51 73.41 73.22 73.22 73.10 72.54 72.52 72.79 73.12 74.14 74.61 65.68 60.75 59.07 60.79 69.07 73.47 73.45 74.23 73.88 62.70 58.51 57.61 59.74 63.63 61.79 63.24
62.00 64.61 65.81 67.96 69.14 69.32 69.42 68.53 68.59 71.11 69.73 69.58 69.81 70.08 70.79 71.31 72.61 72.67 72.82 72.70 72.78 72.53 72.46 72.47 72.34 72.82 74.00 74.24 61.90 59.02 58.88 60.16 69.87 74.97 71.85 64.36 59.14 56.47 57.81 57.09 58.21 58.58 67.48
60.14 62.70 63.66 64.77 66.29 67.44 67.40 67.05 67.49 69.05 70.19 69.63 69.13 70.09 70.97 70.95 72.10 72.91 72.92 72.81 72.68 72.26 72.28 72.39 72.62 72.96 73.22 74.39 73.94 68.09 65.65 60.93 63.49 66.33 69.92 66.91 63.74 61.56 65.35 65.51 64.13 64.01 66.63
57.19 61.32 61.83 62.44 64.20 66.12 65.52 66.18 67.70 68.36 68.26 68.92 69.23 69.27 70.28 68.68 70.26 65.47 65.16 71.77 72.97 70.83 72.90 73.05 73.53 73.16 72.99 73.61 68.41 69.54 72.36 71.21 67.27 67.66 69.40 70.13 70.44 70.80 71.25 71.66 71.43 71.46 68.68
57.05 60.69 61.29 62.32 63.55 65.22 65.17 66.03 68.02 68.60 67.06 66.84 66.90 66.56 69.92 70.12 69.54 64.03 59.78 48.96 47.04 46.26 48.69 53.40 66.71 60.91 54.49 51.95 50.68 49.78 51.23 53.22 53.22 65.87 67.95 67.68 67.66 67.89 67.86 67.55 68.93 69.58 69.49

GFSMW_sfc_wetblb_048.txt.gz
Wetbulb
66.10 67.67 68.35 68.49 68.45 68.36 67.49 67.45 68.16 68.25 68.54 68.32 67.75 68.37 68.53 69.74 70.84 71.14 72.66 72.71 73.12 73.93 72.11 72.35 72.20 73.29 72.19 72.37 71.23 69.99 68.00 66.27 66.73 66.10 65.18 64.92 66.09 68.28 69.51 69.78 69.93 70.08 71.30
64.74 66.41 67.47 67.69 67.41 66.99 66.86 67.25 68.09 68.46 69.37 69.44 69.11 68.98 68.40 69.18 70.90 71.30 72.19 72.65 73.26 74.23 73.25 72.42 72.52 73.20 72.23 71.25 71.39 70.79 69.26 66.00 66.46 64.81 63.81 62.23 64.80 65.69 67.03 69.41 69.90 69.87 70.49
64.29 65.26 66.59 67.46 67.40 66.20 66.10 66.87 67.85 68.46 69.68 69.51 69.06 68.96 69.03 69.16 69.57 70.02 70.93 71.85 72.76 74.10 74.09 73.26 72.90 72.66 72.18 71.33 71.57 71.02 69.55 65.23 67.13 67.23 64.53 61.52 61.16 62.30 65.30 67.15 69.02 69.83 69.68
65.62 66.00 66.20 66.89 67.61 67.10 67.07 67.23 67.88 68.02 69.68 69.85 69.26 69.01 67.88 67.14 67.84 69.27 70.28 71.36 72.63 73.04 73.85 73.56 72.78 72.93 72.17 72.18 72.40 71.68 70.25 66.58 66.72 66.50 68.28 66.28 64.65 62.88 63.50 65.11 66.09 67.88 68.63
65.39 65.71 66.42 67.15 68.21 68.39 67.94 67.22 67.73 67.98 69.34 69.66 69.65 68.97 68.71 67.63 68.10 68.88 69.74 71.07 72.18 72.94 73.79 73.72 73.08 72.67 73.07 72.31 72.27 71.95 70.91 66.36 66.32 66.07 66.82 66.42 65.33 63.41 62.75 62.43 64.54 65.88 67.47
65.41 66.38 67.20 67.92 67.92 68.90 68.37 68.17 67.42 67.41 68.65 69.64 69.60 69.04 68.43 67.32 67.94 68.04 68.17 69.32 71.12 72.02 73.31 73.85 73.30 73.21 73.45 72.97 71.96 72.55 71.45 69.08 66.78 65.97 67.22 66.66 66.71 64.99 63.32 62.36 62.59 63.56 66.33
65.47 65.90 66.27 66.62 67.39 67.72 67.64 68.28 67.64 67.07 68.17 69.14 69.48 69.11 69.09 68.00 68.15 68.24 67.95 67.85 69.50 70.87 71.89 73.19 73.03 72.69 73.08 73.57 73.09 72.42 72.57 71.45 69.08 67.47 67.03 66.39 66.12 65.90 64.98 64.53 63.68 63.24 64.42
66.03 66.29 66.80 67.20 67.37 67.77 68.06 68.13 67.66 67.54 67.88 68.51 69.15 69.38 69.44 68.68 69.12 69.02 68.83 68.87 69.31 70.69 72.40 72.59 73.36 73.39 73.48 73.59 73.46 72.72 72.55 72.35 71.79 70.99 68.52 68.15 66.34 66.47 66.28 66.14 65.02 63.73 63.25
65.17 66.74 67.71 67.84 67.88 67.92 68.04 68.10 68.14 68.02 68.22 68.22 68.85 69.21 69.36 69.00 69.14 69.65 69.80 69.27 69.73 70.84 72.00 72.64 73.19 73.29 73.64 73.73 73.40 72.44 72.60 73.29 72.02 71.97 71.53 68.98 68.48 67.91 67.10 65.76 66.12 65.18 62.85
64.43 66.05 67.65 67.90 68.51 68.88 69.14 68.62 68.71 68.13 68.68 68.99 69.04 69.39 69.41 69.61 69.83 69.83 69.53 69.46 69.58 71.03 71.46 71.81 73.03 73.42 73.79 73.59 73.57 73.00 72.90 72.99 73.13 72.11 71.34 71.21 70.51 68.59 68.31 67.74 65.82 64.86 64.99
64.22 65.55 67.22 68.49 68.65 69.21 69.20 68.76 68.62 68.43 68.84 69.20 69.33 69.67 69.82 70.20 70.35 69.91 69.92 69.79 69.86 70.38 71.25 71.69 72.18 72.51 73.17 73.81 73.61 73.50 73.40 72.46 72.75 73.06 72.27 71.39 71.18 70.76 69.36 67.72 67.41 65.79 64.28
64.78 64.82 65.97 67.35 68.12 68.26 68.86 69.01 68.85 68.52 69.21 69.57 69.68 69.72 70.29 70.44 70.39 70.45 70.43 70.58 69.75 70.22 71.37 72.12 72.22 72.65 72.93 73.47 73.25 73.13 73.87 73.01 72.62 72.74 72.79 72.79 71.92 71.09 70.81 68.99 68.04 66.99 65.95
63.15 64.55 65.09 65.44 67.41 67.49 68.22 68.98 69.09 69.06 69.63 70.07 69.94 69.92 70.06 70.32 70.34 70.73 71.09 71.23 71.26 70.22 70.75 71.87 72.00 72.30 73.18 73.48 73.33 73.37 73.39 73.74 73.86 73.69 73.30 73.29 73.16 72.72 71.84 70.76 69.31 67.67 67.11
61.70 63.89 64.73 64.85 66.78 67.68 67.80 68.71 69.11 69.70 69.74 70.03 70.25 69.80 70.00 70.47 70.98 71.57 71.74 70.95 71.07 71.35 70.97 71.08 71.83 72.55 73.04 73.81 73.88 73.58 73.35 73.25 73.72 74.22 74.01 73.92 73.71 73.34 73.33 72.07 71.69 71.14 68.64
54.75 62.10 64.15 64.88 66.18 67.49 67.49 68.71 69.23 69.41 69.79 69.25 69.88 70.06 70.66 70.98 71.30 71.71 72.47 72.66 71.17 70.99 71.59 71.42 71.71 72.45 72.91 73.37 73.78 73.96 73.55 73.27 73.25 73.58 74.14 74.35 73.77 71.32 71.85 73.46 72.90 71.99 70.26
54.16 58.47 64.13 65.48 66.15 67.28 67.61 68.26 69.08 69.48 69.81 69.12 69.35 70.68 70.84 70.98 70.82 70.79 70.85 72.05 72.78 72.23 71.97 71.55 71.83 71.68 72.25 68.02 67.65 72.16 73.65 73.63 73.30 72.82 73.39 74.03 71.79 71.32 68.07 67.49 68.49 71.72 71.05
57.50 56.51 63.66 65.76 66.74 67.40 68.10 67.65 68.75 70.00 69.62 69.20 69.62 70.10 70.86 71.18 71.45 71.63 71.18 70.67 71.10 72.54 72.38 72.08 72.09 71.99 72.90 65.88 65.77 68.01 73.62 73.60 73.59 73.71 73.67 73.50 73.76 71.57 74.10 68.81 66.66 67.00 65.99
62.17 62.46 65.17 66.45 67.19 68.26 68.43 68.56 69.36 69.87 69.87 69.66 69.95 70.66 70.90 71.17 71.89 72.04 71.86 71.82 71.36 71.04 72.25 72.59 72.29 71.96 72.29 64.97 64.05 66.53 72.85 73.78 73.95 73.95 74.05 73.92 73.95 73.98 73.54 73.81 73.59 73.00 72.45
66.09 61.52 65.21 66.04 66.90 67.77 68.15 68.16 69.00 69.53 70.07 69.86 70.37 71.03 71.40 71.28 71.73 71.89 72.16 72.70 72.20 71.88 71.58 72.29 72.90 72.81 72.81 62.95 62.75 65.05 72.32 73.07 73.47 74.38 74.65 74.33 74.10 69.19 64.16 73.21 73.10 73.36 73.70
66.90 65.28 65.68 65.87 65.98 66.61 67.64 67.77 68.30 69.00 69.81 70.52 71.28 72.12 72.26 72.05 71.66 71.91 72.41 73.26 73.52 73.01 72.88 72.60 72.75 69.72 72.88 64.12 61.33 63.99 72.32 72.15 72.61 73.98 74.37 66.86 71.55 64.89 61.70 71.87 73.22 72.49 73.58
65.10 68.32 65.19 65.04 66.49 67.34 67.66 67.37 68.01 68.12 70.08 71.38 72.13 72.27 72.86 72.77 72.87 72.93 73.17 73.19 73.28 73.63 73.71 73.54 73.86 73.83 71.76 71.92 60.07 59.18 72.41 72.91 73.03 73.03 73.35 74.40 63.74 60.36 59.22 60.50 73.72 72.66 73.13
62.79 65.61 68.38 68.34 66.83 67.04 67.91 67.21 67.42 69.22 69.76 70.51 71.13 71.89 72.46 73.14 73.36 73.22 73.62 73.65 73.42 72.95 73.11 73.11 73.34 74.40 75.02 65.04 61.35 58.73 60.07 68.50 73.01 73.23 74.34 74.27 62.09 58.48 57.86 59.38 62.04 60.59 62.41
61.00 63.40 65.50 66.94 67.73 69.37 70.51 69.93 70.67 71.09 70.21 69.36 69.58 70.49 72.08 72.64 73.53 73.26 72.98 72.99 73.38 72.71 72.51 72.60 72.65 73.37 74.50 74.90 60.94 58.44 57.83 59.51 69.19 74.30 71.43 64.66 59.37 57.01 57.90 57.27 58.05 57.68 65.90
59.72 61.66 63.18 64.34 65.56 66.41 67.55 68.08 69.63 71.70 71.12 70.65 70.19 70.15 69.97 70.86 72.74 73.50 73.65 73.11 72.87 72.53 72.65 72.53 72.44 73.20 73.83 74.56 74.75 70.90 66.63 59.59 63.57 65.21 69.91 67.03 64.62 62.99 66.05 66.60 64.49 64.96 66.72
59.49 60.93 61.59 63.21 64.57 66.12 66.97 68.84 69.86 70.13 69.81 70.14 71.10 71.54 71.61 70.47 71.35 69.86 69.42 73.03 74.12 70.69 72.98 73.28 73.60 73.54 73.41 73.72 68.50 69.36 73.69 73.51 69.00 68.55 70.83 70.65 71.17 71.49 71.71 72.03 72.16 72.60 71.28
56.31 59.60 61.67 63.03 64.55 65.65 66.35 67.62 69.03 69.16 68.73 68.47 68.79 68.17 71.69 70.70 71.57 64.95 61.17 49.01 47.75 47.40 48.85 53.20 66.94 66.79 57.45 58.10 53.75 51.94 52.66 53.57 55.02 67.64 70.29 69.93 69.77 69.11 68.86 68.32 67.67 67.72 65.63

GFSMW_sfc_wetblb_051.txt.gz
Wetbulb
66.31 68.54 69.88 71.15 72.22 72.83 72.64 72.56 72.77 73.38 72.63 72.19 71.61 71.92 71.56 72.90 74.01 75.11 76.10 76.46 76.63 76.77 77.29 77.06 77.16 76.67 77.95 77.34 75.37 73.54 72.68 70.66 72.08 70.66 70.23 67.99 69.94 72.93 73.67 75.07 74.73 73.75 74.60
65.22 67.24 69.25 70.29 71.04 71.91 72.47 72.58 72.65 73.32 73.00 72.48 73.61 73.22 73.72 74.07 75.67 76.00 76.26 76.84 76.71 77.41 77.18 76.63 76.27 77.12 76.73 76.01 75.54 74.99 71.40 71.40 71.71 70.63 69.76 67.37 68.66 71.67 72.32 73.60 73.72 74.30 75.15
64.64 66.45 68.09 69.56 70.59 71.12 71.78 72.42 72.90 73.64 73.63 74.18 73.53 73.54 74.10 74.19 73.78 74.75 75.24 76.27 76.82 77.58 77.98 77.17 76.60 77.45 78.57 75.47 75.99 75.18 73.73 69.81 71.70 71.89 70.24 66.13 65.39 69.01 71.40 71.71 73.12 73.79 73.91
66.43 67.34 68.09 68.79 69.70 71.10 72.00 72.64 73.25 73.55 73.75 74.58 73.61 74.29 72.21 71.41 73.20 74.50 75.44 76.01 76.96 77.07 78.00 78.15 77.42 77.16 77.10 77.08 76.21 75.82 74.93 72.82 70.59 71.68 72.77 71.21 70.55 67.06 66.27 70.48 71.47 72.62 72.98
67.43 67.46 68.37 69.48 70.50 71.16 71.17 71.90 73.29 74.06 74.72 74.30 74.87 73.27 73.54 73.21 73.82 73.94 75.49 76.56 76.94 77.08 76.96 77.63 77.39 76.87 76.49 77.30 76.65 76.50 75.83 73.30 71.84 71.21 71.81 72.56 70.88 70.43 68.70 66.72 69.08 71.02 72.15
67.98 68.69 69.58 70.26 70.63 71.72 71.08 71.30 72.98 73.60 74.44 74.34 74.58 75.21 74.85 74.14 72.70 73.41 73.03 74.09 75.01 75.84 76.71 77.10 77.27 77.47 77.02 76.85 76.65 76.93 76.51 74.59 72.20 71.72 72.59 71.53 70.89 69.49 68.45 67.41 69.33 68.35 71.35
68.29 68.41 68.69 69.32 70.39 71.44 71.40 71.67 72.29 72.36 73.72 73.76 74.18 74.57 75.20 75.47 74.52 74.21 72.93 73.91 73.64 74.62 75.79 76.87 77.11 76.74 77.63 77.51 77.47 77.16 76.42 75.53 73.91 72.95 70.66 71.79 71.74 72.23 71.39 69.15 68.95 68.19 71.16
68.77 68.93 69.24 70.01 71.14 71.34 72.11 72.11 72.03 72.13 73.15 73.54 74.12 74.91 75.44 73.38 73.21 74.49 73.27 73.01 73.15 74.19 76.63 76.74 77.10 77.41 77.69 77.47 77.66 76.73 76.45 76.43 75.35 75.31 73.80 72.39 72.03 71.49 71.20 70.03 68.88 67.33 69.20
68.53 68.80 69.62 70.44 71.11 71.46 71.97 72.18 72.47 72.56 72.96 72.46 74.01 74.41 74.78 74.69 73.79 75.35 75.07 73.65 75.29 73.77 75.64 76.67 76.74 77.13 77.30 77.46 77.83 76.44 76.75 76.87 76.78 76.29 76.26 74.42 73.81 73.09 71.91 71.18 70.57 68.89 66.04
68.95 69.38 69.70 70.39 71.46 71.73 72.47 72.75 73.08 72.60 73.11 73.39 73.83 73.80 74.47 74.88 75.15 75.31 74.94 75.32 74.57 74.71 74.72 75.88 76.43 76.74 76.96 77.35 77.62 76.63 77.24 76.93 76.36 76.03 76.32 76.20 75.25 74.23 73.46 72.56 71.81 70.82 69.06
68.65 69.54 70.21 71.12 71.48 71.89 72.40 72.56 72.55 72.87 73.01 73.17 73.36 73.88 73.75 73.75 73.85 74.08 74.56 75.53 75.02 75.07 75.29 76.01 76.24 76.38 76.43 76.93 76.95 76.89 76.82 76.67 76.86 76.78 76.31 76.53 76.88 75.01 74.28 73.44 72.77 71.50 70.69
68.69 69.42 70.26 71.13 71.28 72.07 72.22 72.19 72.56 71.96 72.87 73.40 73.60 73.41 74.24 74.30 73.53 74.30 74.43 75.56 75.60 75.10 75.32 75.91 76.24 76.07 76.24 76.49 76.45 75.95 75.76 76.20 76.45 76.55 76.38 76.09 75.93 76.17 76.21 74.74 74.42 73.42 73.33
67.83 69.08 69.29 70.43 71.29 71.82 72.44 72.37 72.39 72.04 72.62 73.38 72.71 73.08 73.61 73.53 74.18 74.55 74.82 75.25 75.30 75.36 74.92 75.18 75.67 75.91 76.04 76.15 76.23 76.34 76.18 76.35 76.35 77.08 76.95 76.62 76.53 76.20 75.86 75.97 75.06 74.82 74.13
66.57 68.34 68.70 70.58 71.84 72.22 72.49 72.84 72.78 72.74 72.88 72.89 72.86 73.22 73.58 74.08 74.13 75.06 75.40 74.76 75.78 75.34 75.20 75.43 75.63 76.21 76.17 76.31 76.37 76.27 76.34 76.54 76.51 77.10 77.47 77.41 76.96 76.81 76.89 76.40 76.43 76.12 75.18
61.21 66.40 68.46 69.97 70.78 72.12 72.65 72.95 73.50 73.59 73.39 73.27 73.16 73.44 74.19 74.74 75.04 75.18 75.55 75.79 75.70 75.97 75.95 75.50 75.40 75.74 75.51 75.16 75.82 76.24 76.21 76.22 76.46 76.85 77.13 77.47 76.33 72.52 73.83 76.38 77.62 77.08 75.16
65.80 65.01 64.60 69.49 70.14 71.22 72.01 72.40 73.07 73.34 73.80 73.14 73.21 74.08 74.52 74.69 74.92 75.35 75.51 75.84 75.42 75.80 76.38 75.58 75.39 75.18 74.61 68.44 67.39 73.85 75.86 76.65 76.43 76.14 76.88 77.44 73.84 73.18 68.40 67.73 68.51 73.75 76.73
64.97 67.00 67.09 64.75 70.33 70.39 72.28 71.88 72.74 73.77 73.44 73.33 73.91 74.45 74.83 74.50 74.79 75.31 75.59 75.85 75.75 75.56 75.61 75.22 75.36 75.72 76.22 65.58 65.30 68.03 75.48 76.29 76.66 76.95 76.71 76.18 75.97 73.98 76.63 70.82 66.77 67.17 66.03
64.49 66.39 68.48 66.51 68.91 70.44 71.23 72.78 73.09 73.44 73.25 73.33 73.64 74.60 74.90 74.62 75.10 75.07 75.09 75.62 75.58 75.98 75.34 75.31 76.03 76.04 76.04 65.34 63.71 65.68 74.31 76.55 77.24 77.52 77.41 77.51 77.58 77.32 76.32 76.77 76.57 76.88 77.35
64.11 67.60 70.16 68.21 70.15 71.82 72.87 72.73 72.98 73.27 73.12 73.02 73.43 74.12 74.75 74.64 75.12 74.81 75.07 74.96 74.43 74.55 75.25 75.64 76.09 76.00 76.41 63.51 62.88 65.77 74.58 75.05 76.61 77.24 77.47 77.69 77.57 71.33 65.29 75.74 75.94 76.92 77.41
65.25 69.09 69.38 69.50 71.17 72.54 72.96 72.21 71.74 72.70 72.59 73.39 74.02 74.75 74.95 75.02 75.08 75.52 75.55 76.11 75.44 74.96 74.43 74.45 76.08 72.32 76.42 65.02 61.10 64.83 73.98 74.65 74.15 76.76 77.61 67.53 72.89 65.21 62.16 74.94 75.44 75.64 75.84
65.71 70.90 70.41 71.27 72.25 72.98 72.33 72.15 72.33 72.48 73.42 74.01 74.03 74.73 75.44 75.36 75.88 76.28 76.76 76.01 75.55 75.97 75.39 75.06 76.24 76.08 74.80 75.62 60.34 58.82 73.87 74.20 74.25 74.07 74.45 75.72 63.09 60.91 59.80 60.64 76.44 75.45 75.67
65.83 68.71 70.34 69.62 71.59 72.84 72.66 72.37 72.38 74.57 75.46 75.63 75.23 75.69 76.06 74.96 74.93 76.32 76.13 75.92 76.28 75.73 75.72 75.57 75.35 75.96 76.44 66.50 62.33 58.45 60.07 69.75 75.21 75.43 76.22 76.63 62.56 58.49 57.67 60.35 62.93 60.73 63.09
64.60 67.93 69.58 70.26 71.71 72.16 72.66 72.05 73.38 74.40 75.12 75.51 75.83 75.70 75.94 76.05 77.19 75.88 75.87 74.64 75.71 74.68 74.71 74.68 74.71 75.25 76.53 77.08 61.10 58.03 57.54 59.35 71.26 76.13 72.36 64.22 59.29 56.72 59.92 57.85 58.59 57.56 67.71
62.91 67.62 69.17 69.10 69.83 72.20 73.41 74.20 74.74 74.41 74.13 74.27 75.13 75.42 75.02 75.35 76.36 75.55 75.57 74.96 74.87 74.55 74.62 74.68 74.76 75.48 76.16 76.85 77.48 74.28 69.67 60.09 64.84 66.56 71.91 70.05 66.23 64.13 68.91 69.89 64.50 66.23 67.28
61.11 65.15 66.84 67.76 68.59 70.67 71.14 71.94 73.37 75.40 74.17 73.78 73.41 73.89 74.19 74.11 75.09 75.85 74.56 75.23 77.01 72.81 75.12 75.50 75.88 75.47 75.41 76.09 70.89 72.20 76.87 76.10 70.84 70.78 73.88 73.73 73.80 73.77 74.00 73.92 73.58 73.47 71.43
60.31 61.24 61.36 65.30 68.05 69.03 68.66 69.24 70.15 70.79 72.40 73.16 73.87 73.78 73.70 70.92 73.35 74.67 69.50 48.02 49.09 48.78 49.87 52.95 66.40 75.82 61.20 56.36 54.22 52.23 54.22 54.04 53.86 71.02 73.42 73.60 72.27 72.06 72.50 72.01 71.12 69.90 67.91

GFSMW_sfc_wetblb_054.txt.gz
Wetbulb
69.76 70.53 71.06 71.71 72.01 72.97 73.22 74.03 73.68 74.83 74.18 73.23 72.87 73.66 73.55 74.79 75.70 76.38 77.84 78.43 78.03 78.29 77.69 76.51 76.59 76.33 75.77 76.74 76.81 75.14 74.57 72.56 73.95 70.68 71.00 72.74 73.99 73.65 75.10 75.47 74.88 73.70 74.85
68.79 69.67 70.87 71.34 71.60 72.63 73.31 73.82 74.23 74.83 74.69 73.19 74.02 74.29 74.57 74.99 75.81 76.94 78.11 78.69 78.32 78.75 78.30 78.31 76.80 76.17 74.80 76.30 76.17 75.76 72.81 72.68 73.31 70.40 69.96 67.36 68.72 71.47 72.88 74.36 74.68 74.62 75.37
68.10 68.55 69.99 70.72 71.46 72.26 73.24 73.95 74.70 75.12 75.16 75.48 73.94 74.75 75.74 76.04 75.85 76.42 76.67 78.05 78.54 78.62 79.16 78.76 78.33 77.09 76.71 74.18 75.47 76.49 74.87 71.17 72.93 74.27 70.10 66.30 66.19 69.23 71.51 72.78 73.42 74.44 73.89
69.19 69.20 69.59 70.59 71.01 71.94 74.15 74.66 75.37 75.53 75.41 75.98 74.84 76.52 74.06 72.93 73.92 75.49 75.78 77.02 78.71 78.61 78.78 79.14 78.71 77.56 77.60 77.13 75.72 76.43 75.82 74.99 71.20 72.60 72.53 73.73 72.34 66.82 67.41 71.06 72.34 73.48 72.95
68.74 68.92 69.49 71.24 71.89 72.30 72.86 74.59 75.79 76.32 76.63 76.49 76.58 74.34 75.25 73.61 74.37 74.86 77.53 78.61 79.15 78.98 78.27 79.12 78.94 78.49 76.33 76.98 77.41 77.18 76.75 74.46 73.02 71.09 71.68 73.16 71.35 72.64 68.49 67.39 69.24 71.65 72.48
69.82 69.81 70.57 71.67 72.13 72.90 72.99 73.86 75.67 76.36 76.57 76.18 74.82 76.80 76.61 76.14 73.96 75.40 74.92 75.19 75.93 77.58 78.78 78.69 79.02 78.94 77.51 77.19 77.04 77.46 77.35 76.72 75.26 73.09 73.77 71.37 70.42 70.14 69.84 68.58 70.04 69.61 72.24
70.80 70.46 70.12 70.91 71.75 72.16 72.59 73.21 75.26 75.47 76.21 75.31 74.99 75.44 76.19 77.11 76.38 75.96 74.90 76.59 74.28 75.05 77.19 78.77 78.97 78.21 79.03 78.42 79.57 78.27 77.82 77.95 75.38 75.20 72.01 72.97 72.42 73.42 72.59 70.81 69.64 69.63 72.66
71.28 71.31 71.41 71.34 72.09 72.52 72.79 73.27 74.61 75.41 75.98 75.69 76.80 77.49 77.38 74.71 75.10 75.99 75.23 74.78 74.44 74.95 77.29 78.37 78.59 78.76 78.65 78.48 78.82 77.66 76.88 78.07 76.62 76.77 75.85 72.57 72.53 72.80 72.38 71.22 70.02 68.51 70.26
70.79 71.51 72.15 72.24 72.30 73.00 74.35 74.71 75.71 75.17 75.85 75.10 77.04 77.49 77.54 77.28 75.81 78.29 76.65 75.64 77.52 75.29 76.37 77.24 77.92 78.21 78.53 78.63 78.77 77.02 77.83 77.88 77.85 77.14 77.18 75.98 74.24 74.01 73.46 72.97 72.14 69.82 67.37
70.50 71.26 72.33 72.70 72.95 73.13 73.73 74.32 74.59 75.26 75.94 75.45 75.93 76.00 76.11 76.89 77.46 77.29 77.51 77.41 76.48 76.99 76.57 76.58 77.06 77.12 77.76 78.45 78.79 77.66 78.29 78.30 77.11 76.85 77.39 77.33 75.29 75.10 74.52 73.66 73.16 72.39 70.62
70.07 71.03 72.15 73.31 73.49 73.84 73.68 74.08 74.23 74.53 74.72 76.17 76.33 76.36 75.86 76.21 76.47 76.33 76.57 77.13 77.25 77.25 77.22 76.80 76.46 76.33 77.63 78.13 78.13 77.99 77.51 77.97 78.13 77.89 77.20 77.93 78.64 76.17 74.62 74.57 74.11 73.02 72.57
69.47 71.16 72.18 73.01 73.30 73.46 73.64 73.48 74.00 73.99 74.66 76.19 77.07 76.66 76.99 77.12 75.92 76.31 76.64 77.31 77.21 77.49 77.58 77.52 76.94 76.52 76.96 78.01 77.88 77.33 76.78 76.93 77.17 77.67 77.81 77.32 76.86 78.21 77.93 75.69 76.83 75.55 76.14
67.81 70.48 71.68 72.25 72.85 73.50 73.73 73.66 74.06 73.93 74.65 75.84 74.98 75.13 75.62 75.92 76.59 76.87 76.54 77.76 77.17 77.36 77.22 77.34 77.16 76.76 76.81 77.44 78.05 77.86 77.33 76.94 77.22 77.56 77.78 77.52 77.78 77.34 76.77 76.87 75.67 75.71 75.78
67.50 69.38 70.64 71.61 73.17 74.01 75.30 75.54 74.27 74.62 74.44 74.77 74.63 75.49 75.57 76.32 76.02 77.75 78.12 76.95 78.00 77.36 77.33 77.45 77.39 77.15 76.81 76.73 77.28 77.28 77.48 77.31 77.28 77.99 77.92 78.30 78.20 78.29 78.32 77.88 77.97 77.90 76.84
63.06 66.59 68.90 71.11 73.87 74.47 75.90 75.81 74.69 75.43 75.45 76.27 74.52 75.80 77.35 77.51 77.72 78.13 78.37 78.03 78.15 77.60 77.64 77.63 77.68 77.35 76.85 75.77 76.71 76.87 76.71 77.16 77.24 77.67 78.30 78.53 77.27 73.25 74.79 77.88 79.76 80.46 77.45
66.49 66.78 67.60 70.79 72.05 73.26 75.00 75.96 76.16 75.99 76.26 76.86 76.14 77.28 78.16 78.00 78.14 78.56 78.86 78.92 78.25 78.37 78.15 77.23 77.37 77.13 76.27 68.73 67.31 73.45 76.08 76.81 77.08 76.92 77.79 78.46 74.73 74.21 69.09 68.36 68.51 72.79 78.08
67.17 68.59 69.81 69.85 70.07 72.67 74.26 74.86 76.79 76.72 76.54 77.09 77.25 77.63 78.28 77.94 78.33 78.68 78.90 78.56 78.58 78.21 78.28 77.31 77.54 78.06 77.95 65.70 65.30 67.61 75.58 75.83 77.06 78.34 77.62 77.09 76.79 75.43 78.31 70.64 67.59 68.29 66.90
65.97 68.14 69.83 70.91 72.43 70.66 72.56 74.78 75.51 77.11 77.19 77.39 77.18 77.76 78.16 77.96 78.56 78.56 78.64 78.91 78.13 78.14 77.75 77.38 78.69 78.64 78.39 65.35 63.60 66.07 75.65 76.99 77.76 78.27 78.24 78.58 78.44 77.83 76.74 77.49 77.38 77.63 78.20
66.50 68.02 70.01 71.20 72.62 73.58 71.76 73.90 74.53 75.87 76.43 76.83 77.14 77.76 78.10 77.88 77.57 77.72 77.94 77.66 77.91 77.52 77.54 77.61 78.28 78.11 78.86 63.71 62.82 66.57 75.45 75.34 77.37 77.89 78.80 79.06 78.85 72.12 66.03 77.10 77.28 77.77 77.57
67.58 68.49 70.84 72.56 73.08 73.66 71.05 72.12 73.43 74.41 76.01 76.70 77.16 78.10 78.27 78.38 77.83 78.19 78.42 79.04 77.85 77.74 77.34 77.38 78.37 73.97 78.41 65.39 61.33 66.11 75.56 75.82 74.98 78.07 79.15 68.05 73.92 66.03 62.57 76.76 76.54 76.35 75.99
67.21 71.08 73.27 72.87 72.73 73.09 71.26 74.23 74.52 74.57 76.13 76.15 76.26 77.41 78.40 78.50 78.89 79.26 79.15 78.89 77.66 78.09 77.83 77.48 78.67 79.37 77.33 77.27 60.21 59.29 75.75 74.95 74.89 74.71 74.57 75.64 63.22 61.91 60.72 61.25 77.13 75.70 75.21
67.98 72.31 72.54 72.81 72.82 73.56 73.60 75.21 75.69 76.15 77.00 77.09 76.97 78.07 78.26 76.93 76.94 79.08 78.19 78.08 78.19 77.87 78.12 77.55 76.97 77.28 78.02 67.14 61.03 58.14 61.13 69.81 75.85 75.63 75.26 76.35 60.96 57.19 57.88 61.57 63.89 61.21 64.01
64.23 70.21 71.75 72.87 73.60 74.19 74.67 74.00 77.13 77.42 77.27 77.38 77.70 76.70 77.02 76.94 78.82 77.86 77.45 76.68 77.46 76.77 75.99 76.07 75.95 76.36 77.41 78.15 61.88 57.81 57.76 60.10 71.94 76.77 72.68 62.75 59.65 55.76 60.01 57.44 59.48 58.32 74.05
57.69 62.61 69.42 70.33 71.99 74.40 75.00 75.54 76.39 76.67 76.53 76.22 76.48 76.90 76.62 76.29 76.98 76.94 77.19 76.46 76.29 76.02 75.99 75.99 75.99 76.60 77.21 77.84 78.85 75.17 68.81 60.48 66.29 68.70 73.72 71.80 67.28 63.69 67.67 71.80 69.28 75.07 76.64
59.37 59.52 60.58 67.31 68.14 70.26 71.38 72.73 74.78 76.34 75.69 76.05 76.43 76.81 76.80 76.42 76.82 77.65 75.86 77.06 78.73 71.58 76.55 76.76 77.21 76.76 76.83 77.39 72.12 73.63 78.76 77.54 72.25 73.06 76.16 75.96 75.60 75.49 76.26 76.75 76.74 77.13 75.78
58.60 59.21 60.39 61.79 64.62 66.02 68.85 70.88 73.49 74.19 75.46 74.69 75.07 75.23 75.74 76.20 76.60 76.71 74.66 48.99 49.32 48.76 49.33 51.32 64.26 77.58 65.42 58.91 57.70 56.76 54.40 55.13 55.11 73.64 75.51 74.45 74.73 74.77 74.71 74.98 75.12 74.75 71.83

GFSMW_sfc_wetblb_057.txt.gz
Wetbulb
71.11 71.39 71.39 71.83 71.79 72.56 72.77 73.84 74.85 77.76 75.67 74.59 73.96 74.20 73.69 75.36 75.42 77.20 78.18 78.55 78.48 77.83 78.21 76.68 76.87 76.91 76.33 72.24 75.97 73.24 74.00 71.46 72.15 70.16 70.25 71.11 71.96 72.32 72.52 72.55 72.63 72.73 73.17
70.18 70.72 71.06 71.35 71.29 72.21 72.80 74.98 75.62 77.78 76.24 75.12 76.21 76.06 76.41 74.78 75.29 75.86 78.36 78.17 77.80 78.44 77.57 76.78 76.86 77.11 76.38 76.75 75.96 76.07 71.54 72.49 72.77 70.49 70.53 67.57 69.00 70.78 71.87 72.10 71.83 72.57 73.45
69.58 69.99 70.38 70.92 71.30 71.77 72.90 75.11 76.69 77.60 77.07 77.48 76.20 76.43 76.98 76.48 74.62 76.26 76.15 77.74 78.17 78.14 78.78 77.84 77.97 77.52 77.55 75.07 76.37 75.96 77.78 71.94 71.73 74.30 71.91 67.35 64.63 69.04 70.58 71.71 72.47 73.33 73.39
70.58 70.62 70.77 70.72 71.24 71.81 73.50 75.91 76.56 77.84 77.04 77.99 75.36 77.33 74.03 72.79 73.84 75.98 75.91 77.19 78.50 78.21 78.26 78.41 77.90 78.70 77.35 78.36 76.97 76.44 76.57 76.21 71.62 71.32 71.47 75.02 72.16 68.11 67.79 70.71 71.62 72.64 72.45
70.24 70.30 70.77 71.48 72.16 72.46 73.42 74.02 77.03 77.91 77.93 77.40 77.37 75.29 75.76 74.06 74.44 74.56 79.37 81.24 80.49 78.65 77.90 78.83 78.19 78.16 76.63 77.75 76.79 77.18 77.75 75.13 74.40 71.28 70.90 73.23 70.61 73.77 70.27 67.81 69.13 71.52 72.23
70.48 70.91 71.62 72.38 72.31 72.62 73.35 74.70 77.03 77.99 78.33 77.88 77.02 77.90 76.00 76.37 73.54 74.92 75.69 74.73 76.60 77.31 78.68 78.48 79.59 78.73 78.16 77.68 77.71 78.15 77.47 78.25 76.72 74.94 73.88 71.04 70.61 69.55 68.99 67.79 69.98 68.81 71.10
70.31 70.57 70.67 71.02 72.11 72.93 73.57 75.07 76.96 77.49 78.17 77.39 76.36 76.88 77.87 77.87 78.95 78.09 74.58 76.24 73.84 74.59 79.17 80.24 79.44 78.38 79.07 78.50 78.30 78.59 78.06 77.66 75.87 76.83 72.63 72.83 72.20 72.30 71.43 70.06 69.27 69.41 71.53
71.00 70.70 71.08 71.35 73.03 73.37 74.63 74.99 76.60 77.50 78.08 77.58 77.47 76.97 78.24 74.73 74.64 76.80 74.95 74.25 73.90 74.96 80.75 78.80 78.49 78.89 78.86 78.54 79.29 77.39 77.00 79.25 76.69 76.99 77.66 73.37 72.51 72.49 72.19 71.38 70.51 69.05 70.26
70.87 71.51 71.76 71.75 72.89 73.78 75.14 75.33 76.37 77.36 77.86 76.45 77.76 77.77 77.54 76.54 74.48 77.01 78.51 76.20 77.68 75.74 76.62 78.52 78.35 78.39 78.33 79.11 79.96 76.69 78.69 78.54 77.99 78.01 77.89 75.73 73.80 73.99 73.26 72.88 72.24 70.31 67.85
70.78 71.64 72.45 72.56 72.77 73.35 74.13 75.67 76.72 77.09 77.14 77.32 78.10 77.78 77.66 78.13 77.69 78.06 79.33 77.90 78.98 79.36 77.83 77.93 77.62 78.09 78.89 79.12 80.53 78.70 79.05 79.27 77.51 75.99 79.16 78.53 75.40 75.73 74.52 73.69 73.36 72.61 70.55
69.93 71.23 72.76 73.54 73.70 73.98 73.95 74.41 75.35 76.50 76.63 77.42 77.76 77.37 77.41 77.41 77.56 78.83 79.10 79.67 79.37 80.14 79.56 79.12 78.22 77.87 77.97 78.89 80.34 80.00 79.15 77.90 78.92 78.70 78.09 79.05 80.26 76.32 75.05 74.48 73.80 73.05 72.48
69.19 70.99 71.75 73.16 73.82 73.89 73.99 74.40 74.56 74.44 76.05 77.20 78.01 77.38 78.11 77.45 76.92 77.26 78.73 79.85 79.68 79.59 80.26 79.52 79.03 77.96 77.51 79.11 79.54 77.63 77.64 77.64 77.58 78.16 78.98 77.22 76.69 79.59 79.69 76.37 79.51 76.03 77.37
67.71 70.17 71.00 72.03 73.47 73.95 74.73 74.12 74.59 74.49 75.29 76.83 76.66 77.30 77.41 77.49 77.11 78.28 78.40 79.30 79.71 80.04 78.03 79.48 79.42 78.75 77.84 79.10 79.56 79.50 78.64 78.25 78.31 78.31 78.57 78.32 78.85 79.31 77.23 78.97 75.92 75.02 76.07
67.50 68.31 70.36 71.88 73.23 74.91 76.27 76.28 74.87 75.00 74.96 75.32 75.53 76.53 77.32 77.70 77.72 78.73 78.84 79.29 79.71 79.79 79.59 79.89 79.74 79.40 78.66 78.38 78.28 78.76 78.90 78.83 78.06 78.83 78.99 78.92 79.12 79.65 80.07 78.61 79.88 78.53 77.39
65.62 67.78 69.19 73.07 76.03 76.15 77.16 77.07 75.88 76.69 76.07 76.27 76.01 76.38 77.80 78.38 78.73 78.29 79.27 79.30 79.72 79.69 80.02 80.11 80.11 79.95 78.37 76.97 78.31 78.86 78.88 79.08 78.37 78.92 79.27 79.05 78.09 73.44 76.10 77.74 79.17 79.21 77.78
64.47 65.57 69.08 70.91 72.51 74.14 76.90 77.55 77.19 77.20 76.97 77.23 76.26 77.14 78.22 78.49 78.26 78.22 78.89 79.40 79.58 79.85 80.00 79.66 79.75 79.54 77.08 69.92 68.04 75.09 77.86 78.91 78.72 78.74 79.23 79.81 74.88 74.51 69.31 68.53 68.95 72.95 77.91
66.71 67.97 69.10 68.99 70.98 72.69 75.31 76.58 77.64 77.88 77.94 77.75 77.89 77.91 78.27 78.21 78.34 78.66 78.95 79.17 79.18 79.91 79.85 79.69 79.89 79.53 79.92 66.41 65.77 68.03 77.10 78.15 78.49 79.08 79.29 78.47 76.37 75.80 79.47 71.45 68.55 69.15 67.49
67.51 68.77 69.85 70.83 71.75 71.90 73.31 74.92 76.68 78.27 77.99 77.89 78.71 78.11 78.78 78.32 78.77 79.04 78.97 79.43 79.56 79.34 79.57 79.68 80.04 80.03 79.87 66.47 63.23 66.19 76.87 76.98 78.09 79.43 79.53 79.56 79.42 79.46 78.69 79.60 78.86 78.40 78.76
68.98 69.71 70.62 71.10 72.48 73.18 73.21 73.55 75.52 78.21 77.77 78.48 78.06 78.67 78.86 78.90 79.11 78.64 78.95 79.59 79.61 79.51 79.55 80.00 80.16 80.11 80.01 64.93 62.80 66.11 76.33 76.06 77.59 78.39 78.68 79.36 79.89 73.03 66.55 77.97 77.65 78.49 79.02
69.16 70.33 71.65 72.36 72.66 73.45 74.05 73.81 72.76 76.35 77.51 78.12 78.26 79.50 79.43 79.62 79.16 79.54 79.91 80.10 79.91 79.59 78.79 79.23 80.47 76.19 80.61 66.00 61.56 66.10 76.14 76.14 75.49 78.13 78.94 68.47 74.10 66.97 62.97 77.43 77.83 77.16 78.08
67.68 69.68 72.67 73.00 73.95 75.16 74.70 74.82 73.91 75.22 77.71 79.00 79.54 80.04 79.95 80.04 80.36 80.67 80.67 80.39 80.02 78.90 79.71 79.44 80.02 80.56 78.87 79.23 60.57 59.56 76.99 75.45 75.45 75.17 75.17 76.43 64.27 62.03 60.94 61.51 77.92 76.59 77.21
61.79 65.55 71.80 74.55 75.22 75.66 75.59 76.50 75.70 76.41 79.19 79.20 79.27 79.60 80.20 78.86 79.01 80.42 80.44 80.50 79.96 79.63 80.16 79.64 79.56 78.77 80.86 68.85 61.40 58.39 61.81 70.99 76.17 75.63 74.17 75.28 61.01 58.23 59.06 61.90 63.76 60.32 63.89
58.50 61.97 67.86 75.25 76.12 76.11 75.57 76.38 76.31 79.50 79.55 79.43 79.28 79.44 79.90 79.90 80.18 79.80 79.92 78.43 79.60 77.16 77.08 76.85 76.15 76.52 77.50 78.83 61.93 57.76 58.57 61.23 72.69 76.59 69.80 62.01 58.13 55.56 58.38 57.02 60.11 59.82 74.33
57.88 60.05 63.56 67.06 71.72 73.58 75.04 77.49 78.30 79.87 79.69 79.18 79.05 79.36 78.98 78.69 79.48 78.67 78.46 77.33 76.85 76.37 76.23 76.07 75.85 76.00 76.07 76.14 77.61 73.63 67.41 61.07 66.97 69.48 73.98 71.64 66.87 62.48 68.52 72.22 67.75 74.49 76.74
58.38 59.12 59.74 61.40 63.43 66.25 68.18 70.77 73.90 78.51 77.09 78.26 77.91 77.95 77.40 77.12 78.27 78.44 77.64 77.26 79.15 74.06 77.03 76.27 75.96 74.87 75.83 76.33 72.20 73.37 77.67 76.14 72.03 73.24 76.03 75.35 75.08 75.67 76.54 77.48 77.71 77.75 77.74
58.58 57.98 58.07 59.14 60.13 61.31 61.99 65.02 67.91 73.92 76.42 75.43 76.06 76.14 76.49 77.04 77.09 77.05 74.66 51.03 55.72 52.53 53.62 53.56 64.84 75.67 60.05 58.53 53.69 54.52 58.45 59.70 57.06 72.75 75.32 75.68 76.18 76.31 76.66 76.87 77.32 77.43 75.29

GFSMW_sfc_wetblb_060.txt.gz
Wetbulb
70.27 70.83 71.02 71.29 72.16 72.57 72.58 74.40 75.40 76.19 75.34 75.26 74.59 73.16 74.01 72.28 77.07 75.60 75.75 79.34 79.12 79.36 79.82 78.61 77.66 76.24 71.17 74.21 75.89 75.23 72.21 71.49 72.35 70.31 71.41 71.16 71.76 71.40 72.88 72.36 72.05 72.17 73.66
69.32 70.08 70.64 70.71 71.29 71.96 72.42 74.30 75.34 75.89 75.13 75.70 76.06 76.91 73.58 72.86 71.61 76.48 76.86 78.67 78.47 79.14 79.09 78.73 78.47 74.90 74.06 75.78 75.83 71.32 71.36 74.21 73.08 71.09 69.05 66.63 68.30 71.16 68.52 72.48 72.12 72.33 72.14
69.12 69.59 69.94 70.40 70.97 71.73 72.16 73.36 75.32 75.67 75.43 77.13 75.99 77.93 78.58 76.01 73.17 76.43 76.84 78.45 79.37 78.61 79.73 79.26 79.25 78.53 77.45 76.53 76.15 73.74 75.39 72.84 71.42 73.58 70.74 67.01 63.05 67.90 70.88 70.68 71.95 72.23 70.58
70.39 70.28 69.98 70.44 70.48 72.11 73.18 73.83 75.40 76.30 75.43 77.50 75.18 76.92 74.93 74.75 74.57 75.56 75.18 77.39 79.28 78.80 78.95 79.43 79.76 79.52 74.58 77.83 77.24 77.08 75.99 70.40 72.10 73.18 72.90 72.43 70.78 66.56 65.17 71.27 71.67 72.04 72.01
70.03 70.10 70.14 70.87 71.19 72.76 72.93 74.00 74.96 76.38 75.30 75.47 76.82 75.35 75.57 75.00 75.93 74.96 74.66 77.57 79.66 79.64 78.52 78.72 79.56 78.08 78.19 78.49 78.13 77.28 77.32 76.61 72.14 73.13 71.81 72.49 72.17 72.66 68.37 65.94 69.11 71.30 72.42
70.21 70.80 71.37 71.66 71.52 72.69 72.84 73.86 74.26 75.15 75.84 75.15 75.46 76.65 74.53 76.33 75.72 75.76 74.50 76.17 77.04 78.25 79.45 78.56 79.29 79.91 78.28 77.40 78.30 78.82 78.26 77.83 77.27 74.21 74.51 71.16 69.92 70.19 69.79 68.23 68.68 69.14 70.56
70.20 70.57 70.70 70.90 71.35 71.55 72.44 73.42 73.96 73.90 75.26 74.98 74.30 76.29 75.51 75.33 76.66 77.97 74.46 74.97 75.44 75.65 77.65 79.18 78.59 78.40 79.90 79.39 78.58 78.75 78.65 78.79 77.72 77.19 75.47 72.52 69.83 69.81 72.67 70.10 70.64 68.78 71.06
70.09 70.60 71.15 71.50 71.47 71.99 72.30 73.16 73.86 73.84 74.82 75.89 73.96 74.85 76.79 74.67 74.79 77.35 75.30 77.24 75.07 75.21 77.63 78.72 78.11 78.79 78.98 78.87 78.81 78.48 78.05 77.90 77.76 77.52 77.60 75.64 74.42 73.24 72.86 72.04 70.77 68.62 70.47
66.33 70.64 71.47 71.71 72.21 72.39 72.35 73.36 74.04 74.46 75.24 74.79 75.50 73.83 75.52 75.55 73.98 76.96 78.16 76.46 77.76 77.39 77.74 78.33 79.03 78.55 78.93 78.79 78.44 76.90 77.04 77.48 78.24 77.39 78.10 77.08 75.08 74.02 73.46 73.82 73.06 71.35 67.28
64.18 67.51 71.72 71.83 72.88 73.12 73.71 73.71 75.02 74.88 75.67 75.76 75.84 75.18 73.43 75.57 75.68 74.57 77.41 76.18 78.03 77.72 77.77 78.33 78.11 78.44 79.08 79.41 78.94 77.54 77.96 77.33 76.53 77.17 76.77 77.25 75.53 75.40 75.79 74.57 74.46 73.69 71.07
66.12 66.92 68.84 72.48 72.66 73.55 73.95 73.83 73.96 75.56 75.99 76.35 75.79 75.65 75.01 74.49 74.38 75.35 74.08 77.01 76.51 80.36 78.92 79.79 78.58 78.02 77.99 79.21 78.77 77.81 78.24 77.30 77.22 78.25 78.14 76.95 77.29 76.87 76.75 76.41 74.48 73.45 73.71
66.74 66.31 65.20 67.20 72.65 72.76 73.50 74.18 74.09 74.65 75.85 76.47 76.21 75.90 75.93 74.96 74.65 73.25 76.15 76.91 77.43 77.74 79.44 78.60 79.70 77.99 77.91 78.17 77.93 77.40 75.76 77.04 76.86 77.61 77.28 77.61 77.49 78.18 77.89 76.71 76.18 76.37 76.94
65.31 65.06 66.23 68.69 72.36 72.66 73.36 73.80 74.32 74.47 76.04 76.52 76.02 76.05 75.84 75.74 74.91 74.19 74.22 76.68 76.82 78.37 77.62 78.72 77.62 78.02 77.46 77.24 77.57 77.89 77.05 77.01 77.57 77.43 77.47 76.94 77.56 77.31 77.49 77.54 75.71 74.81 75.30
66.45 67.07 68.92 71.71 73.30 73.30 73.50 73.81 74.08 74.86 75.06 75.98 75.81 75.32 75.51 75.69 75.62 76.01 74.21 76.51 77.18 76.51 77.26 77.63 78.14 77.99 77.40 76.91 76.93 77.93 77.59 77.18 76.93 77.78 77.17 77.85 77.81 77.35 77.93 77.19 76.76 76.84 76.28
66.95 66.74 69.78 70.96 72.90 73.97 74.19 74.61 74.88 74.55 75.11 75.00 74.99 75.37 76.13 76.13 76.15 75.60 75.76 74.54 76.18 76.96 77.51 77.50 78.02 78.04 77.74 77.10 76.18 76.82 77.37 77.29 77.03 77.01 77.70 77.63 77.10 73.75 75.11 77.12 77.36 77.07 76.47
64.34 67.96 69.72 71.50 71.60 74.61 74.86 75.00 74.94 75.23 75.46 74.68 74.83 75.48 76.28 76.01 76.13 75.68 76.12 76.32 76.06 76.67 77.29 77.48 77.44 77.64 77.75 70.98 68.84 74.21 75.96 77.47 76.92 76.35 77.01 78.25 73.61 73.18 69.49 68.40 69.04 73.23 76.09
67.38 68.49 70.04 71.11 67.85 67.42 70.93 75.52 75.75 76.02 75.63 75.43 75.47 75.46 76.25 76.12 75.78 76.60 75.78 76.67 76.00 77.00 76.89 77.08 77.55 77.41 77.90 67.57 66.30 68.98 75.90 75.85 76.61 76.81 76.80 77.07 76.79 73.76 77.24 70.74 67.60 68.01 67.34
68.03 69.11 68.82 70.19 70.95 68.36 68.99 76.38 76.86 76.46 76.54 75.46 76.13 75.90 75.84 75.85 76.29 76.14 76.49 76.05 77.08 76.63 76.87 77.00 77.34 77.64 77.91 68.01 63.88 66.41 74.41 75.52 76.37 76.51 76.77 77.12 76.62 76.41 76.96 76.95 76.67 75.90 75.71
64.64 69.05 69.79 70.52 72.54 72.98 73.35 74.80 76.56 76.16 75.75 76.60 75.65 76.76 75.94 76.06 76.13 76.01 76.06 76.47 76.47 76.81 76.85 77.36 77.42 77.42 77.66 65.95 64.74 64.94 72.77 74.02 74.66 75.40 76.53 77.57 77.11 71.66 67.50 74.58 74.83 75.56 76.59
64.50 67.28 69.23 70.41 71.74 72.79 73.62 73.31 73.71 76.91 75.43 75.33 77.14 76.88 76.92 76.37 76.35 76.30 76.46 76.80 77.01 76.84 77.26 77.16 77.68 74.46 77.70 66.49 62.93 64.98 74.61 73.44 74.10 75.14 75.82 67.47 72.14 66.61 62.56 73.89 75.48 74.34 74.84
62.33 64.05 65.76 68.65 71.44 74.99 74.64 73.12 73.45 73.51 77.39 77.16 76.83 78.24 78.25 76.75 77.69 77.23 77.49 77.43 77.21 77.18 77.35 77.27 77.62 78.25 77.07 77.15 60.95 59.30 74.98 74.53 74.37 74.07 74.46 75.70 64.70 61.19 60.09 61.55 75.14 74.26 74.90
59.03 60.77 62.70 67.51 73.63 76.36 76.15 74.04 73.85 74.69 76.98 78.37 77.38 77.85 77.94 78.03 77.88 77.99 78.07 77.83 77.51 77.09 77.16 76.96 77.29 78.01 79.08 68.87 61.93 58.33 61.64 69.94 75.06 74.55 75.32 74.49 62.96 60.39 60.21 61.33 63.34 61.47 62.28
58.42 59.32 60.58 63.66 65.88 69.01 73.22 75.49 76.21 76.98 76.55 79.26 77.37 77.99 78.52 78.36 77.83 77.95 77.56 77.58 77.77 77.02 76.66 76.68 76.58 77.09 78.04 78.72 63.19 58.57 58.20 61.03 72.74 75.85 70.54 61.17 58.01 55.40 56.69 57.24 60.18 59.40 70.12
58.22 58.17 59.15 58.88 60.95 63.37 67.04 70.30 72.00 77.26 77.82 76.04 77.88 78.05 78.28 77.60 77.85 78.43 78.24 77.69 77.34 76.96 76.82 76.07 76.62 76.67 77.25 77.78 78.44 70.27 65.17 61.26 65.42 68.17 72.55 68.72 68.38 63.29 67.95 69.27 62.44 70.28 74.02
58.02 58.96 58.58 57.50 57.90 60.27 64.21 65.91 67.99 70.80 76.46 77.78 77.91 77.79 77.87 76.85 77.68 77.45 77.88 77.74 78.21 76.37 76.76 77.03 76.58 76.44 75.96 75.74 70.02 72.17 74.00 73.21 69.42 71.46 74.59 74.49 74.04 73.40 74.54 76.08 77.18 74.98 75.37
57.29 58.52 57.68 57.20 57.84 58.98 60.15 62.60 64.89 66.15 71.01 78.02 77.78 77.00 77.11 77.18 77.34 76.46 73.27 53.42 58.79 54.42 57.01 58.68 71.82 71.86 59.04 53.01 51.41 51.74 58.25 59.65 57.81 71.04 74.07 73.76 74.10 73.95 73.83 74.19 75.41 76.93 75.01

GFSMW_sfc_wetblb_063.txt.gz
Wetbulb
67.57 67.50 68.70 68.69 70.12 69.52 68.97 69.35 70.54 71.09 72.16 72.11 71.13 70.93 70.16 69.39 72.57 72.88 74.69 75.16 74.23 75.05 72.74 73.06 72.86 72.08 69.07 69.07 71.94 69.70 69.29 67.47 68.59 66.53 67.61 67.26 68.14 69.02 68.81 68.86 69.90 71.15 71.87
66.76 67.24 67.37 67.73 68.83 69.35 68.70 69.76 71.26 71.34 71.99 71.47 71.79 70.98 71.42 70.51 70.91 73.40 72.66 75.57 74.79 74.79 73.94 72.06 72.94 72.43 70.26 70.16 69.61 69.45 66.85 69.70 67.45 66.12 65.64 63.35 63.44 66.91 66.50 68.20 68.28 67.93 71.56
65.94 66.15 66.57 67.27 68.46 68.49 69.60 70.23 72.11 71.45 72.21 71.51 71.50 72.91 71.74 70.31 69.58 72.26 73.08 74.57 75.28 74.77 75.05 73.63 73.17 71.13 72.54 71.52 70.49 70.85 71.11 67.66 68.18 66.78 67.08 63.50 61.08 64.78 66.77 65.09 66.66 66.45 68.32
66.83 66.36 66.56 66.63 68.13 68.51 70.07 71.40 72.42 71.85 71.69 72.67 70.34 70.63 71.06 68.99 70.21 72.21 73.08 74.29 75.22 74.70 75.07 74.83 73.90 72.81 71.08 72.20 71.20 72.59 70.75 67.88 66.09 68.16 67.63 67.46 65.99 63.44 60.65 65.77 67.30 66.99 68.19
67.04 66.32 66.76 67.29 68.83 69.50 69.25 71.41 72.57 72.04 71.71 72.42 70.80 70.64 70.50 72.34 70.78 72.53 73.25 73.47 74.56 74.88 74.87 74.50 74.60 73.53 71.94 72.35 72.31 71.42 72.56 71.80 70.48 68.16 66.47 66.48 65.33 67.42 63.47 61.09 64.96 66.62 67.00
67.83 67.47 67.67 68.37 68.15 69.87 69.73 70.93 72.41 71.25 71.41 71.58 72.57 70.31 70.83 70.51 71.59 71.41 72.17 73.61 74.35 74.42 75.70 74.75 74.45 73.69 73.59 72.86 72.74 73.44 71.92 71.25 72.27 71.47 70.07 65.20 64.39 64.68 64.61 63.79 63.67 63.56 65.68
67.71 67.47 67.00 67.36 67.56 69.12 69.35 70.14 71.37 71.74 71.22 70.94 71.24 72.91 70.83 70.32 71.32 71.64 71.93 72.90 73.14 73.16 74.06 74.20 74.58 74.31 73.37 74.03 73.84 72.78 73.59 72.53 72.32 71.50 70.54 70.23 69.30 66.11 68.82 65.46 64.73 63.65 65.25
64.03 67.94 67.72 67.83 68.09 69.22 69.49 70.27 70.26 71.13 71.79 70.99 70.74 71.54 72.97 70.97 71.38 72.16 72.06 73.23 73.55 73.53 73.66 74.69 74.35 74.20 75.04 74.07 74.17 73.28 73.66 72.64 73.56 71.53 72.19 71.13 71.07 69.78 66.40 65.72 64.68 62.81 64.48
66.15 67.04 68.36 68.48 68.26 68.93 69.39 70.26 70.46 70.44 71.90 71.82 70.29 71.07 72.70 71.27 70.54 71.09 72.60 72.13 72.57 73.47 74.20 75.71 74.61 74.62 74.74 74.49 73.91 72.97 73.70 73.30 73.17 72.34 72.23 72.15 71.21 70.34 69.77 67.11 66.99 65.25 61.62
66.82 66.83 66.91 68.54 68.90 69.50 70.02 70.45 71.34 70.91 72.01 72.27 71.72 70.43 71.51 72.70 70.80 70.68 72.14 72.01 71.06 73.13 74.15 75.64 74.76 75.32 74.75 74.05 73.82 72.14 73.39 72.86 71.96 72.11 72.62 71.61 71.32 70.40 72.31 69.27 68.70 68.15 65.27
64.61 66.33 67.36 66.45 66.94 67.84 70.02 70.56 71.45 71.18 71.61 71.86 72.87 71.20 70.24 72.15 72.07 71.10 70.17 72.41 71.60 73.60 75.34 74.99 75.02 75.07 74.77 74.81 74.51 72.71 73.64 72.77 72.34 72.77 72.68 72.27 72.43 70.80 72.04 73.69 71.82 68.31 67.97
64.09 66.11 66.25 65.17 65.40 64.51 69.99 70.22 71.38 71.76 72.25 72.74 72.34 72.87 71.33 70.45 71.96 71.05 71.06 70.59 71.79 72.51 74.82 75.41 75.25 74.40 73.87 74.79 74.18 73.28 73.15 73.18 72.84 73.07 72.68 73.21 74.38 72.39 72.25 72.76 71.76 71.48 71.64
65.38 64.99 65.02 65.88 66.41 65.59 66.28 70.88 70.99 72.48 73.06 73.39 72.68 72.92 72.66 70.62 70.52 70.82 70.98 70.06 73.18 71.41 74.72 74.57 74.69 74.54 74.50 73.90 74.23 74.31 73.74 72.87 73.34 73.50 73.68 72.72 73.08 72.68 73.87 73.06 72.10 71.44 71.54
64.30 64.14 64.09 63.17 63.84 65.75 66.55 70.70 71.16 71.96 73.53 73.67 73.73 72.86 72.72 72.84 70.77 71.00 70.27 72.02 72.29 74.64 72.96 74.90 74.34 74.64 73.88 73.78 73.95 74.30 74.40 73.78 73.47 74.79 74.17 74.27 73.69 73.16 73.10 73.59 73.03 72.91 72.35
64.57 64.14 63.94 63.52 67.05 66.80 68.20 70.54 71.72 71.78 72.76 73.77 73.66 73.45 73.57 73.50 73.26 71.88 71.28 69.65 73.11 72.68 74.55 73.73 74.82 74.73 74.97 74.72 73.25 74.05 74.67 74.32 73.69 73.47 74.27 74.12 74.15 72.95 73.03 74.82 74.00 73.83 72.82
61.18 64.50 65.49 64.71 67.28 66.35 66.17 70.08 71.50 72.15 72.32 72.97 73.47 74.00 73.53 73.73 73.47 73.06 72.79 70.94 70.33 73.89 72.82 73.55 73.92 74.66 75.60 70.61 69.17 72.32 73.97 74.90 74.36 73.82 73.63 74.50 72.95 72.13 69.42 68.73 69.94 73.56 73.57
60.77 61.81 65.25 65.46 66.02 67.27 69.53 68.46 70.11 72.11 72.38 72.15 73.23 73.49 73.47 73.45 73.29 73.46 72.94 72.78 70.57 71.92 73.82 73.74 74.08 74.22 75.27 67.91 67.14 69.00 73.36 72.92 74.50 74.39 74.22 74.17 75.56 72.25 73.85 69.59 67.24 67.21 66.64
60.56 61.88 63.42 63.80 65.89 66.96 68.48 69.54 69.19 69.22 70.00 71.59 71.99 73.10 73.31 73.21 73.71 73.43 73.15 72.73 73.24 71.55 71.99 73.37 74.35 74.66 75.11 67.42 65.34 67.31 72.47 73.13 73.41 74.75 74.54 74.24 74.11 72.93 72.59 73.01 73.37 72.57 71.64
59.63 60.75 61.86 63.06 64.39 67.12 66.61 68.24 68.26 68.52 68.59 71.23 72.19 72.83 73.22 73.46 73.68 72.92 73.32 73.14 73.61 73.52 73.02 74.06 74.28 74.50 75.05 65.57 64.42 64.72 69.90 72.09 72.74 73.52 73.90 74.42 74.42 70.13 66.65 71.72 72.35 73.16 74.06
59.02 58.38 60.21 62.33 63.65 66.59 69.07 68.81 67.60 68.89 68.76 72.59 73.23 73.50 73.51 73.64 73.41 73.75 73.23 74.19 73.59 73.56 74.46 73.83 74.77 72.39 74.94 65.95 63.30 64.09 71.85 69.66 71.32 72.26 72.65 66.97 72.26 66.87 64.57 71.32 72.16 70.54 71.01
57.84 59.09 60.07 59.86 62.65 66.18 66.75 71.51 69.72 70.12 70.88 74.03 73.86 74.04 74.05 73.60 74.16 74.08 74.41 74.00 74.24 74.08 73.71 74.32 74.56 75.05 74.26 74.36 61.58 60.45 73.68 73.03 71.27 71.29 71.87 72.89 63.60 60.00 58.85 61.18 71.91 72.05 73.04
57.82 58.41 57.94 59.48 61.50 63.23 63.65 65.18 68.21 69.97 71.87 72.97 73.37 74.10 74.74 74.05 74.62 74.16 74.16 74.24 73.91 73.69 73.45 73.61 74.20 74.97 75.69 67.30 63.08 59.61 60.92 69.83 73.02 71.76 72.54 72.01 63.71 59.54 59.28 60.36 61.76 60.88 61.72
57.17 57.44 57.47 58.21 59.26 59.90 60.49 62.31 63.62 65.41 67.15 71.68 73.83 73.08 74.87 74.97 74.59 74.34 74.05 73.89 74.14 73.76 73.47 73.58 73.54 74.22 75.37 76.09 63.25 59.42 58.70 60.57 71.62 74.24 70.69 65.63 61.46 58.85 59.05 58.77 59.87 59.68 65.08
56.75 57.68 56.57 56.70 57.10 58.57 59.20 59.92 61.70 63.01 63.92 68.36 72.65 74.74 74.55 74.66 74.74 75.63 75.02 74.58 74.13 74.07 73.77 73.86 73.71 74.36 74.75 75.48 76.24 68.91 64.12 60.66 63.79 67.86 68.41 64.99 65.68 64.88 66.77 66.82 59.19 63.10 67.10
56.88 57.08 57.31 56.77 56.83 57.78 58.06 58.75 59.28 61.57 62.11 65.41 72.82 74.37 74.76 73.56 75.16 75.20 75.78 75.42 75.94 74.27 74.67 74.69 74.83 74.01 74.39 74.87 71.41 71.34 71.97 71.78 68.23 68.74 71.94 70.55 70.05 71.10 70.32 70.71 69.97 65.33 68.84
55.87 55.44 56.93 56.69 56.34 57.15 56.67 57.22 57.67 58.90 60.58 62.39 69.43 74.03 74.85 75.05 75.33 74.65 68.91 52.32 56.09 58.04 59.52 61.35 71.22 74.68 61.95 64.09 59.26 56.87 58.44 58.54 56.93 68.33 71.39 70.91 71.41 71.35 71.46 70.31 71.82 72.49 70.17

GFSMW_sfc_wetblb_066.txt.gz
Wetbulb
67.12 67.09 67.11 68.62 68.51 68.78 67.87 68.63 69.04 68.19 70.23 69.12 69.26 68.54 68.74 70.37 71.79 71.70 72.75 73.23 73.20 73.36 71.89 71.80 71.19 70.19 68.17 69.01 69.31 68.08 68.97 66.95 66.93 65.39 65.42 65.84 67.53 67.20 68.02 69.39 69.89 70.88 71.13
66.54 66.19 66.81 68.19 68.33 67.70 68.18 68.51 69.41 68.68 70.88 69.84 69.90 69.72 69.68 69.82 71.47 72.15 73.45 73.60 73.43 73.67 72.56 71.61 71.40 70.54 67.82 70.04 68.01 66.64 66.47 67.94 65.99 64.26 63.76 60.60 61.42 64.75 66.56 67.22 68.50 68.38 71.00
64.76 65.64 66.45 67.33 67.76 67.05 67.79 68.93 69.55 69.18 70.89 70.31 70.62 71.33 70.32 69.06 69.77 70.89 70.74 73.81 73.59 74.07 72.72 72.53 71.98 70.35 69.86 69.49 68.80 68.47 68.45 65.88 66.80 65.36 66.01 60.68 58.55 62.15 64.31 64.70 65.73 66.78 68.38
66.38 65.60 65.74 66.55 66.99 67.06 68.25 69.67 70.24 69.51 70.63 70.07 69.54 70.05 68.59 66.82 67.51 70.40 71.59 72.47 74.02 73.50 74.07 73.23 72.26 71.10 70.37 70.33 69.86 72.06 68.68 66.24 64.82 66.50 66.26 65.50 63.86 59.66 59.31 63.42 65.59 65.17 67.39
66.49 65.31 65.59 66.85 67.81 68.04 67.90 70.61 70.30 69.99 70.65 70.29 69.21 69.75 68.88 68.85 68.82 70.47 70.93 71.99 73.28 73.05 73.75 73.74 72.73 71.06 70.31 70.71 70.82 70.12 70.64 69.84 68.81 66.93 66.59 64.72 64.04 64.36 61.67 59.99 63.38 65.20 65.68
66.41 66.52 66.47 67.11 67.37 68.76 68.93 70.86 70.04 69.63 70.55 70.65 69.03 68.96 69.49 69.41 69.31 69.13 70.38 71.38 72.97 72.79 73.08 73.20 73.18 71.91 71.05 71.44 71.56 71.44 70.77 70.19 70.50 69.55 68.74 65.54 63.89 62.93 63.40 61.52 62.11 62.43 63.92
65.92 65.89 65.45 66.04 66.82 67.31 68.38 70.57 70.12 69.09 69.80 70.34 70.81 69.03 69.62 69.53 69.56 69.70 70.97 71.27 72.41 72.24 73.10 72.48 72.80 71.88 71.98 72.33 72.00 72.08 72.21 70.47 70.65 70.57 68.77 68.75 67.42 64.50 65.92 63.44 63.18 62.17 64.08
64.70 66.17 65.89 65.99 66.99 67.28 67.68 69.86 70.02 69.43 69.62 69.96 69.58 70.89 70.00 69.41 70.07 70.87 71.51 72.12 72.89 73.08 73.24 73.25 73.12 73.28 72.42 72.89 72.64 71.46 71.95 71.52 71.76 71.06 70.73 69.99 68.33 68.50 65.56 63.68 62.75 61.15 62.47
63.99 66.75 66.39 66.79 67.41 67.61 67.55 68.41 70.24 69.75 69.68 69.59 69.71 69.70 71.24 70.58 69.44 70.77 71.13 72.06 72.36 72.45 72.94 73.43 72.97 73.12 73.59 72.22 72.30 71.85 71.77 72.22 71.37 71.76 70.46 70.83 70.26 68.73 68.25 66.80 64.97 62.87 60.17
65.70 67.25 66.73 66.77 67.31 68.48 68.38 68.67 69.73 70.20 70.46 69.95 69.55 69.69 70.23 71.40 69.46 70.19 69.95 71.44 71.15 71.94 72.32 74.05 73.30 72.82 73.17 72.91 72.00 71.24 71.82 71.99 71.13 71.19 70.75 70.15 70.20 69.07 69.89 70.70 66.95 66.03 63.28
65.30 66.19 66.78 67.37 67.18 68.51 69.04 68.85 68.84 69.43 70.63 70.98 70.37 69.23 69.64 70.36 70.80 69.44 69.73 70.71 70.28 71.74 71.84 73.95 73.40 73.10 73.16 72.19 72.44 70.99 70.94 71.77 71.10 70.58 70.29 71.06 70.50 70.05 69.51 71.13 71.13 69.20 66.41
65.48 66.31 67.02 66.90 66.71 66.81 68.61 68.80 69.57 69.38 69.68 71.24 70.94 69.98 69.01 69.77 70.61 70.72 69.53 69.65 70.30 71.65 72.95 73.77 73.87 73.43 73.47 73.15 72.67 71.65 72.12 72.00 71.16 70.79 70.97 71.66 73.35 71.33 70.58 70.66 70.71 69.87 69.33
62.73 62.30 63.65 65.45 66.85 66.86 67.88 68.75 69.58 70.01 70.39 70.94 70.95 70.98 69.65 68.77 69.35 70.80 70.32 69.20 69.60 70.45 73.51 73.63 73.80 73.77 73.68 73.49 73.53 73.32 72.15 71.43 72.08 72.00 71.46 71.65 71.46 71.75 71.02 71.24 71.21 70.91 70.94
64.36 63.84 64.58 65.46 65.68 65.19 64.70 66.06 69.27 70.82 70.87 70.77 70.80 70.92 71.26 69.91 68.79 69.90 70.77 69.84 68.97 69.64 72.01 73.63 73.70 73.49 73.74 73.72 73.87 73.68 72.67 72.06 71.95 72.46 72.36 72.72 72.12 71.23 71.63 71.93 71.74 71.80 70.99
62.72 63.79 64.53 65.23 65.39 65.82 65.87 66.04 68.01 70.45 71.50 70.79 70.97 70.54 71.80 72.18 70.72 68.79 69.55 69.75 70.00 70.51 70.62 72.37 73.42 73.87 73.62 73.56 72.78 73.10 72.83 72.25 72.02 72.24 72.91 73.35 73.08 71.39 70.72 72.40 71.80 71.74 71.04
60.85 61.74 62.21 62.85 64.18 65.55 66.76 67.30 68.27 69.25 71.92 71.41 71.19 71.97 71.43 72.18 72.01 70.94 68.91 69.30 68.71 70.40 70.88 71.93 72.73 72.81 74.28 69.05 68.35 71.88 72.98 72.86 72.40 71.87 72.09 72.56 71.75 71.02 68.83 68.42 69.55 72.10 72.24
60.83 61.41 61.24 61.77 62.70 65.52 66.37 67.29 67.30 68.75 70.37 71.89 72.25 72.36 72.66 71.94 72.02 72.32 71.14 69.87 69.24 68.49 70.51 71.03 72.61 73.04 73.65 66.56 66.38 68.61 72.63 73.04 73.10 72.93 72.95 72.76 74.53 71.46 72.99 68.41 66.57 66.75 67.40
57.17 58.10 60.09 61.73 63.35 65.19 68.00 68.46 69.69 69.52 68.89 69.57 72.25 72.99 73.01 72.63 72.63 72.26 71.98 71.33 71.05 69.05 68.73 71.33 71.11 72.45 73.43 66.41 64.79 66.89 72.26 71.79 72.53 73.80 73.90 73.38 73.45 72.57 72.21 72.31 72.05 71.79 71.25
57.94 58.66 59.94 61.30 62.64 65.12 66.54 69.30 69.10 66.28 65.87 67.32 69.04 70.98 73.14 72.80 72.74 72.25 72.32 72.41 71.98 71.31 69.47 70.77 72.67 71.92 72.12 64.17 63.74 65.34 71.79 72.30 71.81 72.35 72.94 73.80 73.35 68.88 64.89 71.97 71.19 71.54 72.19
58.07 57.70 58.80 60.80 62.12 63.31 64.02 66.75 67.89 66.84 65.21 67.76 68.89 70.34 71.96 72.75 72.64 72.87 72.65 73.00 72.75 72.46 72.22 71.09 71.14 70.33 73.39 64.92 62.49 64.20 72.74 72.04 71.88 71.84 72.41 66.29 71.19 65.10 62.85 70.72 71.78 70.90 71.52
57.51 58.23 57.63 59.28 59.97 61.55 61.26 63.48 65.05 66.61 67.10 68.24 70.29 71.60 72.30 72.57 73.29 73.08 73.35 73.18 72.89 72.54 72.43 72.18 72.10 72.16 71.75 72.52 61.26 60.67 73.18 72.99 71.80 71.06 71.14 72.06 62.84 60.66 59.39 61.48 72.58 71.20 71.85
56.49 57.22 56.03 56.32 59.41 59.80 59.35 60.12 61.43 62.16 64.11 64.39 66.32 68.75 72.46 73.06 73.29 73.17 73.29 73.10 72.78 72.22 71.77 72.01 72.62 73.04 73.76 66.37 62.63 59.59 61.43 69.54 73.29 72.44 71.76 71.44 61.38 58.14 58.53 59.26 62.12 60.45 62.09
54.68 56.97 55.89 55.27 56.50 58.31 58.39 58.30 58.88 60.29 61.31 62.80 64.50 66.30 70.80 73.10 73.03 72.68 72.61 72.57 72.43 72.26 72.07 71.51 71.44 72.61 73.97 74.30 62.29 59.34 59.11 60.86 71.01 74.42 70.54 63.37 59.20 57.42 58.57 57.89 59.51 58.47 63.90
52.23 56.10 55.71 56.62 56.42 57.00 57.72 57.92 57.85 58.44 58.83 60.11 61.80 64.27 67.68 72.77 73.42 73.43 73.26 72.87 72.60 71.98 72.08 72.06 71.95 72.33 73.05 74.05 74.77 69.78 65.05 61.22 64.25 68.05 71.25 67.45 64.32 62.81 65.07 64.48 62.27 63.41 65.85
51.84 54.58 54.42 54.46 55.57 56.02 56.84 56.44 56.41 57.09 57.03 58.90 60.54 62.80 68.36 72.64 73.68 73.61 73.45 73.07 73.69 72.56 72.60 72.69 72.89 72.47 72.20 72.96 69.29 70.27 72.79 71.62 68.48 68.81 71.73 67.53 66.40 67.66 66.99 67.57 67.93 63.82 63.36
52.37 52.48 55.27 54.13 53.03 53.36 54.21 54.17 53.81 54.38 54.87 57.55 59.17 61.34 62.85 66.58 73.25 73.82 69.56 53.20 55.15 57.60 57.32 58.97 68.65 73.29 65.67 60.98 57.89 55.92 56.10 57.19 56.83 64.42 70.92 70.68 70.84 69.72 70.62 70.48 70.08 69.76 66.21

GFSMW_sfc_wetblb_069.txt.gz
Wetbulb
65.68 66.69 66.34 68.29 68.09 68.73 68.56 68.84 69.46 68.36 69.74 68.48 67.64 67.45 68.29 68.95 69.55 70.12 71.59 71.96 71.93 71.09 69.54 68.75 69.57 69.02 68.05 68.83 68.09 66.49 66.69 65.57 65.59 64.80 64.40 65.10 66.10 66.82 68.15 68.29 69.02 69.94 70.21
64.02 65.32 65.95 67.53 67.51 68.12 68.36 68.91 69.28 67.79 69.35 69.00 68.99 68.69 68.68 69.70 70.48 70.80 71.49 71.65 72.59 72.36 71.49 71.05 70.97 67.95 67.67 67.92 67.04 65.63 66.63 65.97 65.46 63.23 62.30 59.85 60.46 63.16 66.33 66.75 67.85 68.61 70.08
64.07 64.36 65.29 66.45 67.08 67.31 67.33 68.88 68.80 68.03 69.31 68.87 69.74 69.43 68.76 68.83 69.95 70.21 70.89 72.77 72.07 72.86 72.23 71.27 71.28 70.16 68.09 67.67 66.12 67.00 66.68 64.11 65.57 64.59 63.70 59.63 57.59 60.86 62.71 63.71 65.21 66.49 66.79
65.38 64.66 64.95 65.91 66.57 66.98 67.80 68.95 68.87 68.01 69.32 69.01 69.35 68.76 67.96 66.53 67.75 69.96 69.74 72.22 73.09 73.04 71.82 71.99 71.00 70.22 69.60 69.33 69.26 70.29 67.37 64.91 63.76 65.27 65.36 64.37 62.53 59.28 58.51 61.67 64.07 64.79 64.83
66.53 64.50 65.00 66.09 67.08 67.44 67.83 68.19 68.56 68.16 69.52 69.20 69.40 69.29 67.88 67.31 67.55 69.53 69.58 70.73 72.28 72.70 73.45 72.39 71.23 70.46 69.60 69.65 69.62 69.79 69.15 68.53 66.67 65.70 65.95 63.58 63.13 62.86 60.26 58.81 61.46 64.35 65.16
66.02 65.40 66.20 66.80 66.71 67.34 68.05 68.54 68.47 68.16 69.10 69.33 68.20 68.75 68.76 68.42 67.68 67.59 68.84 69.87 71.12 71.96 71.89 72.98 71.83 70.79 69.85 70.07 70.04 69.81 69.86 69.52 69.48 68.14 67.58 64.53 62.30 61.75 62.67 60.52 60.76 61.62 63.64
65.75 65.07 64.54 65.61 65.90 66.10 66.84 68.71 68.54 67.82 68.84 69.20 68.40 68.07 68.99 68.64 68.52 67.95 69.01 69.82 70.60 71.23 71.77 71.67 71.85 70.91 70.51 70.58 70.98 70.90 70.28 69.43 69.68 69.32 67.60 67.73 66.07 63.52 64.21 62.40 62.33 61.77 63.31
65.46 66.04 64.90 65.58 66.04 66.32 66.63 68.65 68.47 68.04 68.64 68.98 68.98 68.15 68.13 69.27 69.23 69.37 68.93 70.43 71.26 72.31 72.19 72.04 71.80 71.75 71.17 71.49 71.09 70.96 71.20 70.98 70.31 69.89 70.09 68.90 67.53 67.61 64.83 62.99 61.79 60.45 61.08
64.90 66.18 65.22 65.38 66.20 66.67 66.76 68.12 68.56 68.43 68.63 69.12 69.15 69.33 68.66 68.23 68.80 70.03 69.48 70.73 71.06 72.42 72.02 72.78 71.95 72.29 71.93 71.51 71.29 70.89 70.27 70.88 70.16 70.65 69.90 69.40 69.56 68.02 67.07 65.89 63.74 61.90 59.08
63.95 65.03 65.84 65.32 66.46 66.90 67.46 68.43 69.11 68.66 68.90 69.16 69.40 69.20 70.07 70.29 68.71 69.02 70.20 70.08 70.61 71.07 71.71 72.72 71.63 72.02 72.42 72.07 70.90 70.64 70.83 70.77 70.78 70.84 70.45 69.39 69.20 68.64 67.89 69.33 66.20 64.57 62.17
63.68 64.54 65.93 66.01 66.56 67.30 67.20 67.50 68.82 68.76 68.80 68.91 69.23 68.99 68.71 69.29 69.74 68.97 69.31 70.37 70.82 70.89 70.92 72.42 72.44 71.99 71.91 72.17 71.18 70.47 70.51 70.63 70.41 69.77 69.49 69.45 69.52 69.45 68.59 69.31 69.88 67.65 65.11
64.02 65.31 65.77 65.65 65.78 66.34 66.95 66.71 67.88 68.94 69.00 69.24 69.06 68.67 68.57 68.62 69.69 69.59 68.88 68.75 69.42 69.99 71.05 71.26 72.62 72.30 72.19 71.70 71.35 71.04 71.20 69.97 70.13 70.60 69.30 69.61 71.32 70.00 69.76 69.09 69.07 68.86 67.92
62.62 62.97 64.47 64.84 65.43 65.52 66.36 66.72 67.14 68.18 69.41 69.68 69.31 68.76 68.39 67.98 68.38 69.39 69.71 68.40 68.60 69.24 70.72 71.51 72.23 72.38 72.50 72.25 71.87 71.73 71.08 70.80 70.87 71.19 70.32 70.05 70.19 70.16 70.19 69.54 69.61 70.10 70.49
62.44 63.47 63.85 64.13 64.18 65.61 65.74 65.37 67.65 68.40 68.46 69.56 69.78 69.17 68.63 68.11 68.45 68.69 69.14 69.78 68.31 68.76 69.51 72.10 72.37 72.92 72.64 72.76 72.54 72.37 71.85 71.37 71.33 71.29 71.38 71.53 71.15 70.39 70.43 70.44 70.72 70.57 69.99
59.85 60.38 60.68 62.00 64.31 65.20 65.08 65.19 66.13 68.76 69.28 68.70 69.20 69.42 69.89 69.48 68.59 68.09 68.59 69.03 69.22 69.04 68.77 70.28 72.48 72.66 72.92 73.31 72.50 72.54 72.39 72.07 71.68 71.38 71.72 71.86 71.94 70.72 70.20 71.13 70.16 69.98 69.45
57.24 58.66 60.69 61.68 62.49 63.50 65.84 66.51 67.13 67.10 69.78 69.34 68.92 69.91 70.16 70.29 69.34 68.13 67.54 67.92 68.72 68.74 68.29 68.84 70.08 72.04 73.39 68.85 67.80 71.62 72.49 72.30 71.63 71.17 71.21 71.95 71.27 70.50 68.14 67.58 68.13 70.72 70.48
56.23 57.16 58.39 60.75 62.15 63.39 65.97 66.50 67.58 67.71 68.18 69.72 69.74 69.91 69.86 70.21 70.72 70.03 68.27 67.32 67.63 68.23 67.73 68.68 69.51 70.16 71.88 66.41 66.14 68.13 72.48 71.87 71.80 71.48 71.38 71.15 73.03 70.50 72.11 68.54 66.69 66.78 66.60
55.62 56.71 58.08 59.13 61.18 63.58 64.84 65.62 67.83 68.06 68.35 68.95 70.23 70.47 70.75 69.78 70.39 71.16 70.24 68.71 68.05 67.83 67.43 67.48 68.03 69.98 70.85 65.51 64.58 66.55 71.46 72.14 72.15 72.05 71.93 71.57 71.70 71.35 71.71 71.78 71.46 70.97 70.83
55.87 56.79 57.89 59.11 61.16 62.39 62.36 65.19 68.50 67.54 65.15 66.71 67.89 69.99 71.31 71.36 70.84 70.57 70.87 71.09 69.91 68.95 68.68 68.30 67.93 68.40 69.54 63.74 63.50 64.75 70.79 71.41 71.26 71.80 72.22 72.49 72.35 68.41 64.64 71.43 70.93 70.86 71.41
54.28 57.17 57.18 58.69 59.31 59.37 60.44 63.00 64.51 64.51 64.37 66.26 67.90 69.19 68.59 72.01 71.87 71.85 71.56 71.90 71.60 70.98 70.56 69.83 69.03 66.99 69.73 62.51 61.83 64.24 71.85 71.13 71.61 72.03 71.75 65.62 69.89 64.50 61.97 69.64 71.20 70.21 71.04
51.13 56.83 57.36 57.33 57.45 59.55 59.86 60.26 61.46 60.54 62.13 64.43 64.60 66.06 68.71 69.47 70.24 72.52 72.82 72.56 72.04 71.94 71.36 71.11 70.73 69.70 69.49 70.52 59.28 60.03 71.95 71.86 71.39 71.28 71.40 71.87 62.34 60.20 58.72 60.27 71.68 70.41 71.07
49.39 55.08 55.91 57.28 57.25 58.66 58.16 57.91 58.07 59.92 61.58 62.43 63.66 64.89 66.26 69.27 71.45 71.31 72.22 72.64 72.32 71.44 71.21 71.18 71.11 71.52 70.94 63.63 61.17 58.85 60.80 68.05 71.59 71.35 71.92 71.28 60.57 57.75 57.61 58.78 61.45 60.64 60.76
48.78 52.62 55.34 56.45 56.99 57.48 57.41 55.91 57.17 57.69 58.58 60.21 61.26 62.35 63.63 65.71 69.51 71.58 71.14 71.50 72.04 71.69 71.13 70.95 70.65 71.09 72.09 71.86 60.54 58.29 58.54 60.77 69.76 73.02 69.76 63.65 58.62 56.77 57.57 57.49 59.31 58.66 65.10
48.55 51.11 53.83 54.25 55.95 56.01 56.46 55.63 56.33 55.62 55.74 57.43 59.73 61.09 62.01 62.28 66.37 71.16 72.18 71.54 71.48 71.44 71.20 71.01 70.62 70.61 71.75 72.54 72.91 67.65 63.09 60.43 63.48 67.43 69.91 67.77 64.40 62.17 64.44 62.93 60.89 63.51 66.13
48.96 50.79 52.19 55.06 55.72 54.17 54.88 54.86 54.62 54.10 53.31 54.25 57.85 59.32 60.13 60.81 62.21 65.33 72.05 72.08 72.57 71.41 71.61 71.80 71.76 71.03 70.50 71.37 68.51 69.36 71.36 70.31 67.47 68.20 70.75 71.69 69.05 70.38 68.41 67.00 67.77 66.37 65.16
49.27 51.20 53.46 54.39 52.75 50.04 50.58 51.55 51.20 51.42 51.89 52.69 54.85 56.59 57.82 59.14 60.60 63.48 66.64 57.34 56.83 55.49 55.89 56.49 66.36 72.19 64.34 58.97 55.81 54.27 53.91 55.18 53.91 65.85 70.73 70.90 71.19 70.69 70.73 70.98 69.52 68.62 65.77

GFSMW_sfc_wetblb_072.txt.gz
Wetbulb
66.17 65.76 65.69 67.97 68.24 67.97 67.94 68.86 69.38 69.38 69.68 69.21 68.10 68.73 69.18 69.44 70.44 70.91 72.30 73.25 72.75 72.57 70.39 70.98 71.36 71.18 70.73 70.91 70.68 69.48 70.05 68.58 68.70 68.63 68.17 68.48 68.89 69.20 70.46 70.96 70.60 71.17 71.70
64.33 64.67 64.56 65.97 67.44 67.54 68.14 68.22 69.32 68.65 69.96 70.20 69.02 69.61 69.65 70.66 71.14 71.36 72.44 73.24 73.17 72.00 71.36 70.87 72.30 70.62 70.55 70.62 70.31 70.15 69.15 68.44 68.43 67.03 65.40 64.19 65.35 65.85 67.72 69.50 69.97 70.43 71.55
62.92 63.94 64.02 65.53 67.15 67.39 67.75 67.96 69.21 68.71 70.02 69.70 69.44 69.42 69.64 70.35 70.84 71.32 71.63 73.02 73.30 73.47 72.50 72.62 72.64 70.47 71.04 69.76 69.46 69.77 69.78 67.59 67.94 68.39 67.50 64.25 62.74 63.73 66.57 67.76 67.87 69.06 69.41
63.99 63.97 64.30 65.32 66.29 67.43 68.45 68.75 69.10 68.63 69.48 69.53 69.54 69.01 68.15 68.30 69.95 70.72 71.66 72.99 73.44 73.64 73.89 72.43 72.26 71.84 70.84 70.95 70.56 71.53 70.47 69.05 67.77 68.49 67.70 67.60 66.54 64.58 63.88 66.40 67.19 68.33 68.16
64.72 63.42 64.42 65.80 66.81 68.08 67.87 68.92 69.16 68.55 69.40 69.42 70.07 69.00 68.32 69.01 69.46 70.87 71.05 71.95 73.56 73.88 73.42 73.10 72.58 72.02 71.45 72.10 72.47 72.16 71.30 70.97 68.57 68.88 69.02 67.39 66.48 66.00 64.74 64.11 65.73 68.30 68.97
65.52 64.97 65.52 66.43 66.41 67.91 67.97 68.51 68.46 68.13 69.10 69.42 69.01 69.01 68.70 68.35 68.21 69.36 70.18 70.71 72.12 73.19 73.61 73.83 73.55 72.78 72.08 71.86 71.97 72.48 72.41 72.47 72.04 70.50 70.12 68.71 67.44 66.69 66.56 64.71 65.27 65.22 68.58
65.90 65.38 64.15 64.98 65.87 66.34 67.19 67.65 68.18 67.59 68.33 69.11 68.70 69.19 69.17 69.25 68.86 68.73 69.78 70.40 71.25 72.24 73.00 73.32 73.55 72.13 72.44 72.56 72.71 72.63 72.64 71.88 71.96 72.72 70.80 70.07 69.40 67.42 67.48 66.17 66.25 65.98 67.91
65.71 66.17 64.56 65.22 65.81 66.29 66.73 67.45 67.42 67.58 68.12 69.20 68.77 68.97 69.70 69.86 69.88 69.74 69.83 70.45 71.35 72.28 73.72 73.42 73.27 73.64 72.64 72.62 72.98 72.35 73.01 73.05 72.04 72.46 72.75 71.53 70.76 70.31 68.58 67.30 66.89 66.43 65.80
65.37 65.61 64.43 65.61 65.80 66.22 66.26 67.32 67.51 67.85 68.04 68.87 69.27 68.41 68.67 69.24 69.71 70.53 70.74 70.90 72.14 72.93 73.76 73.89 73.42 73.42 73.14 72.93 72.87 72.37 72.61 73.31 72.80 72.94 72.82 71.99 72.43 71.03 70.17 70.33 67.61 67.51 65.59
64.28 65.15 65.24 65.08 66.14 66.49 66.49 67.72 68.51 68.03 68.31 68.80 69.19 69.25 68.74 68.96 69.48 70.49 70.68 71.04 71.90 72.59 73.51 73.59 73.63 73.47 73.30 73.63 73.24 72.84 72.90 72.71 72.86 72.71 72.85 72.62 71.95 71.79 70.63 71.66 69.73 68.36 67.32
64.12 64.41 65.78 65.02 66.17 66.87 66.75 66.81 68.29 68.34 68.25 68.94 69.29 69.34 69.47 69.51 69.19 69.46 70.70 71.40 71.97 72.25 72.59 73.58 73.83 73.28 72.93 73.38 72.30 72.51 72.90 72.72 72.84 72.63 72.55 72.38 72.37 71.81 71.42 71.46 72.33 70.77 68.80
63.21 64.72 65.73 65.26 65.54 65.63 66.23 66.61 67.65 68.41 68.69 68.86 69.12 68.99 69.13 70.05 70.15 69.38 69.93 70.93 71.50 72.03 72.49 72.77 73.68 73.75 73.52 73.35 73.45 72.95 73.07 72.16 71.93 72.57 72.31 72.15 72.03 72.56 72.74 71.84 72.10 72.04 71.64
61.24 63.09 64.34 65.11 65.86 66.23 66.45 66.40 67.27 68.48 69.01 68.87 69.12 68.94 68.56 68.35 69.45 70.18 70.19 70.29 70.65 71.05 71.74 72.54 72.61 73.43 73.67 73.43 73.49 73.42 73.22 72.95 72.55 72.66 72.53 72.64 72.46 72.44 72.86 72.94 72.24 72.17 72.70
59.01 60.05 60.92 62.39 64.87 66.33 67.06 67.36 67.04 67.87 69.00 69.08 68.87 68.51 68.53 68.56 68.85 69.62 70.19 69.92 70.47 70.63 70.62 71.72 72.36 73.25 73.73 73.63 73.71 73.28 73.28 73.08 72.99 73.28 73.36 73.51 73.01 73.02 73.25 72.87 73.29 73.29 73.09
56.85 58.34 59.73 61.45 62.92 64.42 66.35 67.10 67.30 67.85 68.44 69.04 69.16 68.94 69.24 69.31 69.22 69.21 69.33 70.47 70.39 70.35 70.67 70.96 72.19 73.24 73.74 73.57 73.60 73.63 73.31 73.10 73.03 73.48 73.51 73.47 73.16 70.63 71.59 73.50 73.95 73.44 72.45
55.87 57.12 58.59 59.91 61.07 63.43 65.21 66.91 67.54 67.80 68.84 68.53 68.55 69.99 70.22 69.82 69.15 68.83 68.87 69.08 69.99 70.22 69.99 70.01 71.09 72.28 72.92 68.73 67.85 72.13 73.44 73.50 73.42 72.97 73.42 74.04 71.62 71.13 67.76 67.18 67.83 72.11 73.61
53.12 55.84 56.96 58.03 59.88 61.48 63.74 63.86 65.93 68.23 68.22 69.08 68.96 69.07 70.13 70.01 70.01 69.61 68.84 68.32 68.52 69.52 69.74 69.47 70.04 70.53 72.33 65.97 66.31 68.05 73.80 73.50 73.41 73.42 73.61 73.08 73.57 71.44 73.95 68.97 66.42 66.69 65.84
48.39 52.01 56.28 57.34 58.91 61.37 61.46 62.10 66.71 68.97 68.13 68.12 69.25 69.63 69.74 69.90 70.57 70.65 69.61 68.67 68.53 68.22 68.52 69.04 69.61 69.80 70.49 64.58 64.13 66.71 72.70 73.53 73.55 73.48 73.24 73.24 73.60 73.34 73.42 73.57 73.55 73.70 73.80
47.67 49.88 53.68 57.69 58.91 59.68 60.40 61.05 64.59 65.10 65.98 66.20 67.43 69.62 70.31 70.04 70.35 70.28 70.84 70.62 69.51 68.71 68.38 68.95 68.66 69.11 69.82 62.27 62.42 65.02 71.81 72.21 72.75 73.58 73.75 73.67 73.30 68.37 64.41 73.29 73.07 73.41 73.84
47.38 48.87 51.03 56.03 57.65 58.04 59.75 59.52 61.96 62.36 62.17 63.50 64.68 65.60 67.29 70.61 71.28 70.62 70.73 71.21 71.54 70.65 69.96 69.60 69.58 66.62 68.65 61.99 60.31 63.26 71.11 70.44 71.01 72.76 73.18 65.71 71.13 63.96 61.56 71.91 73.10 72.35 72.85
47.04 49.47 50.68 53.29 56.72 58.44 58.90 57.74 59.27 59.56 60.58 62.54 64.05 64.99 65.91 67.59 70.33 71.60 72.10 71.63 71.56 71.59 71.71 70.74 70.93 70.58 68.49 68.94 58.76 59.18 70.70 70.86 70.34 70.67 71.14 73.16 62.06 60.07 57.89 61.26 73.27 71.83 72.78
46.59 49.36 49.24 50.79 54.96 58.05 58.28 57.24 57.10 59.49 59.58 60.27 61.40 63.96 65.19 65.42 67.54 68.33 69.93 72.19 72.52 71.78 71.70 71.66 71.44 71.79 71.27 62.92 59.88 57.46 60.22 67.21 71.36 71.10 72.03 72.03 59.86 57.83 57.45 58.69 61.56 60.56 61.65
46.71 48.59 48.61 50.06 53.12 56.55 57.32 56.24 57.03 57.58 56.83 57.84 59.21 60.80 63.40 64.32 65.77 66.64 67.79 70.46 71.89 72.07 71.68 71.59 71.31 71.66 72.73 72.19 59.46 57.18 57.18 60.09 69.33 72.47 69.14 62.93 57.84 56.49 58.44 57.67 58.81 57.85 66.22
45.86 47.16 47.30 48.86 51.33 55.00 57.33 55.71 56.42 56.04 54.70 55.11 56.56 59.02 60.56 61.69 63.15 65.06 65.83 67.79 71.44 71.52 71.64 71.64 71.48 71.89 72.41 72.68 73.03 67.18 63.15 59.58 63.07 66.43 69.52 67.58 65.29 63.17 66.32 65.75 62.52 65.71 68.46
45.87 47.08 47.03 47.75 50.41 55.03 55.14 54.15 53.92 52.75 51.52 53.07 54.40 56.81 59.23 59.11 59.59 61.60 63.18 64.95 67.92 70.08 71.90 72.18 72.38 71.92 71.41 71.96 67.79 67.90 70.54 69.17 65.78 66.95 70.80 71.68 71.64 71.29 70.78 70.18 70.70 68.96 68.39
46.29 46.61 47.06 48.38 50.41 54.33 54.07 51.96 51.84 50.46 50.14 50.24 52.26 54.67 55.73 56.57 57.06 59.33 61.11 56.29 54.86 52.94 52.22 54.39 66.00 72.47 64.14 58.62 54.17 53.30 52.40 53.12 53.67 66.22 69.91 70.01 70.91 71.20 70.97 70.73 71.34 71.28 68.71

GFSMW_sfc_wetblb_075.txt.gz
Wetbulb
68.70 70.36 70.65 70.65 70.11 70.64 71.92 72.96 73.25 74.14 73.79 73.14 72.66 73.48 73.08 74.21 74.75 75.55 76.08 75.67 76.72 75.74 75.78 75.39 75.69 76.07 75.70 75.54 74.93 74.42 74.38 73.91 74.89 73.79 73.14 73.26 74.03 73.77 74.08 74.90 74.79 74.74 74.96
67.36 68.47 69.84 70.22 70.02 70.16 71.34 72.83 73.46 74.13 73.99 73.59 74.39 74.40 74.47 74.71 74.80 75.65 75.83 76.33 76.66 76.62 75.53 74.87 75.55 75.78 74.89 75.75 75.19 74.99 73.69 73.82 73.97 72.23 71.78 68.45 70.44 72.53 73.10 73.86 73.82 74.47 74.81
66.95 66.32 68.53 69.53 70.30 70.25 71.26 72.31 73.53 74.14 74.26 74.48 74.30 74.46 74.76 75.08 74.01 74.30 74.75 75.60 76.81 76.68 76.48 75.76 76.39 75.86 75.80 74.47 74.95 74.29 74.23 72.13 73.28 72.68 71.11 68.54 66.41 69.42 72.76 73.14 74.01 73.84 73.91
67.78 66.98 67.93 68.61 69.96 70.68 72.02 72.55 73.62 74.10 74.41 74.99 74.06 74.15 72.97 72.40 73.65 74.65 75.29 75.58 76.92 77.00 76.85 76.93 76.60 76.25 75.58 75.06 74.44 75.07 75.13 74.09 71.96 72.95 73.13 73.19 71.80 67.84 67.40 72.75 73.12 74.11 73.41
68.05 67.98 67.54 68.85 69.87 71.13 71.74 72.34 73.45 74.03 74.91 74.66 75.33 73.72 74.21 74.00 74.69 74.84 75.52 76.24 77.28 77.23 77.25 76.86 76.93 76.58 75.57 76.24 76.44 75.82 75.15 74.77 72.85 72.75 73.85 73.51 72.51 72.17 69.93 68.16 70.87 74.01 74.87
68.15 68.69 69.69 69.75 69.89 71.01 71.39 71.85 72.76 73.85 74.14 74.47 74.66 74.36 74.55 74.31 73.57 74.38 74.25 74.43 75.48 76.76 77.36 77.25 77.34 76.66 76.36 75.69 76.08 76.85 76.12 76.56 76.02 75.26 75.22 74.20 71.57 71.09 71.07 70.52 71.75 70.95 73.64
68.71 68.23 68.24 68.69 69.68 70.08 70.74 71.27 72.14 72.58 73.23 73.64 74.01 74.30 74.37 75.19 75.04 75.15 74.46 75.02 74.58 75.05 76.64 77.50 77.82 77.92 76.80 76.55 76.58 76.51 76.45 76.25 75.74 76.50 75.27 75.42 74.95 74.26 73.38 71.85 70.78 70.60 73.41
69.29 69.06 68.54 68.85 69.59 69.98 70.88 71.05 71.59 72.92 72.90 73.10 74.26 74.89 75.12 73.89 74.12 75.22 74.53 74.76 74.75 75.50 77.24 77.50 77.39 77.54 77.14 76.72 76.59 75.89 75.75 76.61 75.89 75.79 76.80 76.09 75.74 75.49 74.92 73.65 71.23 69.46 71.46
67.67 69.36 69.79 69.32 69.77 70.14 70.88 71.43 72.00 72.43 72.61 72.91 73.98 74.34 74.77 74.62 74.32 75.25 75.53 74.87 76.21 75.52 76.76 77.19 77.45 77.39 77.33 77.12 77.00 75.46 76.76 77.54 76.87 76.47 76.30 75.77 76.31 75.93 75.67 75.52 74.73 71.69 68.02
67.48 69.07 70.31 69.27 70.19 70.55 70.94 71.49 72.08 72.44 73.31 73.32 73.48 73.51 73.53 74.15 74.97 75.22 75.45 75.67 75.99 76.61 76.47 77.00 77.31 77.53 77.53 77.40 77.15 76.06 76.50 76.43 76.20 75.79 76.45 76.35 75.67 75.65 75.55 74.89 74.98 74.37 72.68
66.41 69.02 70.01 70.01 70.37 70.80 70.86 70.94 71.24 71.58 71.74 72.32 73.67 73.54 73.34 73.51 74.17 74.12 74.95 76.03 76.67 76.92 76.77 76.97 77.09 77.17 77.03 77.49 77.11 76.97 76.67 76.23 76.50 76.58 76.34 76.34 77.16 74.94 74.95 74.95 75.08 74.68 74.06
64.85 67.78 69.04 69.25 69.88 69.93 70.57 70.35 71.38 70.97 71.34 72.46 72.99 72.12 73.43 73.54 73.12 73.31 74.06 75.28 75.82 76.70 76.83 77.19 77.10 77.09 77.25 77.27 76.84 76.30 76.01 75.86 75.43 75.75 76.22 75.74 75.57 76.38 76.59 75.61 76.09 75.24 75.98
61.23 62.74 64.60 66.42 68.52 69.35 70.18 70.24 70.54 71.01 71.69 71.91 71.18 70.35 71.02 72.33 73.23 73.65 73.95 74.45 74.86 75.94 75.94 76.61 76.73 76.94 77.09 77.02 77.16 77.22 76.80 76.64 76.39 76.05 76.00 75.83 76.25 76.05 75.71 76.22 75.71 75.59 76.01
57.83 59.23 60.60 62.45 64.38 66.80 69.28 70.19 70.46 71.12 71.78 71.95 71.84 71.01 70.19 70.31 72.74 74.56 74.67 74.28 74.63 75.08 75.31 75.81 76.25 76.67 77.28 77.28 77.28 77.03 77.00 77.05 76.75 76.78 76.44 76.44 76.22 76.26 76.84 76.61 76.87 76.55 76.00
55.67 57.06 57.62 59.11 61.50 63.52 65.35 68.09 70.05 70.57 71.11 71.92 71.67 71.91 73.02 71.93 71.07 73.16 74.80 74.64 74.58 74.45 74.92 75.17 75.31 75.91 75.89 75.87 76.69 77.03 76.89 76.82 76.67 76.94 76.78 76.77 75.67 72.11 73.26 75.59 76.72 76.82 75.56
52.81 54.86 57.06 58.56 58.41 60.74 62.45 63.48 65.88 69.09 70.15 70.09 71.61 73.22 73.68 74.05 73.76 74.31 74.37 74.45 74.22 74.27 74.46 74.11 74.70 74.95 74.32 68.46 67.70 73.68 76.41 76.84 76.66 76.38 76.81 77.11 73.30 72.49 68.09 67.65 68.44 72.88 75.97
51.09 52.90 54.45 56.71 59.20 59.80 61.41 60.91 62.62 67.44 70.07 70.51 70.82 72.08 73.32 73.07 73.75 73.53 73.80 73.85 73.97 74.33 73.86 73.61 73.86 74.59 75.64 65.91 65.40 68.27 75.44 76.22 76.58 76.91 76.81 76.50 76.01 74.19 77.03 69.46 66.56 66.96 66.00
49.88 51.39 53.42 55.19 57.80 59.88 60.20 60.40 62.88 65.25 68.52 71.10 70.83 72.07 72.37 72.30 73.54 73.58 73.31 73.79 73.35 73.64 73.55 73.47 74.23 74.52 74.39 65.40 63.63 66.29 74.85 76.33 76.82 77.08 77.11 77.00 77.23 76.87 76.42 76.73 76.35 76.45 76.82
50.37 51.28 52.95 54.38 56.80 58.91 60.98 61.01 61.04 63.29 62.81 64.95 67.78 69.28 71.33 72.72 72.90 72.90 73.19 73.63 73.15 72.87 72.77 73.28 73.86 74.10 74.49 62.91 62.66 65.49 73.68 74.04 76.16 77.03 77.08 77.45 77.23 71.20 65.47 75.52 75.61 76.03 76.18
50.69 50.85 52.07 54.00 55.04 57.26 59.65 60.84 60.35 61.89 62.56 61.26 62.47 66.02 68.75 69.86 72.70 73.40 73.80 74.10 74.31 73.56 73.45 73.04 73.56 69.94 73.94 64.78 60.34 63.77 72.02 73.30 72.90 75.47 76.60 66.88 73.34 65.68 62.02 74.15 75.30 74.82 75.20
49.71 50.69 51.75 53.02 54.09 55.96 58.43 59.08 60.53 59.99 60.89 61.75 61.26 62.44 66.49 67.03 67.96 72.76 74.69 74.06 74.41 74.30 74.22 73.97 74.49 74.53 72.98 72.69 59.40 58.23 71.87 72.39 72.98 73.07 73.51 73.98 62.65 61.14 58.26 61.93 75.88 74.93 75.11
48.73 49.83 50.64 51.65 53.03 54.24 56.00 57.89 58.70 61.26 60.87 60.23 59.97 61.28 62.95 65.22 66.87 67.81 68.58 70.29 72.24 72.52 73.15 73.60 74.20 74.94 75.30 65.80 61.81 57.18 58.89 67.80 73.21 73.84 74.29 74.30 60.25 57.65 57.46 59.81 64.12 61.36 63.63
48.38 49.18 49.56 50.66 52.10 53.23 54.71 55.85 58.74 60.81 59.96 57.87 57.73 59.14 60.35 62.69 65.20 64.95 68.04 69.72 70.90 71.67 72.81 72.98 72.77 73.54 75.23 75.68 60.27 57.23 56.66 58.52 70.05 74.20 71.12 63.42 56.91 55.97 59.37 57.70 59.80 58.78 71.75
47.97 48.71 49.11 49.12 50.13 52.30 53.27 55.12 58.20 60.11 58.70 57.35 55.98 57.19 58.04 59.47 62.27 62.69 64.74 66.89 67.73 69.71 70.68 72.08 72.98 73.81 74.09 75.16 75.82 72.65 67.28 59.60 63.32 66.78 71.52 69.01 66.39 64.11 68.33 68.77 64.24 70.52 73.24
49.15 49.56 49.25 49.28 50.02 51.77 52.48 54.52 56.78 58.76 56.60 56.62 56.03 56.35 56.87 58.53 59.35 61.25 60.94 63.87 66.78 65.87 69.54 71.21 72.54 73.24 73.75 74.55 69.48 70.48 75.28 74.62 68.90 68.99 72.43 72.77 72.85 72.85 73.10 73.20 74.25 74.31 73.65
48.67 49.39 50.11 50.00 50.21 52.53 54.17 54.81 57.22 57.01 55.16 54.62 55.21 55.17 54.67 54.88 57.74 56.04 58.72 55.34 53.04 52.20 50.97 48.80 54.11 67.56 63.56 57.50 53.85 52.78 51.51 53.15 54.41 67.79 72.16 72.54 73.31 72.74 72.23 72.14 72.45 73.11 71.57

GFSMW_sfc_wetblb_078.txt.gz
Wetbulb
70.69 72.18 72.82 72.87 71.45 72.04 73.05 74.07 74.59 75.39 75.29 74.79 73.88 73.78 73.63 75.15 75.65 76.89 77.39 77.45 77.85 77.70 77.85 76.92 77.25 77.48 77.04 76.40 77.16 75.94 75.53 72.98 75.32 71.65 72.01 72.14 73.20 73.66 75.35 75.96 75.99 75.13 76.10
69.34 71.07 72.16 72.77 71.20 71.13 72.71 73.94 74.90 75.52 75.68 74.80 74.84 75.05 75.29 75.46 76.06 76.77 77.54 77.49 77.58 78.09 77.62 77.58 76.89 77.58 76.18 77.45 77.46 76.69 74.13 73.59 75.00 71.48 71.07 68.79 69.89 71.79 73.15 74.50 74.60 75.03 75.99
69.26 70.74 71.70 72.25 71.61 70.67 72.20 73.85 75.01 75.56 75.52 76.12 76.15 76.59 77.13 77.45 75.58 75.92 76.31 77.08 77.58 77.55 78.03 77.39 77.64 77.60 77.07 74.65 77.04 76.32 75.59 71.66 75.32 75.08 72.09 68.85 66.44 70.58 72.22 73.46 73.79 74.93 75.03
70.59 71.18 71.69 72.02 72.26 71.56 72.39 74.14 75.34 75.62 75.74 76.95 76.29 76.36 74.10 72.81 74.07 75.24 75.88 76.80 77.90 77.55 77.53 77.89 77.86 77.94 76.95 76.88 76.52 76.64 76.63 76.06 71.99 73.88 74.73 74.90 73.56 68.57 68.10 71.54 72.20 73.27 72.87
70.50 70.73 71.41 72.13 72.82 72.95 72.88 73.91 75.45 76.42 76.17 76.75 76.86 75.64 75.34 74.61 75.16 75.23 77.44 78.04 78.41 77.36 77.46 77.70 78.03 77.96 76.89 77.84 77.55 77.35 77.17 75.58 73.49 73.25 73.87 75.03 74.18 74.30 70.85 67.65 68.93 71.35 73.31
70.81 71.30 71.94 72.43 72.50 73.53 73.58 74.13 75.02 75.91 76.79 76.70 76.72 76.63 76.02 75.60 74.35 75.00 75.22 75.59 76.21 76.89 77.77 77.20 77.65 78.07 77.48 77.83 77.11 77.17 77.38 77.00 76.52 74.68 74.09 72.56 71.13 71.25 71.78 70.84 71.10 70.87 72.92
69.95 70.77 71.21 71.41 72.16 72.60 73.31 73.94 74.73 75.14 76.12 76.24 76.63 76.68 76.74 76.66 76.41 77.00 73.48 75.88 75.21 75.73 77.90 78.32 77.13 76.82 78.19 78.26 78.18 78.42 77.11 76.55 74.93 76.18 74.23 75.35 75.18 75.59 74.82 72.53 71.13 71.41 73.06
71.76 70.92 71.51 72.04 72.43 72.73 73.31 73.86 74.22 75.01 75.77 75.93 76.43 77.32 77.54 75.85 75.58 76.08 75.02 74.97 75.21 76.02 78.03 78.62 77.45 77.33 77.71 77.87 78.57 76.08 75.51 76.88 74.98 75.89 76.79 74.89 75.72 76.52 76.30 73.79 72.06 70.93 71.84
71.17 71.60 71.81 72.21 72.65 72.92 73.43 74.04 74.40 75.15 75.52 75.61 76.28 76.51 77.23 76.91 75.79 76.43 76.47 75.66 77.14 76.29 77.58 78.43 77.96 77.61 77.68 77.66 78.26 76.21 76.43 76.80 76.68 76.53 76.22 75.44 75.07 75.88 76.71 76.14 75.03 72.07 69.29
69.74 71.56 72.45 72.26 72.94 73.45 73.87 74.61 74.99 75.05 75.74 75.68 75.87 75.93 76.41 77.01 76.91 76.62 76.12 76.69 76.36 77.62 77.08 78.16 78.32 77.77 78.15 78.46 78.62 77.03 77.26 77.03 76.20 75.92 76.54 76.97 75.27 75.79 75.76 75.39 75.22 74.80 72.51
67.35 68.90 71.04 72.45 73.01 73.58 73.80 73.93 74.54 74.93 75.37 75.58 75.68 75.78 75.92 76.34 76.63 76.02 76.21 76.91 76.91 77.39 77.92 78.54 78.25 77.88 77.65 78.21 78.58 78.13 77.17 77.09 76.79 77.12 76.93 77.15 77.79 75.64 74.67 75.18 74.75 74.25 74.19
62.39 63.86 66.48 70.88 72.75 73.01 73.55 73.67 74.14 73.82 74.83 75.10 75.58 75.36 76.24 76.15 75.58 75.82 76.22 77.07 76.80 77.46 78.08 78.65 78.48 77.33 77.46 78.15 78.60 77.40 76.79 76.57 76.28 76.68 77.11 76.59 75.94 77.20 77.14 75.47 76.85 76.62 76.26
59.52 61.22 63.10 64.52 66.91 68.03 72.68 73.28 73.64 73.70 74.01 74.29 73.66 74.41 74.41 75.05 75.14 75.58 76.28 76.59 76.75 76.85 76.83 77.74 78.42 78.03 77.26 77.89 78.34 78.48 78.00 77.17 76.91 76.73 76.96 76.71 76.80 76.64 75.73 76.56 75.36 75.47 75.71
58.21 59.19 59.78 60.95 62.33 65.50 67.20 68.51 72.79 73.65 73.97 74.14 74.33 73.29 74.39 74.66 74.57 75.61 76.37 76.34 77.04 76.69 76.39 76.95 77.61 77.95 77.83 77.87 78.23 78.60 78.47 77.80 77.32 77.96 77.96 77.71 76.63 76.82 77.40 77.17 77.48 77.29 76.41
56.85 58.08 58.68 59.41 60.74 61.11 63.58 65.58 67.41 69.94 74.00 73.74 73.83 74.41 75.23 75.25 75.19 74.17 75.67 76.50 76.77 76.66 76.93 76.36 76.72 77.33 77.29 77.15 78.36 78.44 78.25 78.05 78.17 78.22 78.54 78.28 76.63 72.40 73.42 75.73 78.54 78.47 76.12
55.69 57.36 58.59 59.63 59.96 60.85 61.43 61.33 62.81 66.33 71.47 72.95 73.36 74.86 75.30 75.67 75.68 75.39 72.84 76.08 76.35 76.76 76.90 76.30 76.11 75.71 74.86 68.89 67.40 73.62 77.69 78.06 78.15 77.61 78.12 78.70 74.45 73.75 68.91 68.60 68.81 72.42 76.66
53.87 54.79 56.14 57.74 59.19 60.10 61.42 61.13 61.63 64.62 65.42 70.72 73.42 73.28 73.95 74.79 75.24 75.78 75.98 75.55 75.52 76.36 76.40 76.30 76.30 76.58 76.87 65.98 64.94 67.68 75.56 76.07 77.20 77.88 77.55 77.10 76.59 75.41 77.90 70.19 67.50 67.77 66.37
54.02 54.71 55.33 56.45 58.01 59.47 59.37 62.17 63.20 64.01 63.80 63.49 64.46 65.86 71.88 73.09 74.72 74.90 75.16 75.75 75.87 75.82 75.57 75.80 76.82 76.71 76.97 65.64 64.34 66.08 75.37 75.93 77.13 77.90 78.12 78.35 78.41 77.39 76.75 77.33 77.04 77.56 77.60
54.79 55.22 55.72 56.74 58.47 58.59 59.87 61.37 62.18 64.81 63.95 62.17 62.79 63.29 64.90 68.17 72.03 73.87 74.12 75.57 75.26 75.55 75.59 75.95 76.10 76.50 76.99 63.75 62.88 66.45 74.53 74.20 76.32 77.45 78.48 79.02 78.99 72.26 65.41 76.84 77.41 77.18 77.52
54.65 54.79 55.44 56.35 57.40 57.94 58.55 59.40 60.69 61.58 63.82 63.98 63.24 63.56 64.69 64.78 66.23 70.96 73.08 74.73 75.86 74.88 75.39 75.61 76.29 72.22 76.30 66.30 60.58 65.00 73.97 73.88 73.93 76.72 78.04 67.92 74.42 66.33 63.11 76.77 77.57 76.47 76.93
53.95 54.42 55.17 55.36 56.79 57.61 57.58 57.62 59.54 60.33 62.57 63.78 64.02 63.22 63.59 64.68 65.72 66.27 69.54 73.09 75.35 76.74 76.37 75.55 76.41 76.99 75.24 75.41 60.09 58.89 73.90 73.90 74.11 74.15 74.61 75.35 63.31 61.60 59.31 61.91 77.82 75.57 76.12
53.24 53.79 53.71 54.26 55.94 56.98 56.83 56.66 57.36 60.57 62.49 62.98 62.84 63.45 63.54 62.35 64.34 67.14 67.62 67.80 71.19 72.12 74.87 75.63 76.58 76.24 77.69 67.46 63.28 57.85 59.24 68.89 74.54 74.96 75.36 76.05 61.13 57.60 58.59 61.50 64.75 61.25 63.37
52.87 53.58 53.31 53.59 54.94 55.94 56.26 55.71 57.32 58.90 60.48 61.87 61.75 62.08 62.73 63.41 63.98 64.42 66.10 67.28 68.89 70.32 71.90 72.98 72.82 75.71 76.18 77.65 61.95 58.37 57.37 58.73 69.36 75.47 72.02 62.53 57.27 54.61 58.34 57.48 59.33 59.70 72.40
51.84 53.39 53.73 53.37 53.74 55.30 55.93 56.43 57.23 57.95 58.56 59.88 60.65 61.05 60.82 60.91 62.65 62.88 64.02 65.53 65.87 66.38 68.67 70.42 72.65 73.83 75.74 77.16 77.07 74.89 69.66 60.04 64.39 66.69 70.63 69.72 66.57 62.72 67.86 70.26 65.90 71.20 73.68
50.09 50.38 51.10 50.60 49.62 51.09 52.94 55.51 57.47 58.70 57.35 58.87 59.59 59.51 59.65 60.56 60.54 61.48 62.43 61.93 62.89 62.52 63.73 65.39 68.18 69.21 72.16 75.34 61.42 62.37 76.03 77.10 71.29 70.13 74.15 73.87 73.90 74.02 74.72 75.14 75.43 75.61 74.69
49.61 50.23 49.18 50.50 51.23 51.66 52.19 54.26 53.94 54.17 56.01 57.48 57.72 57.83 58.14 58.40 59.07 59.43 60.14 54.66 50.77 48.80 48.29 48.54 53.18 63.90 58.11 54.70 53.78 50.75 52.93 53.84 55.65 70.73 73.23 74.04 74.67 74.70 75.10 75.11 75.52 75.60 73.55

GFSMW_sfc_wetblb_081.txt.gz
Wetbulb
68.73 70.52 70.85 71.78 71.84 72.80 73.73 74.70 74.71 76.15 75.16 74.90 73.84 73.46 73.09 74.89 74.71 75.71 77.66 77.72 77.79 78.03 77.90 76.90 76.78 76.29 74.83 74.60 76.15 75.23 74.94 74.23 73.37 72.71 71.53 71.12 72.44 73.02 73.00 74.29 74.20 74.08 74.67
68.39 70.33 71.33 71.39 71.10 71.87 73.14 74.46 75.14 75.74 75.65 75.26 76.28 74.75 77.50 73.94 76.25 75.63 77.52 77.60 77.88 78.25 77.60 78.15 77.10 77.55 74.36 77.04 76.40 75.56 74.89 70.85 74.46 71.33 70.22 69.07 69.67 70.99 71.85 72.70 72.72 73.12 74.14
67.61 69.05 70.50 71.18 70.91 70.84 72.26 74.11 75.52 75.96 76.42 77.42 75.58 76.39 76.95 76.64 74.54 75.55 75.77 77.17 77.54 77.69 77.96 77.55 77.89 77.67 77.20 75.04 76.66 75.99 72.89 72.34 72.64 76.09 71.53 68.33 67.20 69.44 71.85 72.71 72.16 73.08 72.79
68.21 69.59 70.39 70.83 70.82 70.99 72.86 74.63 75.59 76.15 76.02 77.04 77.46 78.16 74.08 72.29 74.12 75.38 75.96 77.08 77.85 77.66 77.38 77.82 77.92 78.21 76.12 76.49 76.73 75.12 77.67 77.02 72.31 73.28 73.28 75.16 74.15 70.09 68.78 70.41 70.87 72.08 72.44
68.29 69.30 70.56 71.45 71.82 71.52 72.64 74.35 75.87 76.98 77.75 77.44 78.53 76.15 75.25 74.42 75.51 74.22 78.15 76.90 78.81 77.70 76.86 78.16 78.09 77.67 76.62 78.96 77.55 76.88 77.48 74.85 73.80 72.88 72.55 73.51 72.17 73.13 70.48 66.95 68.32 70.86 72.32
69.90 69.93 71.10 72.00 72.01 72.27 72.21 73.81 75.85 77.18 77.04 76.88 77.16 77.70 76.96 76.55 75.41 75.18 74.85 75.20 76.06 76.49 77.69 77.32 77.97 78.21 77.71 77.93 77.38 77.74 77.36 77.20 77.86 75.76 74.14 71.69 68.98 70.55 71.91 69.43 71.42 70.04 72.72
69.50 70.02 69.57 70.45 71.57 72.07 72.78 73.57 75.18 75.84 76.60 76.26 76.60 76.94 76.96 76.88 76.67 76.78 74.59 73.61 73.11 75.04 77.85 78.18 78.10 77.01 78.13 77.81 78.45 78.20 77.42 76.94 75.40 77.13 74.59 74.85 73.68 72.71 73.71 72.72 70.66 70.12 72.10
69.20 69.22 71.28 71.85 71.01 71.67 72.97 74.04 75.11 75.89 76.51 76.60 77.98 78.67 78.41 75.95 75.23 76.76 76.79 75.33 74.30 75.40 79.21 78.00 77.70 77.71 77.83 77.62 78.21 76.64 76.38 78.61 75.96 75.99 78.32 75.34 74.03 73.81 73.61 75.00 71.92 70.69 70.35
70.14 70.25 71.47 70.61 72.06 72.58 72.85 74.25 75.56 76.03 76.55 76.54 77.79 78.20 78.45 77.71 77.04 78.78 77.73 75.70 78.98 75.06 77.91 77.64 77.46 77.54 77.64 77.97 78.86 76.48 77.77 77.35 77.17 76.98 77.05 75.91 74.82 73.65 74.13 73.95 73.38 72.26 69.68
68.32 67.59 70.25 71.93 72.18 72.45 73.03 74.21 75.16 75.74 76.75 77.00 76.97 76.85 77.42 78.03 77.88 77.21 77.43 77.58 77.84 77.72 74.14 77.42 78.23 77.86 77.47 77.84 78.72 78.33 78.41 77.10 76.26 74.88 78.71 78.11 74.85 75.24 74.17 74.13 73.99 73.62 71.98
66.18 67.35 70.11 71.26 71.06 73.31 74.18 74.27 74.77 75.55 76.21 76.80 77.33 77.23 77.28 77.25 77.71 77.05 76.95 77.17 77.35 77.79 77.62 78.30 78.76 77.90 78.09 78.06 79.42 79.04 77.19 77.28 76.92 77.35 77.24 77.50 79.57 75.42 74.39 74.04 73.67 73.33 73.41
62.98 63.74 66.19 67.66 68.73 68.97 70.83 72.77 74.59 74.97 75.94 76.66 78.02 76.99 77.65 77.96 76.76 77.07 77.23 77.71 78.08 77.65 78.25 78.80 78.04 78.05 77.36 78.64 78.44 77.25 76.57 76.43 76.43 76.44 77.37 76.16 75.48 78.77 78.94 75.65 79.35 76.52 77.81
63.05 62.30 61.24 62.07 64.60 67.32 70.57 69.80 69.18 73.65 74.83 76.07 76.37 76.63 76.34 76.22 76.72 77.48 77.17 78.57 78.07 78.25 76.74 77.90 78.44 77.90 77.01 78.50 78.66 78.38 77.98 77.39 77.17 77.17 76.95 76.57 77.23 78.46 76.49 78.16 75.44 74.83 75.74
59.43 60.62 60.29 61.12 62.61 63.19 65.63 68.54 69.83 71.88 71.01 73.97 75.51 75.73 75.82 75.99 76.34 77.80 78.89 77.45 79.09 78.26 77.81 78.22 78.92 78.28 77.45 77.36 77.67 78.38 78.17 78.05 77.73 77.85 78.34 77.83 77.58 78.43 78.69 77.32 78.85 77.47 76.15
59.68 58.53 59.38 60.10 61.72 62.31 62.61 63.68 67.10 69.87 71.86 73.50 73.26 75.91 76.48 76.34 76.75 77.01 77.47 78.06 78.69 78.77 78.66 78.68 78.31 78.70 77.28 76.78 78.06 78.30 78.13 77.96 78.54 78.31 78.78 79.08 77.10 73.02 74.74 75.53 78.02 79.20 76.87
58.51 59.36 60.58 61.42 60.53 61.35 62.66 63.30 64.32 66.38 69.10 69.35 71.13 71.06 75.38 74.94 77.04 76.76 76.79 76.83 77.10 79.27 79.61 78.50 78.48 77.91 75.62 69.20 68.14 74.47 78.49 79.21 79.63 78.13 78.79 79.41 75.01 74.21 69.04 68.52 68.85 72.69 77.40
57.15 57.78 58.77 59.61 60.98 61.23 62.09 61.89 63.51 65.46 64.50 64.83 65.30 66.49 69.83 72.25 74.05 76.30 77.36 76.93 76.16 77.46 79.03 78.62 78.56 78.63 78.71 67.51 65.03 68.44 76.13 77.64 79.05 79.32 79.09 78.08 76.01 75.60 79.05 70.61 68.30 68.75 67.08
57.43 57.44 57.76 59.05 60.24 60.68 61.17 62.01 63.49 65.35 64.45 63.70 63.79 64.23 66.20 68.77 71.50 72.82 74.80 75.81 76.89 76.54 76.93 78.10 78.97 79.10 78.74 66.92 64.22 65.70 76.42 76.98 77.80 78.31 79.62 79.68 79.08 79.08 78.25 78.98 78.34 77.62 78.00
57.19 57.78 58.21 58.79 60.41 59.81 60.59 61.52 62.98 64.27 66.02 64.65 64.07 63.76 63.88 65.21 67.94 69.70 69.82 74.20 76.36 75.43 75.31 75.82 77.68 77.86 78.86 65.51 63.19 66.10 75.38 74.70 76.11 77.58 78.21 78.23 79.07 73.15 67.34 77.71 78.08 78.62 78.67
56.83 56.72 57.39 58.45 59.06 59.58 59.95 59.98 60.47 61.94 62.68 63.67 64.88 66.24 65.71 64.49 65.24 65.93 68.76 70.52 74.24 75.53 77.18 75.66 76.86 72.87 77.83 68.00 62.33 64.73 75.08 75.36 75.01 77.16 77.59 68.34 73.33 66.82 63.66 77.08 77.57 76.85 77.49
55.99 56.50 57.17 57.17 57.93 59.11 59.29 59.02 59.57 59.69 61.54 63.14 64.19 64.69 65.41 65.73 65.22 66.27 68.24 68.36 69.15 72.07 74.63 75.44 77.22 77.96 76.20 77.08 61.24 59.27 75.77 75.10 75.04 75.29 75.37 76.64 63.96 61.84 61.01 60.99 77.85 76.13 77.06
54.98 55.90 56.17 56.37 57.49 58.33 58.29 58.02 58.44 60.15 60.74 61.19 62.36 64.08 64.47 64.04 64.64 66.38 66.58 68.17 68.74 68.52 70.75 73.45 74.84 76.88 77.86 69.03 65.31 58.92 60.31 70.54 74.99 75.64 76.09 76.41 61.50 58.07 58.79 61.69 65.05 62.15 65.00
55.05 55.92 55.91 56.55 57.49 58.12 58.20 57.18 58.64 59.94 60.07 59.86 60.47 61.92 63.34 63.64 64.25 63.88 65.39 65.09 69.38 69.58 69.32 69.63 72.03 72.77 74.58 77.79 64.09 59.52 58.37 59.89 70.60 76.18 72.69 59.94 57.86 54.62 57.45 57.04 58.45 59.21 72.11
53.63 53.70 54.19 54.08 54.20 54.93 55.86 56.38 57.38 58.13 58.42 59.71 59.92 60.63 61.73 61.68 62.24 62.70 62.97 63.24 64.29 65.05 65.53 67.72 67.08 67.40 70.14 75.43 77.03 70.09 67.24 63.89 67.38 67.56 72.41 70.21 66.32 60.15 65.01 69.28 65.40 70.66 74.01
52.52 52.35 51.78 51.84 51.89 52.83 53.21 53.92 55.93 56.36 56.10 56.72 57.93 59.81 60.54 61.06 61.78 63.04 61.68 61.75 64.28 60.98 61.39 61.64 62.48 62.77 64.38 68.09 57.69 57.97 64.89 62.97 61.47 59.16 70.32 74.99 74.75 74.29 75.11 75.97 76.44 76.95 75.68
51.58 52.01 51.60 51.45 51.43 50.80 51.71 53.36 54.31 53.70 52.83 54.16 55.04 56.53 57.43 58.45 59.15 59.50 59.95 55.07 51.67 50.72 48.25 47.34 53.20 60.99 54.49 51.84 49.52 48.35 50.18 52.17 53.26 60.64 70.45 74.18 74.73 74.99 75.42 75.78 76.34 76.92 74.53

GFSMW_sfc_wetblb_084.txt.gz
Wetbulb
68.37 68.83 69.61 69.96 71.06 73.00 74.20 75.65 74.93 77.30 76.49 76.59 75.05 73.51 74.30 74.19 74.63 76.31 79.38 76.03 75.87 79.49 79.66 78.27 77.37 72.82 76.07 71.35 77.89 76.75 75.69 74.75 75.47 75.28 72.60 72.40 71.96 72.38 73.16 73.99 72.62 73.73 74.37
67.23 69.13 69.36 69.81 70.59 72.58 73.89 75.69 75.58 76.07 77.22 75.66 77.05 77.83 74.65 75.82 75.05 75.35 78.72 77.98 77.26 79.53 78.75 75.72 76.54 73.71 74.28 77.70 76.97 71.13 75.25 73.84 75.33 72.41 72.67 67.48 69.92 71.36 71.78 72.55 72.67 72.14 73.58
66.66 68.83 68.66 70.02 71.33 72.13 73.45 75.06 75.79 75.62 76.74 77.72 78.14 79.80 77.28 75.77 75.83 75.16 76.63 78.36 78.29 79.07 76.02 78.48 77.43 77.08 77.41 74.86 76.98 77.72 75.44 72.93 74.55 75.55 70.95 68.61 66.38 71.37 71.56 71.70 71.45 72.00 73.09
67.89 69.52 69.05 70.25 70.12 71.88 73.55 75.23 76.64 75.82 76.27 78.29 77.39 79.06 76.66 75.54 74.79 74.91 76.87 78.31 78.46 78.45 78.62 79.43 77.76 75.46 74.00 72.96 76.09 76.46 74.18 76.44 73.69 74.98 74.52 74.26 70.20 69.58 67.82 70.92 70.15 72.36 71.68
68.31 68.47 69.45 71.33 69.24 71.31 72.51 74.76 76.36 76.15 76.62 78.23 77.91 77.11 77.44 72.35 72.99 75.06 76.56 78.03 80.28 79.61 77.78 79.38 79.43 77.56 75.73 74.49 75.40 78.03 78.31 76.07 73.88 72.98 73.43 73.81 74.08 72.43 70.50 67.33 68.30 71.50 72.43
68.57 68.52 70.79 70.91 69.91 71.76 72.55 74.35 75.69 76.33 77.41 76.97 77.88 77.40 77.16 71.92 70.38 73.29 73.51 75.36 78.01 77.83 78.93 78.98 79.14 78.44 73.26 72.76 78.48 78.79 78.43 77.23 78.17 76.78 75.26 73.54 69.48 70.14 70.73 69.97 70.25 69.60 71.95
67.29 68.92 70.45 70.98 70.32 70.61 72.21 74.49 75.57 75.73 76.64 75.95 76.51 77.61 77.37 77.84 76.71 75.03 71.98 74.48 72.39 73.00 76.73 78.77 78.97 78.39 78.83 76.94 78.39 79.22 78.53 78.51 76.90 77.30 75.64 75.89 72.58 70.12 73.97 72.26 71.72 68.65 71.90
68.58 67.37 70.91 71.03 72.02 70.40 72.14 73.77 75.27 75.80 76.24 76.13 76.95 77.75 78.35 76.74 76.71 77.47 78.24 73.14 72.35 73.85 77.17 78.13 78.52 79.27 77.75 77.80 78.31 78.62 77.69 77.78 77.16 76.41 76.67 76.16 75.16 75.02 74.83 71.97 72.75 68.87 70.89
69.41 69.21 70.34 71.04 72.66 70.50 72.45 73.64 75.11 76.09 76.77 76.63 77.37 78.14 78.06 77.99 75.74 77.61 79.04 77.61 75.89 73.52 76.91 73.87 77.72 78.34 78.87 78.06 78.24 76.83 77.42 77.93 77.85 77.15 77.03 76.75 75.33 74.50 74.86 73.98 73.48 71.80 69.22
67.95 67.90 68.61 68.18 72.85 71.53 72.87 74.75 75.88 76.00 76.61 76.58 77.25 77.55 77.92 78.20 78.37 79.19 79.49 80.25 77.82 74.28 72.92 73.52 73.63 78.31 78.16 78.16 78.19 76.42 76.75 76.90 77.43 76.35 76.83 77.01 75.40 75.16 74.30 72.43 74.69 74.89 72.47
64.53 66.96 66.90 65.98 69.53 72.09 70.88 73.76 75.65 76.15 76.69 76.97 77.14 77.13 77.22 77.92 78.40 77.95 79.12 79.21 80.38 75.83 73.43 67.99 71.48 77.35 78.47 77.81 77.90 77.00 76.30 75.73 76.28 77.01 76.76 76.12 77.61 75.90 75.49 74.83 74.86 73.67 74.21
62.29 64.49 66.18 65.61 65.24 67.02 70.86 71.38 71.05 74.91 76.28 76.99 77.40 77.28 77.94 77.43 77.46 77.47 78.06 79.16 78.60 79.30 79.27 77.03 77.50 77.81 77.36 77.25 77.02 77.04 76.55 75.79 76.05 76.23 75.62 75.53 76.03 77.15 77.18 75.93 75.25 75.44 75.73
63.01 63.42 63.65 63.94 64.21 64.21 65.39 67.98 71.33 71.95 73.31 76.57 77.08 77.15 76.90 77.32 77.24 77.56 77.78 78.71 78.44 78.29 77.90 77.89 78.38 77.97 78.19 78.18 77.77 77.06 77.11 76.98 75.65 76.59 76.31 76.37 77.00 76.75 75.45 77.30 75.97 74.95 75.26
61.74 62.35 62.83 62.83 63.60 63.35 64.36 65.69 68.33 69.43 71.75 72.90 71.24 76.19 76.96 77.08 77.06 78.90 78.52 78.09 78.62 78.07 78.02 78.19 78.50 77.52 77.94 77.92 77.56 77.86 77.63 78.21 76.85 77.69 77.25 77.53 77.09 76.81 76.74 76.36 76.20 76.01 75.55
59.88 60.40 60.11 60.83 62.47 62.92 62.78 64.41 66.36 67.12 69.51 70.63 71.33 71.09 72.36 76.86 78.64 78.29 77.51 78.63 78.34 78.15 78.50 78.24 77.80 78.37 77.84 76.83 77.14 77.61 77.43 76.53 76.17 77.18 77.28 77.70 77.18 74.17 75.25 76.08 75.97 75.60 75.01
58.81 59.91 61.08 61.04 60.88 61.75 62.29 63.51 65.02 65.04 66.43 67.33 67.35 69.89 72.37 72.86 74.85 76.57 77.61 77.67 78.36 78.53 78.48 77.65 77.71 77.12 76.19 70.23 68.18 73.91 76.07 77.54 76.89 75.76 77.16 77.99 75.45 73.33 68.98 68.59 68.99 71.90 75.55
57.61 58.45 59.06 60.22 60.53 60.85 63.09 63.92 65.21 65.05 63.96 64.40 65.49 66.27 68.57 70.12 70.26 72.27 75.20 76.03 76.35 76.99 77.43 77.54 77.68 77.21 77.65 69.10 65.87 66.98 75.82 77.08 77.11 76.99 76.95 77.17 75.94 72.97 76.97 69.83 67.76 68.09 66.83
57.26 57.64 58.43 59.36 60.50 60.18 61.11 63.98 65.39 65.80 65.62 65.11 64.89 65.50 65.45 66.98 68.85 70.35 69.94 71.01 73.25 75.64 75.80 76.04 77.08 77.03 77.47 68.02 66.39 66.44 72.70 74.66 75.63 76.02 77.07 77.01 76.03 76.30 76.82 77.28 76.74 75.04 75.02
57.32 57.36 58.43 59.43 61.15 60.05 61.75 62.93 63.14 65.00 64.33 64.36 65.93 65.36 64.86 64.89 65.62 67.07 67.38 69.00 69.65 70.45 73.74 75.51 75.78 76.30 76.82 67.16 63.28 65.93 73.65 74.28 74.22 74.78 75.88 76.02 75.70 71.83 67.15 74.11 75.01 76.10 77.07
57.10 56.59 57.57 58.58 58.74 59.54 59.75 60.45 59.96 61.97 61.45 62.20 64.29 66.11 66.64 66.99 66.12 66.53 67.17 69.40 69.76 69.83 71.57 72.97 75.37 72.43 75.47 68.32 63.85 64.80 74.89 74.64 74.61 75.02 75.07 67.81 71.10 66.20 63.65 72.57 75.39 73.59 73.88
56.30 56.70 57.39 57.21 58.06 58.87 58.83 59.30 59.61 59.05 60.25 61.40 62.36 64.14 66.08 65.77 67.20 68.03 68.52 68.17 69.04 70.10 70.42 71.58 74.10 75.24 74.29 75.13 62.72 60.36 73.68 75.34 74.74 74.50 74.43 75.43 64.24 61.61 60.80 60.77 73.42 72.97 74.28
55.69 56.18 56.31 56.85 57.82 58.72 58.34 57.73 58.96 60.36 61.35 61.75 61.68 62.48 63.73 64.20 63.93 65.99 66.69 66.65 67.78 68.82 69.59 70.01 71.25 75.04 75.37 67.05 65.17 58.70 58.34 63.36 70.91 73.97 75.31 74.99 59.20 55.73 56.20 60.07 63.05 61.61 63.99
55.15 55.67 55.60 56.74 57.32 56.59 56.22 55.19 57.68 59.33 59.36 59.08 59.64 62.08 62.60 62.67 64.57 65.11 63.76 63.82 66.05 67.20 68.47 68.62 68.88 68.79 69.50 71.05 59.24 59.43 58.70 60.47 64.39 68.72 66.98 60.20 59.40 57.53 59.93 56.99 57.71 57.48 67.91
53.59 53.83 53.92 53.63 54.03 54.81 54.95 54.72 56.38 57.83 57.16 57.01 57.93 58.55 58.41 60.78 62.73 62.67 62.47 62.67 62.01 62.90 64.33 63.84 63.07 63.46 64.19 69.87 67.26 62.98 62.61 61.18 63.36 63.50 64.03 63.01 60.56 61.03 64.66 66.05 70.38 65.80 69.58
53.02 53.16 52.27 52.32 52.53 53.15 53.10 53.59 54.50 54.99 52.55 53.26 54.51 56.17 57.05 57.80 58.72 61.30 62.00 61.92 63.63 59.90 60.26 60.87 60.64 59.71 59.47 62.19 53.23 53.38 60.33 62.61 61.41 58.14 62.91 66.56 70.63 73.26 74.15 74.38 74.02 74.37 72.40
52.23 52.16 52.07 52.04 51.59 51.59 51.77 51.92 52.16 52.28 51.14 50.57 50.99 51.98 53.26 54.80 55.93 56.85 57.59 55.43 50.87 49.22 47.35 46.89 52.70 60.12 54.44 49.66 47.81 45.70 44.89 45.11 47.82 58.58 62.31 63.94 66.62 69.66 70.00 72.05 72.82 74.15 72.78

GFSMW_sfc_wetblb_087.txt.gz
Wetbulb
66.12 66.12 68.06 69.22 71.33 70.24 70.26 70.89 71.96 72.42 71.58 72.16 69.28 70.30 68.84 70.63 72.88 73.80 74.16 72.90 72.62 74.80 73.84 73.29 70.77 71.49 71.26 69.46 72.37 71.33 71.09 70.82 70.92 69.25 67.64 67.94 66.39 66.65 69.48 69.80 69.99 69.79 71.71
64.59 64.74 66.75 68.97 70.12 69.50 69.62 72.15 72.17 71.83 71.60 71.46 72.05 71.63 71.29 71.38 72.27 74.10 74.28 73.79 74.05 73.97 74.30 72.99 72.25 71.67 70.97 72.16 70.65 68.54 69.80 69.39 69.08 67.14 65.71 62.91 65.50 67.70 67.35 68.39 69.68 68.83 70.09
64.24 64.08 65.33 67.79 69.29 69.85 70.63 71.68 71.33 71.58 71.80 71.95 72.79 74.19 73.40 72.68 72.15 73.24 73.03 74.75 75.20 74.73 73.91 73.46 73.27 70.40 70.90 69.51 70.46 72.00 68.91 67.23 69.69 69.51 66.31 63.84 61.98 65.98 66.74 65.90 66.86 65.94 68.53
65.23 65.10 64.79 67.00 68.74 70.10 71.84 72.54 71.78 70.77 70.84 73.14 70.59 71.02 69.50 69.48 70.12 70.79 72.77 73.03 75.27 75.21 74.74 74.01 73.66 73.67 70.56 69.04 70.28 73.49 71.10 68.01 67.33 68.03 69.91 68.76 66.24 64.06 62.83 66.00 65.29 66.84 68.28
65.57 65.64 66.30 67.72 69.42 70.66 71.48 73.06 72.08 71.19 70.70 72.55 72.49 71.85 70.80 69.47 70.14 72.53 71.77 73.67 73.86 75.51 74.41 74.06 73.25 72.54 72.12 71.27 71.70 72.10 71.71 71.15 71.27 71.05 69.60 68.99 68.88 69.62 65.17 62.89 62.68 66.15 67.10
65.52 66.83 67.70 68.34 69.20 70.49 71.33 72.86 72.05 71.50 71.30 72.91 72.18 71.84 70.99 69.40 69.66 69.83 72.19 71.17 72.44 72.87 73.04 74.97 73.64 73.40 70.97 69.03 69.32 72.31 72.10 72.42 71.84 72.71 70.29 69.19 65.77 64.64 67.04 65.15 65.38 63.15 66.89
65.50 66.11 66.69 68.48 68.11 68.80 70.61 71.33 72.66 71.30 71.95 72.44 71.81 72.74 72.04 71.47 71.11 71.62 70.08 70.64 70.57 70.47 71.21 73.73 73.79 73.12 72.26 70.62 70.93 72.90 72.07 73.13 70.74 71.34 71.33 71.32 70.60 69.79 68.67 66.62 66.71 65.25 67.18
65.01 65.82 65.56 68.34 68.72 68.17 70.28 71.18 71.95 72.23 72.21 71.58 72.27 72.90 72.38 72.51 71.75 72.72 71.05 72.62 69.20 70.82 71.92 73.41 73.65 74.43 73.21 73.44 73.56 73.02 72.77 72.25 72.07 70.66 70.19 70.84 71.40 71.04 69.37 69.48 66.68 64.87 66.91
63.16 63.63 64.36 68.35 69.72 68.08 70.30 71.26 71.81 72.40 72.03 72.67 72.56 73.53 73.14 72.89 72.00 72.01 71.93 71.57 71.45 72.99 73.70 72.70 73.63 73.73 74.04 73.07 73.67 72.74 72.92 72.93 71.92 71.33 71.52 71.10 71.44 70.40 70.53 71.80 67.27 66.54 62.79
66.54 65.41 66.81 68.01 68.28 68.95 71.00 72.17 72.81 72.60 73.06 72.94 73.42 73.64 73.59 74.01 73.98 74.30 73.61 73.11 72.31 72.03 71.99 72.36 71.85 73.19 74.16 74.01 73.23 72.09 72.79 72.41 72.65 73.16 71.19 71.52 71.90 71.21 71.60 71.55 70.52 69.32 66.80
65.88 66.94 67.29 66.80 67.30 67.61 69.74 71.47 72.16 73.19 73.61 73.49 73.59 73.42 74.36 74.65 74.05 73.97 74.53 73.27 71.98 71.87 71.37 70.58 68.66 71.11 73.28 73.71 73.20 72.59 72.32 73.40 71.91 71.51 72.20 70.87 72.22 71.21 71.74 72.22 71.16 70.59 69.56
63.03 65.40 66.19 66.85 67.57 66.42 67.10 68.56 68.78 70.14 71.01 74.15 74.28 74.02 74.26 74.51 74.66 74.49 74.36 74.24 71.87 72.08 70.49 67.28 66.92 69.92 72.49 73.89 73.22 72.72 72.89 72.28 71.57 71.83 72.03 71.43 73.32 71.70 72.48 71.80 70.73 70.38 69.75
61.66 62.58 62.99 63.82 64.84 65.33 66.37 67.03 67.97 68.24 70.17 69.55 71.97 71.79 73.95 74.60 74.58 74.65 74.39 74.61 74.16 73.52 73.26 72.03 71.54 72.85 73.32 73.37 73.59 73.40 72.97 73.18 72.19 72.37 72.22 72.17 71.78 71.95 71.40 70.26 72.30 71.49 71.95
61.10 61.47 61.64 62.09 62.63 63.92 64.96 65.86 66.76 68.47 68.92 69.32 68.00 69.48 70.14 71.55 73.49 74.84 74.81 75.01 74.96 74.46 73.76 73.93 73.22 74.16 74.14 74.53 74.49 74.05 73.02 72.98 73.89 73.29 73.83 72.82 71.36 71.73 72.00 71.33 70.74 71.49 71.05
57.68 58.72 59.69 60.70 62.02 62.94 64.06 65.17 65.54 67.01 67.57 67.34 67.84 66.96 70.47 71.19 72.58 72.56 73.74 73.67 74.44 74.74 74.84 74.34 74.33 75.00 74.37 74.93 74.19 74.31 74.03 73.31 72.94 73.26 73.94 74.46 74.56 73.26 72.59 72.92 71.54 71.44 70.64
57.59 58.12 58.65 58.82 59.62 61.20 61.88 63.85 63.18 64.80 66.38 65.71 66.37 67.35 69.37 69.64 69.39 71.11 72.70 73.01 72.65 73.03 74.03 74.52 74.45 73.96 75.24 70.75 69.31 72.37 72.73 74.34 72.92 72.25 73.35 74.16 73.81 72.49 69.40 68.73 69.67 72.32 71.61
55.68 55.89 56.55 56.75 57.10 59.45 62.03 62.54 62.89 63.95 64.38 64.45 64.46 65.69 67.16 67.88 68.18 69.33 68.67 68.09 69.06 72.84 72.43 72.71 73.23 73.87 73.99 67.60 66.47 66.79 70.31 72.35 73.33 73.64 73.24 73.33 74.78 72.03 73.53 69.77 67.27 66.85 66.56
54.06 54.57 54.84 54.54 55.14 56.54 58.99 62.69 63.48 64.07 63.98 63.55 63.94 64.30 64.67 65.62 66.76 67.21 67.10 68.00 68.11 68.92 70.84 72.18 73.07 73.09 74.23 66.90 64.24 66.25 68.28 69.64 70.84 72.57 73.87 73.88 73.82 72.91 72.57 73.51 73.44 71.89 71.62
52.79 53.52 55.76 55.53 55.39 55.54 56.76 57.96 59.24 58.56 58.75 59.32 61.79 64.03 64.38 64.21 64.12 64.57 65.63 66.89 67.61 68.42 68.85 69.70 71.39 71.47 72.55 67.08 63.36 64.12 69.03 70.12 70.79 71.61 72.32 72.80 72.88 70.33 66.56 71.48 71.30 71.73 73.89
52.55 52.84 54.30 54.77 54.37 54.37 56.20 55.78 56.35 56.35 56.39 57.71 58.49 60.04 62.97 62.18 61.58 63.31 63.81 65.49 66.49 68.15 70.05 69.79 70.53 69.18 71.84 67.28 61.75 63.58 70.22 71.20 72.19 72.19 72.00 65.94 69.23 64.51 63.08 69.48 71.04 70.70 71.72
51.98 53.33 53.92 53.16 53.93 54.93 55.31 55.34 54.75 54.64 56.42 57.28 58.57 59.36 59.72 60.00 60.53 61.02 62.19 62.76 62.89 64.85 66.40 68.56 69.01 70.22 70.20 67.34 60.13 59.22 66.55 70.84 71.54 72.21 72.30 73.18 60.20 56.73 55.97 56.13 67.87 70.07 69.94
52.31 53.27 52.85 53.04 52.94 53.29 52.71 52.51 52.30 54.65 55.07 55.09 55.15 55.81 57.62 59.44 59.64 59.68 60.91 60.16 59.49 61.11 63.56 65.86 66.92 69.43 66.64 59.02 57.39 56.48 57.23 61.27 65.53 66.80 68.85 68.58 58.13 56.68 55.42 59.00 59.40 58.17 60.72
50.88 51.56 51.37 51.58 51.86 52.02 51.19 49.53 51.00 52.87 52.63 52.11 51.88 53.48 54.42 54.82 56.83 58.77 58.62 57.52 58.66 57.84 59.71 61.24 59.98 62.30 63.50 66.28 56.87 57.05 58.86 60.06 63.66 65.61 63.14 58.48 56.32 54.90 60.61 58.07 58.39 57.24 62.05
48.96 49.89 49.65 49.35 48.95 49.99 50.26 49.64 50.40 50.50 49.38 48.76 49.17 50.53 51.27 51.24 52.29 53.96 56.54 55.84 56.36 56.20 55.60 55.64 55.57 55.72 56.20 59.15 63.87 59.18 60.25 59.35 62.49 63.26 63.84 61.04 58.57 58.01 61.25 62.04 65.76 68.09 69.91
48.93 48.84 47.83 48.30 47.34 47.87 48.29 48.20 48.19 48.66 47.31 47.44 47.91 47.35 48.53 48.27 49.14 51.47 51.70 53.22 53.72 51.29 51.02 53.46 54.77 54.07 54.00 55.85 55.84 51.16 54.54 58.01 57.71 54.39 59.31 60.97 62.16 63.07 65.35 69.91 72.22 71.97 70.08
47.99 47.60 47.79 47.18 46.66 47.56 46.64 46.63 47.21 47.37 46.03 45.16 45.75 46.33 45.99 46.60 48.17 49.45 49.94 50.16 48.95 47.99 46.84 45.80 46.00 52.11 50.68 48.35 46.21 45.16 44.79 43.49 44.67 54.43 56.65 58.80 60.43 61.29 62.55 64.92 67.71 69.88 70.33

GFSMW_sfc_wetblb_090.txt.gz
Wetbulb
65.45 68.85 69.36 70.01 69.96 69.51 69.06 68.71 68.07 69.03 70.59 70.20 68.87 68.40 68.28 70.56 72.07 72.41 73.50 73.48 73.37 73.57 72.93 72.37 69.63 70.26 68.37 68.69 70.73 70.18 69.36 69.61 69.06 66.25 66.61 65.87 65.41 67.28 68.13 68.68 68.44 69.00 71.13
64.71 66.47 68.62 69.16 69.32 68.55 69.18 69.43 68.87 69.40 69.99 70.61 69.29 69.87 69.78 70.36 71.66 72.29 72.61 72.04 72.26 73.70 73.13 72.23 70.31 70.44 70.26 71.15 70.13 68.12 68.29 67.69 68.06 66.01 63.02 61.92 63.21 65.66 66.49 68.13 68.80 67.67 69.40
63.00 64.69 67.57 67.98 68.58 68.19 69.65 69.92 70.28 69.77 69.95 70.92 71.03 72.15 71.22 71.26 71.16 71.72 72.33 72.80 73.99 73.67 73.62 72.43 71.74 69.46 69.42 68.65 69.41 70.43 67.55 66.64 67.99 68.41 64.74 62.18 60.31 63.91 65.08 64.25 66.84 66.26 66.58
63.76 64.95 67.20 67.51 67.62 68.70 70.90 70.92 70.90 69.87 70.12 71.23 71.21 70.95 70.11 68.39 69.69 70.94 71.22 72.64 74.35 73.35 73.29 73.13 72.33 71.79 69.42 68.35 68.62 72.16 69.37 67.01 67.74 67.62 69.63 66.93 64.43 63.10 61.43 63.97 64.78 64.07 65.87
66.31 64.68 66.39 67.90 68.63 69.37 71.01 70.96 70.78 69.55 69.51 71.28 71.59 70.10 68.96 68.65 69.98 70.78 71.59 71.46 72.17 74.49 74.16 72.98 71.65 71.29 69.95 68.46 70.07 70.91 70.33 70.70 70.18 69.50 68.85 67.75 65.97 65.67 63.61 61.73 61.64 63.86 65.25
66.55 66.74 68.05 67.82 68.77 69.82 71.18 70.29 69.51 68.41 68.81 70.65 71.59 70.36 69.22 68.10 69.55 70.09 70.14 70.54 71.02 71.20 72.47 73.20 72.16 71.38 70.62 69.33 69.03 71.68 71.54 70.83 70.34 70.73 69.45 67.94 66.06 66.24 65.45 63.74 63.77 61.89 63.95
65.61 66.10 66.53 66.47 67.86 68.80 71.09 70.38 69.21 68.02 68.66 70.83 70.77 71.05 70.24 68.93 69.57 69.22 70.53 70.19 70.34 70.25 71.05 72.73 72.09 71.67 70.18 69.00 67.95 71.28 71.35 70.91 69.70 69.56 69.63 69.59 69.65 69.69 67.73 65.31 64.71 64.64 65.99
65.45 65.91 66.95 67.07 68.34 68.65 70.26 71.56 69.55 68.71 69.27 70.52 70.96 71.23 71.34 70.85 70.43 70.41 69.56 70.72 70.02 69.41 71.18 72.87 72.97 72.66 72.30 71.88 72.25 71.30 71.31 70.95 70.89 69.53 69.32 68.41 69.70 69.62 68.46 67.96 64.48 63.13 64.00
64.72 65.62 66.51 67.76 68.35 68.37 69.28 70.98 71.04 69.96 69.92 70.61 70.60 70.87 71.66 71.14 70.55 71.25 70.14 71.64 70.30 70.67 71.53 72.08 72.77 73.08 72.77 71.57 72.17 71.37 71.52 71.32 70.77 70.16 69.63 69.52 70.07 69.40 69.73 68.96 67.76 64.84 61.45
64.26 64.61 65.37 68.00 68.60 68.37 68.07 70.16 72.37 71.15 70.69 71.27 70.79 71.83 71.72 72.05 71.61 71.02 71.16 70.73 70.35 71.16 72.09 71.86 72.39 72.46 72.74 72.35 71.88 71.42 71.01 71.45 71.09 71.54 70.73 69.62 70.62 70.53 70.80 70.37 69.78 68.39 65.09
65.15 66.74 66.04 67.36 67.87 68.38 68.68 69.64 70.79 70.94 70.91 71.39 71.61 71.71 72.42 72.45 72.25 72.48 72.57 71.75 71.05 71.00 70.75 70.72 71.71 71.14 72.25 72.78 71.94 71.08 71.10 71.02 71.08 70.80 70.58 70.31 70.15 69.74 69.73 70.92 69.59 68.75 68.64
64.19 66.48 66.37 67.20 66.93 67.56 68.19 68.39 68.91 69.31 69.86 70.08 70.12 71.55 72.47 72.66 72.87 72.79 72.82 73.00 71.10 70.60 70.24 70.24 68.55 68.71 70.72 72.22 72.13 71.55 72.23 71.07 70.71 70.58 70.21 70.74 71.64 69.58 70.61 71.08 68.89 69.79 69.00
62.67 63.11 64.44 65.73 66.09 66.63 67.42 68.30 69.02 68.73 68.86 69.09 69.09 70.43 70.68 70.97 72.51 72.78 73.39 73.21 71.27 70.49 70.63 68.70 66.86 66.21 69.28 71.22 72.68 72.18 71.48 71.85 71.68 70.88 70.40 70.86 70.35 69.56 69.64 69.87 69.20 69.94 70.44
61.76 62.07 62.23 62.68 64.32 65.57 66.13 67.01 68.71 68.89 68.84 68.61 67.65 66.75 68.73 69.58 70.41 72.34 73.06 71.89 72.89 71.18 71.08 71.19 70.58 70.91 71.87 72.22 72.42 72.87 70.93 71.51 72.10 72.45 72.14 72.04 71.50 69.97 69.62 69.97 69.73 69.46 69.21
59.84 60.61 61.11 61.89 63.22 64.50 64.64 65.81 67.44 68.07 68.46 67.65 67.19 67.62 69.36 69.20 70.17 71.72 71.85 73.41 72.72 73.13 73.02 72.64 72.86 72.76 73.15 73.60 72.57 73.22 72.97 71.94 71.54 72.66 72.86 72.75 73.06 70.97 69.93 71.90 70.81 69.71 69.07
57.79 58.68 60.06 60.74 61.04 62.57 63.30 63.56 64.71 65.66 66.43 66.32 66.29 67.03 68.21 68.66 69.13 68.89 68.57 69.88 71.00 71.57 72.21 72.87 72.50 72.08 74.26 68.52 67.27 70.68 72.57 73.12 72.37 71.73 71.74 72.29 71.83 71.17 68.81 68.18 68.46 69.43 69.90
54.88 55.56 56.71 58.43 60.25 61.16 61.51 62.03 63.46 64.64 63.65 64.06 64.49 65.79 66.85 67.10 67.58 67.51 68.10 67.58 67.98 68.98 70.13 70.16 71.32 72.17 72.30 67.96 65.61 66.59 69.07 70.48 71.09 72.19 71.81 72.14 74.14 71.39 73.13 69.90 66.81 66.33 66.28
53.29 53.28 53.89 53.80 54.76 59.32 62.79 62.45 62.40 62.61 63.62 63.63 63.73 64.53 64.90 64.65 65.09 65.49 65.42 66.81 67.35 67.53 68.12 69.40 69.63 69.65 72.07 66.76 64.65 65.72 68.72 69.02 69.46 70.90 72.35 72.55 72.69 72.11 71.95 71.71 71.41 71.66 71.23
52.31 52.65 53.39 53.23 55.04 55.46 56.78 56.59 55.66 55.55 56.34 56.99 58.21 60.76 62.62 62.69 64.10 64.34 65.26 65.80 66.88 66.61 67.40 68.84 68.37 69.33 70.61 63.58 61.77 64.01 69.15 69.38 69.98 70.70 70.81 71.20 71.60 68.37 64.94 69.89 70.66 70.77 71.31
52.48 52.15 52.40 53.44 53.70 53.78 55.08 54.21 53.83 53.78 53.48 54.86 56.37 58.24 59.20 59.93 61.57 61.37 62.30 64.75 64.19 65.18 66.79 66.88 68.75 66.68 71.10 58.31 58.14 62.13 68.30 69.11 70.22 71.44 71.53 65.57 67.43 61.83 58.58 67.58 70.39 70.12 70.47
51.53 52.89 52.27 51.26 50.98 52.60 52.35 51.59 51.77 51.51 52.77 53.86 54.30 54.81 54.53 56.24 57.99 58.30 59.07 60.74 58.90 59.70 61.75 64.25 66.39 66.77 64.23 60.94 57.06 58.14 64.09 64.19 66.08 67.51 69.61 69.79 58.51 55.43 55.06 55.43 63.40 65.52 66.85
51.91 51.44 50.36 49.99 49.99 50.58 49.92 49.21 49.42 50.61 50.81 50.40 50.51 50.76 51.84 53.65 54.90 55.28 57.50 57.86 57.29 58.16 58.96 60.62 65.23 66.74 65.35 58.77 56.65 55.61 56.61 59.79 61.93 62.26 64.87 65.99 57.96 53.43 53.07 56.49 59.78 57.96 59.47
50.10 50.50 48.84 48.20 48.33 48.36 48.44 46.89 47.21 48.45 48.41 47.80 47.69 48.20 48.63 49.71 50.82 52.13 52.98 53.47 54.13 53.40 52.90 53.84 54.67 55.73 56.94 61.85 54.91 55.48 56.42 57.36 59.97 63.07 60.89 56.45 53.79 53.42 56.44 58.28 57.92 58.16 62.51
48.17 48.12 47.51 46.47 45.88 46.47 46.59 45.99 46.77 46.95 46.34 46.01 46.08 46.26 46.12 46.33 46.93 50.22 51.77 51.41 50.51 49.54 49.70 51.03 50.79 51.76 53.19 53.91 55.45 58.32 55.10 55.75 57.80 59.38 59.01 58.25 56.79 55.99 57.56 58.92 63.69 65.77 66.61
46.79 47.20 46.18 45.08 45.15 45.26 44.71 45.41 46.22 45.62 44.56 44.28 44.60 44.09 44.76 44.18 45.43 46.72 47.64 48.41 47.77 47.06 47.40 48.54 48.21 49.34 50.02 51.27 47.16 46.24 49.43 52.41 50.90 47.96 53.52 55.16 56.18 57.63 58.88 60.40 61.95 63.74 68.77
46.36 45.92 45.37 44.83 44.89 44.16 44.15 44.54 45.03 44.40 43.46 43.21 43.40 43.38 42.83 42.99 43.78 43.90 44.14 46.35 45.73 45.21 43.34 42.66 44.22 48.04 46.65 44.35 43.18 42.43 43.19 42.32 43.12 49.43 51.02 52.06 53.85 55.68 57.42 58.97 60.50 62.36 64.45

GFSMW_sfc_wetblb_096.txt.gz
Wetbulb
66.16 67.73 69.26 69.77 69.02 68.49 68.16 69.10 68.97 68.99 69.17 68.93 68.45 68.91 69.16 70.43 71.19 71.80 72.95 72.83 73.09 73.85 73.37 72.75 72.23 71.51 70.96 71.61 71.39 70.56 71.20 70.29 69.81 69.53 68.87 67.85 68.41 68.60 70.24 70.35 70.61 71.10 71.68
65.29 66.96 68.15 68.53 68.40 67.53 68.25 68.62 68.95 68.98 68.95 69.08 69.13 69.73 69.62 70.90 71.82 71.66 72.67 73.33 73.45 73.98 73.43 72.18 71.16 71.75 72.16 72.53 72.20 70.54 69.71 69.52 70.17 68.73 65.62 65.33 66.74 69.00 69.42 68.96 70.04 70.69 70.73
64.96 66.74 66.59 67.77 68.15 67.14 67.57 68.31 68.50 69.17 68.94 69.15 70.45 70.60 71.00 71.16 71.41 71.83 72.57 72.60 72.20 73.62 72.83 71.77 71.66 71.85 71.85 71.03 71.75 72.32 70.75 69.29 70.25 69.67 68.23 65.53 64.48 65.12 67.64 68.75 68.76 69.71 70.21
65.94 66.55 66.44 67.08 67.54 67.55 68.43 68.43 68.19 69.21 69.54 69.80 70.05 69.88 68.79 68.35 69.87 70.87 72.53 73.17 73.34 73.95 74.22 73.47 72.05 71.79 71.18 71.56 71.79 72.93 70.34 71.12 69.93 70.38 70.04 68.91 67.80 66.84 65.99 68.17 68.01 68.13 68.91
65.91 65.87 66.62 67.61 68.34 68.47 68.14 68.22 68.20 68.64 69.89 70.22 70.41 69.56 69.44 69.71 70.57 70.81 71.28 72.11 72.36 73.60 72.93 73.63 72.93 72.90 71.39 71.45 71.81 73.18 72.72 73.32 72.19 70.50 69.90 70.11 68.36 68.20 66.55 65.97 67.75 69.74 67.83
65.92 66.58 67.75 68.43 68.33 68.80 68.42 68.51 68.12 67.92 69.34 70.03 70.07 70.04 69.52 69.04 69.71 70.60 70.89 71.75 72.38 73.20 73.84 73.81 72.67 72.69 72.28 71.53 71.86 73.21 73.18 72.65 72.16 71.61 71.11 70.11 69.73 69.01 68.48 66.97 66.92 67.36 69.24
64.12 66.03 66.46 66.83 67.90 67.60 68.18 68.67 68.05 67.58 68.70 69.74 70.22 70.26 70.20 69.81 69.01 70.15 70.66 70.99 71.28 71.94 72.57 73.62 72.44 72.22 72.31 72.19 71.46 72.88 73.02 73.18 72.39 71.90 71.44 70.99 70.99 70.82 69.83 67.95 67.07 66.91 69.16
64.60 66.06 66.16 66.49 66.78 67.95 69.03 69.23 68.30 67.70 68.24 69.44 69.82 70.49 70.17 69.71 70.16 70.63 71.06 71.13 71.25 71.89 72.93 73.29 73.57 73.00 72.64 71.60 71.00 72.32 72.57 72.59 72.47 72.10 71.80 71.22 71.52 71.20 71.10 70.51 69.16 68.16 68.20
64.81 65.94 66.43 66.84 67.31 67.68 69.51 69.19 68.82 68.59 68.12 69.13 69.77 70.34 70.89 70.21 69.83 70.86 71.58 71.51 71.92 72.33 72.29 72.74 73.51 72.99 72.69 73.06 72.95 72.88 72.89 73.45 72.86 72.12 71.82 71.63 72.08 71.86 71.86 71.27 70.54 69.41 66.69
64.05 65.11 65.80 66.25 67.55 68.10 69.76 69.95 69.29 68.21 68.78 68.96 69.77 70.34 70.97 71.35 71.32 71.27 71.27 71.16 71.45 72.37 72.10 71.51 72.03 73.01 73.17 73.41 72.57 72.92 73.03 72.66 72.31 72.20 72.64 72.27 72.20 72.70 72.63 72.18 71.59 70.51 68.90
64.68 65.55 66.93 67.81 68.20 69.12 69.79 70.64 69.50 68.72 69.34 69.18 69.26 70.09 70.54 71.48 71.95 71.31 71.92 72.33 72.38 71.94 71.04 71.58 72.07 72.36 72.59 73.38 73.19 72.72 72.56 72.36 72.49 72.68 72.48 72.65 72.49 71.77 71.49 72.28 72.09 71.15 70.17
63.70 65.33 66.53 67.42 67.69 68.12 69.11 69.62 69.61 68.98 70.01 70.41 70.33 69.79 70.61 71.56 71.78 71.10 71.70 72.98 73.09 72.19 70.76 71.89 72.28 72.59 72.01 72.88 72.95 72.54 73.08 71.45 71.95 72.19 72.04 71.48 72.15 72.48 72.16 72.02 72.59 71.50 72.07
64.61 64.42 65.94 66.21 66.68 67.40 68.32 69.09 68.84 68.48 68.28 68.71 69.31 70.51 70.39 71.15 71.16 71.99 72.65 72.84 73.10 72.70 71.68 71.28 71.28 70.20 70.76 71.48 72.58 72.69 72.86 72.43 72.37 71.68 72.13 71.80 71.82 72.32 71.95 72.02 71.61 71.24 71.84
64.17 65.36 65.38 66.17 66.77 67.25 67.94 68.12 68.37 68.46 68.46 68.62 68.75 68.30 68.91 69.09 69.76 70.53 70.89 71.69 72.73 73.10 71.88 71.37 71.27 70.79 70.80 70.09 70.01 71.94 73.05 73.05 73.03 72.71 72.86 72.73 72.32 71.86 72.68 72.27 72.42 71.71 71.35
62.10 63.24 64.35 65.09 65.66 66.56 67.83 68.23 68.71 68.59 68.30 67.69 67.83 67.98 68.50 68.35 68.95 68.71 68.77 69.70 70.24 71.50 72.48 72.04 71.72 71.46 70.57 70.60 71.41 72.24 72.59 73.21 73.22 73.64 73.53 73.53 72.98 70.53 70.70 73.86 74.10 73.12 72.11
61.28 62.09 63.25 63.88 64.53 65.43 66.40 66.45 66.27 67.85 68.30 67.72 67.47 67.51 67.67 67.18 66.46 67.92 67.92 67.94 68.14 68.75 69.54 70.73 71.41 71.56 72.25 66.66 66.57 71.28 73.28 73.77 73.56 73.86 74.32 74.21 71.85 71.58 67.56 66.75 67.04 70.94 73.27
60.48 61.39 61.77 62.08 62.34 63.42 64.38 63.56 64.31 65.38 65.37 65.68 65.98 66.50 65.53 65.51 65.67 66.15 65.99 65.72 66.06 67.20 67.99 68.57 68.75 68.82 70.22 62.80 63.54 65.93 71.24 72.88 73.03 72.91 73.02 72.78 73.65 71.65 73.60 69.56 66.93 66.71 65.31
56.33 58.55 60.77 60.93 58.17 58.12 57.84 58.41 59.12 59.13 59.40 59.36 60.72 63.41 64.90 64.72 64.77 63.79 63.68 63.48 63.73 64.83 65.59 66.95 67.99 68.91 67.33 59.84 60.81 64.28 69.69 71.01 70.51 70.97 71.15 71.40 71.85 67.92 67.78 71.04 72.63 73.25 73.62
55.34 56.65 57.12 57.29 56.23 55.65 55.81 55.21 54.93 55.11 54.87 54.70 55.44 56.59 59.74 60.49 61.76 62.78 63.04 62.77 61.73 61.77 62.59 65.21 68.12 64.21 61.63 57.39 59.88 65.13 68.91 67.94 68.25 69.54 68.48 68.53 65.98 60.56 59.55 67.37 68.49 69.33 70.90
56.79 55.65 55.30 55.28 54.66 55.25 54.75 52.63 51.75 51.78 51.61 52.53 53.01 54.48 55.29 56.60 58.03 59.74 61.52 61.89 60.89 62.10 63.88 65.31 65.25 61.39 61.38 53.71 55.56 59.92 62.31 62.01 63.81 65.53 66.37 62.07 61.28 59.15 58.97 62.13 62.75 64.06 67.82
54.31 54.67 54.27 51.68 51.19 51.53 51.72 50.22 50.23 49.39 50.71 51.61 51.32 51.55 52.60 53.44 54.44 54.50 55.17 55.95 55.49 56.38 60.61 59.27 57.56 55.91 53.81 52.22 51.59 52.66 57.70 58.88 61.83 62.31 62.47 63.44 56.00 54.75 54.51 53.94 61.12 61.10 61.77
50.86 50.86 49.65 49.05 49.26 49.44 49.36 47.95 47.53 48.73 49.52 49.51 49.28 49.65 50.11 51.68 52.24 52.40 50.53 51.22 52.92 53.09 52.59 53.07 53.78 54.61 53.79 50.40 49.71 50.01 51.18 53.33 57.80 58.52 60.22 60.38 52.21 50.77 51.47 56.28 55.72 53.81 55.60
48.83 49.06 47.85 46.90 47.05 47.76 48.20 47.03 47.02 48.37 47.61 47.03 46.84 47.39 48.11 48.90 49.83 49.21 48.82 48.41 49.20 50.13 50.06 50.35 49.90 50.65 49.61 48.12 47.96 47.99 49.35 51.35 53.51 55.38 53.05 52.02 51.19 51.59 55.30 55.39 55.39 56.66 63.85
47.49 47.37 46.71 45.68 45.46 46.70 46.78 46.44 46.70 46.95 46.20 45.54 45.33 45.54 46.00 45.88 46.78 47.52 47.48 47.02 46.43 46.30 46.24 46.48 46.31 47.51 45.69 44.56 44.93 45.66 46.88 49.01 51.35 51.35 53.19 53.88 53.62 53.22 54.83 57.36 59.12 61.46 62.47
47.57 47.30 46.19 45.31 44.95 46.03 45.73 45.98 46.07 45.94 44.21 43.84 43.79 43.84 43.91 44.37 44.70 45.33 45.60 45.74 45.18 45.09 43.66 43.69 44.57 43.02 41.58 41.72 42.27 41.61 42.86 45.02 47.27 47.06 54.46 54.26 53.62 54.19 55.35 56.47 58.33 59.78 61.24
46.56 45.93 45.51 44.66 44.12 44.66 44.42 44.93 45.44 45.07 43.32 42.52 42.70 42.85 42.90 42.89 42.82 42.69 42.48 43.50 43.56 42.21 41.06 41.20 42.30 42.79 41.19 40.99 40.08 39.30 39.97 42.05 43.64 50.30 50.10 49.82 51.47 51.09 52.28 53.12 55.04 56.61 57.58

GFSMW_sfc_wetblb_099.txt.gz
Wetbulb
68.54 70.57 71.64 72.23 72.60 73.03 73.04 73.51 73.71 74.73 74.59 73.85 73.23 73.59 72.92 74.27 74.95 75.78 76.00 75.92 76.83 77.03 77.59 76.50 76.57 76.31 76.04 76.14 75.70 75.84 74.82 74.26 75.08 73.95 73.73 73.89 74.10 74.37 75.42 76.25 76.11 75.18 75.66
68.16 69.17 70.92 71.31 72.17 72.46 72.90 73.25 73.96 74.88 74.69 74.86 74.55 75.06 74.33 74.25 75.82 75.93 76.69 76.64 76.58 77.02 77.48 77.18 76.02 76.08 76.06 76.38 76.52 76.13 74.58 74.55 74.76 72.75 72.73 69.27 71.17 73.73 74.00 74.97 74.90 74.77 75.44
67.39 68.92 69.93 71.08 71.98 72.13 72.47 73.17 74.19 74.86 74.83 75.22 74.58 74.55 74.97 74.81 74.58 75.12 75.52 76.59 76.61 76.71 77.30 76.54 76.65 76.95 76.66 75.47 76.44 76.10 75.22 73.29 74.46 75.11 72.56 69.96 67.97 71.48 73.71 73.29 73.97 74.58 75.12
68.21 69.31 69.75 70.50 71.39 72.14 73.03 73.81 74.48 74.62 74.42 74.90 74.85 75.12 73.56 74.18 73.89 75.30 77.59 77.70 76.80 76.56 76.69 77.22 76.65 76.81 76.34 76.02 76.42 76.94 76.12 75.89 73.29 75.14 74.23 74.34 73.56 70.52 68.92 73.78 73.82 74.70 73.14
67.61 68.60 69.87 70.65 71.88 72.47 72.30 73.20 74.20 74.55 74.40 74.50 75.54 74.94 74.38 74.26 74.67 75.13 76.26 77.84 77.31 77.53 76.72 77.12 77.00 76.86 75.85 76.03 76.22 77.33 76.94 76.01 74.34 73.23 74.80 75.30 74.65 74.50 72.01 69.15 71.41 74.01 74.21
67.76 69.24 70.49 70.83 71.55 72.42 72.01 72.52 73.32 73.88 74.64 74.38 74.60 75.43 75.05 74.60 73.89 74.56 74.22 75.01 75.67 76.54 77.31 77.08 77.00 76.88 76.69 75.78 75.82 77.52 76.83 76.47 75.48 74.77 74.32 72.75 72.36 72.32 72.67 71.77 72.33 71.97 74.10
67.29 68.76 68.90 68.09 71.01 71.07 71.58 71.88 72.74 72.92 73.69 74.13 74.37 74.95 75.51 75.48 75.11 75.68 74.52 74.80 77.57 76.85 76.57 77.41 77.27 76.42 76.67 76.61 76.13 77.15 77.21 77.08 76.31 76.35 74.55 74.74 73.98 74.87 74.70 73.48 72.05 71.51 73.54
66.83 68.35 69.45 68.84 70.47 70.66 71.51 72.02 72.24 72.51 72.96 73.68 74.72 75.36 76.26 74.76 75.28 75.55 74.95 74.86 75.23 75.31 76.75 76.83 77.61 76.95 76.76 76.11 75.99 75.75 76.38 77.22 76.62 75.80 76.55 75.53 75.72 75.69 75.47 73.58 72.73 71.32 72.92
66.58 66.63 69.26 70.11 70.90 69.43 70.88 72.18 72.60 72.69 72.63 72.85 74.38 74.82 74.92 75.12 75.00 75.60 75.77 75.60 76.27 75.70 76.05 76.42 76.66 77.25 76.84 76.98 76.39 74.74 76.03 76.72 77.03 76.83 76.53 75.94 76.35 76.51 76.67 76.09 74.71 72.62 68.86
66.59 67.57 67.36 67.94 69.12 69.98 70.50 71.89 72.91 72.60 72.79 72.82 73.90 74.08 74.88 75.28 75.60 75.54 75.61 75.66 76.23 75.85 76.08 75.90 76.05 76.45 76.83 77.00 76.85 76.10 76.64 76.39 76.19 75.69 76.34 76.52 76.12 76.17 76.57 75.87 75.65 74.64 72.26
66.82 68.24 68.54 68.13 68.21 70.21 69.72 71.32 72.07 71.76 72.52 72.49 73.14 74.41 74.50 75.50 75.79 75.49 75.57 76.20 76.23 76.17 76.10 75.97 75.19 75.17 75.48 76.66 77.08 76.90 75.85 75.90 76.02 76.29 76.12 75.99 76.92 75.33 75.15 75.50 75.51 74.74 74.23
66.90 68.31 69.19 69.28 68.34 67.99 69.44 70.99 72.94 71.59 73.32 73.52 72.77 73.44 74.87 75.07 75.34 75.33 75.92 76.23 75.86 76.51 76.17 75.98 76.04 76.26 75.86 76.35 76.53 76.15 76.10 75.74 75.23 75.39 75.77 75.45 75.19 76.34 76.32 74.89 75.76 75.20 75.68
66.07 67.34 68.13 69.08 69.20 68.34 68.24 69.48 70.56 71.36 70.87 72.12 73.36 73.77 74.38 74.03 74.31 75.07 75.70 75.81 75.84 76.56 76.30 76.03 75.93 75.97 75.24 75.06 75.80 75.95 76.05 76.24 76.04 75.94 75.51 75.41 75.71 76.08 75.69 76.32 77.56 74.95 75.04
66.30 67.20 67.36 68.33 69.22 69.59 69.14 68.92 68.90 69.48 69.57 70.81 71.08 71.33 72.82 73.96 74.06 74.99 74.76 75.71 76.22 75.87 76.31 76.02 75.90 75.97 74.92 74.68 74.80 74.91 75.68 76.26 75.89 76.22 76.47 76.05 75.93 76.05 76.34 75.52 76.63 75.77 75.91
64.76 66.28 67.03 67.80 68.80 69.41 69.94 69.81 69.62 68.40 67.95 68.49 68.52 68.70 70.45 70.88 72.93 73.46 73.63 73.39 74.93 75.15 75.84 75.91 75.95 75.53 75.17 74.08 74.58 74.80 74.70 74.80 76.21 76.81 76.41 76.79 75.40 71.46 72.05 76.34 77.75 77.29 75.63
63.16 65.31 66.30 66.93 67.38 68.42 69.04 69.67 69.10 68.56 68.38 67.91 67.64 68.67 68.31 69.70 71.08 71.74 71.69 71.84 72.10 73.24 73.73 73.63 73.66 73.28 73.95 62.78 64.51 70.29 75.66 76.48 76.55 76.32 77.06 77.25 73.61 72.87 67.09 66.71 67.07 70.62 75.76
62.75 63.46 63.97 64.07 65.05 66.35 67.05 66.78 67.50 68.47 68.40 68.54 68.31 67.80 67.12 66.81 67.41 69.17 69.70 69.40 70.36 71.21 71.46 71.88 72.64 70.48 66.74 60.56 61.53 65.65 75.21 75.98 76.44 76.12 75.86 75.52 75.52 71.93 74.13 71.43 67.79 67.64 65.34
60.67 61.31 59.57 58.95 59.01 60.46 60.90 61.60 62.06 62.03 61.93 62.47 63.89 65.68 65.72 65.62 65.69 67.13 67.50 67.91 68.88 69.00 69.98 71.53 67.56 65.24 61.77 58.06 59.87 64.89 73.96 74.13 73.13 71.49 70.95 69.51 65.78 63.51 64.69 72.07 74.46 75.47 76.10
58.32 58.21 57.84 57.04 57.51 57.27 57.83 58.28 58.08 58.63 58.80 58.48 58.64 61.32 65.16 64.12 64.67 64.45 65.11 65.94 67.16 67.72 70.45 66.77 65.56 61.93 59.17 54.64 57.53 64.87 66.55 67.25 66.70 66.85 63.90 64.27 63.26 60.55 60.60 65.17 67.10 69.65 72.53
57.05 56.21 56.30 56.53 55.41 55.41 56.12 54.78 54.98 55.94 57.43 56.75 57.15 58.68 60.32 62.75 61.49 63.87 63.41 64.89 66.12 67.06 64.76 60.12 58.47 54.91 55.52 51.89 52.60 59.80 64.67 64.27 64.58 65.13 65.21 57.86 58.55 54.52 55.41 63.44 64.38 64.64 65.66
55.39 55.42 54.27 54.23 54.29 55.27 56.47 55.67 56.73 55.23 56.18 56.84 57.03 57.63 59.30 59.99 60.10 59.38 59.96 61.00 61.07 58.97 57.94 57.06 55.87 53.03 51.08 49.81 49.87 51.21 57.59 58.26 62.23 61.44 61.88 60.77 54.11 51.65 51.44 52.76 63.37 61.71 61.05
52.83 52.79 52.02 52.05 53.19 54.64 54.48 53.07 51.99 54.19 55.39 55.92 56.25 56.61 56.94 57.32 56.70 57.72 57.91 56.68 58.11 57.33 57.87 57.24 55.58 53.00 50.76 48.62 48.43 48.66 49.82 52.46 56.73 56.30 57.73 57.56 51.13 50.15 51.30 56.96 53.39 53.63 58.11
54.20 54.19 52.68 52.28 54.25 55.11 55.98 54.29 53.46 54.25 54.50 54.38 54.24 54.49 54.69 54.71 55.43 56.29 55.73 55.77 56.13 54.86 53.11 53.20 53.62 51.43 50.30 48.86 47.91 47.77 48.57 50.56 54.87 56.82 54.29 52.45 51.48 52.64 56.36 55.25 55.56 56.99 63.68
54.52 54.68 54.28 53.47 52.62 53.32 53.51 53.49 53.23 53.57 53.49 52.96 52.96 53.16 53.16 52.79 53.56 53.57 53.46 53.05 52.78 52.92 53.12 51.55 49.75 47.92 47.05 46.14 47.27 47.27 48.78 50.65 52.24 52.80 56.86 54.83 54.62 54.17 56.29 58.86 59.84 61.55 61.76
53.74 54.24 53.73 52.73 51.80 52.10 52.05 52.37 52.61 53.02 51.78 51.41 51.27 51.43 51.65 51.73 50.53 50.19 50.33 48.54 47.11 48.26 49.20 48.66 47.77 47.55 45.05 43.37 41.71 41.32 46.16 48.94 48.74 51.31 53.77 52.96 53.55 54.79 55.55 56.71 58.22 59.22 59.83
51.19 52.11 52.77 52.43 51.29 50.38 50.31 51.31 51.91 51.82 50.87 49.98 49.88 50.01 49.76 49.75 49.53 48.21 45.03 42.80 42.73 41.53 40.29 39.88 42.96 44.15 41.07 40.42 39.67 39.12 40.15 41.54 43.73 49.81 49.63 48.82 49.41 49.97 50.43 52.16 52.79 54.40 53.80

GFSMW_sfc_wetblb_102.txt.gz
Wetbulb
70.56 72.31 73.04 73.21 73.25 73.87 74.25 74.77 74.80 76.13 75.75 74.68 73.93 74.20 73.65 75.07 75.58 76.22 77.27 77.65 77.47 77.14 77.81 77.61 77.42 77.67 76.74 77.04 77.90 77.01 75.61 73.78 75.72 73.02 72.25 72.44 73.96 74.12 74.69 75.24 75.77 74.95 75.88
69.82 71.27 72.55 73.14 72.94 73.67 74.37 75.08 75.40 76.65 76.26 75.83 76.13 75.92 74.95 74.91 75.36 76.14 77.28 77.42 77.29 76.99 77.28 78.39 77.45 77.99 76.02 77.91 77.78 77.27 74.70 74.84 76.22 72.14 72.38 69.32 70.42 72.66 73.34 74.97 74.79 75.14 76.34
68.48 70.32 71.78 72.74 73.32 73.24 74.11 74.90 75.93 76.53 77.08 77.26 77.10 76.66 76.96 76.70 75.40 75.60 75.45 76.90 77.44 77.14 77.34 77.59 78.15 77.88 77.16 75.48 78.01 77.02 77.00 72.77 75.66 76.79 73.30 68.82 68.93 70.65 72.53 73.22 73.79 75.03 75.80
69.95 70.42 71.27 72.29 73.17 73.81 74.42 75.01 75.97 76.18 77.08 77.98 76.47 76.87 74.42 74.54 74.76 75.64 75.88 76.04 76.52 76.84 77.10 77.53 77.62 78.53 77.94 77.88 77.78 77.44 77.52 77.29 73.66 75.33 75.90 77.12 76.29 70.33 68.35 71.72 73.09 73.51 73.70
69.60 70.48 71.19 72.35 73.53 74.39 74.47 75.02 76.26 76.44 76.55 77.44 77.45 76.62 75.09 74.35 75.10 75.89 76.45 76.71 76.81 77.30 77.23 77.49 78.33 78.21 76.73 77.62 78.00 78.13 77.10 77.23 75.13 74.35 76.09 76.15 76.30 76.15 71.51 69.33 71.32 72.32 75.32
69.50 70.62 72.06 72.79 73.16 74.54 74.72 74.79 76.00 76.70 76.88 76.88 76.80 76.51 75.56 75.72 74.61 75.32 74.59 74.37 76.18 75.79 76.40 76.60 77.20 78.14 78.10 77.73 76.89 77.94 76.32 78.23 76.94 75.77 75.51 73.65 72.98 72.68 72.59 72.11 72.81 72.06 74.58
69.67 69.84 71.16 72.19 72.96 73.66 74.21 74.41 75.48 75.75 76.52 76.28 76.13 76.35 75.76 75.74 75.89 75.51 73.98 75.79 75.09 74.94 75.74 77.00 77.00 76.75 77.46 77.86 77.53 78.29 77.34 77.21 77.51 77.31 75.37 75.62 74.54 75.17 74.75 73.39 72.47 72.28 74.31
69.34 69.92 71.26 72.49 73.18 73.47 74.38 74.25 74.84 75.24 75.87 75.95 76.44 77.15 76.33 74.31 74.06 75.12 76.22 74.70 76.55 75.54 78.00 76.79 77.08 77.43 77.21 77.68 78.04 76.97 76.05 77.00 76.05 76.07 77.12 75.38 76.49 75.82 74.93 73.78 72.51 70.87 72.26
67.92 69.67 71.41 72.70 72.91 73.47 74.31 74.54 74.76 75.37 75.55 75.37 76.13 76.18 75.80 75.56 75.80 76.06 77.27 76.02 76.54 77.35 77.86 77.78 77.02 77.40 77.37 77.76 77.93 75.98 76.79 77.65 77.36 76.74 76.48 75.81 75.76 75.91 75.98 75.36 74.23 72.19 68.90
67.02 68.53 70.68 72.04 71.68 73.56 74.40 74.09 75.23 75.28 75.40 75.15 75.53 75.33 75.50 75.91 75.40 76.24 75.47 76.62 78.45 78.09 77.77 77.77 77.53 76.86 76.99 77.04 77.48 76.69 76.89 77.18 76.08 75.80 76.86 76.67 75.22 75.69 75.50 74.88 74.51 74.04 72.07
68.12 68.10 68.88 72.13 73.29 74.06 73.49 71.73 74.75 75.20 75.07 74.95 75.14 75.31 75.33 75.34 76.25 75.62 75.55 76.38 76.31 77.56 77.57 78.34 77.87 77.62 76.91 77.43 77.79 77.39 76.64 76.48 76.06 76.56 76.38 76.68 78.05 75.30 74.64 74.49 74.41 73.93 73.52
68.69 69.10 68.43 68.94 70.66 71.47 71.15 71.07 72.11 73.24 74.70 75.16 75.40 75.25 74.65 75.46 74.83 75.53 75.50 76.95 76.23 77.60 77.21 77.57 78.06 77.36 76.38 77.32 77.38 76.45 75.85 76.01 75.02 75.15 75.69 75.68 75.22 76.83 77.16 75.24 76.16 75.57 75.90
69.26 70.15 70.89 70.09 70.79 69.75 68.96 69.42 70.96 72.75 73.22 75.14 74.61 75.94 74.01 74.01 74.90 75.44 75.91 76.88 76.13 76.50 76.72 77.19 76.89 76.35 76.81 77.00 76.80 76.63 76.50 76.41 75.82 75.47 75.33 75.10 75.62 75.59 75.12 76.00 75.27 74.36 74.99
68.30 69.36 70.24 70.24 71.58 71.41 70.87 69.37 69.77 71.66 72.68 73.90 74.54 74.13 74.37 74.48 74.67 75.72 76.47 76.41 77.31 75.60 76.07 76.57 77.09 76.89 76.54 76.81 77.20 76.63 76.50 76.40 75.90 76.64 76.09 76.04 75.78 75.93 76.27 75.49 76.52 75.78 75.77
67.23 68.07 68.46 69.45 70.71 71.04 71.19 70.90 69.25 69.09 69.70 71.07 70.80 72.31 74.15 75.16 75.67 75.76 76.49 76.65 76.86 76.25 77.11 76.68 77.18 77.41 76.86 75.58 77.20 77.24 76.53 76.87 76.37 76.65 76.67 76.70 75.16 71.62 72.20 76.05 77.15 76.31 75.55
66.82 68.37 68.93 69.56 69.98 70.78 71.09 71.05 71.05 70.22 71.21 68.73 68.33 69.00 69.63 71.57 73.24 74.18 74.89 75.69 76.08 76.78 77.01 76.59 76.75 77.02 76.20 62.30 63.79 70.59 76.68 77.24 76.68 76.01 76.76 76.96 74.15 73.12 68.53 67.83 67.61 71.15 76.10
66.06 68.02 69.06 69.39 70.33 71.45 71.65 71.49 70.94 70.80 70.57 68.72 68.62 68.51 69.54 69.60 69.94 71.12 72.80 73.85 74.57 75.13 74.93 75.12 74.72 71.75 70.50 59.81 62.16 65.40 75.87 77.06 76.05 75.98 76.54 76.38 73.99 72.53 74.53 71.29 68.76 68.28 66.30
63.40 62.81 63.26 63.27 64.38 67.20 69.55 69.95 69.96 70.15 69.96 69.19 68.80 70.24 68.92 67.79 67.54 67.67 68.65 70.28 71.64 72.63 73.56 72.09 70.94 68.46 63.53 57.04 60.79 66.71 75.64 73.15 72.28 72.67 71.46 70.79 69.09 66.25 66.30 72.64 74.25 75.57 76.15
61.81 60.47 61.25 60.28 59.55 59.34 61.95 63.02 62.61 63.80 64.49 64.19 66.18 67.61 66.40 65.77 65.54 65.31 66.78 68.34 70.60 71.18 71.10 70.03 67.53 64.63 60.53 53.39 55.53 67.95 71.96 70.56 69.45 67.46 67.78 68.65 66.73 56.77 57.58 69.15 69.85 70.67 72.20
59.18 58.05 57.33 57.43 57.34 56.58 58.64 57.75 59.10 59.96 60.01 60.91 61.10 63.21 65.10 67.56 68.09 68.33 66.46 65.92 69.46 65.86 64.25 64.28 61.54 57.44 56.89 50.62 52.26 61.60 69.56 68.18 68.10 67.83 66.39 56.23 57.82 53.99 53.95 66.34 66.61 66.04 65.88
56.67 56.44 55.49 54.77 55.83 57.13 57.37 56.33 55.90 56.53 59.11 60.75 62.99 62.63 63.23 64.34 65.13 65.41 66.67 64.92 60.74 59.20 60.53 58.93 53.73 53.28 52.84 52.33 49.39 50.33 61.93 65.07 64.40 64.24 63.67 62.34 54.09 51.84 51.85 53.51 64.29 62.56 63.26
53.21 53.54 53.13 53.22 54.62 55.40 56.20 55.84 55.71 58.09 60.13 61.71 61.83 62.30 62.49 62.00 63.31 64.59 64.74 62.71 60.95 60.00 59.68 58.51 57.40 55.67 54.54 48.77 48.79 48.66 50.13 53.38 57.52 57.71 57.92 59.03 51.46 50.41 52.55 57.88 54.58 54.19 57.85
52.65 52.90 52.80 53.11 54.47 57.42 57.26 54.45 55.57 59.02 59.78 60.08 60.19 60.36 61.03 61.35 62.11 62.95 60.24 59.15 61.90 61.57 61.01 60.16 58.62 55.07 56.51 54.04 49.27 48.81 49.72 51.55 54.95 54.83 53.46 53.35 51.30 51.64 54.70 55.34 55.79 56.12 63.19
53.22 53.97 53.99 52.63 52.62 54.87 55.42 56.89 56.63 57.86 58.66 58.66 58.79 58.90 58.82 59.01 60.03 59.93 60.65 60.98 60.67 60.80 59.50 58.88 57.98 56.59 52.11 50.04 47.68 50.73 53.86 52.74 54.39 55.65 58.79 55.85 54.81 54.41 57.03 59.27 60.23 61.97 61.74
55.31 55.44 54.68 53.26 53.18 54.33 54.56 54.91 55.45 57.29 56.94 57.07 56.99 57.17 56.97 57.51 56.37 53.14 53.29 53.39 48.51 47.75 57.88 56.38 55.28 55.91 54.47 47.11 42.79 43.62 47.56 48.91 48.82 51.60 56.00 54.98 54.89 54.97 56.10 57.36 57.55 57.99 56.58
55.59 55.54 55.36 53.95 53.52 53.22 53.28 53.89 54.86 56.81 57.21 56.16 56.26 56.18 56.09 55.68 54.42 52.25 48.37 42.18 41.60 40.53 39.72 39.64 45.28 46.48 41.65 40.05 39.64 39.43 40.37 41.57 42.86 53.22 52.58 50.34 51.25 50.93 51.83 50.22 50.85 52.66 53.38

GFSMW_sfc_wetblb_105.txt.gz
Wetbulb
69.38 71.12 71.52 71.91 72.62 73.44 73.46 73.89 74.21 75.68 75.64 74.07 73.78 73.73 74.68 76.00 76.75 75.74 77.30 77.46 77.40 77.56 78.24 76.44 76.95 77.62 77.57 77.33 76.90 76.12 75.39 73.13 74.19 73.53 71.57 71.97 73.43 74.07 73.84 74.13 74.24 74.42 74.98
68.80 70.59 70.92 71.52 72.04 72.86 73.27 73.96 75.26 75.98 76.44 75.17 78.56 77.87 74.30 74.98 74.85 75.36 77.23 78.09 77.28 77.56 77.08 79.02 77.42 75.87 76.19 77.26 77.66 77.55 74.98 72.58 73.55 72.39 71.95 68.33 70.56 72.34 72.82 73.44 73.36 74.27 74.60
67.57 70.19 70.43 71.14 71.95 72.61 73.45 74.25 75.49 76.10 76.65 77.53 77.38 76.85 77.08 76.88 74.25 75.30 75.75 76.57 77.29 77.30 77.86 77.71 78.27 77.60 77.77 75.74 77.84 76.72 77.15 72.09 73.12 76.91 74.39 69.79 69.22 69.61 71.91 72.82 73.12 74.35 74.42
68.28 69.89 70.61 71.20 71.32 73.05 73.99 75.30 76.00 76.36 76.62 77.63 78.18 75.37 74.67 72.76 74.94 75.54 75.98 76.34 77.29 76.92 77.39 77.78 77.76 78.41 78.38 79.04 77.35 77.19 78.57 78.08 72.11 73.41 74.10 77.05 75.78 71.75 68.55 70.95 72.66 73.15 73.29
68.59 67.70 69.94 71.38 71.72 73.46 73.86 74.79 76.22 77.03 77.42 77.94 76.45 75.99 75.93 73.25 72.41 74.58 77.42 78.47 77.86 77.19 76.85 77.78 77.95 77.97 76.89 77.99 78.38 77.34 78.53 76.69 75.67 74.16 73.17 75.53 73.78 74.37 71.27 69.03 70.67 71.78 72.98
69.09 69.71 70.03 71.21 72.13 73.41 73.09 74.60 75.71 76.87 76.77 77.21 76.91 77.13 76.33 76.02 73.35 75.49 75.11 75.28 75.52 76.29 77.24 77.18 77.77 77.87 78.00 77.45 76.58 77.84 77.52 78.07 78.61 76.37 75.76 72.61 71.38 71.91 72.73 71.08 71.78 72.02 73.86
67.42 69.36 67.97 71.17 72.35 72.57 73.76 73.74 75.42 75.60 76.09 76.64 76.04 76.36 75.84 75.73 75.47 75.14 75.08 73.52 74.58 74.57 76.54 77.62 77.28 76.61 77.84 78.03 77.90 77.85 78.07 76.97 76.50 78.74 75.46 73.73 73.13 73.50 73.44 72.30 70.74 70.71 72.68
69.25 68.88 70.57 71.96 71.51 71.52 73.43 73.75 74.98 75.39 75.97 75.99 76.37 76.86 77.02 74.99 74.46 76.10 76.21 75.32 74.55 74.98 77.69 77.35 77.26 77.12 77.83 77.58 78.29 76.74 75.43 78.73 75.98 76.63 79.00 75.74 74.42 74.23 73.86 72.80 71.46 69.88 72.16
66.58 67.08 70.56 72.13 71.86 73.35 72.18 74.46 75.06 75.52 75.74 75.71 76.26 76.46 76.43 76.08 76.02 72.28 76.16 76.82 77.56 77.01 78.14 77.13 77.35 77.37 77.28 77.80 78.41 76.24 77.17 77.87 77.27 77.77 77.01 75.96 74.74 74.07 74.22 74.14 73.36 71.58 67.97
68.31 69.31 69.01 70.44 72.62 73.05 73.87 74.16 74.75 75.21 75.47 75.39 75.56 75.67 75.77 76.06 76.34 76.53 76.38 72.31 76.21 76.53 77.40 77.31 77.27 77.41 77.83 77.77 78.13 77.91 77.97 77.16 76.24 74.70 77.71 77.31 75.24 76.27 74.67 73.96 73.59 73.07 71.36
67.75 67.61 70.07 69.76 73.26 73.87 72.97 73.79 73.39 75.08 74.76 75.34 75.54 75.50 75.06 75.14 75.87 75.05 75.65 76.52 76.41 76.65 76.98 77.33 77.15 76.89 77.23 77.61 77.38 78.46 77.08 76.77 76.70 76.63 76.31 76.03 78.22 75.31 74.80 75.01 74.25 72.82 72.53
68.98 67.51 68.41 70.71 72.94 73.76 74.68 74.75 75.76 73.64 74.83 74.13 76.08 75.56 75.70 75.43 74.57 75.02 75.38 76.80 76.65 77.45 76.94 77.58 77.22 76.50 76.98 77.21 77.06 76.93 76.18 75.84 75.62 75.59 76.02 75.59 74.76 77.04 78.83 75.56 79.55 76.46 76.69
69.41 69.24 69.50 70.05 73.03 74.59 74.66 74.25 74.64 73.78 74.26 75.82 75.69 76.70 75.02 74.71 74.86 74.94 75.55 76.37 76.88 76.72 76.90 76.85 76.55 76.66 76.88 76.47 77.03 77.19 76.53 76.61 75.72 75.51 75.87 75.65 75.93 76.48 75.84 76.45 75.52 74.53 75.64
69.59 70.05 70.17 70.25 69.52 69.82 70.95 72.19 72.33 72.70 73.23 73.15 74.78 75.62 75.48 74.89 75.15 77.16 75.98 76.05 77.04 76.68 76.38 77.09 77.61 77.04 76.96 76.83 76.47 76.53 76.57 76.76 76.31 76.53 75.97 76.63 75.93 76.36 76.78 75.99 77.38 77.06 75.66
68.88 69.48 69.23 71.53 72.37 72.33 71.85 72.50 71.13 71.88 70.92 71.64 72.56 72.35 76.26 76.50 76.42 76.17 76.84 76.20 76.34 76.28 76.36 76.25 77.58 76.78 76.26 74.63 75.60 76.41 76.39 76.78 76.41 76.44 76.54 76.63 75.16 72.51 72.12 74.89 77.70 77.20 75.55
67.94 70.10 70.42 71.12 71.34 72.16 72.47 72.29 72.02 72.57 71.42 70.99 71.83 72.93 74.20 74.67 75.07 75.66 75.86 76.36 75.92 76.25 76.49 75.96 76.25 75.97 76.08 62.57 63.50 69.09 76.35 76.49 76.67 76.15 76.61 76.50 76.34 73.41 69.92 69.18 69.08 71.57 75.78
67.73 68.81 69.53 70.23 71.10 72.16 72.50 72.12 71.76 72.00 72.17 69.90 70.52 70.98 71.67 70.88 71.60 72.45 74.42 74.36 74.81 75.66 75.85 75.47 75.26 74.51 72.20 58.71 60.93 66.02 74.73 76.22 76.66 76.40 76.40 76.23 73.94 73.91 75.31 70.80 68.72 68.37 67.03
67.43 67.95 67.88 68.56 69.57 72.15 73.07 73.41 72.96 72.55 71.42 71.52 70.86 70.84 69.53 69.55 70.69 70.08 69.34 70.63 72.00 74.13 74.30 73.65 72.08 70.15 65.11 55.77 57.25 62.78 75.34 76.49 75.47 75.52 74.60 74.53 73.06 62.94 63.04 69.46 73.82 74.48 75.66
64.40 63.23 64.12 64.58 64.01 66.23 70.13 71.59 71.33 71.29 70.95 70.58 71.22 70.86 70.90 69.42 67.46 67.10 68.31 69.46 70.59 71.25 70.04 69.62 68.86 66.28 62.85 52.48 54.37 63.03 74.41 72.39 71.94 70.61 67.11 70.12 65.89 56.47 56.85 69.35 70.23 71.09 71.69
61.48 60.17 59.65 59.60 58.38 58.80 62.51 62.67 62.65 64.79 64.41 65.64 67.55 68.21 69.25 66.83 66.36 66.45 66.11 67.61 67.46 66.47 66.67 64.11 63.75 57.92 60.60 50.45 51.45 57.75 72.16 71.69 69.39 67.16 63.70 56.38 58.57 54.67 54.86 66.63 66.22 65.50 65.09
57.66 57.28 55.93 55.99 57.36 58.03 58.12 57.31 57.84 58.45 61.09 62.51 63.42 64.11 65.54 65.80 66.76 67.43 68.30 66.46 65.46 64.04 63.37 61.85 59.60 57.17 55.51 51.22 49.75 50.83 61.64 63.02 68.39 67.59 65.74 62.55 54.43 52.38 52.65 54.08 64.09 61.53 61.23
54.55 54.54 54.08 54.41 55.78 56.65 56.61 55.94 56.09 58.54 60.55 62.10 63.15 63.32 64.17 63.18 64.50 67.02 64.05 62.65 62.48 62.15 61.67 60.49 59.98 58.63 56.65 50.03 49.69 49.98 51.03 54.29 62.35 60.64 59.86 59.50 51.77 50.66 51.73 56.77 54.53 54.14 56.56
52.88 53.90 53.98 54.61 56.43 56.81 56.46 54.41 56.37 59.27 59.66 60.57 62.24 63.15 63.69 64.41 65.63 65.02 64.24 62.21 62.02 61.63 61.69 61.98 60.99 59.13 57.47 56.27 50.04 49.75 50.86 52.33 58.77 57.42 55.53 53.38 51.64 51.58 53.92 55.15 55.57 55.78 62.91
52.91 53.51 53.38 52.81 53.14 55.57 56.11 56.23 57.96 59.20 58.70 58.65 60.41 61.22 61.06 62.34 64.08 64.78 63.95 63.38 63.95 63.46 63.19 62.44 61.45 59.09 57.27 56.54 53.95 54.37 56.34 53.96 55.60 55.98 58.07 55.48 54.64 54.39 56.63 59.61 60.60 60.81 58.83
55.04 55.05 53.56 52.64 52.68 54.73 54.97 56.09 56.45 58.72 58.89 59.70 59.62 59.08 58.44 60.70 57.08 51.85 47.26 56.00 47.63 45.50 52.36 60.66 60.08 57.08 57.97 49.26 43.21 43.67 50.38 51.94 50.61 51.40 56.92 55.41 55.92 54.73 54.53 54.75 56.08 55.90 56.07
55.84 54.70 54.18 54.60 54.23 53.99 54.16 55.26 56.18 56.06 57.31 58.01 58.13 57.58 58.06 58.13 56.97 55.08 50.46 41.00 41.40 40.78 40.05 40.21 47.12 47.97 41.96 40.68 40.38 39.81 40.51 41.40 42.81 53.98 55.02 53.79 53.81 53.49 52.46 52.22 51.85 53.03 52.58

GFSMW_sfc_wetblb_108.txt.gz
Wetbulb
68.85 69.45 70.87 71.28 71.72 73.12 73.31 72.83 74.00 75.72 74.11 75.16 71.16 76.39 71.11 75.68 75.29 75.12 78.22 79.61 79.24 79.56 78.68 78.57 76.72 73.15 72.03 78.26 77.98 77.56 76.16 75.75 75.95 75.70 73.03 72.36 73.93 74.30 74.28 73.99 73.51 74.11 75.03
67.52 69.37 69.85 70.89 70.95 72.69 73.70 75.10 73.95 75.55 76.32 75.43 74.06 75.92 75.59 75.58 75.49 77.03 78.65 76.70 78.15 79.73 78.69 79.01 75.52 74.72 77.10 78.23 78.82 78.59 76.66 74.91 74.60 72.97 71.46 69.62 70.93 72.05 72.57 73.81 73.21 73.18 73.88
65.81 68.70 69.96 69.20 71.23 72.27 73.45 74.70 75.13 76.36 77.05 77.84 75.12 77.85 74.39 78.07 74.84 74.84 76.74 76.69 77.25 78.45 74.59 79.55 75.60 78.29 77.46 77.17 79.27 78.78 76.83 74.51 74.28 76.94 74.76 69.72 68.18 70.15 71.89 72.19 73.29 72.38 74.42
67.61 68.57 69.60 69.05 70.72 72.48 73.47 75.62 76.20 76.28 76.70 75.87 75.71 72.70 75.56 72.93 75.21 76.91 75.89 77.76 78.09 77.47 78.75 79.69 79.51 78.26 73.10 73.95 78.55 77.91 78.09 76.41 74.44 74.87 74.50 76.11 69.14 64.24 66.78 71.01 71.66 72.75 73.80
66.72 68.27 68.40 70.60 71.64 71.62 73.28 75.02 76.34 76.34 77.29 74.92 78.29 76.83 76.92 71.76 72.48 72.96 73.72 79.50 79.55 79.15 77.15 79.27 79.32 79.58 78.18 78.07 78.81 77.30 78.02 77.24 76.59 73.85 74.77 72.58 75.42 70.14 69.70 64.16 65.71 71.63 73.04
66.65 68.80 69.38 70.24 72.16 71.89 73.32 75.05 75.97 76.05 76.71 76.39 76.07 76.76 73.22 71.54 72.63 71.07 71.76 76.02 75.89 77.13 78.93 77.62 79.13 79.81 79.06 75.71 77.76 79.17 77.95 77.62 78.43 76.61 75.95 71.27 67.72 66.89 68.04 65.45 65.84 66.14 70.99
66.98 66.87 69.15 70.49 70.51 70.86 72.84 74.42 75.26 74.85 76.51 76.34 76.04 76.45 76.82 73.73 70.87 72.03 72.71 69.78 73.61 73.42 77.89 79.63 79.55 78.82 79.17 78.09 78.90 78.95 78.05 77.64 76.70 78.21 76.06 75.92 68.67 67.45 68.02 67.71 65.23 65.09 69.79
66.53 68.52 69.00 69.56 70.63 71.47 71.02 74.36 75.33 74.69 75.59 76.32 76.99 78.01 77.63 76.46 74.48 73.28 72.98 69.50 71.09 72.12 77.15 78.88 78.45 78.91 79.13 78.71 79.15 78.28 77.14 77.73 77.45 78.28 77.15 76.38 74.66 73.32 74.12 73.69 70.37 67.62 69.25
65.73 67.54 69.01 68.79 69.47 72.50 71.56 71.90 75.14 75.78 75.81 75.78 76.65 77.43 78.24 77.70 77.24 74.91 73.49 71.52 72.78 73.17 74.44 77.44 78.57 78.20 78.08 79.05 78.23 77.60 76.22 75.32 72.75 76.60 77.91 76.79 75.54 74.61 74.74 72.14 74.23 71.57 68.12
67.21 69.15 69.00 67.90 69.51 71.66 72.75 71.49 73.10 75.26 75.75 75.64 76.00 75.98 76.78 77.53 77.71 74.62 71.98 70.81 69.97 73.19 69.83 72.43 78.39 79.12 76.76 76.92 78.76 76.66 75.48 77.12 76.89 76.33 76.02 77.66 76.25 75.46 74.85 73.18 74.07 73.61 71.30
66.60 69.63 69.86 70.41 69.38 70.31 70.91 72.60 74.50 75.32 75.15 75.55 75.38 76.08 75.55 76.31 77.09 76.83 75.79 70.65 72.15 74.14 71.05 75.66 79.35 78.76 77.04 76.85 78.55 77.66 77.21 76.24 77.56 77.72 76.00 75.96 77.11 76.17 75.44 74.98 74.38 73.14 73.77
69.59 69.62 69.82 70.91 71.05 70.37 72.53 71.68 74.25 74.70 74.90 74.67 75.93 76.38 76.03 75.85 75.56 76.82 75.78 78.45 77.69 78.79 78.09 78.25 78.09 78.22 78.09 78.65 77.79 76.39 76.34 74.19 75.46 76.78 77.06 76.34 75.35 75.95 77.62 76.08 75.59 74.58 75.55
70.32 69.78 69.71 67.96 67.55 65.97 66.79 70.84 72.99 72.96 74.47 73.93 74.70 73.88 75.88 76.00 76.90 74.67 76.34 78.09 78.35 77.98 77.54 77.90 77.34 76.83 76.77 75.86 77.82 77.74 77.18 76.05 75.33 76.84 76.81 76.12 76.49 75.84 75.22 76.19 75.82 74.74 74.83
69.42 69.77 70.25 69.64 68.63 65.79 65.24 69.39 72.79 73.81 73.32 73.78 74.81 71.69 76.20 75.24 76.14 74.67 76.17 77.44 78.24 77.37 77.92 76.96 76.09 76.97 76.96 76.08 77.09 77.67 76.49 76.73 75.83 76.17 76.08 73.48 74.95 76.38 75.95 75.03 75.59 74.69 74.69
69.66 69.67 69.71 70.76 72.45 70.29 70.92 71.06 70.70 73.04 74.21 73.42 73.57 71.39 73.07 75.39 76.11 76.12 77.43 77.31 77.43 76.32 76.61 77.42 77.14 77.07 72.74 67.40 68.41 75.54 76.87 76.00 75.52 77.16 75.92 76.90 74.48 71.84 72.13 75.00 75.82 76.37 75.13
68.62 69.49 71.12 71.30 71.54 71.91 71.54 71.42 71.73 72.26 72.67 71.44 71.50 73.25 73.34 72.82 72.34 73.32 76.08 76.71 76.59 76.93 77.54 76.09 76.45 75.85 66.92 61.76 62.98 66.91 75.46 76.29 76.17 75.63 75.66 75.00 74.82 72.35 70.27 69.70 69.51 71.11 73.84
69.37 69.91 70.47 70.97 72.25 72.72 73.49 72.28 73.15 73.69 72.40 71.69 71.93 73.00 73.99 73.06 72.00 72.10 74.29 73.04 74.16 75.72 75.69 75.90 74.94 70.12 64.09 57.72 59.22 63.42 71.23 74.89 76.56 77.08 76.94 75.64 68.57 64.87 67.81 70.01 69.28 68.60 67.06
66.87 67.43 69.16 70.06 71.61 72.70 72.83 72.70 73.26 72.45 72.16 71.63 71.79 71.48 71.25 70.74 70.34 69.97 72.40 72.46 71.20 70.72 70.77 70.23 70.14 68.23 58.82 54.92 56.33 60.62 70.09 75.53 75.69 73.31 73.61 69.68 64.18 59.03 60.46 66.87 72.73 72.96 74.00
62.44 62.00 62.35 63.11 64.46 66.08 70.94 72.28 72.34 72.21 71.79 71.70 70.98 70.85 70.82 69.64 69.52 68.57 69.25 69.50 69.38 69.05 67.38 66.75 64.31 64.10 56.65 52.46 54.13 60.70 75.64 72.06 66.92 65.43 62.29 65.18 62.04 57.68 57.31 68.62 67.55 68.72 67.29
59.40 59.84 60.46 60.07 59.28 60.80 64.53 64.04 64.34 67.69 68.07 70.29 70.22 70.83 70.82 69.76 68.52 67.86 67.07 68.57 68.72 66.20 64.28 61.51 59.09 59.02 56.31 50.95 52.26 59.41 71.35 70.29 65.92 63.28 60.06 56.91 57.13 55.14 55.27 64.19 64.55 62.46 62.78
56.73 56.61 57.29 57.08 57.62 58.65 60.15 59.41 60.51 59.67 61.95 63.56 65.70 67.98 69.00 68.77 68.05 67.15 69.53 67.38 65.17 63.23 61.18 58.89 57.38 55.26 54.27 51.85 50.83 51.92 60.64 62.29 61.54 64.29 61.70 60.09 54.37 52.51 52.79 54.28 62.76 60.29 57.85
55.03 55.79 54.80 55.37 56.32 57.36 57.55 57.00 57.47 59.49 61.45 62.55 62.45 63.16 64.82 64.18 66.08 64.65 62.63 64.38 63.39 61.78 60.95 59.77 59.96 57.49 55.76 51.20 50.58 50.78 51.65 54.04 61.40 59.66 60.11 59.46 51.77 50.59 51.67 55.59 54.43 53.65 56.33
54.14 55.07 54.59 54.34 55.39 56.36 56.27 55.57 57.32 59.56 59.98 59.77 60.28 61.73 64.69 64.71 65.42 63.58 63.30 61.79 61.96 60.44 60.74 61.06 60.53 59.39 59.09 56.33 50.69 50.74 51.68 53.33 58.75 56.30 54.32 53.25 51.59 51.94 56.31 56.29 55.71 56.72 57.37
53.08 53.70 53.73 52.90 53.40 54.69 55.42 56.81 57.78 58.83 58.18 58.49 59.86 60.34 59.60 58.16 54.86 56.33 60.44 58.59 53.37 58.48 61.54 63.24 61.80 60.11 58.98 57.21 53.78 54.84 57.43 54.36 57.67 57.01 59.39 56.19 54.95 54.82 55.27 55.28 55.98 55.41 54.51
54.46 52.99 51.80 52.03 53.15 54.54 54.33 55.46 56.04 57.89 57.81 58.42 58.19 58.24 58.01 57.48 50.76 46.06 47.46 49.66 43.62 43.61 50.19 49.53 51.04 54.91 56.07 46.25 43.56 43.11 47.24 47.89 47.77 47.04 58.32 57.10 57.10 54.91 53.99 53.36 53.38 52.89 52.19
55.15 53.25 53.98 53.32 53.50 53.41 53.60 54.67 57.48 57.53 56.46 56.36 56.43 56.87 58.64 58.15 55.78 54.98 47.50 41.70 41.89 40.92 40.10 40.52 47.26 43.91 42.60 41.48 40.85 40.11 40.64 41.56 42.73 52.72 57.71 55.18 55.73 54.80 54.62 54.32 54.83 53.99 54.10

GFSMW_sfc_wetblb_111.txt.gz
Wetbulb
64.97 66.33 69.48 69.71 69.51 69.52 70.10 71.02 69.84 72.08 70.26 71.09 69.03 69.45 69.22 71.82 72.17 72.72 73.92 73.59 73.35 73.92 73.75 73.28 65.42 65.95 69.15 70.12 73.37 72.74 71.87 71.89 70.81 69.40 68.96 66.89 68.59 69.73 69.74 70.87 70.86 70.60 71.97
64.63 65.49 68.58 69.05 68.99 68.77 68.53 70.82 71.04 71.21 69.49 71.88 70.90 71.92 70.96 72.30 72.84 73.14 73.53 73.47 74.53 73.64 74.19 73.21 69.94 69.93 71.11 72.66 72.75 73.19 72.76 71.18 69.28 66.79 68.27 63.40 65.66 67.94 69.64 69.51 71.03 69.20 70.66
64.46 65.57 67.27 68.04 69.22 69.04 70.26 70.21 71.97 70.43 72.00 72.70 72.24 72.06 70.96 73.31 71.93 71.67 72.54 73.85 74.56 74.02 73.22 73.81 72.26 71.36 71.02 70.20 72.96 73.63 72.45 71.40 71.43 70.43 69.65 65.88 65.61 66.31 66.42 67.11 68.61 68.61 70.51
64.89 66.41 67.15 67.15 68.69 69.70 71.26 70.94 71.33 71.01 72.37 72.27 72.39 70.14 69.70 68.17 70.44 70.53 72.70 72.99 74.23 74.55 73.60 73.73 73.89 72.52 71.93 71.13 72.96 73.40 73.42 72.85 71.11 71.06 72.26 68.65 66.46 61.39 63.76 68.62 66.45 69.04 69.30
65.14 66.16 66.42 67.57 69.33 70.55 70.50 71.88 71.88 71.47 72.09 71.27 72.38 70.88 69.20 69.89 70.61 70.74 70.39 70.61 73.51 74.83 74.78 73.47 73.05 73.58 73.24 72.35 72.67 73.83 72.75 73.34 72.52 71.35 71.55 69.09 68.24 68.55 63.07 61.54 63.34 66.36 69.45
65.88 67.44 68.03 68.02 69.04 70.32 71.05 72.02 71.64 71.19 72.11 70.30 72.30 70.73 69.48 68.41 69.30 69.37 70.36 70.05 71.25 72.51 73.57 74.29 74.18 73.24 73.04 72.91 72.72 72.75 72.00 72.97 72.59 73.02 70.23 67.03 65.86 65.20 64.53 62.51 63.17 62.86 67.83
65.43 66.24 66.29 67.61 68.71 69.08 70.33 72.43 71.80 70.42 71.96 71.83 71.83 71.53 71.32 69.76 69.40 68.42 69.61 68.22 67.83 70.58 70.64 72.43 72.73 72.89 72.74 73.09 73.01 72.44 71.53 72.70 71.69 71.68 73.26 71.64 66.40 66.83 66.38 64.58 63.70 64.22 67.52
65.53 65.84 66.91 67.55 68.47 69.28 70.89 71.81 71.75 70.98 71.71 71.90 71.58 71.81 71.94 70.99 70.04 70.67 70.81 67.72 68.10 70.31 71.62 72.35 73.32 73.11 74.08 73.58 73.63 72.39 73.07 71.97 71.46 71.13 71.36 72.29 70.87 69.64 68.40 67.38 63.68 60.91 64.97
64.89 65.96 66.70 68.38 68.79 69.15 71.18 72.27 71.74 71.36 71.87 72.64 72.52 71.57 71.80 71.02 70.86 70.82 70.39 69.26 67.40 69.83 71.76 72.52 72.75 73.75 73.87 73.37 73.33 72.80 71.70 71.71 70.37 71.45 71.74 71.80 71.84 71.60 71.29 70.08 69.93 67.88 62.82
63.46 65.69 66.35 67.79 68.99 68.88 70.49 72.93 72.74 71.70 71.81 72.94 72.66 72.54 72.42 72.01 71.28 70.54 70.19 67.40 67.74 69.08 71.38 72.39 71.84 73.76 73.01 72.31 72.86 72.11 71.14 72.19 71.72 72.29 70.99 71.31 71.25 71.36 72.17 72.23 70.74 69.27 67.08
63.68 63.82 65.26 67.59 68.20 69.23 70.57 71.28 72.09 72.64 72.12 72.15 72.65 72.39 72.36 72.12 71.21 71.55 70.15 69.54 68.70 70.12 70.27 70.84 71.50 72.86 72.21 73.29 72.69 72.36 71.97 73.16 71.47 72.24 71.70 71.24 71.92 71.46 70.93 72.53 71.85 70.91 71.09
64.25 64.61 66.68 67.09 68.25 68.85 68.60 70.01 69.98 71.53 72.12 72.07 72.59 72.27 72.34 72.27 72.07 71.97 70.39 68.30 68.98 71.04 71.12 70.15 72.76 72.69 72.77 73.14 71.42 72.09 73.28 71.77 71.64 71.63 71.21 71.11 73.21 70.95 71.62 71.30 71.30 70.68 71.08
63.98 66.90 67.84 66.86 67.79 67.74 67.54 67.58 68.33 70.93 71.96 72.19 72.86 72.41 72.35 72.56 71.37 71.99 72.50 71.87 71.44 72.63 73.38 73.51 72.41 72.80 73.20 72.86 73.24 73.22 72.66 72.58 72.46 72.17 71.82 71.21 71.16 70.42 69.84 70.88 71.08 70.24 71.22
64.16 66.55 66.89 66.70 67.62 65.90 65.84 65.84 66.55 68.61 70.83 72.33 71.53 71.13 70.90 71.56 71.84 71.45 72.00 73.50 73.24 72.72 71.91 72.77 72.81 72.32 72.14 69.87 71.91 73.37 72.67 72.28 72.78 74.01 72.59 71.05 71.25 71.13 70.43 71.12 70.83 71.44 70.90
64.97 66.22 66.23 66.14 65.75 65.19 65.92 67.18 67.39 67.83 70.26 69.67 70.55 70.48 71.81 71.87 72.68 72.96 71.15 73.46 73.18 72.98 72.54 72.28 72.08 68.64 67.68 65.33 65.62 68.08 71.72 71.63 71.52 72.38 72.11 72.72 72.34 71.24 69.94 70.63 70.19 70.31 70.24
65.76 66.50 67.23 67.69 64.65 64.60 64.60 66.15 64.85 67.26 71.14 69.23 69.45 70.06 70.25 71.08 71.36 71.55 71.01 70.74 70.90 70.24 71.29 71.21 70.37 64.83 62.73 61.73 63.49 65.74 68.28 71.81 71.69 71.18 71.47 68.51 64.78 67.15 67.36 67.53 68.34 68.49 68.74
64.74 66.91 67.52 68.91 69.10 67.06 64.99 68.30 68.53 70.51 69.89 68.80 69.16 68.95 70.49 70.24 70.38 70.44 71.03 71.16 70.83 70.74 69.70 69.48 64.31 58.05 56.22 56.72 58.02 62.35 66.51 70.32 71.25 70.66 70.28 65.17 60.96 59.98 62.75 65.92 68.12 68.95 66.78
60.14 62.03 63.38 64.20 65.49 70.04 69.90 70.55 70.11 69.94 69.40 68.71 69.83 70.61 69.79 69.02 68.01 68.03 68.32 70.05 70.07 69.97 68.44 66.91 65.57 59.07 54.32 55.01 56.08 59.45 66.13 65.92 63.69 65.16 62.69 59.52 57.42 57.24 59.85 65.10 64.99 65.86 61.82
59.53 60.29 60.57 61.62 62.84 64.31 67.72 69.68 69.61 69.10 69.09 68.64 68.94 68.80 68.26 67.32 67.41 66.84 67.09 68.40 68.49 66.39 64.74 64.01 61.56 55.95 51.53 53.33 55.30 62.20 66.91 64.31 59.97 59.02 60.36 57.80 55.66 56.71 59.28 61.55 59.55 58.01 57.98
56.58 57.32 58.78 59.20 59.49 61.26 64.00 64.53 66.20 66.77 67.86 68.62 68.60 68.84 68.46 67.56 66.32 65.65 65.87 66.79 64.79 62.56 61.05 59.30 58.38 55.35 50.56 51.91 53.42 60.26 67.07 61.80 57.30 55.72 54.93 56.58 54.52 54.36 54.57 59.45 54.83 52.43 54.16
55.19 56.32 56.96 56.58 58.27 59.68 60.58 59.81 61.44 61.50 62.97 65.61 68.01 67.86 67.61 67.36 66.39 65.63 65.20 65.30 62.42 59.61 58.14 55.91 53.56 52.64 52.32 50.26 51.57 53.20 57.16 60.76 60.69 58.54 55.44 53.71 53.67 52.13 52.34 54.67 53.91 53.26 53.74
54.36 55.11 54.62 54.94 55.98 58.03 59.24 58.51 58.37 60.22 62.11 62.37 62.94 63.52 65.38 65.82 64.68 63.52 64.91 61.80 61.51 59.84 58.67 57.28 54.65 52.89 49.78 51.11 50.91 51.40 52.40 57.58 58.51 57.35 56.25 54.48 51.34 50.68 51.64 53.47 53.54 53.88 55.47
53.45 53.98 53.69 53.75 54.75 55.96 56.42 56.30 57.72 59.06 60.05 60.09 60.42 62.73 59.66 61.48 63.28 62.23 61.53 61.35 61.00 60.31 59.77 58.72 57.25 55.15 52.52 49.51 51.80 51.03 52.13 53.80 52.68 53.59 52.72 52.89 51.99 51.52 52.65 53.33 53.26 52.91 51.51
52.26 53.24 52.47 51.76 52.14 53.67 54.22 56.18 57.18 58.20 58.19 58.21 58.88 58.16 52.62 50.34 48.81 51.59 50.75 50.02 49.23 52.73 54.00 58.96 57.13 53.99 52.93 48.91 48.02 48.59 50.70 52.79 50.36 52.04 53.93 53.51 52.73 52.45 51.87 50.67 50.46 49.43 49.06
52.47 51.67 51.63 51.96 52.12 53.32 53.58 54.66 55.85 57.20 56.66 56.55 56.92 57.95 54.53 49.54 44.57 42.96 45.64 44.35 40.92 42.67 46.31 49.08 48.63 53.52 47.45 42.14 41.86 41.73 42.19 41.49 42.78 44.47 51.27 49.96 49.29 48.67 48.06 48.71 48.93 48.32 48.10
52.48 52.20 52.07 51.15 51.07 51.84 52.24 52.69 54.23 55.80 54.88 54.52 55.11 55.34 57.98 55.11 48.42 45.80 43.04 42.23 41.70 41.03 40.46 40.96 42.68 40.67 42.10 41.48 40.44 39.80 40.23 41.09 42.47 45.69 49.78 47.26 48.67 47.07 47.08 47.65 48.34 48.02 47.62

GFSMW_sfc_wetblb_114.txt.gz
Wetbulb
65.20 67.74 68.67 68.83 68.81 68.68 68.20 68.07 66.88 67.90 69.78 69.21 69.19 68.38 68.46 70.21 70.79 71.69 72.34 72.89 72.14 72.93 72.14 71.74 64.49 69.16 71.05 71.19 71.25 71.98 72.58 69.68 68.30 66.76 68.34 65.95 67.54 68.07 68.58 69.89 69.63 70.34 70.83
64.60 66.09 66.68 68.08 68.56 68.25 68.05 68.54 68.07 69.11 68.56 69.56 69.59 69.20 69.83 70.44 71.09 71.91 72.47 72.74 73.15 73.08 73.58 71.66 69.87 70.31 71.14 70.79 72.24 71.96 71.36 71.22 69.42 67.41 66.41 62.52 64.81 67.29 68.15 69.37 69.83 69.15 69.91
63.49 64.96 65.64 66.90 67.65 67.36 68.56 68.46 69.50 67.81 69.45 70.86 71.21 69.91 70.31 71.20 70.13 70.41 70.75 72.76 73.15 73.12 72.95 72.38 71.55 70.71 69.71 69.27 71.46 71.93 71.89 69.94 70.89 68.91 67.80 64.27 62.95 63.76 65.14 66.44 68.68 69.37 69.12
65.03 65.69 65.77 65.89 67.09 67.64 69.63 69.41 69.26 69.17 71.09 71.70 70.37 68.50 67.89 67.46 68.64 69.37 70.42 71.51 73.12 72.63 73.04 73.03 72.96 71.17 71.15 70.52 71.79 73.30 72.14 71.30 69.77 69.99 69.69 67.52 66.16 61.21 61.60 65.23 65.46 68.99 69.43
65.03 65.49 66.09 66.75 67.78 69.10 69.49 69.92 69.03 70.22 70.47 70.48 70.33 69.22 68.32 68.44 69.47 69.64 69.66 70.00 70.89 73.16 72.84 72.09 72.88 72.42 71.68 71.03 71.43 71.42 72.06 71.67 70.95 69.80 67.87 67.25 66.55 64.54 61.42 59.27 62.08 66.02 68.45
64.71 66.21 66.95 67.69 67.58 69.84 69.59 70.07 68.89 69.83 69.92 70.21 70.79 69.95 68.50 68.66 68.70 68.50 68.88 69.38 68.64 70.64 71.58 72.61 72.36 72.01 71.84 71.40 71.53 71.53 71.60 71.59 71.24 71.17 68.51 67.22 65.33 64.71 62.28 60.39 61.28 61.70 65.87
64.36 65.40 65.28 66.71 67.54 68.30 70.10 69.80 68.41 69.19 69.16 69.52 70.70 70.36 69.17 68.26 67.73 68.22 68.10 68.48 67.47 69.74 69.84 70.93 71.73 72.09 71.93 72.06 72.21 71.26 70.21 71.21 70.63 71.09 70.00 66.51 66.89 67.18 65.26 62.34 62.37 63.14 66.13
64.55 64.68 65.46 66.85 67.54 68.26 70.15 70.11 69.39 68.72 69.53 69.89 70.71 70.49 70.60 69.70 69.14 68.51 69.43 68.71 67.86 69.27 70.38 71.53 72.40 71.98 72.82 71.60 72.58 70.76 72.04 70.48 70.00 69.64 70.61 69.31 66.62 66.36 66.65 65.31 63.94 62.00 62.25
64.63 64.87 65.73 66.37 67.41 68.13 70.07 70.13 69.88 69.40 69.76 69.58 70.32 70.14 70.72 70.26 69.51 69.74 69.72 68.65 67.63 68.82 70.12 71.84 71.53 72.01 72.31 72.31 72.30 71.45 71.08 71.09 69.16 70.96 70.52 70.06 69.42 67.61 68.96 68.19 66.15 64.03 60.99
64.48 65.37 66.43 67.03 67.56 68.62 70.21 71.33 70.73 70.33 70.65 70.07 70.93 70.52 70.36 70.46 70.10 69.80 69.41 68.12 66.91 67.82 68.71 71.05 71.40 71.36 72.77 71.96 71.83 71.32 70.21 71.01 70.42 71.50 68.82 69.57 69.74 69.91 70.35 71.69 70.08 67.63 64.94
64.33 65.08 66.33 67.20 67.83 69.04 70.36 71.10 71.09 70.22 70.58 71.42 71.14 70.44 70.63 70.78 69.59 69.26 69.00 67.63 65.97 66.70 68.29 70.10 70.00 70.66 71.84 71.96 72.01 71.33 70.90 71.89 70.76 70.84 70.57 69.82 70.74 70.31 71.07 70.70 70.57 69.37 68.90
64.35 64.87 66.25 66.58 67.56 69.19 70.56 71.32 71.53 70.96 70.83 72.16 71.52 70.77 70.81 70.98 69.34 69.40 69.49 69.29 66.96 68.05 69.12 69.72 69.49 70.27 71.88 71.90 71.07 71.04 73.21 71.14 70.25 70.14 70.24 70.27 72.10 69.74 70.15 70.17 69.73 69.14 69.61
62.98 64.24 65.60 66.20 67.29 67.86 69.57 71.03 70.81 70.97 70.96 71.60 70.89 71.01 71.19 70.36 69.94 69.49 69.88 68.00 68.49 67.86 69.70 69.89 68.98 70.93 71.95 70.71 70.94 71.20 70.71 71.49 71.74 71.43 70.70 70.20 69.70 69.12 68.55 69.80 69.45 69.10 70.29
62.53 63.18 64.80 66.47 67.23 67.50 68.38 68.52 68.15 68.33 68.84 70.14 70.76 70.44 70.50 70.96 71.00 70.93 70.85 68.78 67.54 68.05 70.37 71.43 71.22 70.72 69.15 68.19 69.07 70.83 71.23 71.35 71.22 71.53 71.49 70.58 70.30 70.15 69.36 70.15 69.72 70.09 69.47
62.51 64.60 64.87 65.85 66.65 66.71 66.93 67.32 68.40 68.50 68.66 68.50 69.27 69.90 70.50 70.97 71.13 70.65 70.39 71.11 70.95 71.37 71.29 70.99 68.58 67.25 66.62 66.06 66.16 67.63 68.98 70.72 69.94 70.74 71.69 70.20 69.85 68.40 68.06 69.47 68.97 68.54 68.01
61.25 65.69 65.42 66.09 65.13 65.38 65.26 66.04 66.20 67.91 69.44 68.39 69.03 69.57 69.72 70.03 71.10 71.31 71.77 71.50 70.72 69.47 69.10 69.18 66.44 63.35 62.30 58.96 63.16 64.94 67.29 69.38 69.57 69.47 66.65 64.85 66.51 67.02 65.69 65.57 66.80 68.22 67.83
60.95 61.25 65.13 65.62 65.18 65.64 65.93 65.84 65.37 66.08 68.23 68.89 69.16 69.25 69.34 69.35 69.28 70.37 70.86 70.71 69.88 70.18 68.26 65.17 61.90 60.56 57.91 56.98 58.26 61.46 64.67 68.78 69.05 69.00 65.97 61.40 60.15 61.56 64.82 66.56 64.33 62.82 63.80
60.48 60.36 61.24 62.64 63.45 65.73 65.54 66.93 66.01 66.28 68.71 68.58 68.69 68.89 69.07 68.46 68.19 68.41 69.31 70.01 69.68 69.50 68.33 64.79 61.86 58.05 58.18 56.45 57.29 61.23 65.02 64.06 64.23 62.20 59.46 57.38 58.15 59.42 63.92 63.32 62.25 58.82 57.01
59.27 60.00 60.90 61.21 62.59 63.13 66.29 68.26 67.97 68.49 68.10 68.01 68.53 68.60 68.33 67.38 67.38 66.91 67.00 67.61 67.44 66.92 65.79 63.97 60.17 57.73 54.69 54.58 57.27 64.95 63.23 60.24 58.76 58.34 56.71 55.72 55.42 57.05 59.17 55.79 53.59 53.32 55.88
56.36 57.21 58.89 59.77 60.94 60.10 65.07 65.37 66.50 67.33 67.83 67.74 67.88 68.44 67.67 67.47 66.70 66.39 66.65 65.82 64.62 62.12 60.70 58.49 54.63 53.62 52.89 53.35 54.76 64.35 62.57 58.42 56.19 53.57 53.77 56.12 54.21 53.72 54.97 53.66 52.43 53.48 53.49
55.17 56.19 56.17 56.08 58.61 59.83 61.70 60.98 61.55 61.97 64.39 67.81 68.42 68.08 67.58 66.93 66.00 64.69 64.89 62.34 60.37 58.02 55.70 52.73 52.84 52.05 51.05 51.48 52.21 56.77 61.86 59.19 57.15 54.54 53.29 53.13 53.14 51.65 52.26 53.46 53.99 54.88 55.25
53.94 55.03 54.89 55.28 56.51 58.74 59.31 58.63 58.47 60.34 62.43 63.74 63.78 64.71 66.13 66.52 65.68 64.65 62.03 61.33 59.98 58.24 56.26 53.32 51.38 50.12 50.35 50.90 51.31 52.51 55.42 58.88 57.86 56.17 54.29 52.33 51.37 50.63 51.34 52.64 51.77 51.83 52.69
52.93 53.42 53.42 53.68 54.93 56.34 58.01 57.37 58.39 60.37 60.37 58.79 57.21 56.12 55.29 55.99 58.36 62.54 61.79 60.62 59.71 58.85 57.55 56.02 53.29 51.74 51.31 51.67 50.77 51.31 52.75 53.52 52.60 52.64 52.63 51.35 49.55 49.71 50.70 51.96 51.63 50.62 48.12
51.98 52.88 52.28 51.52 52.15 53.64 54.96 56.09 57.06 58.60 59.18 58.05 55.39 54.23 52.22 50.70 51.55 52.16 51.32 49.85 51.00 55.62 59.38 58.66 55.80 53.57 50.93 48.22 47.02 48.51 48.79 49.05 48.03 51.27 52.17 52.16 51.56 51.31 50.49 48.83 48.79 48.44 47.25
51.47 51.54 51.27 50.91 51.67 52.54 53.47 55.16 56.22 56.43 56.52 57.44 56.01 52.86 50.51 49.26 48.00 44.94 47.15 48.39 43.40 42.18 47.16 49.95 55.14 53.32 49.19 45.21 42.36 43.33 43.72 42.73 43.08 45.84 49.77 48.36 46.92 45.74 46.41 46.44 46.90 47.01 46.72
51.12 50.16 49.34 49.98 50.52 49.70 50.93 51.93 54.09 55.29 54.56 54.37 56.23 54.99 51.61 49.26 46.12 44.19 43.66 42.73 42.89 42.14 41.03 41.93 44.20 42.79 44.15 41.59 40.29 39.53 39.82 40.74 42.31 46.61 47.55 46.17 45.99 45.71 45.86 46.17 44.73 44.85 47.28

GFSMW_sfc_wetblb_117.txt.gz
Wetbulb
64.51 66.55 68.02 68.53 67.90 67.39 66.45 66.57 65.89 66.97 68.69 68.85 68.43 67.83 67.70 69.52 69.60 71.32 71.48 71.91 71.66 72.44 71.77 67.63 65.49 70.11 70.57 71.05 72.07 71.51 70.50 69.20 67.79 66.13 66.41 65.43 66.94 66.58 68.38 68.94 68.81 69.31 69.52
63.80 66.20 66.93 67.36 67.19 66.95 66.96 66.47 65.63 67.82 68.43 68.30 68.73 67.92 68.93 69.26 69.87 71.43 71.24 71.75 72.04 72.78 72.50 70.82 69.08 69.85 69.27 70.88 71.52 71.02 70.04 70.06 69.38 67.88 64.17 61.22 64.17 65.29 67.25 68.70 68.79 68.22 68.94
63.21 64.96 65.76 66.15 67.12 66.70 66.84 66.92 66.43 68.17 68.06 69.32 70.24 69.00 70.16 70.06 69.55 69.72 69.76 70.67 71.73 72.44 72.68 71.41 70.54 69.93 68.50 69.86 70.68 71.14 70.40 68.51 67.81 67.35 66.70 63.03 60.99 62.54 65.03 65.67 67.73 68.62 68.77
64.35 65.14 65.17 65.59 66.78 67.21 68.18 67.20 67.63 67.07 69.24 70.09 69.15 68.03 67.75 66.97 68.11 68.35 69.80 70.72 72.13 71.66 72.41 72.16 71.55 70.57 70.28 70.07 71.49 71.92 70.76 69.77 67.77 68.25 69.12 66.14 64.36 60.56 60.98 64.52 64.64 67.43 68.39
63.82 64.10 65.05 66.02 67.19 67.98 68.30 68.17 67.78 68.62 70.01 70.15 69.04 67.90 67.32 67.78 68.22 68.51 68.72 69.52 70.29 71.72 73.01 71.62 71.88 70.90 70.46 70.75 70.81 70.92 70.50 70.97 68.62 67.10 66.12 65.03 64.41 62.35 60.28 58.39 61.43 64.58 66.86
63.90 64.58 65.51 66.35 66.70 68.01 68.40 68.45 67.60 68.48 69.21 69.71 69.28 68.72 67.96 67.64 68.09 68.00 68.36 68.99 68.70 70.06 71.09 72.27 71.53 71.34 70.67 70.75 71.03 70.36 71.09 70.44 70.75 69.19 67.46 66.05 63.86 62.84 60.15 58.88 59.50 60.55 64.32
63.92 64.20 64.40 64.85 65.97 67.00 67.96 68.55 67.85 67.86 68.37 69.73 69.66 69.10 68.47 68.51 68.09 67.96 68.02 68.02 67.91 69.03 69.55 70.76 71.52 71.13 71.11 71.27 71.27 70.27 69.40 70.28 69.91 69.92 68.12 65.90 65.61 65.63 62.97 60.51 61.47 62.46 64.67
63.95 64.37 65.10 65.30 66.12 67.57 67.76 68.50 67.46 68.10 67.91 68.88 69.44 69.65 69.08 68.56 67.91 67.82 67.84 67.89 68.23 69.07 69.71 70.59 71.46 71.47 71.82 70.55 71.20 70.28 71.28 70.06 69.61 69.25 69.62 66.68 66.08 65.59 64.58 63.12 63.07 61.76 61.51
63.74 64.52 65.16 65.95 66.42 67.62 68.26 68.24 67.72 67.85 68.51 68.26 69.05 69.14 69.79 69.19 68.89 68.57 67.88 68.20 68.41 68.74 69.06 71.42 71.10 71.54 71.18 71.71 71.19 70.30 70.43 70.10 68.64 69.86 69.49 68.61 67.30 66.32 67.06 67.60 65.18 64.00 60.72
63.85 64.06 64.93 66.03 66.93 67.87 69.06 69.02 68.80 67.73 69.02 68.60 69.03 69.09 69.68 69.88 69.43 69.14 68.76 68.49 67.64 67.10 69.31 70.52 70.97 70.79 70.99 71.92 71.16 70.52 70.09 70.01 69.35 70.52 69.03 69.29 69.23 68.80 69.33 68.63 68.34 67.01 64.11
64.04 64.35 65.09 66.07 67.14 68.13 68.84 69.09 69.22 68.77 68.69 68.88 68.98 68.92 69.44 69.63 69.25 68.74 68.93 68.76 67.60 66.59 66.77 67.53 70.02 69.47 70.85 71.29 70.54 70.70 70.31 69.68 70.10 70.05 69.07 68.94 69.61 69.46 69.76 69.67 69.40 68.41 67.22
63.77 64.65 65.65 66.39 66.93 66.84 67.79 69.09 69.69 69.36 69.85 69.86 69.54 69.48 69.67 69.72 68.75 68.35 68.34 68.13 66.46 65.65 66.14 67.96 69.21 68.94 70.44 69.74 70.15 70.42 71.46 70.50 69.58 69.35 69.33 69.23 70.69 68.58 69.07 69.37 68.53 68.15 68.25
64.01 64.22 65.10 66.05 66.31 66.71 67.72 68.79 70.27 69.82 70.13 70.42 70.34 69.86 69.39 69.73 68.70 68.20 68.37 68.31 67.91 66.39 67.39 69.24 68.61 68.37 70.17 70.92 70.84 70.39 70.52 70.81 70.41 70.53 69.92 69.70 69.45 68.54 68.24 68.47 68.51 68.25 69.85
62.61 62.77 63.39 64.99 66.89 67.95 68.93 69.54 70.24 70.58 70.42 70.78 70.58 69.83 69.85 69.77 69.90 69.18 68.98 68.65 67.73 67.15 66.72 68.85 69.45 69.97 70.25 69.03 69.45 70.51 71.30 71.28 70.95 70.99 71.09 70.63 69.73 68.84 68.88 68.91 68.87 69.05 68.27
63.19 64.25 62.87 65.44 66.56 67.57 68.79 70.23 70.24 70.21 70.60 70.23 70.25 70.27 70.62 70.49 70.27 69.61 69.50 69.68 68.51 67.81 68.40 69.71 68.99 67.64 67.42 66.88 66.11 67.71 69.73 70.58 69.90 70.26 70.26 69.19 69.17 67.96 67.71 69.35 68.78 68.09 67.01
62.15 63.91 64.76 65.61 66.26 67.08 67.77 68.69 68.56 69.05 69.40 69.60 70.20 70.62 69.46 70.16 70.12 70.25 70.18 70.66 69.83 69.92 69.15 69.04 66.79 63.97 62.92 59.75 63.83 64.11 67.17 68.48 69.46 68.83 66.70 66.36 68.00 66.68 65.96 65.89 66.81 68.00 67.35
60.71 62.08 63.50 64.83 64.77 64.95 65.70 65.97 66.38 67.71 68.00 68.32 68.90 69.49 69.56 68.63 69.35 69.89 70.48 69.87 69.54 69.38 67.53 65.18 63.05 61.38 59.59 57.89 58.71 61.85 64.32 66.92 68.14 68.32 65.02 61.25 60.74 63.14 66.01 62.96 60.95 60.81 61.73
59.03 60.19 61.34 63.56 64.22 65.04 65.83 66.47 66.13 66.25 67.37 67.62 68.50 68.63 68.70 68.27 68.79 68.92 68.95 69.11 69.38 69.20 67.39 64.52 62.32 59.62 59.15 56.44 57.46 60.68 63.74 64.91 63.29 63.94 61.42 59.18 60.51 61.07 64.70 61.19 56.83 56.22 56.69
56.94 58.29 59.55 60.32 61.79 63.66 66.03 66.60 66.57 66.24 67.01 67.30 67.73 68.18 68.57 67.84 67.62 67.48 67.42 67.66 68.47 68.97 66.76 64.25 60.74 60.26 58.61 55.99 56.56 63.50 63.42 60.60 59.26 59.49 60.36 60.96 60.16 58.23 59.15 58.39 53.36 56.15 56.86
56.12 56.08 57.02 58.25 59.17 60.52 63.96 67.19 66.64 67.68 66.62 67.19 67.37 68.05 67.80 67.12 66.78 66.80 67.12 66.30 66.10 63.56 61.85 59.09 58.06 56.83 57.25 55.74 56.60 62.21 61.17 58.23 56.68 56.92 57.05 57.08 56.11 56.43 55.06 52.81 54.15 55.32 53.83
54.93 56.04 56.28 56.18 57.11 59.76 62.45 61.67 62.84 62.66 63.86 68.07 68.07 67.34 67.30 67.10 66.73 66.46 65.94 63.00 60.22 57.86 56.05 54.00 52.33 51.53 52.22 52.34 54.47 57.42 58.98 56.85 54.92 53.96 53.32 53.58 53.54 52.51 52.59 53.66 55.94 54.77 54.30
53.98 54.74 55.00 55.34 56.48 58.85 59.83 59.60 59.09 60.81 62.75 63.50 63.16 65.92 66.10 66.60 65.89 64.27 62.25 60.44 57.91 54.88 52.40 50.22 49.97 50.44 50.90 52.02 52.21 54.58 57.21 58.40 55.45 54.35 54.19 53.59 51.38 50.05 50.78 52.42 52.54 53.49 53.85
52.76 53.56 53.54 54.03 54.93 56.70 58.48 57.61 57.99 59.33 57.61 58.63 58.13 56.56 55.96 57.45 59.96 62.43 61.45 60.58 60.23 57.47 54.44 52.61 50.49 50.59 51.72 50.77 51.60 51.94 53.08 54.15 52.72 54.15 54.22 50.44 49.18 49.45 50.72 51.94 51.44 51.70 50.45
51.76 52.31 52.41 51.35 52.15 53.69 55.16 56.52 58.30 58.90 56.72 55.54 55.68 56.00 56.66 55.32 55.06 54.03 54.01 55.50 55.62 58.88 58.25 55.80 53.04 50.77 48.56 48.61 49.28 49.77 49.67 51.14 51.83 53.60 52.59 51.67 50.95 50.72 49.76 49.56 49.36 48.28 47.51
51.18 51.06 50.84 49.95 50.70 51.71 52.45 54.61 55.80 56.89 56.50 54.55 53.17 52.48 52.27 50.86 48.33 46.56 48.01 49.34 44.79 46.86 52.16 52.04 54.18 52.09 49.86 46.04 43.83 45.48 46.79 46.46 45.43 48.21 48.33 46.70 45.82 45.69 45.43 45.38 46.02 46.28 46.19
50.58 49.31 48.06 48.56 49.39 49.03 49.30 50.21 52.24 54.16 55.53 54.89 53.71 52.32 51.51 49.27 48.18 48.00 46.34 43.03 43.11 42.21 41.21 41.71 45.89 45.04 44.26 41.75 40.40 39.70 40.09 41.09 42.72 47.65 47.37 46.08 45.29 45.11 44.29 44.18 44.67 45.13 45.20

GFSMW_sfc_wetblb_120.txt.gz
Wetbulb
64.99 66.17 67.10 67.59 67.45 67.39 66.97 67.22 67.01 68.20 69.41 69.25 68.24 68.60 68.67 69.93 70.34 71.16 72.55 73.04 73.08 73.70 71.55 66.91 70.32 72.85 73.11 73.21 74.27 73.39 72.56 71.61 70.86 70.30 68.18 68.30 68.89 69.55 70.51 70.79 70.69 70.97 71.17
62.06 64.85 66.26 66.96 66.92 66.65 66.84 66.65 66.74 67.68 69.34 69.61 69.15 69.05 69.45 70.42 71.02 72.22 72.75 73.48 72.64 73.50 72.80 70.99 71.78 72.28 72.37 73.34 73.46 72.93 71.68 70.29 69.60 70.82 66.47 65.89 67.97 68.47 68.75 70.25 70.55 70.42 70.25
62.01 64.31 65.45 66.20 66.46 66.34 66.34 66.60 66.09 67.86 68.90 69.76 69.51 70.16 70.85 70.93 70.77 71.50 71.87 72.92 73.61 73.56 73.78 72.44 71.82 72.01 72.21 72.93 73.42 73.18 72.49 69.94 69.43 69.52 70.36 66.27 65.20 65.72 68.49 68.19 69.06 69.99 70.40
63.58 64.81 65.36 65.38 65.91 66.73 67.22 67.05 66.49 67.83 68.75 70.48 69.61 69.54 68.76 68.34 69.59 70.25 71.38 72.33 73.41 73.39 73.79 73.43 72.97 73.15 72.78 73.48 74.34 73.54 73.09 72.10 69.74 69.97 69.13 68.63 68.32 66.47 66.45 67.94 68.80 69.07 68.93
63.51 64.33 65.30 66.08 66.70 67.41 67.36 67.37 67.25 67.50 69.32 70.17 70.03 69.05 68.70 69.31 69.98 70.13 70.86 72.10 72.49 73.69 74.08 73.51 73.50 73.28 73.38 73.32 73.53 73.71 73.59 72.82 71.32 70.65 69.39 67.92 67.08 65.91 65.65 63.50 64.73 67.35 69.05
63.19 64.93 66.00 66.67 66.47 67.57 67.89 68.02 67.23 67.53 69.64 70.03 69.60 69.11 68.98 68.74 69.34 69.54 69.78 70.38 71.18 72.00 73.31 73.71 73.36 73.40 72.90 73.40 73.38 73.37 73.46 73.07 72.93 71.85 70.39 69.47 68.62 67.32 64.49 63.77 64.07 64.07 67.69
62.79 63.57 64.04 65.17 65.59 66.36 67.50 67.81 67.26 67.13 69.13 69.59 69.52 69.44 69.45 69.32 69.51 69.35 69.43 69.73 69.84 70.96 71.79 73.26 73.09 72.71 73.03 73.45 73.72 73.30 72.56 72.68 72.74 72.58 70.03 69.52 69.33 68.71 66.18 64.94 65.70 66.78 68.27
63.09 63.54 64.14 64.99 65.42 66.53 67.45 68.08 67.24 67.21 68.75 69.31 69.46 69.82 69.92 69.81 69.67 69.60 69.72 69.93 70.15 70.91 71.87 72.19 73.08 73.32 73.67 72.98 73.54 72.78 72.96 72.78 72.59 72.10 72.34 70.42 69.53 69.26 68.09 67.70 68.11 67.84 66.62
62.85 63.48 64.16 64.86 65.38 66.50 67.16 68.03 67.60 67.86 68.51 68.71 69.59 69.66 69.81 69.73 69.35 69.42 69.77 69.71 70.13 70.13 71.21 71.85 72.84 73.05 73.37 73.55 73.14 72.39 72.37 72.80 72.26 71.64 72.30 72.25 69.82 69.07 70.22 69.87 69.27 69.12 66.61
62.68 63.78 64.46 64.93 65.64 67.30 67.87 68.30 68.31 67.84 68.77 68.51 69.41 69.72 70.15 70.33 70.45 70.30 69.53 69.26 69.76 69.99 70.60 71.26 72.32 72.52 72.90 73.50 73.32 73.12 73.01 72.32 71.71 72.25 72.22 72.45 71.91 71.96 71.60 71.41 71.11 69.99 68.12
62.74 63.92 64.69 65.49 66.12 67.52 67.95 67.89 67.94 67.85 68.10 68.72 69.18 69.47 69.65 70.39 70.75 70.31 70.38 70.10 69.99 68.78 69.02 70.26 71.10 71.42 71.93 73.27 73.29 73.11 72.92 71.98 72.38 72.52 72.21 71.76 72.01 71.80 72.20 72.39 72.22 71.12 69.65
63.55 64.37 64.57 65.16 65.77 66.99 67.72 68.18 68.49 68.43 68.51 69.22 69.25 69.35 69.68 70.29 69.93 69.76 69.99 70.24 69.62 69.02 68.67 68.59 69.65 71.13 71.41 72.88 72.31 72.48 73.62 72.10 71.82 71.71 71.94 71.95 71.52 71.91 72.42 71.70 72.23 71.26 71.54
63.85 64.65 64.63 64.91 65.69 66.53 67.59 68.31 69.04 68.98 69.23 69.25 69.35 69.48 69.52 69.89 70.01 69.74 69.94 69.99 69.52 68.74 67.97 68.29 69.72 70.77 70.99 72.22 71.82 71.97 72.51 72.59 72.64 72.38 72.18 72.06 72.14 72.35 71.50 71.27 71.65 71.20 72.61
63.76 63.33 64.30 65.07 66.22 66.79 67.11 67.98 68.98 69.93 69.70 69.89 69.76 69.69 69.99 70.38 70.39 70.38 70.08 70.07 69.99 69.45 68.32 69.36 70.76 70.41 70.67 72.24 72.04 71.98 72.29 72.54 72.87 72.82 72.86 72.97 72.58 72.18 72.31 71.60 72.23 71.66 71.22
63.44 63.20 63.51 64.54 66.09 66.87 67.12 68.04 68.94 70.38 70.18 69.87 70.14 70.10 70.70 71.20 71.23 70.93 70.48 70.56 69.87 69.78 69.61 69.09 71.09 70.94 70.20 68.77 68.68 70.10 71.16 70.82 71.49 72.31 72.49 71.74 71.63 68.81 70.08 72.69 72.24 71.64 70.57
62.43 64.77 65.03 66.05 66.32 67.06 67.73 69.09 69.75 69.69 70.66 69.79 70.01 70.48 70.42 70.79 70.93 70.79 70.77 70.91 70.89 69.90 69.61 70.65 70.50 68.06 65.65 61.68 64.37 66.29 69.14 70.34 71.02 71.45 70.98 69.65 68.53 67.75 65.98 66.78 67.25 70.82 71.07
60.07 62.57 64.45 65.04 65.56 65.58 66.24 66.14 66.39 68.54 68.72 68.25 68.92 69.67 70.50 70.18 69.84 70.49 70.43 70.36 70.41 69.58 70.18 68.83 66.51 64.18 63.52 59.03 60.74 62.36 66.65 68.44 69.92 70.78 69.07 66.05 64.40 65.67 66.27 62.41 61.52 61.69 61.91
57.91 58.84 59.74 61.32 64.36 65.94 65.76 66.40 66.38 66.76 67.91 67.91 68.27 68.83 68.99 69.01 69.10 69.74 69.24 69.26 70.19 68.02 68.11 66.59 65.10 63.21 62.11 57.92 57.96 60.52 64.52 67.17 66.85 68.31 66.33 64.27 64.33 64.90 65.81 62.45 60.56 61.16 62.19
56.63 57.07 58.15 59.48 60.70 61.81 64.92 66.26 66.33 66.31 66.69 66.89 67.82 68.27 68.72 68.33 68.27 68.13 67.95 68.83 68.92 68.72 67.59 66.10 63.81 62.91 61.30 57.79 58.65 63.36 64.35 61.79 62.22 62.78 63.03 64.19 63.33 59.16 60.33 63.46 60.57 60.39 59.57
55.95 56.21 57.25 58.55 58.84 59.94 62.41 66.28 66.10 66.28 66.30 66.91 67.57 68.20 68.61 68.09 67.95 67.21 67.32 66.93 67.45 66.57 64.78 62.20 61.97 60.32 60.78 56.17 56.71 62.06 63.21 60.48 59.00 58.84 57.97 57.49 58.71 55.52 55.92 58.96 59.24 59.34 58.43
55.06 56.53 56.95 56.51 57.13 59.80 62.48 63.43 63.90 63.09 64.61 66.47 67.68 67.79 67.72 67.95 67.93 67.05 66.18 64.55 63.13 60.77 59.74 57.99 57.23 55.13 55.21 56.99 55.97 59.25 61.70 60.18 57.68 56.57 55.48 55.26 53.67 52.19 52.56 53.94 60.50 58.66 57.42
53.78 54.33 55.28 55.49 56.79 58.43 59.68 59.16 58.76 59.60 62.44 62.57 63.00 65.05 66.66 67.00 66.28 64.45 62.22 60.55 60.37 57.31 56.61 56.39 55.14 53.35 54.07 53.28 56.25 57.27 56.86 57.64 56.45 54.97 54.99 54.76 50.75 49.93 51.11 53.86 52.45 52.29 54.39
52.63 53.45 53.00 53.80 54.47 56.35 57.81 56.95 57.98 58.42 58.06 58.36 58.06 57.15 57.15 57.85 60.79 62.66 61.05 58.94 57.71 55.87 53.89 53.74 50.84 51.27 52.75 52.55 51.75 52.73 54.00 54.60 54.93 55.64 53.45 50.47 48.91 49.64 51.19 52.17 52.50 53.10 52.49
51.76 52.54 52.21 51.87 51.71 53.13 55.05 56.67 57.73 57.03 56.47 55.69 54.80 54.82 55.71 54.84 54.64 54.03 54.60 55.72 58.46 58.74 57.59 55.79 54.69 53.12 52.00 50.76 51.47 51.53 53.17 52.79 54.40 54.19 53.77 52.35 50.99 50.36 50.86 51.94 51.46 50.25 49.83
50.99 51.35 50.72 50.19 50.08 51.43 51.92 53.79 56.43 56.91 55.40 54.85 53.97 53.34 53.96 51.82 50.16 48.01 49.20 49.87 45.58 48.46 54.18 54.88 55.41 52.11 50.24 45.26 43.16 45.61 47.80 48.34 48.31 51.10 51.05 50.23 50.14 49.65 49.92 50.30 50.60 50.35 50.06
50.32 49.69 49.54 50.28 50.51 50.34 50.57 50.58 52.62 55.91 55.03 52.89 51.92 51.84 51.16 49.95 50.47 50.46 47.52 46.46 46.01 46.65 43.66 43.83 47.91 45.97 44.22 41.71 40.51 39.51 40.07 41.25 43.24 51.73 50.62 49.17 49.31 49.13 49.12 49.25 48.76 48.46 47.50